<?xml version="1.0" encoding="UTF-8" standalone="no" ?>
<gpx xmlns="http://www.topografix.com/GPX/1/1" xmlns:xsi="http://www.w3.org/2001/XMLSchema-instance" xsi:schemaLocation="http://www.topografix.com/GPX/1/1 http://www.topografix.com/GPX/1/1/gpx.xsd" version="1.1" creator="VisuGPX - https://www.visugpx.com">
  <metadata>
    <name>Artigues - Refuge de Bastan (Néouvielle)</name>
    <desc><![CDATA[Artigues - Refuge de Bastan (Néouvielle)]]></desc>
  </metadata>
  <trk>
    <name><![CDATA[Artigues - Refuge de Bastan (J1)]]></name>
    <trkseg>
      <trkpt lat="42.92975" lon="0.20369">
        <ele>1152</ele>
        <time>2015-08-16T08:42:22Z</time>
      </trkpt>
      <trkpt lat="42.92973" lon="0.20368">
        <ele>1152</ele>
        <time>2015-08-16T08:42:27Z</time>
      </trkpt>
      <trkpt lat="42.92968" lon="0.20366">
        <ele>1151</ele>
        <time>2015-08-16T08:42:33Z</time>
      </trkpt>
      <trkpt lat="42.92965" lon="0.20364">
        <ele>1151</ele>
        <time>2015-08-16T08:42:38Z</time>
      </trkpt>
      <trkpt lat="42.92963" lon="0.2036">
        <ele>1151</ele>
        <time>2015-08-16T08:42:43Z</time>
      </trkpt>
      <trkpt lat="42.9296" lon="0.20354">
        <ele>1151</ele>
        <time>2015-08-16T08:42:49Z</time>
      </trkpt>
      <trkpt lat="42.92956" lon="0.20349">
        <ele>1151</ele>
        <time>2015-08-16T08:42:54Z</time>
      </trkpt>
      <trkpt lat="42.92951" lon="0.20344">
        <ele>1151</ele>
        <time>2015-08-16T08:43:00Z</time>
      </trkpt>
      <trkpt lat="42.92946" lon="0.20339">
        <ele>1151</ele>
        <time>2015-08-16T08:43:06Z</time>
      </trkpt>
      <trkpt lat="42.92941" lon="0.20334">
        <ele>1151</ele>
        <time>2015-08-16T08:43:12Z</time>
      </trkpt>
      <trkpt lat="42.92934" lon="0.20331">
        <ele>1151</ele>
        <time>2015-08-16T08:43:17Z</time>
      </trkpt>
      <trkpt lat="42.92928" lon="0.20325">
        <ele>1151</ele>
        <time>2015-08-16T08:43:23Z</time>
      </trkpt>
      <trkpt lat="42.92921" lon="0.2032">
        <ele>1151</ele>
        <time>2015-08-16T08:43:29Z</time>
      </trkpt>
      <trkpt lat="42.92915" lon="0.20315">
        <ele>1151</ele>
        <time>2015-08-16T08:43:35Z</time>
      </trkpt>
      <trkpt lat="42.92908" lon="0.20312">
        <ele>1151</ele>
        <time>2015-08-16T08:43:41Z</time>
      </trkpt>
      <trkpt lat="42.92901" lon="0.20309">
        <ele>1151</ele>
        <time>2015-08-16T08:43:47Z</time>
      </trkpt>
      <trkpt lat="42.92894" lon="0.20309">
        <ele>1151</ele>
        <time>2015-08-16T08:43:53Z</time>
      </trkpt>
      <trkpt lat="42.92887" lon="0.2031">
        <ele>1152</ele>
        <time>2015-08-16T08:43:59Z</time>
      </trkpt>
      <trkpt lat="42.92883" lon="0.20314">
        <ele>1151</ele>
        <time>2015-08-16T08:44:04Z</time>
      </trkpt>
      <trkpt lat="42.92877" lon="0.2032">
        <ele>1151</ele>
        <time>2015-08-16T08:44:09Z</time>
      </trkpt>
      <trkpt lat="42.9287" lon="0.20328">
        <ele>1151</ele>
        <time>2015-08-16T08:44:15Z</time>
      </trkpt>
      <trkpt lat="42.92865" lon="0.20335">
        <ele>1151</ele>
        <time>2015-08-16T08:44:20Z</time>
      </trkpt>
      <trkpt lat="42.9286" lon="0.20342">
        <ele>1151</ele>
        <time>2015-08-16T08:44:25Z</time>
      </trkpt>
      <trkpt lat="42.92856" lon="0.20349">
        <ele>1151</ele>
        <time>2015-08-16T08:44:30Z</time>
      </trkpt>
      <trkpt lat="42.92852" lon="0.20356">
        <ele>1151</ele>
        <time>2015-08-16T08:44:35Z</time>
      </trkpt>
      <trkpt lat="42.92848" lon="0.20363">
        <ele>1151</ele>
        <time>2015-08-16T08:44:41Z</time>
      </trkpt>
      <trkpt lat="42.92846" lon="0.20368">
        <ele>1151</ele>
        <time>2015-08-16T08:44:46Z</time>
      </trkpt>
      <trkpt lat="42.92843" lon="0.20374">
        <ele>1151</ele>
        <time>2015-08-16T08:44:51Z</time>
      </trkpt>
      <trkpt lat="42.9284" lon="0.20381">
        <ele>1151</ele>
        <time>2015-08-16T08:44:56Z</time>
      </trkpt>
      <trkpt lat="42.92837" lon="0.2039">
        <ele>1150</ele>
        <time>2015-08-16T08:45:02Z</time>
      </trkpt>
      <trkpt lat="42.92835" lon="0.20397">
        <ele>1150</ele>
        <time>2015-08-16T08:45:07Z</time>
      </trkpt>
      <trkpt lat="42.92832" lon="0.20402">
        <ele>1150</ele>
        <time>2015-08-16T08:45:12Z</time>
      </trkpt>
      <trkpt lat="42.92831" lon="0.20404">
        <ele>1150</ele>
        <time>2015-08-16T08:45:18Z</time>
      </trkpt>
      <trkpt lat="42.92827" lon="0.20409">
        <ele>1150</ele>
        <time>2015-08-16T08:45:23Z</time>
      </trkpt>
      <trkpt lat="42.92824" lon="0.20413">
        <ele>1149</ele>
        <time>2015-08-16T08:45:28Z</time>
      </trkpt>
      <trkpt lat="42.92823" lon="0.20419">
        <ele>1150</ele>
        <time>2015-08-16T08:45:34Z</time>
      </trkpt>
      <trkpt lat="42.92819" lon="0.20419">
        <ele>1150</ele>
        <time>2015-08-16T08:45:40Z</time>
      </trkpt>
      <trkpt lat="42.92816" lon="0.2042">
        <ele>1149</ele>
        <time>2015-08-16T08:45:45Z</time>
      </trkpt>
      <trkpt lat="42.92815" lon="0.20422">
        <ele>1149</ele>
        <time>2015-08-16T08:45:51Z</time>
      </trkpt>
      <trkpt lat="42.92814" lon="0.20425">
        <ele>1150</ele>
        <time>2015-08-16T08:45:57Z</time>
      </trkpt>
      <trkpt lat="42.92814" lon="0.20425">
        <ele>1150</ele>
        <time>2015-08-16T08:46:03Z</time>
      </trkpt>
      <trkpt lat="42.92816" lon="0.20426">
        <ele>1150</ele>
        <time>2015-08-16T08:46:08Z</time>
      </trkpt>
      <trkpt lat="42.92818" lon="0.20427">
        <ele>1150</ele>
        <time>2015-08-16T08:46:14Z</time>
      </trkpt>
      <trkpt lat="42.92818" lon="0.20428">
        <ele>1150</ele>
        <time>2015-08-16T08:46:19Z</time>
      </trkpt>
      <trkpt lat="42.92818" lon="0.20428">
        <ele>1149</ele>
        <time>2015-08-16T08:46:24Z</time>
      </trkpt>
      <trkpt lat="42.92814" lon="0.20428">
        <ele>1150</ele>
        <time>2015-08-16T08:46:30Z</time>
      </trkpt>
      <trkpt lat="42.92812" lon="0.20427">
        <ele>1151</ele>
        <time>2015-08-16T08:46:36Z</time>
      </trkpt>
      <trkpt lat="42.92812" lon="0.20427">
        <ele>1151</ele>
        <time>2015-08-16T08:46:41Z</time>
      </trkpt>
      <trkpt lat="42.92812" lon="0.20426">
        <ele>1150</ele>
        <time>2015-08-16T08:46:47Z</time>
      </trkpt>
      <trkpt lat="42.92813" lon="0.20426">
        <ele>1151</ele>
        <time>2015-08-16T08:46:54Z</time>
      </trkpt>
      <trkpt lat="42.92813" lon="0.20426">
        <ele>1150</ele>
        <time>2015-08-16T08:47:01Z</time>
      </trkpt>
      <trkpt lat="42.92815" lon="0.20427">
        <ele>1150</ele>
        <time>2015-08-16T08:47:07Z</time>
      </trkpt>
      <trkpt lat="42.92815" lon="0.20427">
        <ele>1150</ele>
        <time>2015-08-16T08:47:13Z</time>
      </trkpt>
      <trkpt lat="42.92815" lon="0.20429">
        <ele>1150</ele>
        <time>2015-08-16T08:47:19Z</time>
      </trkpt>
      <trkpt lat="42.92815" lon="0.2043">
        <ele>1150</ele>
        <time>2015-08-16T08:47:25Z</time>
      </trkpt>
      <trkpt lat="42.92816" lon="0.20432">
        <ele>1150</ele>
        <time>2015-08-16T08:47:31Z</time>
      </trkpt>
      <trkpt lat="42.92816" lon="0.20433">
        <ele>1150</ele>
        <time>2015-08-16T08:47:36Z</time>
      </trkpt>
      <trkpt lat="42.92815" lon="0.20434">
        <ele>1150</ele>
        <time>2015-08-16T08:47:42Z</time>
      </trkpt>
      <trkpt lat="42.92815" lon="0.20435">
        <ele>1150</ele>
        <time>2015-08-16T08:47:47Z</time>
      </trkpt>
      <trkpt lat="42.92812" lon="0.20435">
        <ele>1150</ele>
        <time>2015-08-16T08:47:53Z</time>
      </trkpt>
      <trkpt lat="42.9281" lon="0.20435">
        <ele>1149</ele>
        <time>2015-08-16T08:47:58Z</time>
      </trkpt>
      <trkpt lat="42.92807" lon="0.20435">
        <ele>1149</ele>
        <time>2015-08-16T08:48:03Z</time>
      </trkpt>
      <trkpt lat="42.92802" lon="0.20435">
        <ele>1149</ele>
        <time>2015-08-16T08:48:08Z</time>
      </trkpt>
      <trkpt lat="42.928" lon="0.20435">
        <ele>1150</ele>
        <time>2015-08-16T08:48:14Z</time>
      </trkpt>
      <trkpt lat="42.92801" lon="0.20435">
        <ele>1150</ele>
        <time>2015-08-16T08:48:19Z</time>
      </trkpt>
      <trkpt lat="42.92803" lon="0.20436">
        <ele>1150</ele>
        <time>2015-08-16T08:48:25Z</time>
      </trkpt>
      <trkpt lat="42.92805" lon="0.20437">
        <ele>1149</ele>
        <time>2015-08-16T08:48:31Z</time>
      </trkpt>
      <trkpt lat="42.92806" lon="0.20437">
        <ele>1150</ele>
        <time>2015-08-16T08:48:36Z</time>
      </trkpt>
      <trkpt lat="42.92807" lon="0.20437">
        <ele>1149</ele>
        <time>2015-08-16T08:48:43Z</time>
      </trkpt>
      <trkpt lat="42.92805" lon="0.20437">
        <ele>1149</ele>
        <time>2015-08-16T08:48:48Z</time>
      </trkpt>
      <trkpt lat="42.92804" lon="0.20437">
        <ele>1149</ele>
        <time>2015-08-16T08:48:53Z</time>
      </trkpt>
      <trkpt lat="42.92805" lon="0.20438">
        <ele>1149</ele>
        <time>2015-08-16T08:48:59Z</time>
      </trkpt>
      <trkpt lat="42.92808" lon="0.20439">
        <ele>1149</ele>
        <time>2015-08-16T08:49:04Z</time>
      </trkpt>
      <trkpt lat="42.9281" lon="0.2044">
        <ele>1149</ele>
        <time>2015-08-16T08:49:09Z</time>
      </trkpt>
      <trkpt lat="42.92812" lon="0.2044">
        <ele>1150</ele>
        <time>2015-08-16T08:49:15Z</time>
      </trkpt>
      <trkpt lat="42.92811" lon="0.2044">
        <ele>1149</ele>
        <time>2015-08-16T08:49:20Z</time>
      </trkpt>
      <trkpt lat="42.92811" lon="0.2044">
        <ele>1149</ele>
        <time>2015-08-16T08:49:25Z</time>
      </trkpt>
      <trkpt lat="42.92811" lon="0.2044">
        <ele>1149</ele>
        <time>2015-08-16T08:49:31Z</time>
      </trkpt>
      <trkpt lat="42.92813" lon="0.2044">
        <ele>1149</ele>
        <time>2015-08-16T08:49:38Z</time>
      </trkpt>
      <trkpt lat="42.92816" lon="0.20441">
        <ele>1149</ele>
        <time>2015-08-16T08:49:44Z</time>
      </trkpt>
      <trkpt lat="42.92821" lon="0.20442">
        <ele>1149</ele>
        <time>2015-08-16T08:49:50Z</time>
      </trkpt>
      <trkpt lat="42.92826" lon="0.20443">
        <ele>1149</ele>
        <time>2015-08-16T08:49:55Z</time>
      </trkpt>
      <trkpt lat="42.92829" lon="0.20444">
        <ele>1149</ele>
        <time>2015-08-16T08:50:01Z</time>
      </trkpt>
      <trkpt lat="42.92829" lon="0.20445">
        <ele>1149</ele>
        <time>2015-08-16T08:50:06Z</time>
      </trkpt>
      <trkpt lat="42.92827" lon="0.20445">
        <ele>1149</ele>
        <time>2015-08-16T08:50:11Z</time>
      </trkpt>
      <trkpt lat="42.92827" lon="0.20445">
        <ele>1149</ele>
        <time>2015-08-16T08:50:17Z</time>
      </trkpt>
      <trkpt lat="42.92826" lon="0.20446">
        <ele>1149</ele>
        <time>2015-08-16T08:50:22Z</time>
      </trkpt>
      <trkpt lat="42.92827" lon="0.20446">
        <ele>1149</ele>
        <time>2015-08-16T08:50:28Z</time>
      </trkpt>
      <trkpt lat="42.92827" lon="0.20447">
        <ele>1150</ele>
        <time>2015-08-16T08:50:33Z</time>
      </trkpt>
      <trkpt lat="42.92824" lon="0.20447">
        <ele>1150</ele>
        <time>2015-08-16T08:50:38Z</time>
      </trkpt>
      <trkpt lat="42.9282" lon="0.20445">
        <ele>1146</ele>
        <time>2015-08-16T08:50:44Z</time>
      </trkpt>
      <trkpt lat="42.92818" lon="0.20444">
        <ele>1141</ele>
        <time>2015-08-16T08:50:49Z</time>
      </trkpt>
      <trkpt lat="42.92815" lon="0.20443">
        <ele>1142</ele>
        <time>2015-08-16T08:50:54Z</time>
      </trkpt>
      <trkpt lat="42.92813" lon="0.20442">
        <ele>1143</ele>
        <time>2015-08-16T08:50:59Z</time>
      </trkpt>
      <trkpt lat="42.92811" lon="0.20441">
        <ele>1145</ele>
        <time>2015-08-16T08:51:04Z</time>
      </trkpt>
      <trkpt lat="42.9281" lon="0.2044">
        <ele>1146</ele>
        <time>2015-08-16T08:51:09Z</time>
      </trkpt>
      <trkpt lat="42.92809" lon="0.20439">
        <ele>1146</ele>
        <time>2015-08-16T08:51:14Z</time>
      </trkpt>
      <trkpt lat="42.92808" lon="0.20437">
        <ele>1147</ele>
        <time>2015-08-16T08:51:20Z</time>
      </trkpt>
      <trkpt lat="42.92807" lon="0.20437">
        <ele>1147</ele>
        <time>2015-08-16T08:51:25Z</time>
      </trkpt>
      <trkpt lat="42.92807" lon="0.20436">
        <ele>1147</ele>
        <time>2015-08-16T08:51:31Z</time>
      </trkpt>
      <trkpt lat="42.92807" lon="0.20435">
        <ele>1147</ele>
        <time>2015-08-16T08:51:37Z</time>
      </trkpt>
      <trkpt lat="42.92807" lon="0.20435">
        <ele>1148</ele>
        <time>2015-08-16T08:51:44Z</time>
      </trkpt>
      <trkpt lat="42.92807" lon="0.20435">
        <ele>1148</ele>
        <time>2015-08-16T08:51:55Z</time>
      </trkpt>
      <trkpt lat="42.92807" lon="0.20435">
        <ele>1148</ele>
        <time>2015-08-16T08:52:01Z</time>
      </trkpt>
      <trkpt lat="42.92807" lon="0.20434">
        <ele>1148</ele>
        <time>2015-08-16T08:52:14Z</time>
      </trkpt>
      <trkpt lat="42.92807" lon="0.20434">
        <ele>1149</ele>
        <time>2015-08-16T08:52:28Z</time>
      </trkpt>
      <trkpt lat="42.92808" lon="0.20434">
        <ele>1149</ele>
        <time>2015-08-16T08:52:35Z</time>
      </trkpt>
      <trkpt lat="42.92808" lon="0.20434">
        <ele>1149</ele>
        <time>2015-08-16T08:52:45Z</time>
      </trkpt>
      <trkpt lat="42.92808" lon="0.20434">
        <ele>1149</ele>
        <time>2015-08-16T08:52:52Z</time>
      </trkpt>
      <trkpt lat="42.92808" lon="0.20434">
        <ele>1149</ele>
        <time>2015-08-16T08:53:00Z</time>
      </trkpt>
      <trkpt lat="42.92808" lon="0.20433">
        <ele>1148</ele>
        <time>2015-08-16T08:53:06Z</time>
      </trkpt>
      <trkpt lat="42.92808" lon="0.20434">
        <ele>1149</ele>
        <time>2015-08-16T08:53:13Z</time>
      </trkpt>
      <trkpt lat="42.92805" lon="0.20432">
        <ele>1145</ele>
        <time>2015-08-16T08:53:18Z</time>
      </trkpt>
      <trkpt lat="42.92804" lon="0.20432">
        <ele>1140</ele>
        <time>2015-08-16T08:53:24Z</time>
      </trkpt>
      <trkpt lat="42.92799" lon="0.20431">
        <ele>1145</ele>
        <time>2015-08-16T08:53:30Z</time>
      </trkpt>
      <trkpt lat="42.92796" lon="0.20437">
        <ele>1148</ele>
        <time>2015-08-16T08:53:36Z</time>
      </trkpt>
      <trkpt lat="42.92796" lon="0.20439">
        <ele>1149</ele>
        <time>2015-08-16T08:53:42Z</time>
      </trkpt>
      <trkpt lat="42.92796" lon="0.20438">
        <ele>1149</ele>
        <time>2015-08-16T08:53:48Z</time>
      </trkpt>
      <trkpt lat="42.92795" lon="0.20437">
        <ele>1148</ele>
        <time>2015-08-16T08:53:53Z</time>
      </trkpt>
      <trkpt lat="42.92796" lon="0.20437">
        <ele>1149</ele>
        <time>2015-08-16T08:53:58Z</time>
      </trkpt>
      <trkpt lat="42.92792" lon="0.20439">
        <ele>1150</ele>
        <time>2015-08-16T08:54:04Z</time>
      </trkpt>
      <trkpt lat="42.92788" lon="0.20443">
        <ele>1150</ele>
        <time>2015-08-16T08:54:09Z</time>
      </trkpt>
      <trkpt lat="42.92784" lon="0.20445">
        <ele>1150</ele>
        <time>2015-08-16T08:54:15Z</time>
      </trkpt>
      <trkpt lat="42.92781" lon="0.20447">
        <ele>1150</ele>
        <time>2015-08-16T08:54:20Z</time>
      </trkpt>
      <trkpt lat="42.92778" lon="0.20452">
        <ele>1151</ele>
        <time>2015-08-16T08:54:25Z</time>
      </trkpt>
      <trkpt lat="42.92775" lon="0.20453">
        <ele>1152</ele>
        <time>2015-08-16T08:54:31Z</time>
      </trkpt>
      <trkpt lat="42.92772" lon="0.20457">
        <ele>1152</ele>
        <time>2015-08-16T08:54:36Z</time>
      </trkpt>
      <trkpt lat="42.92768" lon="0.20464">
        <ele>1153</ele>
        <time>2015-08-16T08:54:41Z</time>
      </trkpt>
      <trkpt lat="42.92764" lon="0.20476">
        <ele>1153</ele>
        <time>2015-08-16T08:54:47Z</time>
      </trkpt>
      <trkpt lat="42.92759" lon="0.20486">
        <ele>1155</ele>
        <time>2015-08-16T08:54:53Z</time>
      </trkpt>
      <trkpt lat="42.92757" lon="0.20486">
        <ele>1155</ele>
        <time>2015-08-16T08:54:58Z</time>
      </trkpt>
      <trkpt lat="42.92757" lon="0.20485">
        <ele>1156</ele>
        <time>2015-08-16T08:55:03Z</time>
      </trkpt>
      <trkpt lat="42.92756" lon="0.20485">
        <ele>1157</ele>
        <time>2015-08-16T08:55:09Z</time>
      </trkpt>
      <trkpt lat="42.92752" lon="0.20489">
        <ele>1158</ele>
        <time>2015-08-16T08:55:15Z</time>
      </trkpt>
      <trkpt lat="42.92746" lon="0.20494">
        <ele>1159</ele>
        <time>2015-08-16T08:55:21Z</time>
      </trkpt>
      <trkpt lat="42.9274" lon="0.20499">
        <ele>1159</ele>
        <time>2015-08-16T08:55:27Z</time>
      </trkpt>
      <trkpt lat="42.92734" lon="0.20503">
        <ele>1160</ele>
        <time>2015-08-16T08:55:33Z</time>
      </trkpt>
      <trkpt lat="42.92728" lon="0.20506">
        <ele>1160</ele>
        <time>2015-08-16T08:55:39Z</time>
      </trkpt>
      <trkpt lat="42.92722" lon="0.20508">
        <ele>1160</ele>
        <time>2015-08-16T08:55:44Z</time>
      </trkpt>
      <trkpt lat="42.92715" lon="0.20509">
        <ele>1160</ele>
        <time>2015-08-16T08:55:50Z</time>
      </trkpt>
      <trkpt lat="42.92708" lon="0.20511">
        <ele>1161</ele>
        <time>2015-08-16T08:55:56Z</time>
      </trkpt>
      <trkpt lat="42.92702" lon="0.20513">
        <ele>1161</ele>
        <time>2015-08-16T08:56:02Z</time>
      </trkpt>
      <trkpt lat="42.92696" lon="0.20514">
        <ele>1162</ele>
        <time>2015-08-16T08:56:07Z</time>
      </trkpt>
      <trkpt lat="42.92689" lon="0.20516">
        <ele>1162</ele>
        <time>2015-08-16T08:56:13Z</time>
      </trkpt>
      <trkpt lat="42.92683" lon="0.20517">
        <ele>1162</ele>
        <time>2015-08-16T08:56:18Z</time>
      </trkpt>
      <trkpt lat="42.92677" lon="0.20517">
        <ele>1163</ele>
        <time>2015-08-16T08:56:23Z</time>
      </trkpt>
      <trkpt lat="42.9267" lon="0.20517">
        <ele>1163</ele>
        <time>2015-08-16T08:56:29Z</time>
      </trkpt>
      <trkpt lat="42.92664" lon="0.20519">
        <ele>1164</ele>
        <time>2015-08-16T08:56:34Z</time>
      </trkpt>
      <trkpt lat="42.92659" lon="0.20519">
        <ele>1164</ele>
        <time>2015-08-16T08:56:40Z</time>
      </trkpt>
      <trkpt lat="42.92653" lon="0.20517">
        <ele>1165</ele>
        <time>2015-08-16T08:56:46Z</time>
      </trkpt>
      <trkpt lat="42.92649" lon="0.20513">
        <ele>1165</ele>
        <time>2015-08-16T08:56:52Z</time>
      </trkpt>
      <trkpt lat="42.92645" lon="0.20509">
        <ele>1165</ele>
        <time>2015-08-16T08:56:58Z</time>
      </trkpt>
      <trkpt lat="42.92642" lon="0.20507">
        <ele>1166</ele>
        <time>2015-08-16T08:57:03Z</time>
      </trkpt>
      <trkpt lat="42.92637" lon="0.20504">
        <ele>1166</ele>
        <time>2015-08-16T08:57:09Z</time>
      </trkpt>
      <trkpt lat="42.92632" lon="0.20504">
        <ele>1167</ele>
        <time>2015-08-16T08:57:14Z</time>
      </trkpt>
      <trkpt lat="42.92627" lon="0.20503">
        <ele>1168</ele>
        <time>2015-08-16T08:57:20Z</time>
      </trkpt>
      <trkpt lat="42.92622" lon="0.20503">
        <ele>1168</ele>
        <time>2015-08-16T08:57:25Z</time>
      </trkpt>
      <trkpt lat="42.92617" lon="0.20503">
        <ele>1169</ele>
        <time>2015-08-16T08:57:31Z</time>
      </trkpt>
      <trkpt lat="42.92612" lon="0.20501">
        <ele>1168</ele>
        <time>2015-08-16T08:57:37Z</time>
      </trkpt>
      <trkpt lat="42.92609" lon="0.205">
        <ele>1168</ele>
        <time>2015-08-16T08:57:42Z</time>
      </trkpt>
      <trkpt lat="42.92606" lon="0.20499">
        <ele>1169</ele>
        <time>2015-08-16T08:57:47Z</time>
      </trkpt>
      <trkpt lat="42.92605" lon="0.20499">
        <ele>1169</ele>
        <time>2015-08-16T08:57:53Z</time>
      </trkpt>
      <trkpt lat="42.92607" lon="0.205">
        <ele>1169</ele>
        <time>2015-08-16T08:57:58Z</time>
      </trkpt>
      <trkpt lat="42.92609" lon="0.20501">
        <ele>1169</ele>
        <time>2015-08-16T08:58:03Z</time>
      </trkpt>
      <trkpt lat="42.92611" lon="0.20501">
        <ele>1169</ele>
        <time>2015-08-16T08:58:09Z</time>
      </trkpt>
      <trkpt lat="42.92611" lon="0.20501">
        <ele>1169</ele>
        <time>2015-08-16T08:58:14Z</time>
      </trkpt>
      <trkpt lat="42.9261" lon="0.205">
        <ele>1170</ele>
        <time>2015-08-16T08:58:19Z</time>
      </trkpt>
      <trkpt lat="42.92608" lon="0.20501">
        <ele>1169</ele>
        <time>2015-08-16T08:58:25Z</time>
      </trkpt>
      <trkpt lat="42.92606" lon="0.20504">
        <ele>1170</ele>
        <time>2015-08-16T08:58:30Z</time>
      </trkpt>
      <trkpt lat="42.92605" lon="0.20507">
        <ele>1172</ele>
        <time>2015-08-16T08:58:35Z</time>
      </trkpt>
      <trkpt lat="42.92603" lon="0.20508">
        <ele>1173</ele>
        <time>2015-08-16T08:58:40Z</time>
      </trkpt>
      <trkpt lat="42.92602" lon="0.20506">
        <ele>1175</ele>
        <time>2015-08-16T08:58:46Z</time>
      </trkpt>
      <trkpt lat="42.92599" lon="0.20507">
        <ele>1176</ele>
        <time>2015-08-16T08:58:52Z</time>
      </trkpt>
      <trkpt lat="42.92597" lon="0.20508">
        <ele>1177</ele>
        <time>2015-08-16T08:58:58Z</time>
      </trkpt>
      <trkpt lat="42.92595" lon="0.2051">
        <ele>1179</ele>
        <time>2015-08-16T08:59:03Z</time>
      </trkpt>
      <trkpt lat="42.92593" lon="0.20512">
        <ele>1180</ele>
        <time>2015-08-16T08:59:08Z</time>
      </trkpt>
      <trkpt lat="42.9259" lon="0.20512">
        <ele>1182</ele>
        <time>2015-08-16T08:59:14Z</time>
      </trkpt>
      <trkpt lat="42.92589" lon="0.20514">
        <ele>1184</ele>
        <time>2015-08-16T08:59:20Z</time>
      </trkpt>
      <trkpt lat="42.92587" lon="0.20516">
        <ele>1185</ele>
        <time>2015-08-16T08:59:26Z</time>
      </trkpt>
      <trkpt lat="42.92584" lon="0.20519">
        <ele>1185</ele>
        <time>2015-08-16T08:59:32Z</time>
      </trkpt>
      <trkpt lat="42.92582" lon="0.20522">
        <ele>1187</ele>
        <time>2015-08-16T08:59:37Z</time>
      </trkpt>
      <trkpt lat="42.9258" lon="0.20528">
        <ele>1188</ele>
        <time>2015-08-16T08:59:42Z</time>
      </trkpt>
      <trkpt lat="42.92577" lon="0.20531">
        <ele>1189</ele>
        <time>2015-08-16T08:59:47Z</time>
      </trkpt>
      <trkpt lat="42.92576" lon="0.2053">
        <ele>1190</ele>
        <time>2015-08-16T08:59:53Z</time>
      </trkpt>
      <trkpt lat="42.92575" lon="0.20534">
        <ele>1191</ele>
        <time>2015-08-16T08:59:59Z</time>
      </trkpt>
      <trkpt lat="42.92572" lon="0.20534">
        <ele>1192</ele>
        <time>2015-08-16T09:00:05Z</time>
      </trkpt>
      <trkpt lat="42.9257" lon="0.20533">
        <ele>1194</ele>
        <time>2015-08-16T09:00:10Z</time>
      </trkpt>
      <trkpt lat="42.92567" lon="0.20532">
        <ele>1195</ele>
        <time>2015-08-16T09:00:15Z</time>
      </trkpt>
      <trkpt lat="42.92563" lon="0.20533">
        <ele>1195</ele>
        <time>2015-08-16T09:00:20Z</time>
      </trkpt>
      <trkpt lat="42.9256" lon="0.20533">
        <ele>1195</ele>
        <time>2015-08-16T09:00:25Z</time>
      </trkpt>
      <trkpt lat="42.92556" lon="0.20532">
        <ele>1194</ele>
        <time>2015-08-16T09:00:30Z</time>
      </trkpt>
      <trkpt lat="42.92553" lon="0.20533">
        <ele>1193</ele>
        <time>2015-08-16T09:00:35Z</time>
      </trkpt>
      <trkpt lat="42.92551" lon="0.20533">
        <ele>1193</ele>
        <time>2015-08-16T09:00:40Z</time>
      </trkpt>
      <trkpt lat="42.9255" lon="0.20532">
        <ele>1193</ele>
        <time>2015-08-16T09:00:46Z</time>
      </trkpt>
      <trkpt lat="42.92549" lon="0.20529">
        <ele>1192</ele>
        <time>2015-08-16T09:00:52Z</time>
      </trkpt>
      <trkpt lat="42.9255" lon="0.20529">
        <ele>1192</ele>
        <time>2015-08-16T09:00:58Z</time>
      </trkpt>
      <trkpt lat="42.92551" lon="0.2053">
        <ele>1192</ele>
        <time>2015-08-16T09:01:03Z</time>
      </trkpt>
      <trkpt lat="42.92552" lon="0.20531">
        <ele>1192</ele>
        <time>2015-08-16T09:01:08Z</time>
      </trkpt>
      <trkpt lat="42.92553" lon="0.20527">
        <ele>1192</ele>
        <time>2015-08-16T09:01:14Z</time>
      </trkpt>
      <trkpt lat="42.92553" lon="0.20525">
        <ele>1192</ele>
        <time>2015-08-16T09:01:19Z</time>
      </trkpt>
      <trkpt lat="42.92554" lon="0.20525">
        <ele>1192</ele>
        <time>2015-08-16T09:01:24Z</time>
      </trkpt>
      <trkpt lat="42.92554" lon="0.20523">
        <ele>1192</ele>
        <time>2015-08-16T09:01:29Z</time>
      </trkpt>
      <trkpt lat="42.92552" lon="0.20519">
        <ele>1193</ele>
        <time>2015-08-16T09:01:35Z</time>
      </trkpt>
      <trkpt lat="42.92552" lon="0.20517">
        <ele>1193</ele>
        <time>2015-08-16T09:01:40Z</time>
      </trkpt>
      <trkpt lat="42.9255" lon="0.20516">
        <ele>1193</ele>
        <time>2015-08-16T09:01:46Z</time>
      </trkpt>
      <trkpt lat="42.92546" lon="0.20514">
        <ele>1193</ele>
        <time>2015-08-16T09:01:51Z</time>
      </trkpt>
      <trkpt lat="42.92544" lon="0.20512">
        <ele>1193</ele>
        <time>2015-08-16T09:01:56Z</time>
      </trkpt>
      <trkpt lat="42.92543" lon="0.20514">
        <ele>1193</ele>
        <time>2015-08-16T09:02:01Z</time>
      </trkpt>
      <trkpt lat="42.92543" lon="0.20515">
        <ele>1192</ele>
        <time>2015-08-16T09:02:06Z</time>
      </trkpt>
      <trkpt lat="42.92542" lon="0.20516">
        <ele>1192</ele>
        <time>2015-08-16T09:02:11Z</time>
      </trkpt>
      <trkpt lat="42.92541" lon="0.20515">
        <ele>1193</ele>
        <time>2015-08-16T09:02:17Z</time>
      </trkpt>
      <trkpt lat="42.9254" lon="0.20514">
        <ele>1193</ele>
        <time>2015-08-16T09:02:22Z</time>
      </trkpt>
      <trkpt lat="42.9254" lon="0.20513">
        <ele>1193</ele>
        <time>2015-08-16T09:02:28Z</time>
      </trkpt>
      <trkpt lat="42.92541" lon="0.2051">
        <ele>1193</ele>
        <time>2015-08-16T09:02:33Z</time>
      </trkpt>
      <trkpt lat="42.92542" lon="0.20509">
        <ele>1193</ele>
        <time>2015-08-16T09:02:38Z</time>
      </trkpt>
      <trkpt lat="42.92542" lon="0.20509">
        <ele>1193</ele>
        <time>2015-08-16T09:02:44Z</time>
      </trkpt>
      <trkpt lat="42.92541" lon="0.2051">
        <ele>1193</ele>
        <time>2015-08-16T09:02:50Z</time>
      </trkpt>
      <trkpt lat="42.92542" lon="0.2051">
        <ele>1193</ele>
        <time>2015-08-16T09:02:55Z</time>
      </trkpt>
      <trkpt lat="42.92542" lon="0.2051">
        <ele>1193</ele>
        <time>2015-08-16T09:03:01Z</time>
      </trkpt>
      <trkpt lat="42.92543" lon="0.20512">
        <ele>1193</ele>
        <time>2015-08-16T09:03:06Z</time>
      </trkpt>
      <trkpt lat="42.92542" lon="0.20517">
        <ele>1193</ele>
        <time>2015-08-16T09:03:11Z</time>
      </trkpt>
      <trkpt lat="42.92541" lon="0.20517">
        <ele>1194</ele>
        <time>2015-08-16T09:03:16Z</time>
      </trkpt>
      <trkpt lat="42.92539" lon="0.20515">
        <ele>1195</ele>
        <time>2015-08-16T09:03:22Z</time>
      </trkpt>
      <trkpt lat="42.92537" lon="0.20512">
        <ele>1197</ele>
        <time>2015-08-16T09:03:28Z</time>
      </trkpt>
      <trkpt lat="42.92535" lon="0.2051">
        <ele>1197</ele>
        <time>2015-08-16T09:03:33Z</time>
      </trkpt>
      <trkpt lat="42.92535" lon="0.20508">
        <ele>1198</ele>
        <time>2015-08-16T09:03:39Z</time>
      </trkpt>
      <trkpt lat="42.92534" lon="0.20508">
        <ele>1199</ele>
        <time>2015-08-16T09:03:44Z</time>
      </trkpt>
      <trkpt lat="42.92531" lon="0.20509">
        <ele>1200</ele>
        <time>2015-08-16T09:03:49Z</time>
      </trkpt>
      <trkpt lat="42.92527" lon="0.20509">
        <ele>1202</ele>
        <time>2015-08-16T09:03:55Z</time>
      </trkpt>
      <trkpt lat="42.92524" lon="0.2051">
        <ele>1203</ele>
        <time>2015-08-16T09:04:00Z</time>
      </trkpt>
      <trkpt lat="42.92522" lon="0.20509">
        <ele>1204</ele>
        <time>2015-08-16T09:04:06Z</time>
      </trkpt>
      <trkpt lat="42.9252" lon="0.20509">
        <ele>1205</ele>
        <time>2015-08-16T09:04:12Z</time>
      </trkpt>
      <trkpt lat="42.92516" lon="0.20513">
        <ele>1206</ele>
        <time>2015-08-16T09:04:18Z</time>
      </trkpt>
      <trkpt lat="42.92513" lon="0.20517">
        <ele>1208</ele>
        <time>2015-08-16T09:04:24Z</time>
      </trkpt>
      <trkpt lat="42.92511" lon="0.20524">
        <ele>1209</ele>
        <time>2015-08-16T09:04:30Z</time>
      </trkpt>
      <trkpt lat="42.92507" lon="0.20528">
        <ele>1210</ele>
        <time>2015-08-16T09:04:36Z</time>
      </trkpt>
      <trkpt lat="42.92506" lon="0.2053">
        <ele>1211</ele>
        <time>2015-08-16T09:04:42Z</time>
      </trkpt>
      <trkpt lat="42.92505" lon="0.20532">
        <ele>1213</ele>
        <time>2015-08-16T09:04:48Z</time>
      </trkpt>
      <trkpt lat="42.92504" lon="0.20534">
        <ele>1214</ele>
        <time>2015-08-16T09:04:53Z</time>
      </trkpt>
      <trkpt lat="42.92502" lon="0.20534">
        <ele>1215</ele>
        <time>2015-08-16T09:05:00Z</time>
      </trkpt>
      <trkpt lat="42.92503" lon="0.20532">
        <ele>1216</ele>
        <time>2015-08-16T09:05:06Z</time>
      </trkpt>
      <trkpt lat="42.92502" lon="0.20535">
        <ele>1217</ele>
        <time>2015-08-16T09:05:12Z</time>
      </trkpt>
      <trkpt lat="42.925" lon="0.2054">
        <ele>1218</ele>
        <time>2015-08-16T09:05:17Z</time>
      </trkpt>
      <trkpt lat="42.92498" lon="0.20545">
        <ele>1219</ele>
        <time>2015-08-16T09:05:22Z</time>
      </trkpt>
      <trkpt lat="42.92495" lon="0.20551">
        <ele>1220</ele>
        <time>2015-08-16T09:05:28Z</time>
      </trkpt>
      <trkpt lat="42.92493" lon="0.20556">
        <ele>1221</ele>
        <time>2015-08-16T09:05:34Z</time>
      </trkpt>
      <trkpt lat="42.92493" lon="0.20562">
        <ele>1223</ele>
        <time>2015-08-16T09:05:40Z</time>
      </trkpt>
      <trkpt lat="42.92494" lon="0.20566">
        <ele>1224</ele>
        <time>2015-08-16T09:05:46Z</time>
      </trkpt>
      <trkpt lat="42.92492" lon="0.20567">
        <ele>1225</ele>
        <time>2015-08-16T09:05:51Z</time>
      </trkpt>
      <trkpt lat="42.9249" lon="0.20563">
        <ele>1225</ele>
        <time>2015-08-16T09:05:56Z</time>
      </trkpt>
      <trkpt lat="42.92489" lon="0.20561">
        <ele>1226</ele>
        <time>2015-08-16T09:06:01Z</time>
      </trkpt>
      <trkpt lat="42.92488" lon="0.20559">
        <ele>1226</ele>
        <time>2015-08-16T09:06:07Z</time>
      </trkpt>
      <trkpt lat="42.92485" lon="0.20555">
        <ele>1227</ele>
        <time>2015-08-16T09:06:12Z</time>
      </trkpt>
      <trkpt lat="42.92482" lon="0.20554">
        <ele>1228</ele>
        <time>2015-08-16T09:06:18Z</time>
      </trkpt>
      <trkpt lat="42.92481" lon="0.20551">
        <ele>1229</ele>
        <time>2015-08-16T09:06:24Z</time>
      </trkpt>
      <trkpt lat="42.92479" lon="0.20553">
        <ele>1230</ele>
        <time>2015-08-16T09:06:30Z</time>
      </trkpt>
      <trkpt lat="42.92477" lon="0.20559">
        <ele>1231</ele>
        <time>2015-08-16T09:06:36Z</time>
      </trkpt>
      <trkpt lat="42.92474" lon="0.20564">
        <ele>1232</ele>
        <time>2015-08-16T09:06:42Z</time>
      </trkpt>
      <trkpt lat="42.92471" lon="0.20569">
        <ele>1233</ele>
        <time>2015-08-16T09:06:47Z</time>
      </trkpt>
      <trkpt lat="42.92466" lon="0.20572">
        <ele>1234</ele>
        <time>2015-08-16T09:06:53Z</time>
      </trkpt>
      <trkpt lat="42.92462" lon="0.20576">
        <ele>1235</ele>
        <time>2015-08-16T09:06:59Z</time>
      </trkpt>
      <trkpt lat="42.9246" lon="0.2058">
        <ele>1236</ele>
        <time>2015-08-16T09:07:04Z</time>
      </trkpt>
      <trkpt lat="42.92458" lon="0.20582">
        <ele>1237</ele>
        <time>2015-08-16T09:07:09Z</time>
      </trkpt>
      <trkpt lat="42.92456" lon="0.20584">
        <ele>1238</ele>
        <time>2015-08-16T09:07:15Z</time>
      </trkpt>
      <trkpt lat="42.92453" lon="0.20588">
        <ele>1239</ele>
        <time>2015-08-16T09:07:21Z</time>
      </trkpt>
      <trkpt lat="42.92453" lon="0.20593">
        <ele>1240</ele>
        <time>2015-08-16T09:07:27Z</time>
      </trkpt>
      <trkpt lat="42.92453" lon="0.20596">
        <ele>1241</ele>
        <time>2015-08-16T09:07:32Z</time>
      </trkpt>
      <trkpt lat="42.9245" lon="0.20598">
        <ele>1242</ele>
        <time>2015-08-16T09:07:37Z</time>
      </trkpt>
      <trkpt lat="42.92449" lon="0.206">
        <ele>1243</ele>
        <time>2015-08-16T09:07:42Z</time>
      </trkpt>
      <trkpt lat="42.92449" lon="0.20603">
        <ele>1244</ele>
        <time>2015-08-16T09:07:48Z</time>
      </trkpt>
      <trkpt lat="42.92448" lon="0.20605">
        <ele>1245</ele>
        <time>2015-08-16T09:07:53Z</time>
      </trkpt>
      <trkpt lat="42.92446" lon="0.20609">
        <ele>1246</ele>
        <time>2015-08-16T09:07:59Z</time>
      </trkpt>
      <trkpt lat="42.92445" lon="0.20613">
        <ele>1246</ele>
        <time>2015-08-16T09:08:04Z</time>
      </trkpt>
      <trkpt lat="42.92443" lon="0.20618">
        <ele>1247</ele>
        <time>2015-08-16T09:08:10Z</time>
      </trkpt>
      <trkpt lat="42.9244" lon="0.20622">
        <ele>1249</ele>
        <time>2015-08-16T09:08:16Z</time>
      </trkpt>
      <trkpt lat="42.92437" lon="0.20626">
        <ele>1250</ele>
        <time>2015-08-16T09:08:21Z</time>
      </trkpt>
      <trkpt lat="42.92434" lon="0.20628">
        <ele>1251</ele>
        <time>2015-08-16T09:08:27Z</time>
      </trkpt>
      <trkpt lat="42.92431" lon="0.20631">
        <ele>1252</ele>
        <time>2015-08-16T09:08:32Z</time>
      </trkpt>
      <trkpt lat="42.92429" lon="0.20634">
        <ele>1253</ele>
        <time>2015-08-16T09:08:38Z</time>
      </trkpt>
      <trkpt lat="42.92426" lon="0.20636">
        <ele>1253</ele>
        <time>2015-08-16T09:08:43Z</time>
      </trkpt>
      <trkpt lat="42.92423" lon="0.20637">
        <ele>1254</ele>
        <time>2015-08-16T09:08:48Z</time>
      </trkpt>
      <trkpt lat="42.92421" lon="0.2064">
        <ele>1256</ele>
        <time>2015-08-16T09:08:53Z</time>
      </trkpt>
      <trkpt lat="42.92419" lon="0.20644">
        <ele>1256</ele>
        <time>2015-08-16T09:08:59Z</time>
      </trkpt>
      <trkpt lat="42.92416" lon="0.20645">
        <ele>1258</ele>
        <time>2015-08-16T09:09:04Z</time>
      </trkpt>
      <trkpt lat="42.92414" lon="0.20644">
        <ele>1258</ele>
        <time>2015-08-16T09:09:09Z</time>
      </trkpt>
      <trkpt lat="42.92411" lon="0.20649">
        <ele>1258</ele>
        <time>2015-08-16T09:09:15Z</time>
      </trkpt>
      <trkpt lat="42.9241" lon="0.20657">
        <ele>1259</ele>
        <time>2015-08-16T09:09:20Z</time>
      </trkpt>
      <trkpt lat="42.92408" lon="0.20669">
        <ele>1260</ele>
        <time>2015-08-16T09:09:26Z</time>
      </trkpt>
      <trkpt lat="42.92407" lon="0.20682">
        <ele>1261</ele>
        <time>2015-08-16T09:09:32Z</time>
      </trkpt>
      <trkpt lat="42.92406" lon="0.20691">
        <ele>1262</ele>
        <time>2015-08-16T09:09:37Z</time>
      </trkpt>
      <trkpt lat="42.92405" lon="0.20701">
        <ele>1263</ele>
        <time>2015-08-16T09:09:43Z</time>
      </trkpt>
      <trkpt lat="42.92403" lon="0.20708">
        <ele>1264</ele>
        <time>2015-08-16T09:09:48Z</time>
      </trkpt>
      <trkpt lat="42.92401" lon="0.20714">
        <ele>1265</ele>
        <time>2015-08-16T09:09:53Z</time>
      </trkpt>
      <trkpt lat="42.92399" lon="0.20721">
        <ele>1266</ele>
        <time>2015-08-16T09:09:59Z</time>
      </trkpt>
      <trkpt lat="42.92397" lon="0.20726">
        <ele>1267</ele>
        <time>2015-08-16T09:10:04Z</time>
      </trkpt>
      <trkpt lat="42.92395" lon="0.2073">
        <ele>1267</ele>
        <time>2015-08-16T09:10:09Z</time>
      </trkpt>
      <trkpt lat="42.92393" lon="0.20733">
        <ele>1268</ele>
        <time>2015-08-16T09:10:14Z</time>
      </trkpt>
      <trkpt lat="42.92393" lon="0.20737">
        <ele>1269</ele>
        <time>2015-08-16T09:10:19Z</time>
      </trkpt>
      <trkpt lat="42.9239" lon="0.20741">
        <ele>1270</ele>
        <time>2015-08-16T09:10:25Z</time>
      </trkpt>
      <trkpt lat="42.92389" lon="0.20742">
        <ele>1271</ele>
        <time>2015-08-16T09:10:31Z</time>
      </trkpt>
      <trkpt lat="42.92389" lon="0.20738">
        <ele>1271</ele>
        <time>2015-08-16T09:10:36Z</time>
      </trkpt>
      <trkpt lat="42.92389" lon="0.20732">
        <ele>1271</ele>
        <time>2015-08-16T09:10:41Z</time>
      </trkpt>
      <trkpt lat="42.92389" lon="0.20728">
        <ele>1271</ele>
        <time>2015-08-16T09:10:47Z</time>
      </trkpt>
      <trkpt lat="42.92387" lon="0.2073">
        <ele>1272</ele>
        <time>2015-08-16T09:10:53Z</time>
      </trkpt>
      <trkpt lat="42.92385" lon="0.20734">
        <ele>1273</ele>
        <time>2015-08-16T09:10:59Z</time>
      </trkpt>
      <trkpt lat="42.92384" lon="0.20741">
        <ele>1274</ele>
        <time>2015-08-16T09:11:04Z</time>
      </trkpt>
      <trkpt lat="42.92383" lon="0.20747">
        <ele>1275</ele>
        <time>2015-08-16T09:11:09Z</time>
      </trkpt>
      <trkpt lat="42.92382" lon="0.20753">
        <ele>1276</ele>
        <time>2015-08-16T09:11:14Z</time>
      </trkpt>
      <trkpt lat="42.92381" lon="0.20762">
        <ele>1277</ele>
        <time>2015-08-16T09:11:20Z</time>
      </trkpt>
      <trkpt lat="42.92379" lon="0.2077">
        <ele>1279</ele>
        <time>2015-08-16T09:11:26Z</time>
      </trkpt>
      <trkpt lat="42.92376" lon="0.20776">
        <ele>1279</ele>
        <time>2015-08-16T09:11:31Z</time>
      </trkpt>
      <trkpt lat="42.92373" lon="0.20781">
        <ele>1281</ele>
        <time>2015-08-16T09:11:37Z</time>
      </trkpt>
      <trkpt lat="42.92371" lon="0.20788">
        <ele>1283</ele>
        <time>2015-08-16T09:11:43Z</time>
      </trkpt>
      <trkpt lat="42.92369" lon="0.20795">
        <ele>1284</ele>
        <time>2015-08-16T09:11:48Z</time>
      </trkpt>
      <trkpt lat="42.92367" lon="0.20801">
        <ele>1285</ele>
        <time>2015-08-16T09:11:54Z</time>
      </trkpt>
      <trkpt lat="42.92364" lon="0.20806">
        <ele>1286</ele>
        <time>2015-08-16T09:11:59Z</time>
      </trkpt>
      <trkpt lat="42.92361" lon="0.20812">
        <ele>1287</ele>
        <time>2015-08-16T09:12:05Z</time>
      </trkpt>
      <trkpt lat="42.92359" lon="0.20818">
        <ele>1288</ele>
        <time>2015-08-16T09:12:11Z</time>
      </trkpt>
      <trkpt lat="42.92358" lon="0.20823">
        <ele>1289</ele>
        <time>2015-08-16T09:12:16Z</time>
      </trkpt>
      <trkpt lat="42.92357" lon="0.20828">
        <ele>1290</ele>
        <time>2015-08-16T09:12:22Z</time>
      </trkpt>
      <trkpt lat="42.92357" lon="0.20829">
        <ele>1291</ele>
        <time>2015-08-16T09:12:27Z</time>
      </trkpt>
      <trkpt lat="42.92357" lon="0.20829">
        <ele>1291</ele>
        <time>2015-08-16T09:12:34Z</time>
      </trkpt>
      <trkpt lat="42.92358" lon="0.2083">
        <ele>1291</ele>
        <time>2015-08-16T09:12:39Z</time>
      </trkpt>
      <trkpt lat="42.92358" lon="0.20831">
        <ele>1291</ele>
        <time>2015-08-16T09:12:45Z</time>
      </trkpt>
      <trkpt lat="42.92357" lon="0.20832">
        <ele>1291</ele>
        <time>2015-08-16T09:12:51Z</time>
      </trkpt>
      <trkpt lat="42.92358" lon="0.20832">
        <ele>1292</ele>
        <time>2015-08-16T09:12:57Z</time>
      </trkpt>
      <trkpt lat="42.92357" lon="0.20832">
        <ele>1291</ele>
        <time>2015-08-16T09:13:04Z</time>
      </trkpt>
      <trkpt lat="42.92357" lon="0.20833">
        <ele>1291</ele>
        <time>2015-08-16T09:13:09Z</time>
      </trkpt>
      <trkpt lat="42.92356" lon="0.20833">
        <ele>1291</ele>
        <time>2015-08-16T09:13:14Z</time>
      </trkpt>
      <trkpt lat="42.92355" lon="0.20833">
        <ele>1292</ele>
        <time>2015-08-16T09:13:20Z</time>
      </trkpt>
      <trkpt lat="42.92355" lon="0.20831">
        <ele>1291</ele>
        <time>2015-08-16T09:13:25Z</time>
      </trkpt>
      <trkpt lat="42.92354" lon="0.2083">
        <ele>1292</ele>
        <time>2015-08-16T09:13:30Z</time>
      </trkpt>
      <trkpt lat="42.92353" lon="0.20829">
        <ele>1292</ele>
        <time>2015-08-16T09:13:35Z</time>
      </trkpt>
      <trkpt lat="42.92353" lon="0.20829">
        <ele>1292</ele>
        <time>2015-08-16T09:13:44Z</time>
      </trkpt>
      <trkpt lat="42.92353" lon="0.2083">
        <ele>1292</ele>
        <time>2015-08-16T09:13:49Z</time>
      </trkpt>
      <trkpt lat="42.92354" lon="0.20829">
        <ele>1292</ele>
        <time>2015-08-16T09:13:56Z</time>
      </trkpt>
      <trkpt lat="42.92354" lon="0.20829">
        <ele>1292</ele>
        <time>2015-08-16T09:14:02Z</time>
      </trkpt>
      <trkpt lat="42.92355" lon="0.20827">
        <ele>1292</ele>
        <time>2015-08-16T09:14:08Z</time>
      </trkpt>
      <trkpt lat="42.92355" lon="0.20827">
        <ele>1292</ele>
        <time>2015-08-16T09:14:13Z</time>
      </trkpt>
      <trkpt lat="42.92355" lon="0.20826">
        <ele>1292</ele>
        <time>2015-08-16T09:14:18Z</time>
      </trkpt>
      <trkpt lat="42.92355" lon="0.20825">
        <ele>1292</ele>
        <time>2015-08-16T09:14:23Z</time>
      </trkpt>
      <trkpt lat="42.92355" lon="0.20825">
        <ele>1292</ele>
        <time>2015-08-16T09:14:30Z</time>
      </trkpt>
      <trkpt lat="42.92355" lon="0.20826">
        <ele>1292</ele>
        <time>2015-08-16T09:14:37Z</time>
      </trkpt>
      <trkpt lat="42.92355" lon="0.20826">
        <ele>1292</ele>
        <time>2015-08-16T09:14:43Z</time>
      </trkpt>
      <trkpt lat="42.92355" lon="0.20827">
        <ele>1292</ele>
        <time>2015-08-16T09:14:49Z</time>
      </trkpt>
      <trkpt lat="42.92355" lon="0.20828">
        <ele>1292</ele>
        <time>2015-08-16T09:14:55Z</time>
      </trkpt>
      <trkpt lat="42.92355" lon="0.20829">
        <ele>1292</ele>
        <time>2015-08-16T09:15:01Z</time>
      </trkpt>
      <trkpt lat="42.92355" lon="0.2083">
        <ele>1293</ele>
        <time>2015-08-16T09:15:07Z</time>
      </trkpt>
      <trkpt lat="42.92356" lon="0.2083">
        <ele>1293</ele>
        <time>2015-08-16T09:15:12Z</time>
      </trkpt>
      <trkpt lat="42.92356" lon="0.20832">
        <ele>1292</ele>
        <time>2015-08-16T09:15:17Z</time>
      </trkpt>
      <trkpt lat="42.92356" lon="0.20832">
        <ele>1293</ele>
        <time>2015-08-16T09:15:26Z</time>
      </trkpt>
      <trkpt lat="42.92357" lon="0.20831">
        <ele>1293</ele>
        <time>2015-08-16T09:15:31Z</time>
      </trkpt>
      <trkpt lat="42.92357" lon="0.2083">
        <ele>1293</ele>
        <time>2015-08-16T09:15:36Z</time>
      </trkpt>
      <trkpt lat="42.92357" lon="0.20829">
        <ele>1293</ele>
        <time>2015-08-16T09:15:41Z</time>
      </trkpt>
      <trkpt lat="42.92357" lon="0.2083">
        <ele>1293</ele>
        <time>2015-08-16T09:15:46Z</time>
      </trkpt>
      <trkpt lat="42.92357" lon="0.20831">
        <ele>1293</ele>
        <time>2015-08-16T09:15:52Z</time>
      </trkpt>
      <trkpt lat="42.92357" lon="0.20832">
        <ele>1293</ele>
        <time>2015-08-16T09:15:57Z</time>
      </trkpt>
      <trkpt lat="42.92357" lon="0.20832">
        <ele>1293</ele>
        <time>2015-08-16T09:16:04Z</time>
      </trkpt>
      <trkpt lat="42.92358" lon="0.20833">
        <ele>1292</ele>
        <time>2015-08-16T09:16:10Z</time>
      </trkpt>
      <trkpt lat="42.92358" lon="0.20833">
        <ele>1292</ele>
        <time>2015-08-16T09:16:15Z</time>
      </trkpt>
      <trkpt lat="42.9236" lon="0.20833">
        <ele>1292</ele>
        <time>2015-08-16T09:16:20Z</time>
      </trkpt>
      <trkpt lat="42.92363" lon="0.20833">
        <ele>1292</ele>
        <time>2015-08-16T09:16:26Z</time>
      </trkpt>
      <trkpt lat="42.92364" lon="0.20833">
        <ele>1292</ele>
        <time>2015-08-16T09:16:31Z</time>
      </trkpt>
      <trkpt lat="42.92365" lon="0.20832">
        <ele>1292</ele>
        <time>2015-08-16T09:16:36Z</time>
      </trkpt>
      <trkpt lat="42.92365" lon="0.20833">
        <ele>1292</ele>
        <time>2015-08-16T09:16:42Z</time>
      </trkpt>
      <trkpt lat="42.92364" lon="0.20833">
        <ele>1292</ele>
        <time>2015-08-16T09:16:48Z</time>
      </trkpt>
      <trkpt lat="42.92363" lon="0.20834">
        <ele>1292</ele>
        <time>2015-08-16T09:16:53Z</time>
      </trkpt>
      <trkpt lat="42.92363" lon="0.20835">
        <ele>1293</ele>
        <time>2015-08-16T09:16:58Z</time>
      </trkpt>
      <trkpt lat="42.9236" lon="0.20836">
        <ele>1292</ele>
        <time>2015-08-16T09:17:04Z</time>
      </trkpt>
      <trkpt lat="42.92358" lon="0.20831">
        <ele>1293</ele>
        <time>2015-08-16T09:17:10Z</time>
      </trkpt>
      <trkpt lat="42.92361" lon="0.20838">
        <ele>1293</ele>
        <time>2015-08-16T09:17:15Z</time>
      </trkpt>
      <trkpt lat="42.92367" lon="0.20839">
        <ele>1293</ele>
        <time>2015-08-16T09:17:27Z</time>
      </trkpt>
      <trkpt lat="42.92366" lon="0.20832">
        <ele>1293</ele>
        <time>2015-08-16T09:17:32Z</time>
      </trkpt>
      <trkpt lat="42.92363" lon="0.20821">
        <ele>1292</ele>
        <time>2015-08-16T09:17:38Z</time>
      </trkpt>
      <trkpt lat="42.92364" lon="0.20822">
        <ele>1292</ele>
        <time>2015-08-16T09:17:43Z</time>
      </trkpt>
      <trkpt lat="42.92367" lon="0.20825">
        <ele>1292</ele>
        <time>2015-08-16T09:17:49Z</time>
      </trkpt>
      <trkpt lat="42.92369" lon="0.20828">
        <ele>1293</ele>
        <time>2015-08-16T09:17:54Z</time>
      </trkpt>
      <trkpt lat="42.92371" lon="0.2083">
        <ele>1292</ele>
        <time>2015-08-16T09:18:00Z</time>
      </trkpt>
      <trkpt lat="42.92373" lon="0.20831">
        <ele>1292</ele>
        <time>2015-08-16T09:18:05Z</time>
      </trkpt>
      <trkpt lat="42.92373" lon="0.20832">
        <ele>1293</ele>
        <time>2015-08-16T09:18:10Z</time>
      </trkpt>
      <trkpt lat="42.92372" lon="0.20833">
        <ele>1293</ele>
        <time>2015-08-16T09:18:16Z</time>
      </trkpt>
      <trkpt lat="42.92368" lon="0.20838">
        <ele>1293</ele>
        <time>2015-08-16T09:18:21Z</time>
      </trkpt>
      <trkpt lat="42.92366" lon="0.20843">
        <ele>1294</ele>
        <time>2015-08-16T09:18:27Z</time>
      </trkpt>
      <trkpt lat="42.92362" lon="0.20846">
        <ele>1295</ele>
        <time>2015-08-16T09:18:32Z</time>
      </trkpt>
      <trkpt lat="42.92358" lon="0.20848">
        <ele>1296</ele>
        <time>2015-08-16T09:18:38Z</time>
      </trkpt>
      <trkpt lat="42.92354" lon="0.2085">
        <ele>1297</ele>
        <time>2015-08-16T09:18:43Z</time>
      </trkpt>
      <trkpt lat="42.92352" lon="0.20856">
        <ele>1298</ele>
        <time>2015-08-16T09:18:49Z</time>
      </trkpt>
      <trkpt lat="42.92349" lon="0.2086">
        <ele>1299</ele>
        <time>2015-08-16T09:18:54Z</time>
      </trkpt>
      <trkpt lat="42.92346" lon="0.20865">
        <ele>1299</ele>
        <time>2015-08-16T09:18:59Z</time>
      </trkpt>
      <trkpt lat="42.92343" lon="0.20871">
        <ele>1300</ele>
        <time>2015-08-16T09:19:05Z</time>
      </trkpt>
      <trkpt lat="42.9234" lon="0.20876">
        <ele>1302</ele>
        <time>2015-08-16T09:19:10Z</time>
      </trkpt>
      <trkpt lat="42.92337" lon="0.2088">
        <ele>1302</ele>
        <time>2015-08-16T09:19:15Z</time>
      </trkpt>
      <trkpt lat="42.92333" lon="0.20885">
        <ele>1303</ele>
        <time>2015-08-16T09:19:20Z</time>
      </trkpt>
      <trkpt lat="42.92331" lon="0.20888">
        <ele>1304</ele>
        <time>2015-08-16T09:19:25Z</time>
      </trkpt>
      <trkpt lat="42.92327" lon="0.2089">
        <ele>1305</ele>
        <time>2015-08-16T09:19:31Z</time>
      </trkpt>
      <trkpt lat="42.92325" lon="0.20891">
        <ele>1305</ele>
        <time>2015-08-16T09:19:36Z</time>
      </trkpt>
      <trkpt lat="42.92325" lon="0.20891">
        <ele>1306</ele>
        <time>2015-08-16T09:19:41Z</time>
      </trkpt>
      <trkpt lat="42.92323" lon="0.20892">
        <ele>1305</ele>
        <time>2015-08-16T09:19:47Z</time>
      </trkpt>
      <trkpt lat="42.92319" lon="0.20896">
        <ele>1305</ele>
        <time>2015-08-16T09:19:52Z</time>
      </trkpt>
      <trkpt lat="42.92316" lon="0.20902">
        <ele>1305</ele>
        <time>2015-08-16T09:19:58Z</time>
      </trkpt>
      <trkpt lat="42.92311" lon="0.20904">
        <ele>1306</ele>
        <time>2015-08-16T09:20:04Z</time>
      </trkpt>
      <trkpt lat="42.92305" lon="0.20908">
        <ele>1307</ele>
        <time>2015-08-16T09:20:10Z</time>
      </trkpt>
      <trkpt lat="42.92299" lon="0.20912">
        <ele>1307</ele>
        <time>2015-08-16T09:20:16Z</time>
      </trkpt>
      <trkpt lat="42.92294" lon="0.20917">
        <ele>1308</ele>
        <time>2015-08-16T09:20:22Z</time>
      </trkpt>
      <trkpt lat="42.9229" lon="0.2092">
        <ele>1309</ele>
        <time>2015-08-16T09:20:27Z</time>
      </trkpt>
      <trkpt lat="42.92285" lon="0.20924">
        <ele>1310</ele>
        <time>2015-08-16T09:20:33Z</time>
      </trkpt>
      <trkpt lat="42.92281" lon="0.20929">
        <ele>1310</ele>
        <time>2015-08-16T09:20:38Z</time>
      </trkpt>
      <trkpt lat="42.92276" lon="0.20933">
        <ele>1311</ele>
        <time>2015-08-16T09:20:44Z</time>
      </trkpt>
      <trkpt lat="42.92271" lon="0.20937">
        <ele>1312</ele>
        <time>2015-08-16T09:20:50Z</time>
      </trkpt>
      <trkpt lat="42.92266" lon="0.20941">
        <ele>1312</ele>
        <time>2015-08-16T09:20:55Z</time>
      </trkpt>
      <trkpt lat="42.92262" lon="0.20945">
        <ele>1313</ele>
        <time>2015-08-16T09:21:01Z</time>
      </trkpt>
      <trkpt lat="42.92257" lon="0.20948">
        <ele>1313</ele>
        <time>2015-08-16T09:21:07Z</time>
      </trkpt>
      <trkpt lat="42.92252" lon="0.20951">
        <ele>1313</ele>
        <time>2015-08-16T09:21:12Z</time>
      </trkpt>
      <trkpt lat="42.92248" lon="0.20955">
        <ele>1314</ele>
        <time>2015-08-16T09:21:18Z</time>
      </trkpt>
      <trkpt lat="42.92244" lon="0.20955">
        <ele>1314</ele>
        <time>2015-08-16T09:21:23Z</time>
      </trkpt>
      <trkpt lat="42.92239" lon="0.20956">
        <ele>1314</ele>
        <time>2015-08-16T09:21:29Z</time>
      </trkpt>
      <trkpt lat="42.92235" lon="0.20959">
        <ele>1315</ele>
        <time>2015-08-16T09:21:35Z</time>
      </trkpt>
      <trkpt lat="42.92232" lon="0.20962">
        <ele>1316</ele>
        <time>2015-08-16T09:21:41Z</time>
      </trkpt>
      <trkpt lat="42.92228" lon="0.20964">
        <ele>1316</ele>
        <time>2015-08-16T09:21:47Z</time>
      </trkpt>
      <trkpt lat="42.92224" lon="0.20966">
        <ele>1317</ele>
        <time>2015-08-16T09:21:52Z</time>
      </trkpt>
      <trkpt lat="42.92221" lon="0.2097">
        <ele>1318</ele>
        <time>2015-08-16T09:21:58Z</time>
      </trkpt>
      <trkpt lat="42.92217" lon="0.20974">
        <ele>1319</ele>
        <time>2015-08-16T09:22:04Z</time>
      </trkpt>
      <trkpt lat="42.92214" lon="0.20978">
        <ele>1320</ele>
        <time>2015-08-16T09:22:09Z</time>
      </trkpt>
      <trkpt lat="42.92209" lon="0.20982">
        <ele>1320</ele>
        <time>2015-08-16T09:22:15Z</time>
      </trkpt>
      <trkpt lat="42.92204" lon="0.20986">
        <ele>1320</ele>
        <time>2015-08-16T09:22:21Z</time>
      </trkpt>
      <trkpt lat="42.92199" lon="0.20991">
        <ele>1320</ele>
        <time>2015-08-16T09:22:27Z</time>
      </trkpt>
      <trkpt lat="42.92195" lon="0.2099">
        <ele>1320</ele>
        <time>2015-08-16T09:22:33Z</time>
      </trkpt>
      <trkpt lat="42.92191" lon="0.20991">
        <ele>1321</ele>
        <time>2015-08-16T09:22:39Z</time>
      </trkpt>
      <trkpt lat="42.92188" lon="0.20992">
        <ele>1322</ele>
        <time>2015-08-16T09:22:44Z</time>
      </trkpt>
      <trkpt lat="42.92184" lon="0.20996">
        <ele>1323</ele>
        <time>2015-08-16T09:22:49Z</time>
      </trkpt>
      <trkpt lat="42.92179" lon="0.21002">
        <ele>1323</ele>
        <time>2015-08-16T09:22:55Z</time>
      </trkpt>
      <trkpt lat="42.92174" lon="0.21008">
        <ele>1324</ele>
        <time>2015-08-16T09:23:01Z</time>
      </trkpt>
      <trkpt lat="42.92171" lon="0.21013">
        <ele>1324</ele>
        <time>2015-08-16T09:23:06Z</time>
      </trkpt>
      <trkpt lat="42.92167" lon="0.21018">
        <ele>1325</ele>
        <time>2015-08-16T09:23:12Z</time>
      </trkpt>
      <trkpt lat="42.92162" lon="0.21023">
        <ele>1325</ele>
        <time>2015-08-16T09:23:17Z</time>
      </trkpt>
      <trkpt lat="42.92158" lon="0.2103">
        <ele>1325</ele>
        <time>2015-08-16T09:23:23Z</time>
      </trkpt>
      <trkpt lat="42.92157" lon="0.21031">
        <ele>1325</ele>
        <time>2015-08-16T09:23:28Z</time>
      </trkpt>
      <trkpt lat="42.92155" lon="0.21033">
        <ele>1325</ele>
        <time>2015-08-16T09:23:34Z</time>
      </trkpt>
      <trkpt lat="42.92149" lon="0.21038">
        <ele>1325</ele>
        <time>2015-08-16T09:23:40Z</time>
      </trkpt>
      <trkpt lat="42.92144" lon="0.21043">
        <ele>1326</ele>
        <time>2015-08-16T09:23:45Z</time>
      </trkpt>
      <trkpt lat="42.92138" lon="0.21048">
        <ele>1326</ele>
        <time>2015-08-16T09:23:51Z</time>
      </trkpt>
      <trkpt lat="42.92134" lon="0.21055">
        <ele>1327</ele>
        <time>2015-08-16T09:23:57Z</time>
      </trkpt>
      <trkpt lat="42.92127" lon="0.21056">
        <ele>1327</ele>
        <time>2015-08-16T09:24:03Z</time>
      </trkpt>
      <trkpt lat="42.92122" lon="0.21061">
        <ele>1327</ele>
        <time>2015-08-16T09:24:09Z</time>
      </trkpt>
      <trkpt lat="42.92117" lon="0.21066">
        <ele>1327</ele>
        <time>2015-08-16T09:24:14Z</time>
      </trkpt>
      <trkpt lat="42.92111" lon="0.21069">
        <ele>1328</ele>
        <time>2015-08-16T09:24:20Z</time>
      </trkpt>
      <trkpt lat="42.92107" lon="0.21071">
        <ele>1329</ele>
        <time>2015-08-16T09:24:25Z</time>
      </trkpt>
      <trkpt lat="42.92101" lon="0.21075">
        <ele>1329</ele>
        <time>2015-08-16T09:24:30Z</time>
      </trkpt>
      <trkpt lat="42.92097" lon="0.21078">
        <ele>1330</ele>
        <time>2015-08-16T09:24:36Z</time>
      </trkpt>
      <trkpt lat="42.92097" lon="0.21082">
        <ele>1331</ele>
        <time>2015-08-16T09:24:41Z</time>
      </trkpt>
      <trkpt lat="42.92093" lon="0.21084">
        <ele>1332</ele>
        <time>2015-08-16T09:24:47Z</time>
      </trkpt>
      <trkpt lat="42.92088" lon="0.21084">
        <ele>1332</ele>
        <time>2015-08-16T09:24:52Z</time>
      </trkpt>
      <trkpt lat="42.92083" lon="0.21084">
        <ele>1332</ele>
        <time>2015-08-16T09:24:57Z</time>
      </trkpt>
      <trkpt lat="42.92079" lon="0.21086">
        <ele>1332</ele>
        <time>2015-08-16T09:25:02Z</time>
      </trkpt>
      <trkpt lat="42.92075" lon="0.21087">
        <ele>1333</ele>
        <time>2015-08-16T09:25:07Z</time>
      </trkpt>
      <trkpt lat="42.92071" lon="0.21089">
        <ele>1334</ele>
        <time>2015-08-16T09:25:12Z</time>
      </trkpt>
      <trkpt lat="42.92066" lon="0.21092">
        <ele>1335</ele>
        <time>2015-08-16T09:25:18Z</time>
      </trkpt>
      <trkpt lat="42.92061" lon="0.21096">
        <ele>1336</ele>
        <time>2015-08-16T09:25:24Z</time>
      </trkpt>
      <trkpt lat="42.92057" lon="0.211">
        <ele>1336</ele>
        <time>2015-08-16T09:25:29Z</time>
      </trkpt>
      <trkpt lat="42.92052" lon="0.21103">
        <ele>1337</ele>
        <time>2015-08-16T09:25:34Z</time>
      </trkpt>
      <trkpt lat="42.92048" lon="0.21108">
        <ele>1338</ele>
        <time>2015-08-16T09:25:39Z</time>
      </trkpt>
      <trkpt lat="42.92043" lon="0.21113">
        <ele>1338</ele>
        <time>2015-08-16T09:25:45Z</time>
      </trkpt>
      <trkpt lat="42.92039" lon="0.21116">
        <ele>1338</ele>
        <time>2015-08-16T09:25:50Z</time>
      </trkpt>
      <trkpt lat="42.92034" lon="0.2112">
        <ele>1339</ele>
        <time>2015-08-16T09:25:56Z</time>
      </trkpt>
      <trkpt lat="42.92028" lon="0.21123">
        <ele>1340</ele>
        <time>2015-08-16T09:26:02Z</time>
      </trkpt>
      <trkpt lat="42.92025" lon="0.21125">
        <ele>1341</ele>
        <time>2015-08-16T09:26:07Z</time>
      </trkpt>
      <trkpt lat="42.92022" lon="0.21128">
        <ele>1342</ele>
        <time>2015-08-16T09:26:12Z</time>
      </trkpt>
      <trkpt lat="42.92018" lon="0.2113">
        <ele>1342</ele>
        <time>2015-08-16T09:26:18Z</time>
      </trkpt>
      <trkpt lat="42.92015" lon="0.21133">
        <ele>1343</ele>
        <time>2015-08-16T09:26:23Z</time>
      </trkpt>
      <trkpt lat="42.92011" lon="0.21136">
        <ele>1343</ele>
        <time>2015-08-16T09:26:28Z</time>
      </trkpt>
      <trkpt lat="42.92006" lon="0.21139">
        <ele>1344</ele>
        <time>2015-08-16T09:26:34Z</time>
      </trkpt>
      <trkpt lat="42.92003" lon="0.21143">
        <ele>1344</ele>
        <time>2015-08-16T09:26:39Z</time>
      </trkpt>
      <trkpt lat="42.91999" lon="0.21147">
        <ele>1345</ele>
        <time>2015-08-16T09:26:45Z</time>
      </trkpt>
      <trkpt lat="42.91996" lon="0.21149">
        <ele>1345</ele>
        <time>2015-08-16T09:26:50Z</time>
      </trkpt>
      <trkpt lat="42.91993" lon="0.21153">
        <ele>1346</ele>
        <time>2015-08-16T09:26:55Z</time>
      </trkpt>
      <trkpt lat="42.91991" lon="0.21157">
        <ele>1346</ele>
        <time>2015-08-16T09:27:00Z</time>
      </trkpt>
      <trkpt lat="42.91986" lon="0.21161">
        <ele>1347</ele>
        <time>2015-08-16T09:27:06Z</time>
      </trkpt>
      <trkpt lat="42.91983" lon="0.21163">
        <ele>1348</ele>
        <time>2015-08-16T09:27:11Z</time>
      </trkpt>
      <trkpt lat="42.91978" lon="0.21165">
        <ele>1348</ele>
        <time>2015-08-16T09:27:17Z</time>
      </trkpt>
      <trkpt lat="42.91974" lon="0.2117">
        <ele>1349</ele>
        <time>2015-08-16T09:27:23Z</time>
      </trkpt>
      <trkpt lat="42.91969" lon="0.21171">
        <ele>1349</ele>
        <time>2015-08-16T09:27:28Z</time>
      </trkpt>
      <trkpt lat="42.91964" lon="0.21168">
        <ele>1349</ele>
        <time>2015-08-16T09:27:34Z</time>
      </trkpt>
      <trkpt lat="42.91961" lon="0.21169">
        <ele>1350</ele>
        <time>2015-08-16T09:27:39Z</time>
      </trkpt>
      <trkpt lat="42.91957" lon="0.21168">
        <ele>1352</ele>
        <time>2015-08-16T09:27:45Z</time>
      </trkpt>
      <trkpt lat="42.91953" lon="0.21166">
        <ele>1353</ele>
        <time>2015-08-16T09:27:50Z</time>
      </trkpt>
      <trkpt lat="42.9195" lon="0.21165">
        <ele>1353</ele>
        <time>2015-08-16T09:27:55Z</time>
      </trkpt>
      <trkpt lat="42.91945" lon="0.21165">
        <ele>1355</ele>
        <time>2015-08-16T09:28:01Z</time>
      </trkpt>
      <trkpt lat="42.91941" lon="0.21165">
        <ele>1355</ele>
        <time>2015-08-16T09:28:06Z</time>
      </trkpt>
      <trkpt lat="42.91937" lon="0.21166">
        <ele>1356</ele>
        <time>2015-08-16T09:28:11Z</time>
      </trkpt>
      <trkpt lat="42.91933" lon="0.21168">
        <ele>1357</ele>
        <time>2015-08-16T09:28:17Z</time>
      </trkpt>
      <trkpt lat="42.91929" lon="0.21169">
        <ele>1358</ele>
        <time>2015-08-16T09:28:22Z</time>
      </trkpt>
      <trkpt lat="42.91925" lon="0.21171">
        <ele>1360</ele>
        <time>2015-08-16T09:28:28Z</time>
      </trkpt>
      <trkpt lat="42.91922" lon="0.21172">
        <ele>1361</ele>
        <time>2015-08-16T09:28:34Z</time>
      </trkpt>
      <trkpt lat="42.91919" lon="0.21175">
        <ele>1361</ele>
        <time>2015-08-16T09:28:40Z</time>
      </trkpt>
      <trkpt lat="42.91916" lon="0.21178">
        <ele>1363</ele>
        <time>2015-08-16T09:28:46Z</time>
      </trkpt>
      <trkpt lat="42.91914" lon="0.21181">
        <ele>1364</ele>
        <time>2015-08-16T09:28:51Z</time>
      </trkpt>
      <trkpt lat="42.91913" lon="0.21185">
        <ele>1365</ele>
        <time>2015-08-16T09:28:57Z</time>
      </trkpt>
      <trkpt lat="42.91913" lon="0.21189">
        <ele>1367</ele>
        <time>2015-08-16T09:29:02Z</time>
      </trkpt>
      <trkpt lat="42.91912" lon="0.21194">
        <ele>1368</ele>
        <time>2015-08-16T09:29:07Z</time>
      </trkpt>
      <trkpt lat="42.91911" lon="0.21199">
        <ele>1369</ele>
        <time>2015-08-16T09:29:13Z</time>
      </trkpt>
      <trkpt lat="42.9191" lon="0.212">
        <ele>1370</ele>
        <time>2015-08-16T09:29:18Z</time>
      </trkpt>
      <trkpt lat="42.91908" lon="0.21202">
        <ele>1370</ele>
        <time>2015-08-16T09:29:23Z</time>
      </trkpt>
      <trkpt lat="42.91903" lon="0.21204">
        <ele>1371</ele>
        <time>2015-08-16T09:29:29Z</time>
      </trkpt>
      <trkpt lat="42.91899" lon="0.21205">
        <ele>1372</ele>
        <time>2015-08-16T09:29:34Z</time>
      </trkpt>
      <trkpt lat="42.91896" lon="0.21203">
        <ele>1373</ele>
        <time>2015-08-16T09:29:40Z</time>
      </trkpt>
      <trkpt lat="42.91892" lon="0.212">
        <ele>1375</ele>
        <time>2015-08-16T09:29:46Z</time>
      </trkpt>
      <trkpt lat="42.91889" lon="0.21198">
        <ele>1376</ele>
        <time>2015-08-16T09:29:51Z</time>
      </trkpt>
      <trkpt lat="42.91885" lon="0.21196">
        <ele>1376</ele>
        <time>2015-08-16T09:29:57Z</time>
      </trkpt>
      <trkpt lat="42.9188" lon="0.21194">
        <ele>1378</ele>
        <time>2015-08-16T09:30:03Z</time>
      </trkpt>
      <trkpt lat="42.91877" lon="0.21192">
        <ele>1379</ele>
        <time>2015-08-16T09:30:08Z</time>
      </trkpt>
      <trkpt lat="42.91874" lon="0.21191">
        <ele>1380</ele>
        <time>2015-08-16T09:30:14Z</time>
      </trkpt>
      <trkpt lat="42.91871" lon="0.21188">
        <ele>1381</ele>
        <time>2015-08-16T09:30:19Z</time>
      </trkpt>
      <trkpt lat="42.91868" lon="0.2119">
        <ele>1382</ele>
        <time>2015-08-16T09:30:25Z</time>
      </trkpt>
      <trkpt lat="42.91865" lon="0.21192">
        <ele>1383</ele>
        <time>2015-08-16T09:30:30Z</time>
      </trkpt>
      <trkpt lat="42.91862" lon="0.21196">
        <ele>1384</ele>
        <time>2015-08-16T09:30:35Z</time>
      </trkpt>
      <trkpt lat="42.91861" lon="0.21201">
        <ele>1386</ele>
        <time>2015-08-16T09:30:41Z</time>
      </trkpt>
      <trkpt lat="42.9186" lon="0.21207">
        <ele>1387</ele>
        <time>2015-08-16T09:30:47Z</time>
      </trkpt>
      <trkpt lat="42.91861" lon="0.21212">
        <ele>1388</ele>
        <time>2015-08-16T09:30:53Z</time>
      </trkpt>
      <trkpt lat="42.91861" lon="0.21214">
        <ele>1388</ele>
        <time>2015-08-16T09:30:58Z</time>
      </trkpt>
      <trkpt lat="42.91862" lon="0.21218">
        <ele>1389</ele>
        <time>2015-08-16T09:31:03Z</time>
      </trkpt>
      <trkpt lat="42.91863" lon="0.21224">
        <ele>1391</ele>
        <time>2015-08-16T09:31:09Z</time>
      </trkpt>
      <trkpt lat="42.91863" lon="0.21228">
        <ele>1392</ele>
        <time>2015-08-16T09:31:14Z</time>
      </trkpt>
      <trkpt lat="42.91861" lon="0.21234">
        <ele>1393</ele>
        <time>2015-08-16T09:31:20Z</time>
      </trkpt>
      <trkpt lat="42.91859" lon="0.21237">
        <ele>1394</ele>
        <time>2015-08-16T09:31:26Z</time>
      </trkpt>
      <trkpt lat="42.91857" lon="0.21241">
        <ele>1395</ele>
        <time>2015-08-16T09:31:32Z</time>
      </trkpt>
      <trkpt lat="42.91855" lon="0.21245">
        <ele>1396</ele>
        <time>2015-08-16T09:31:38Z</time>
      </trkpt>
      <trkpt lat="42.91853" lon="0.21249">
        <ele>1397</ele>
        <time>2015-08-16T09:31:43Z</time>
      </trkpt>
      <trkpt lat="42.91852" lon="0.21254">
        <ele>1398</ele>
        <time>2015-08-16T09:31:49Z</time>
      </trkpt>
      <trkpt lat="42.91852" lon="0.21257">
        <ele>1399</ele>
        <time>2015-08-16T09:31:54Z</time>
      </trkpt>
      <trkpt lat="42.91853" lon="0.2126">
        <ele>1400</ele>
        <time>2015-08-16T09:31:59Z</time>
      </trkpt>
      <trkpt lat="42.91853" lon="0.21262">
        <ele>1402</ele>
        <time>2015-08-16T09:32:05Z</time>
      </trkpt>
      <trkpt lat="42.91852" lon="0.21267">
        <ele>1403</ele>
        <time>2015-08-16T09:32:10Z</time>
      </trkpt>
      <trkpt lat="42.9185" lon="0.2127">
        <ele>1403</ele>
        <time>2015-08-16T09:32:15Z</time>
      </trkpt>
      <trkpt lat="42.91848" lon="0.21273">
        <ele>1404</ele>
        <time>2015-08-16T09:32:20Z</time>
      </trkpt>
      <trkpt lat="42.91846" lon="0.21276">
        <ele>1406</ele>
        <time>2015-08-16T09:32:26Z</time>
      </trkpt>
      <trkpt lat="42.91843" lon="0.2128">
        <ele>1406</ele>
        <time>2015-08-16T09:32:32Z</time>
      </trkpt>
      <trkpt lat="42.91842" lon="0.21286">
        <ele>1408</ele>
        <time>2015-08-16T09:32:38Z</time>
      </trkpt>
      <trkpt lat="42.91842" lon="0.21291">
        <ele>1409</ele>
        <time>2015-08-16T09:32:43Z</time>
      </trkpt>
      <trkpt lat="42.9184" lon="0.21295">
        <ele>1410</ele>
        <time>2015-08-16T09:32:49Z</time>
      </trkpt>
      <trkpt lat="42.91838" lon="0.21298">
        <ele>1411</ele>
        <time>2015-08-16T09:32:54Z</time>
      </trkpt>
      <trkpt lat="42.91836" lon="0.21303">
        <ele>1411</ele>
        <time>2015-08-16T09:33:00Z</time>
      </trkpt>
      <trkpt lat="42.91834" lon="0.21307">
        <ele>1412</ele>
        <time>2015-08-16T09:33:05Z</time>
      </trkpt>
      <trkpt lat="42.91833" lon="0.21311">
        <ele>1414</ele>
        <time>2015-08-16T09:33:10Z</time>
      </trkpt>
      <trkpt lat="42.91833" lon="0.21316">
        <ele>1414</ele>
        <time>2015-08-16T09:33:15Z</time>
      </trkpt>
      <trkpt lat="42.91832" lon="0.21322">
        <ele>1415</ele>
        <time>2015-08-16T09:33:21Z</time>
      </trkpt>
      <trkpt lat="42.91831" lon="0.21328">
        <ele>1416</ele>
        <time>2015-08-16T09:33:27Z</time>
      </trkpt>
      <trkpt lat="42.9183" lon="0.21334">
        <ele>1417</ele>
        <time>2015-08-16T09:33:33Z</time>
      </trkpt>
      <trkpt lat="42.91828" lon="0.21339">
        <ele>1418</ele>
        <time>2015-08-16T09:33:38Z</time>
      </trkpt>
      <trkpt lat="42.91826" lon="0.21343">
        <ele>1419</ele>
        <time>2015-08-16T09:33:44Z</time>
      </trkpt>
      <trkpt lat="42.91826" lon="0.21348">
        <ele>1419</ele>
        <time>2015-08-16T09:33:50Z</time>
      </trkpt>
      <trkpt lat="42.91827" lon="0.21352">
        <ele>1420</ele>
        <time>2015-08-16T09:33:55Z</time>
      </trkpt>
      <trkpt lat="42.9183" lon="0.21358">
        <ele>1420</ele>
        <time>2015-08-16T09:34:01Z</time>
      </trkpt>
      <trkpt lat="42.91832" lon="0.21361">
        <ele>1421</ele>
        <time>2015-08-16T09:34:07Z</time>
      </trkpt>
      <trkpt lat="42.9183" lon="0.21363">
        <ele>1422</ele>
        <time>2015-08-16T09:34:15Z</time>
      </trkpt>
      <trkpt lat="42.9183" lon="0.21364">
        <ele>1422</ele>
        <time>2015-08-16T09:34:22Z</time>
      </trkpt>
      <trkpt lat="42.91831" lon="0.21364">
        <ele>1422</ele>
        <time>2015-08-16T09:34:28Z</time>
      </trkpt>
      <trkpt lat="42.91831" lon="0.21365">
        <ele>1422</ele>
        <time>2015-08-16T09:34:33Z</time>
      </trkpt>
      <trkpt lat="42.91831" lon="0.21365">
        <ele>1422</ele>
        <time>2015-08-16T09:34:40Z</time>
      </trkpt>
      <trkpt lat="42.91831" lon="0.21365">
        <ele>1422</ele>
        <time>2015-08-16T09:34:47Z</time>
      </trkpt>
      <trkpt lat="42.91831" lon="0.21365">
        <ele>1422</ele>
        <time>2015-08-16T09:34:55Z</time>
      </trkpt>
      <trkpt lat="42.9183" lon="0.21365">
        <ele>1422</ele>
        <time>2015-08-16T09:35:03Z</time>
      </trkpt>
      <trkpt lat="42.9183" lon="0.21365">
        <ele>1422</ele>
        <time>2015-08-16T09:35:12Z</time>
      </trkpt>
      <trkpt lat="42.9183" lon="0.21365">
        <ele>1422</ele>
        <time>2015-08-16T09:35:17Z</time>
      </trkpt>
      <trkpt lat="42.9183" lon="0.21365">
        <ele>1422</ele>
        <time>2015-08-16T09:35:22Z</time>
      </trkpt>
      <trkpt lat="42.9183" lon="0.21365">
        <ele>1422</ele>
        <time>2015-08-16T09:35:27Z</time>
      </trkpt>
      <trkpt lat="42.91829" lon="0.21365">
        <ele>1422</ele>
        <time>2015-08-16T09:35:36Z</time>
      </trkpt>
      <trkpt lat="42.91829" lon="0.21365">
        <ele>1422</ele>
        <time>2015-08-16T09:35:44Z</time>
      </trkpt>
      <trkpt lat="42.91829" lon="0.21366">
        <ele>1422</ele>
        <time>2015-08-16T09:35:53Z</time>
      </trkpt>
      <trkpt lat="42.91829" lon="0.21366">
        <ele>1422</ele>
        <time>2015-08-16T09:36:06Z</time>
      </trkpt>
      <trkpt lat="42.91829" lon="0.21365">
        <ele>1422</ele>
        <time>2015-08-16T09:36:14Z</time>
      </trkpt>
      <trkpt lat="42.91829" lon="0.21366">
        <ele>1422</ele>
        <time>2015-08-16T09:36:23Z</time>
      </trkpt>
      <trkpt lat="42.91829" lon="0.21369">
        <ele>1422</ele>
        <time>2015-08-16T09:36:28Z</time>
      </trkpt>
      <trkpt lat="42.9183" lon="0.21373">
        <ele>1422</ele>
        <time>2015-08-16T09:36:33Z</time>
      </trkpt>
      <trkpt lat="42.91832" lon="0.21377">
        <ele>1422</ele>
        <time>2015-08-16T09:36:39Z</time>
      </trkpt>
      <trkpt lat="42.91831" lon="0.2138">
        <ele>1423</ele>
        <time>2015-08-16T09:36:45Z</time>
      </trkpt>
      <trkpt lat="42.91831" lon="0.2138">
        <ele>1423</ele>
        <time>2015-08-16T09:36:51Z</time>
      </trkpt>
      <trkpt lat="42.91844" lon="0.21385">
        <ele>1423</ele>
        <time>2015-08-16T09:36:56Z</time>
      </trkpt>
      <trkpt lat="42.91843" lon="0.21384">
        <ele>1423</ele>
        <time>2015-08-16T09:37:02Z</time>
      </trkpt>
      <trkpt lat="42.91843" lon="0.21387">
        <ele>1423</ele>
        <time>2015-08-16T09:37:07Z</time>
      </trkpt>
      <trkpt lat="42.9184" lon="0.21391">
        <ele>1423</ele>
        <time>2015-08-16T09:37:12Z</time>
      </trkpt>
      <trkpt lat="42.91837" lon="0.21394">
        <ele>1424</ele>
        <time>2015-08-16T09:37:17Z</time>
      </trkpt>
      <trkpt lat="42.91835" lon="0.21394">
        <ele>1424</ele>
        <time>2015-08-16T09:37:22Z</time>
      </trkpt>
      <trkpt lat="42.91833" lon="0.21394">
        <ele>1424</ele>
        <time>2015-08-16T09:37:27Z</time>
      </trkpt>
      <trkpt lat="42.91832" lon="0.21394">
        <ele>1424</ele>
        <time>2015-08-16T09:37:33Z</time>
      </trkpt>
      <trkpt lat="42.9183" lon="0.21394">
        <ele>1424</ele>
        <time>2015-08-16T09:37:38Z</time>
      </trkpt>
      <trkpt lat="42.9183" lon="0.21395">
        <ele>1424</ele>
        <time>2015-08-16T09:37:44Z</time>
      </trkpt>
      <trkpt lat="42.91829" lon="0.21401">
        <ele>1424</ele>
        <time>2015-08-16T09:37:49Z</time>
      </trkpt>
      <trkpt lat="42.91827" lon="0.21406">
        <ele>1424</ele>
        <time>2015-08-16T09:37:54Z</time>
      </trkpt>
      <trkpt lat="42.91824" lon="0.21412">
        <ele>1424</ele>
        <time>2015-08-16T09:38:00Z</time>
      </trkpt>
      <trkpt lat="42.91824" lon="0.21411">
        <ele>1424</ele>
        <time>2015-08-16T09:38:05Z</time>
      </trkpt>
      <trkpt lat="42.91823" lon="0.21411">
        <ele>1425</ele>
        <time>2015-08-16T09:38:11Z</time>
      </trkpt>
      <trkpt lat="42.91822" lon="0.2141">
        <ele>1425</ele>
        <time>2015-08-16T09:38:17Z</time>
      </trkpt>
      <trkpt lat="42.91821" lon="0.2141">
        <ele>1425</ele>
        <time>2015-08-16T09:38:22Z</time>
      </trkpt>
      <trkpt lat="42.91819" lon="0.21413">
        <ele>1425</ele>
        <time>2015-08-16T09:38:28Z</time>
      </trkpt>
      <trkpt lat="42.91816" lon="0.21418">
        <ele>1425</ele>
        <time>2015-08-16T09:38:33Z</time>
      </trkpt>
      <trkpt lat="42.91813" lon="0.21418">
        <ele>1426</ele>
        <time>2015-08-16T09:38:39Z</time>
      </trkpt>
      <trkpt lat="42.91812" lon="0.21422">
        <ele>1426</ele>
        <time>2015-08-16T09:38:45Z</time>
      </trkpt>
      <trkpt lat="42.91808" lon="0.21425">
        <ele>1427</ele>
        <time>2015-08-16T09:38:50Z</time>
      </trkpt>
      <trkpt lat="42.91805" lon="0.21429">
        <ele>1428</ele>
        <time>2015-08-16T09:38:56Z</time>
      </trkpt>
      <trkpt lat="42.91802" lon="0.21433">
        <ele>1429</ele>
        <time>2015-08-16T09:39:02Z</time>
      </trkpt>
      <trkpt lat="42.91798" lon="0.21436">
        <ele>1429</ele>
        <time>2015-08-16T09:39:07Z</time>
      </trkpt>
      <trkpt lat="42.91795" lon="0.2144">
        <ele>1430</ele>
        <time>2015-08-16T09:39:13Z</time>
      </trkpt>
      <trkpt lat="42.9179" lon="0.21441">
        <ele>1431</ele>
        <time>2015-08-16T09:39:18Z</time>
      </trkpt>
      <trkpt lat="42.91783" lon="0.21441">
        <ele>1433</ele>
        <time>2015-08-16T09:39:24Z</time>
      </trkpt>
      <trkpt lat="42.91779" lon="0.21447">
        <ele>1433</ele>
        <time>2015-08-16T09:39:30Z</time>
      </trkpt>
      <trkpt lat="42.91774" lon="0.21455">
        <ele>1433</ele>
        <time>2015-08-16T09:39:36Z</time>
      </trkpt>
      <trkpt lat="42.91768" lon="0.21455">
        <ele>1432</ele>
        <time>2015-08-16T09:39:41Z</time>
      </trkpt>
      <trkpt lat="42.91762" lon="0.21453">
        <ele>1433</ele>
        <time>2015-08-16T09:39:47Z</time>
      </trkpt>
      <trkpt lat="42.91758" lon="0.2145">
        <ele>1434</ele>
        <time>2015-08-16T09:39:52Z</time>
      </trkpt>
      <trkpt lat="42.91753" lon="0.21451">
        <ele>1435</ele>
        <time>2015-08-16T09:39:58Z</time>
      </trkpt>
      <trkpt lat="42.91747" lon="0.21453">
        <ele>1437</ele>
        <time>2015-08-16T09:40:04Z</time>
      </trkpt>
      <trkpt lat="42.91742" lon="0.21456">
        <ele>1437</ele>
        <time>2015-08-16T09:40:09Z</time>
      </trkpt>
      <trkpt lat="42.91736" lon="0.21459">
        <ele>1437</ele>
        <time>2015-08-16T09:40:15Z</time>
      </trkpt>
      <trkpt lat="42.91729" lon="0.21462">
        <ele>1437</ele>
        <time>2015-08-16T09:40:21Z</time>
      </trkpt>
      <trkpt lat="42.91724" lon="0.21463">
        <ele>1437</ele>
        <time>2015-08-16T09:40:26Z</time>
      </trkpt>
      <trkpt lat="42.91721" lon="0.21464">
        <ele>1436</ele>
        <time>2015-08-16T09:40:32Z</time>
      </trkpt>
      <trkpt lat="42.91718" lon="0.21468">
        <ele>1437</ele>
        <time>2015-08-16T09:40:38Z</time>
      </trkpt>
      <trkpt lat="42.91713" lon="0.21469">
        <ele>1438</ele>
        <time>2015-08-16T09:40:43Z</time>
      </trkpt>
      <trkpt lat="42.91708" lon="0.21472">
        <ele>1439</ele>
        <time>2015-08-16T09:40:49Z</time>
      </trkpt>
      <trkpt lat="42.91703" lon="0.21473">
        <ele>1440</ele>
        <time>2015-08-16T09:40:54Z</time>
      </trkpt>
      <trkpt lat="42.91698" lon="0.21474">
        <ele>1442</ele>
        <time>2015-08-16T09:41:00Z</time>
      </trkpt>
      <trkpt lat="42.91694" lon="0.21475">
        <ele>1443</ele>
        <time>2015-08-16T09:41:05Z</time>
      </trkpt>
      <trkpt lat="42.9169" lon="0.21476">
        <ele>1444</ele>
        <time>2015-08-16T09:41:10Z</time>
      </trkpt>
      <trkpt lat="42.91684" lon="0.21477">
        <ele>1446</ele>
        <time>2015-08-16T09:41:16Z</time>
      </trkpt>
      <trkpt lat="42.91681" lon="0.21479">
        <ele>1447</ele>
        <time>2015-08-16T09:41:21Z</time>
      </trkpt>
      <trkpt lat="42.91676" lon="0.21481">
        <ele>1448</ele>
        <time>2015-08-16T09:41:27Z</time>
      </trkpt>
      <trkpt lat="42.91672" lon="0.21483">
        <ele>1449</ele>
        <time>2015-08-16T09:41:32Z</time>
      </trkpt>
      <trkpt lat="42.91668" lon="0.21485">
        <ele>1450</ele>
        <time>2015-08-16T09:41:38Z</time>
      </trkpt>
      <trkpt lat="42.91663" lon="0.21487">
        <ele>1451</ele>
        <time>2015-08-16T09:41:43Z</time>
      </trkpt>
      <trkpt lat="42.91659" lon="0.21488">
        <ele>1453</ele>
        <time>2015-08-16T09:41:49Z</time>
      </trkpt>
      <trkpt lat="42.91656" lon="0.21488">
        <ele>1454</ele>
        <time>2015-08-16T09:41:54Z</time>
      </trkpt>
      <trkpt lat="42.91658" lon="0.21494">
        <ele>1455</ele>
        <time>2015-08-16T09:42:00Z</time>
      </trkpt>
      <trkpt lat="42.91655" lon="0.21499">
        <ele>1456</ele>
        <time>2015-08-16T09:42:06Z</time>
      </trkpt>
      <trkpt lat="42.91653" lon="0.21504">
        <ele>1457</ele>
        <time>2015-08-16T09:42:11Z</time>
      </trkpt>
      <trkpt lat="42.91649" lon="0.21511">
        <ele>1457</ele>
        <time>2015-08-16T09:42:17Z</time>
      </trkpt>
      <trkpt lat="42.91644" lon="0.21516">
        <ele>1459</ele>
        <time>2015-08-16T09:42:22Z</time>
      </trkpt>
      <trkpt lat="42.91639" lon="0.21521">
        <ele>1459</ele>
        <time>2015-08-16T09:42:27Z</time>
      </trkpt>
      <trkpt lat="42.91635" lon="0.21528">
        <ele>1460</ele>
        <time>2015-08-16T09:42:33Z</time>
      </trkpt>
      <trkpt lat="42.91631" lon="0.21532">
        <ele>1461</ele>
        <time>2015-08-16T09:42:38Z</time>
      </trkpt>
      <trkpt lat="42.91631" lon="0.21538">
        <ele>1462</ele>
        <time>2015-08-16T09:42:43Z</time>
      </trkpt>
      <trkpt lat="42.91633" lon="0.21545">
        <ele>1463</ele>
        <time>2015-08-16T09:42:48Z</time>
      </trkpt>
      <trkpt lat="42.91636" lon="0.21553">
        <ele>1464</ele>
        <time>2015-08-16T09:42:54Z</time>
      </trkpt>
      <trkpt lat="42.91635" lon="0.21559">
        <ele>1465</ele>
        <time>2015-08-16T09:43:00Z</time>
      </trkpt>
      <trkpt lat="42.91631" lon="0.21565">
        <ele>1466</ele>
        <time>2015-08-16T09:43:06Z</time>
      </trkpt>
      <trkpt lat="42.91622" lon="0.21569">
        <ele>1467</ele>
        <time>2015-08-16T09:43:12Z</time>
      </trkpt>
      <trkpt lat="42.91613" lon="0.21575">
        <ele>1468</ele>
        <time>2015-08-16T09:43:18Z</time>
      </trkpt>
      <trkpt lat="42.91602" lon="0.21578">
        <ele>1469</ele>
        <time>2015-08-16T09:43:24Z</time>
      </trkpt>
      <trkpt lat="42.91599" lon="0.21585">
        <ele>1470</ele>
        <time>2015-08-16T09:43:30Z</time>
      </trkpt>
      <trkpt lat="42.91598" lon="0.2159">
        <ele>1471</ele>
        <time>2015-08-16T09:43:35Z</time>
      </trkpt>
      <trkpt lat="42.91595" lon="0.21596">
        <ele>1472</ele>
        <time>2015-08-16T09:43:41Z</time>
      </trkpt>
      <trkpt lat="42.91592" lon="0.21602">
        <ele>1473</ele>
        <time>2015-08-16T09:43:46Z</time>
      </trkpt>
      <trkpt lat="42.91589" lon="0.21608">
        <ele>1474</ele>
        <time>2015-08-16T09:43:52Z</time>
      </trkpt>
      <trkpt lat="42.91586" lon="0.21611">
        <ele>1475</ele>
        <time>2015-08-16T09:43:57Z</time>
      </trkpt>
      <trkpt lat="42.91583" lon="0.21616">
        <ele>1475</ele>
        <time>2015-08-16T09:44:03Z</time>
      </trkpt>
      <trkpt lat="42.91581" lon="0.21617">
        <ele>1476</ele>
        <time>2015-08-16T09:44:08Z</time>
      </trkpt>
      <trkpt lat="42.91579" lon="0.21619">
        <ele>1476</ele>
        <time>2015-08-16T09:44:13Z</time>
      </trkpt>
      <trkpt lat="42.91574" lon="0.21622">
        <ele>1477</ele>
        <time>2015-08-16T09:44:19Z</time>
      </trkpt>
      <trkpt lat="42.91569" lon="0.21625">
        <ele>1478</ele>
        <time>2015-08-16T09:44:24Z</time>
      </trkpt>
      <trkpt lat="42.91565" lon="0.21631">
        <ele>1479</ele>
        <time>2015-08-16T09:44:30Z</time>
      </trkpt>
      <trkpt lat="42.91561" lon="0.21633">
        <ele>1479</ele>
        <time>2015-08-16T09:44:35Z</time>
      </trkpt>
      <trkpt lat="42.91557" lon="0.21636">
        <ele>1480</ele>
        <time>2015-08-16T09:44:40Z</time>
      </trkpt>
      <trkpt lat="42.91552" lon="0.21639">
        <ele>1481</ele>
        <time>2015-08-16T09:44:46Z</time>
      </trkpt>
      <trkpt lat="42.91549" lon="0.21641">
        <ele>1482</ele>
        <time>2015-08-16T09:44:51Z</time>
      </trkpt>
      <trkpt lat="42.91545" lon="0.21643">
        <ele>1483</ele>
        <time>2015-08-16T09:44:56Z</time>
      </trkpt>
      <trkpt lat="42.91542" lon="0.21644">
        <ele>1485</ele>
        <time>2015-08-16T09:45:01Z</time>
      </trkpt>
      <trkpt lat="42.91539" lon="0.21647">
        <ele>1485</ele>
        <time>2015-08-16T09:45:07Z</time>
      </trkpt>
      <trkpt lat="42.91535" lon="0.21648">
        <ele>1486</ele>
        <time>2015-08-16T09:45:13Z</time>
      </trkpt>
      <trkpt lat="42.91533" lon="0.21649">
        <ele>1487</ele>
        <time>2015-08-16T09:45:18Z</time>
      </trkpt>
      <trkpt lat="42.9153" lon="0.21648">
        <ele>1489</ele>
        <time>2015-08-16T09:45:23Z</time>
      </trkpt>
      <trkpt lat="42.91525" lon="0.21646">
        <ele>1489</ele>
        <time>2015-08-16T09:45:29Z</time>
      </trkpt>
      <trkpt lat="42.91519" lon="0.21644">
        <ele>1489</ele>
        <time>2015-08-16T09:45:35Z</time>
      </trkpt>
      <trkpt lat="42.91514" lon="0.21643">
        <ele>1490</ele>
        <time>2015-08-16T09:45:41Z</time>
      </trkpt>
      <trkpt lat="42.91509" lon="0.21645">
        <ele>1489</ele>
        <time>2015-08-16T09:45:46Z</time>
      </trkpt>
      <trkpt lat="42.91505" lon="0.21649">
        <ele>1490</ele>
        <time>2015-08-16T09:45:51Z</time>
      </trkpt>
      <trkpt lat="42.915" lon="0.21654">
        <ele>1491</ele>
        <time>2015-08-16T09:45:57Z</time>
      </trkpt>
      <trkpt lat="42.91494" lon="0.21657">
        <ele>1492</ele>
        <time>2015-08-16T09:46:03Z</time>
      </trkpt>
      <trkpt lat="42.91489" lon="0.2166">
        <ele>1492</ele>
        <time>2015-08-16T09:46:08Z</time>
      </trkpt>
      <trkpt lat="42.91485" lon="0.21662">
        <ele>1493</ele>
        <time>2015-08-16T09:46:13Z</time>
      </trkpt>
      <trkpt lat="42.9148" lon="0.21663">
        <ele>1494</ele>
        <time>2015-08-16T09:46:19Z</time>
      </trkpt>
      <trkpt lat="42.91476" lon="0.21666">
        <ele>1495</ele>
        <time>2015-08-16T09:46:25Z</time>
      </trkpt>
      <trkpt lat="42.91472" lon="0.21668">
        <ele>1495</ele>
        <time>2015-08-16T09:46:31Z</time>
      </trkpt>
      <trkpt lat="42.91468" lon="0.2167">
        <ele>1496</ele>
        <time>2015-08-16T09:46:36Z</time>
      </trkpt>
      <trkpt lat="42.91465" lon="0.21673">
        <ele>1496</ele>
        <time>2015-08-16T09:46:42Z</time>
      </trkpt>
      <trkpt lat="42.91462" lon="0.21677">
        <ele>1496</ele>
        <time>2015-08-16T09:46:47Z</time>
      </trkpt>
      <trkpt lat="42.91458" lon="0.21678">
        <ele>1496</ele>
        <time>2015-08-16T09:46:53Z</time>
      </trkpt>
      <trkpt lat="42.91453" lon="0.21678">
        <ele>1496</ele>
        <time>2015-08-16T09:46:58Z</time>
      </trkpt>
      <trkpt lat="42.91449" lon="0.21679">
        <ele>1496</ele>
        <time>2015-08-16T09:47:03Z</time>
      </trkpt>
      <trkpt lat="42.91445" lon="0.2168">
        <ele>1496</ele>
        <time>2015-08-16T09:47:08Z</time>
      </trkpt>
      <trkpt lat="42.9144" lon="0.2168">
        <ele>1496</ele>
        <time>2015-08-16T09:47:13Z</time>
      </trkpt>
      <trkpt lat="42.91436" lon="0.21681">
        <ele>1496</ele>
        <time>2015-08-16T09:47:18Z</time>
      </trkpt>
      <trkpt lat="42.91432" lon="0.2168">
        <ele>1496</ele>
        <time>2015-08-16T09:47:24Z</time>
      </trkpt>
      <trkpt lat="42.91426" lon="0.2168">
        <ele>1496</ele>
        <time>2015-08-16T09:47:29Z</time>
      </trkpt>
      <trkpt lat="42.91421" lon="0.21679">
        <ele>1496</ele>
        <time>2015-08-16T09:47:34Z</time>
      </trkpt>
      <trkpt lat="42.91416" lon="0.21679">
        <ele>1497</ele>
        <time>2015-08-16T09:47:39Z</time>
      </trkpt>
      <trkpt lat="42.91411" lon="0.21677">
        <ele>1497</ele>
        <time>2015-08-16T09:47:45Z</time>
      </trkpt>
      <trkpt lat="42.91408" lon="0.21677">
        <ele>1496</ele>
        <time>2015-08-16T09:47:50Z</time>
      </trkpt>
      <trkpt lat="42.91404" lon="0.21677">
        <ele>1497</ele>
        <time>2015-08-16T09:47:56Z</time>
      </trkpt>
      <trkpt lat="42.91401" lon="0.21676">
        <ele>1497</ele>
        <time>2015-08-16T09:48:02Z</time>
      </trkpt>
      <trkpt lat="42.91397" lon="0.21673">
        <ele>1497</ele>
        <time>2015-08-16T09:48:08Z</time>
      </trkpt>
      <trkpt lat="42.91392" lon="0.21672">
        <ele>1497</ele>
        <time>2015-08-16T09:48:14Z</time>
      </trkpt>
      <trkpt lat="42.91389" lon="0.21671">
        <ele>1497</ele>
        <time>2015-08-16T09:48:19Z</time>
      </trkpt>
      <trkpt lat="42.91384" lon="0.21669">
        <ele>1498</ele>
        <time>2015-08-16T09:48:25Z</time>
      </trkpt>
      <trkpt lat="42.9138" lon="0.21666">
        <ele>1498</ele>
        <time>2015-08-16T09:48:31Z</time>
      </trkpt>
      <trkpt lat="42.91375" lon="0.21663">
        <ele>1498</ele>
        <time>2015-08-16T09:48:36Z</time>
      </trkpt>
      <trkpt lat="42.91371" lon="0.21659">
        <ele>1499</ele>
        <time>2015-08-16T09:48:42Z</time>
      </trkpt>
      <trkpt lat="42.91366" lon="0.21656">
        <ele>1500</ele>
        <time>2015-08-16T09:48:47Z</time>
      </trkpt>
      <trkpt lat="42.91362" lon="0.21655">
        <ele>1499</ele>
        <time>2015-08-16T09:48:53Z</time>
      </trkpt>
      <trkpt lat="42.9136" lon="0.21652">
        <ele>1499</ele>
        <time>2015-08-16T09:48:59Z</time>
      </trkpt>
      <trkpt lat="42.91359" lon="0.21652">
        <ele>1499</ele>
        <time>2015-08-16T09:49:05Z</time>
      </trkpt>
      <trkpt lat="42.91359" lon="0.21652">
        <ele>1500</ele>
        <time>2015-08-16T09:49:11Z</time>
      </trkpt>
      <trkpt lat="42.91355" lon="0.21649">
        <ele>1500</ele>
        <time>2015-08-16T09:49:16Z</time>
      </trkpt>
      <trkpt lat="42.9135" lon="0.21644">
        <ele>1500</ele>
        <time>2015-08-16T09:49:22Z</time>
      </trkpt>
      <trkpt lat="42.91344" lon="0.2164">
        <ele>1500</ele>
        <time>2015-08-16T09:49:28Z</time>
      </trkpt>
      <trkpt lat="42.91338" lon="0.21638">
        <ele>1499</ele>
        <time>2015-08-16T09:49:34Z</time>
      </trkpt>
      <trkpt lat="42.91332" lon="0.21636">
        <ele>1499</ele>
        <time>2015-08-16T09:49:39Z</time>
      </trkpt>
      <trkpt lat="42.91328" lon="0.21633">
        <ele>1498</ele>
        <time>2015-08-16T09:49:44Z</time>
      </trkpt>
      <trkpt lat="42.91322" lon="0.21629">
        <ele>1498</ele>
        <time>2015-08-16T09:49:50Z</time>
      </trkpt>
      <trkpt lat="42.91315" lon="0.21624">
        <ele>1498</ele>
        <time>2015-08-16T09:49:56Z</time>
      </trkpt>
      <trkpt lat="42.91308" lon="0.21621">
        <ele>1497</ele>
        <time>2015-08-16T09:50:02Z</time>
      </trkpt>
      <trkpt lat="42.91303" lon="0.2162">
        <ele>1497</ele>
        <time>2015-08-16T09:50:07Z</time>
      </trkpt>
      <trkpt lat="42.91297" lon="0.21618">
        <ele>1498</ele>
        <time>2015-08-16T09:50:13Z</time>
      </trkpt>
      <trkpt lat="42.91292" lon="0.21614">
        <ele>1498</ele>
        <time>2015-08-16T09:50:18Z</time>
      </trkpt>
      <trkpt lat="42.91287" lon="0.21611">
        <ele>1498</ele>
        <time>2015-08-16T09:50:23Z</time>
      </trkpt>
      <trkpt lat="42.91281" lon="0.21606">
        <ele>1497</ele>
        <time>2015-08-16T09:50:29Z</time>
      </trkpt>
      <trkpt lat="42.91274" lon="0.21602">
        <ele>1497</ele>
        <time>2015-08-16T09:50:35Z</time>
      </trkpt>
      <trkpt lat="42.91267" lon="0.21598">
        <ele>1497</ele>
        <time>2015-08-16T09:50:41Z</time>
      </trkpt>
      <trkpt lat="42.91261" lon="0.21595">
        <ele>1497</ele>
        <time>2015-08-16T09:50:46Z</time>
      </trkpt>
      <trkpt lat="42.91253" lon="0.2159">
        <ele>1497</ele>
        <time>2015-08-16T09:50:52Z</time>
      </trkpt>
      <trkpt lat="42.91246" lon="0.21587">
        <ele>1497</ele>
        <time>2015-08-16T09:50:58Z</time>
      </trkpt>
      <trkpt lat="42.91238" lon="0.21584">
        <ele>1496</ele>
        <time>2015-08-16T09:51:04Z</time>
      </trkpt>
      <trkpt lat="42.91233" lon="0.21581">
        <ele>1495</ele>
        <time>2015-08-16T09:51:09Z</time>
      </trkpt>
      <trkpt lat="42.91228" lon="0.21577">
        <ele>1495</ele>
        <time>2015-08-16T09:51:14Z</time>
      </trkpt>
      <trkpt lat="42.91223" lon="0.21573">
        <ele>1495</ele>
        <time>2015-08-16T09:51:20Z</time>
      </trkpt>
      <trkpt lat="42.91219" lon="0.2157">
        <ele>1494</ele>
        <time>2015-08-16T09:51:25Z</time>
      </trkpt>
      <trkpt lat="42.91214" lon="0.21565">
        <ele>1494</ele>
        <time>2015-08-16T09:51:31Z</time>
      </trkpt>
      <trkpt lat="42.91209" lon="0.2156">
        <ele>1494</ele>
        <time>2015-08-16T09:51:37Z</time>
      </trkpt>
      <trkpt lat="42.91205" lon="0.21555">
        <ele>1494</ele>
        <time>2015-08-16T09:51:43Z</time>
      </trkpt>
      <trkpt lat="42.912" lon="0.21549">
        <ele>1494</ele>
        <time>2015-08-16T09:51:49Z</time>
      </trkpt>
      <trkpt lat="42.91195" lon="0.21543">
        <ele>1494</ele>
        <time>2015-08-16T09:51:55Z</time>
      </trkpt>
      <trkpt lat="42.91189" lon="0.21537">
        <ele>1495</ele>
        <time>2015-08-16T09:52:01Z</time>
      </trkpt>
      <trkpt lat="42.91183" lon="0.21534">
        <ele>1496</ele>
        <time>2015-08-16T09:52:07Z</time>
      </trkpt>
      <trkpt lat="42.91181" lon="0.21528">
        <ele>1497</ele>
        <time>2015-08-16T09:52:13Z</time>
      </trkpt>
      <trkpt lat="42.9118" lon="0.21521">
        <ele>1498</ele>
        <time>2015-08-16T09:52:18Z</time>
      </trkpt>
      <trkpt lat="42.91175" lon="0.21516">
        <ele>1497</ele>
        <time>2015-08-16T09:52:23Z</time>
      </trkpt>
      <trkpt lat="42.91169" lon="0.2151">
        <ele>1498</ele>
        <time>2015-08-16T09:52:29Z</time>
      </trkpt>
      <trkpt lat="42.91164" lon="0.21506">
        <ele>1497</ele>
        <time>2015-08-16T09:52:34Z</time>
      </trkpt>
      <trkpt lat="42.91157" lon="0.21501">
        <ele>1497</ele>
        <time>2015-08-16T09:52:40Z</time>
      </trkpt>
      <trkpt lat="42.91152" lon="0.21498">
        <ele>1497</ele>
        <time>2015-08-16T09:52:45Z</time>
      </trkpt>
      <trkpt lat="42.91148" lon="0.21494">
        <ele>1497</ele>
        <time>2015-08-16T09:52:50Z</time>
      </trkpt>
      <trkpt lat="42.91145" lon="0.21488">
        <ele>1498</ele>
        <time>2015-08-16T09:52:56Z</time>
      </trkpt>
      <trkpt lat="42.91143" lon="0.21484">
        <ele>1499</ele>
        <time>2015-08-16T09:53:01Z</time>
      </trkpt>
      <trkpt lat="42.9114" lon="0.2148">
        <ele>1500</ele>
        <time>2015-08-16T09:53:06Z</time>
      </trkpt>
      <trkpt lat="42.91136" lon="0.21477">
        <ele>1501</ele>
        <time>2015-08-16T09:53:12Z</time>
      </trkpt>
      <trkpt lat="42.91134" lon="0.21473">
        <ele>1502</ele>
        <time>2015-08-16T09:53:17Z</time>
      </trkpt>
      <trkpt lat="42.9113" lon="0.21472">
        <ele>1503</ele>
        <time>2015-08-16T09:53:23Z</time>
      </trkpt>
      <trkpt lat="42.91127" lon="0.21472">
        <ele>1504</ele>
        <time>2015-08-16T09:53:28Z</time>
      </trkpt>
      <trkpt lat="42.91123" lon="0.21479">
        <ele>1504</ele>
        <time>2015-08-16T09:53:34Z</time>
      </trkpt>
      <trkpt lat="42.91119" lon="0.21484">
        <ele>1503</ele>
        <time>2015-08-16T09:53:39Z</time>
      </trkpt>
      <trkpt lat="42.91111" lon="0.21489">
        <ele>1503</ele>
        <time>2015-08-16T09:53:45Z</time>
      </trkpt>
      <trkpt lat="42.91104" lon="0.21493">
        <ele>1503</ele>
        <time>2015-08-16T09:53:51Z</time>
      </trkpt>
      <trkpt lat="42.91098" lon="0.21495">
        <ele>1502</ele>
        <time>2015-08-16T09:53:56Z</time>
      </trkpt>
      <trkpt lat="42.91093" lon="0.21502">
        <ele>1502</ele>
        <time>2015-08-16T09:54:02Z</time>
      </trkpt>
      <trkpt lat="42.9109" lon="0.21509">
        <ele>1501</ele>
        <time>2015-08-16T09:54:08Z</time>
      </trkpt>
      <trkpt lat="42.91087" lon="0.21517">
        <ele>1499</ele>
        <time>2015-08-16T09:54:13Z</time>
      </trkpt>
      <trkpt lat="42.91083" lon="0.21523">
        <ele>1497</ele>
        <time>2015-08-16T09:54:18Z</time>
      </trkpt>
      <trkpt lat="42.91078" lon="0.21529">
        <ele>1495</ele>
        <time>2015-08-16T09:54:24Z</time>
      </trkpt>
      <trkpt lat="42.91072" lon="0.21533">
        <ele>1495</ele>
        <time>2015-08-16T09:54:30Z</time>
      </trkpt>
      <trkpt lat="42.91067" lon="0.21533">
        <ele>1495</ele>
        <time>2015-08-16T09:54:35Z</time>
      </trkpt>
      <trkpt lat="42.91061" lon="0.21533">
        <ele>1496</ele>
        <time>2015-08-16T09:54:41Z</time>
      </trkpt>
      <trkpt lat="42.91055" lon="0.21532">
        <ele>1496</ele>
        <time>2015-08-16T09:54:47Z</time>
      </trkpt>
      <trkpt lat="42.91051" lon="0.21533">
        <ele>1497</ele>
        <time>2015-08-16T09:54:52Z</time>
      </trkpt>
      <trkpt lat="42.91049" lon="0.21531">
        <ele>1498</ele>
        <time>2015-08-16T09:54:58Z</time>
      </trkpt>
      <trkpt lat="42.91046" lon="0.21527">
        <ele>1499</ele>
        <time>2015-08-16T09:55:03Z</time>
      </trkpt>
      <trkpt lat="42.91041" lon="0.21525">
        <ele>1500</ele>
        <time>2015-08-16T09:55:09Z</time>
      </trkpt>
      <trkpt lat="42.91035" lon="0.21524">
        <ele>1500</ele>
        <time>2015-08-16T09:55:15Z</time>
      </trkpt>
      <trkpt lat="42.91031" lon="0.21524">
        <ele>1500</ele>
        <time>2015-08-16T09:55:20Z</time>
      </trkpt>
      <trkpt lat="42.91028" lon="0.2152">
        <ele>1501</ele>
        <time>2015-08-16T09:55:25Z</time>
      </trkpt>
      <trkpt lat="42.91026" lon="0.21516">
        <ele>1502</ele>
        <time>2015-08-16T09:55:31Z</time>
      </trkpt>
      <trkpt lat="42.91024" lon="0.21511">
        <ele>1503</ele>
        <time>2015-08-16T09:55:36Z</time>
      </trkpt>
      <trkpt lat="42.91021" lon="0.21509">
        <ele>1503</ele>
        <time>2015-08-16T09:55:41Z</time>
      </trkpt>
      <trkpt lat="42.91016" lon="0.21508">
        <ele>1504</ele>
        <time>2015-08-16T09:55:47Z</time>
      </trkpt>
      <trkpt lat="42.91012" lon="0.21505">
        <ele>1505</ele>
        <time>2015-08-16T09:55:52Z</time>
      </trkpt>
      <trkpt lat="42.91009" lon="0.215">
        <ele>1505</ele>
        <time>2015-08-16T09:55:57Z</time>
      </trkpt>
      <trkpt lat="42.91006" lon="0.21494">
        <ele>1506</ele>
        <time>2015-08-16T09:56:03Z</time>
      </trkpt>
      <trkpt lat="42.91001" lon="0.2149">
        <ele>1506</ele>
        <time>2015-08-16T09:56:08Z</time>
      </trkpt>
      <trkpt lat="42.90995" lon="0.21486">
        <ele>1506</ele>
        <time>2015-08-16T09:56:14Z</time>
      </trkpt>
      <trkpt lat="42.9099" lon="0.21483">
        <ele>1506</ele>
        <time>2015-08-16T09:56:19Z</time>
      </trkpt>
      <trkpt lat="42.90986" lon="0.21479">
        <ele>1507</ele>
        <time>2015-08-16T09:56:24Z</time>
      </trkpt>
      <trkpt lat="42.9098" lon="0.21475">
        <ele>1507</ele>
        <time>2015-08-16T09:56:30Z</time>
      </trkpt>
      <trkpt lat="42.90975" lon="0.21472">
        <ele>1509</ele>
        <time>2015-08-16T09:56:36Z</time>
      </trkpt>
      <trkpt lat="42.9097" lon="0.21468">
        <ele>1509</ele>
        <time>2015-08-16T09:56:42Z</time>
      </trkpt>
      <trkpt lat="42.90966" lon="0.21465">
        <ele>1510</ele>
        <time>2015-08-16T09:56:47Z</time>
      </trkpt>
      <trkpt lat="42.90962" lon="0.21461">
        <ele>1511</ele>
        <time>2015-08-16T09:56:52Z</time>
      </trkpt>
      <trkpt lat="42.90958" lon="0.21457">
        <ele>1511</ele>
        <time>2015-08-16T09:56:57Z</time>
      </trkpt>
      <trkpt lat="42.90953" lon="0.21451">
        <ele>1512</ele>
        <time>2015-08-16T09:57:03Z</time>
      </trkpt>
      <trkpt lat="42.9095" lon="0.21449">
        <ele>1512</ele>
        <time>2015-08-16T09:57:08Z</time>
      </trkpt>
      <trkpt lat="42.90947" lon="0.21448">
        <ele>1513</ele>
        <time>2015-08-16T09:57:13Z</time>
      </trkpt>
      <trkpt lat="42.90942" lon="0.21444">
        <ele>1514</ele>
        <time>2015-08-16T09:57:19Z</time>
      </trkpt>
      <trkpt lat="42.90937" lon="0.21441">
        <ele>1515</ele>
        <time>2015-08-16T09:57:24Z</time>
      </trkpt>
      <trkpt lat="42.90931" lon="0.2144">
        <ele>1515</ele>
        <time>2015-08-16T09:57:29Z</time>
      </trkpt>
      <trkpt lat="42.90926" lon="0.21437">
        <ele>1516</ele>
        <time>2015-08-16T09:57:34Z</time>
      </trkpt>
      <trkpt lat="42.9092" lon="0.21435">
        <ele>1516</ele>
        <time>2015-08-16T09:57:40Z</time>
      </trkpt>
      <trkpt lat="42.90916" lon="0.2143">
        <ele>1516</ele>
        <time>2015-08-16T09:57:45Z</time>
      </trkpt>
      <trkpt lat="42.90911" lon="0.21426">
        <ele>1516</ele>
        <time>2015-08-16T09:57:50Z</time>
      </trkpt>
      <trkpt lat="42.90907" lon="0.21423">
        <ele>1516</ele>
        <time>2015-08-16T09:57:55Z</time>
      </trkpt>
      <trkpt lat="42.90903" lon="0.21419">
        <ele>1516</ele>
        <time>2015-08-16T09:58:01Z</time>
      </trkpt>
      <trkpt lat="42.90899" lon="0.21415">
        <ele>1515</ele>
        <time>2015-08-16T09:58:06Z</time>
      </trkpt>
      <trkpt lat="42.90895" lon="0.21411">
        <ele>1516</ele>
        <time>2015-08-16T09:58:11Z</time>
      </trkpt>
      <trkpt lat="42.90893" lon="0.21403">
        <ele>1516</ele>
        <time>2015-08-16T09:58:17Z</time>
      </trkpt>
      <trkpt lat="42.90888" lon="0.21398">
        <ele>1517</ele>
        <time>2015-08-16T09:58:23Z</time>
      </trkpt>
      <trkpt lat="42.90885" lon="0.21392">
        <ele>1518</ele>
        <time>2015-08-16T09:58:28Z</time>
      </trkpt>
      <trkpt lat="42.90881" lon="0.2139">
        <ele>1518</ele>
        <time>2015-08-16T09:58:33Z</time>
      </trkpt>
      <trkpt lat="42.90876" lon="0.21386">
        <ele>1519</ele>
        <time>2015-08-16T09:58:39Z</time>
      </trkpt>
      <trkpt lat="42.90871" lon="0.21383">
        <ele>1519</ele>
        <time>2015-08-16T09:58:44Z</time>
      </trkpt>
      <trkpt lat="42.90867" lon="0.21378">
        <ele>1520</ele>
        <time>2015-08-16T09:58:50Z</time>
      </trkpt>
      <trkpt lat="42.90863" lon="0.21372">
        <ele>1520</ele>
        <time>2015-08-16T09:58:56Z</time>
      </trkpt>
      <trkpt lat="42.9086" lon="0.21367">
        <ele>1521</ele>
        <time>2015-08-16T09:59:02Z</time>
      </trkpt>
      <trkpt lat="42.90856" lon="0.21362">
        <ele>1521</ele>
        <time>2015-08-16T09:59:07Z</time>
      </trkpt>
      <trkpt lat="42.90852" lon="0.21358">
        <ele>1522</ele>
        <time>2015-08-16T09:59:12Z</time>
      </trkpt>
      <trkpt lat="42.90848" lon="0.21354">
        <ele>1522</ele>
        <time>2015-08-16T09:59:17Z</time>
      </trkpt>
      <trkpt lat="42.90845" lon="0.21348">
        <ele>1523</ele>
        <time>2015-08-16T09:59:23Z</time>
      </trkpt>
      <trkpt lat="42.9084" lon="0.21343">
        <ele>1524</ele>
        <time>2015-08-16T09:59:29Z</time>
      </trkpt>
      <trkpt lat="42.90836" lon="0.21338">
        <ele>1525</ele>
        <time>2015-08-16T09:59:34Z</time>
      </trkpt>
      <trkpt lat="42.9083" lon="0.21332">
        <ele>1525</ele>
        <time>2015-08-16T09:59:40Z</time>
      </trkpt>
      <trkpt lat="42.90826" lon="0.21328">
        <ele>1525</ele>
        <time>2015-08-16T09:59:46Z</time>
      </trkpt>
      <trkpt lat="42.90823" lon="0.21322">
        <ele>1526</ele>
        <time>2015-08-16T09:59:51Z</time>
      </trkpt>
      <trkpt lat="42.90819" lon="0.21317">
        <ele>1527</ele>
        <time>2015-08-16T09:59:56Z</time>
      </trkpt>
      <trkpt lat="42.90815" lon="0.21312">
        <ele>1527</ele>
        <time>2015-08-16T10:00:02Z</time>
      </trkpt>
      <trkpt lat="42.9081" lon="0.21307">
        <ele>1528</ele>
        <time>2015-08-16T10:00:08Z</time>
      </trkpt>
      <trkpt lat="42.90806" lon="0.21303">
        <ele>1528</ele>
        <time>2015-08-16T10:00:13Z</time>
      </trkpt>
      <trkpt lat="42.90801" lon="0.213">
        <ele>1527</ele>
        <time>2015-08-16T10:00:18Z</time>
      </trkpt>
      <trkpt lat="42.90796" lon="0.21297">
        <ele>1527</ele>
        <time>2015-08-16T10:00:23Z</time>
      </trkpt>
      <trkpt lat="42.90791" lon="0.21293">
        <ele>1527</ele>
        <time>2015-08-16T10:00:28Z</time>
      </trkpt>
      <trkpt lat="42.90784" lon="0.21288">
        <ele>1527</ele>
        <time>2015-08-16T10:00:34Z</time>
      </trkpt>
      <trkpt lat="42.90779" lon="0.21284">
        <ele>1527</ele>
        <time>2015-08-16T10:00:40Z</time>
      </trkpt>
      <trkpt lat="42.90776" lon="0.21281">
        <ele>1528</ele>
        <time>2015-08-16T10:00:45Z</time>
      </trkpt>
      <trkpt lat="42.9077" lon="0.21279">
        <ele>1529</ele>
        <time>2015-08-16T10:00:51Z</time>
      </trkpt>
      <trkpt lat="42.90766" lon="0.21272">
        <ele>1530</ele>
        <time>2015-08-16T10:00:57Z</time>
      </trkpt>
      <trkpt lat="42.90762" lon="0.21268">
        <ele>1530</ele>
        <time>2015-08-16T10:01:03Z</time>
      </trkpt>
      <trkpt lat="42.90762" lon="0.2126">
        <ele>1530</ele>
        <time>2015-08-16T10:01:08Z</time>
      </trkpt>
      <trkpt lat="42.90762" lon="0.21252">
        <ele>1530</ele>
        <time>2015-08-16T10:01:13Z</time>
      </trkpt>
      <trkpt lat="42.9076" lon="0.21246">
        <ele>1530</ele>
        <time>2015-08-16T10:01:19Z</time>
      </trkpt>
      <trkpt lat="42.90757" lon="0.21237">
        <ele>1530</ele>
        <time>2015-08-16T10:01:25Z</time>
      </trkpt>
      <trkpt lat="42.90755" lon="0.21229">
        <ele>1530</ele>
        <time>2015-08-16T10:01:30Z</time>
      </trkpt>
      <trkpt lat="42.90754" lon="0.21224">
        <ele>1531</ele>
        <time>2015-08-16T10:01:35Z</time>
      </trkpt>
      <trkpt lat="42.90751" lon="0.21218">
        <ele>1532</ele>
        <time>2015-08-16T10:01:41Z</time>
      </trkpt>
      <trkpt lat="42.90747" lon="0.21213">
        <ele>1533</ele>
        <time>2015-08-16T10:01:46Z</time>
      </trkpt>
      <trkpt lat="42.90743" lon="0.21206">
        <ele>1533</ele>
        <time>2015-08-16T10:01:52Z</time>
      </trkpt>
      <trkpt lat="42.9074" lon="0.21201">
        <ele>1533</ele>
        <time>2015-08-16T10:01:57Z</time>
      </trkpt>
      <trkpt lat="42.90735" lon="0.21197">
        <ele>1534</ele>
        <time>2015-08-16T10:02:02Z</time>
      </trkpt>
      <trkpt lat="42.90732" lon="0.21192">
        <ele>1534</ele>
        <time>2015-08-16T10:02:07Z</time>
      </trkpt>
      <trkpt lat="42.90728" lon="0.21185">
        <ele>1535</ele>
        <time>2015-08-16T10:02:13Z</time>
      </trkpt>
      <trkpt lat="42.90725" lon="0.2118">
        <ele>1534</ele>
        <time>2015-08-16T10:02:18Z</time>
      </trkpt>
      <trkpt lat="42.90724" lon="0.21175">
        <ele>1535</ele>
        <time>2015-08-16T10:02:23Z</time>
      </trkpt>
      <trkpt lat="42.90724" lon="0.21168">
        <ele>1535</ele>
        <time>2015-08-16T10:02:29Z</time>
      </trkpt>
      <trkpt lat="42.9072" lon="0.21162">
        <ele>1535</ele>
        <time>2015-08-16T10:02:35Z</time>
      </trkpt>
      <trkpt lat="42.90719" lon="0.21156">
        <ele>1535</ele>
        <time>2015-08-16T10:02:40Z</time>
      </trkpt>
      <trkpt lat="42.90718" lon="0.21151">
        <ele>1536</ele>
        <time>2015-08-16T10:02:46Z</time>
      </trkpt>
      <trkpt lat="42.90714" lon="0.21147">
        <ele>1538</ele>
        <time>2015-08-16T10:02:52Z</time>
      </trkpt>
      <trkpt lat="42.90712" lon="0.21142">
        <ele>1539</ele>
        <time>2015-08-16T10:02:57Z</time>
      </trkpt>
      <trkpt lat="42.90709" lon="0.21138">
        <ele>1540</ele>
        <time>2015-08-16T10:03:02Z</time>
      </trkpt>
      <trkpt lat="42.90704" lon="0.21135">
        <ele>1540</ele>
        <time>2015-08-16T10:03:07Z</time>
      </trkpt>
      <trkpt lat="42.90701" lon="0.21131">
        <ele>1541</ele>
        <time>2015-08-16T10:03:13Z</time>
      </trkpt>
      <trkpt lat="42.90697" lon="0.21129">
        <ele>1543</ele>
        <time>2015-08-16T10:03:19Z</time>
      </trkpt>
      <trkpt lat="42.90695" lon="0.21126">
        <ele>1544</ele>
        <time>2015-08-16T10:03:25Z</time>
      </trkpt>
      <trkpt lat="42.90693" lon="0.21124">
        <ele>1545</ele>
        <time>2015-08-16T10:03:31Z</time>
      </trkpt>
      <trkpt lat="42.90689" lon="0.21124">
        <ele>1545</ele>
        <time>2015-08-16T10:03:36Z</time>
      </trkpt>
      <trkpt lat="42.90684" lon="0.21125">
        <ele>1546</ele>
        <time>2015-08-16T10:03:42Z</time>
      </trkpt>
      <trkpt lat="42.90679" lon="0.21127">
        <ele>1547</ele>
        <time>2015-08-16T10:03:48Z</time>
      </trkpt>
      <trkpt lat="42.90674" lon="0.21128">
        <ele>1547</ele>
        <time>2015-08-16T10:03:53Z</time>
      </trkpt>
      <trkpt lat="42.90669" lon="0.21128">
        <ele>1548</ele>
        <time>2015-08-16T10:03:59Z</time>
      </trkpt>
      <trkpt lat="42.90664" lon="0.21127">
        <ele>1549</ele>
        <time>2015-08-16T10:04:04Z</time>
      </trkpt>
      <trkpt lat="42.90659" lon="0.21126">
        <ele>1550</ele>
        <time>2015-08-16T10:04:10Z</time>
      </trkpt>
      <trkpt lat="42.90655" lon="0.21125">
        <ele>1550</ele>
        <time>2015-08-16T10:04:15Z</time>
      </trkpt>
      <trkpt lat="42.90654" lon="0.21125">
        <ele>1551</ele>
        <time>2015-08-16T10:04:20Z</time>
      </trkpt>
      <trkpt lat="42.90651" lon="0.21127">
        <ele>1551</ele>
        <time>2015-08-16T10:04:25Z</time>
      </trkpt>
      <trkpt lat="42.9065" lon="0.21133">
        <ele>1552</ele>
        <time>2015-08-16T10:04:31Z</time>
      </trkpt>
      <trkpt lat="42.90649" lon="0.21133">
        <ele>1552</ele>
        <time>2015-08-16T10:04:37Z</time>
      </trkpt>
      <trkpt lat="42.90649" lon="0.21133">
        <ele>1552</ele>
        <time>2015-08-16T10:04:43Z</time>
      </trkpt>
      <trkpt lat="42.90649" lon="0.21133">
        <ele>1551</ele>
        <time>2015-08-16T10:04:51Z</time>
      </trkpt>
      <trkpt lat="42.90648" lon="0.21132">
        <ele>1552</ele>
        <time>2015-08-16T10:04:56Z</time>
      </trkpt>
      <trkpt lat="42.90648" lon="0.21131">
        <ele>1552</ele>
        <time>2015-08-16T10:05:01Z</time>
      </trkpt>
      <trkpt lat="42.90646" lon="0.21128">
        <ele>1552</ele>
        <time>2015-08-16T10:05:06Z</time>
      </trkpt>
      <trkpt lat="42.90643" lon="0.21124">
        <ele>1552</ele>
        <time>2015-08-16T10:05:12Z</time>
      </trkpt>
      <trkpt lat="42.9064" lon="0.21124">
        <ele>1553</ele>
        <time>2015-08-16T10:05:18Z</time>
      </trkpt>
      <trkpt lat="42.90638" lon="0.21123">
        <ele>1553</ele>
        <time>2015-08-16T10:05:23Z</time>
      </trkpt>
      <trkpt lat="42.90634" lon="0.21123">
        <ele>1553</ele>
        <time>2015-08-16T10:05:28Z</time>
      </trkpt>
      <trkpt lat="42.9063" lon="0.21124">
        <ele>1554</ele>
        <time>2015-08-16T10:05:34Z</time>
      </trkpt>
      <trkpt lat="42.90626" lon="0.21122">
        <ele>1554</ele>
        <time>2015-08-16T10:05:39Z</time>
      </trkpt>
      <trkpt lat="42.90621" lon="0.2112">
        <ele>1555</ele>
        <time>2015-08-16T10:05:44Z</time>
      </trkpt>
      <trkpt lat="42.90617" lon="0.21118">
        <ele>1555</ele>
        <time>2015-08-16T10:05:49Z</time>
      </trkpt>
      <trkpt lat="42.90612" lon="0.21114">
        <ele>1556</ele>
        <time>2015-08-16T10:05:55Z</time>
      </trkpt>
      <trkpt lat="42.90611" lon="0.21107">
        <ele>1557</ele>
        <time>2015-08-16T10:06:01Z</time>
      </trkpt>
      <trkpt lat="42.90607" lon="0.21104">
        <ele>1558</ele>
        <time>2015-08-16T10:06:06Z</time>
      </trkpt>
      <trkpt lat="42.90603" lon="0.21102">
        <ele>1559</ele>
        <time>2015-08-16T10:06:12Z</time>
      </trkpt>
      <trkpt lat="42.90599" lon="0.21098">
        <ele>1560</ele>
        <time>2015-08-16T10:06:18Z</time>
      </trkpt>
      <trkpt lat="42.90594" lon="0.21099">
        <ele>1562</ele>
        <time>2015-08-16T10:06:24Z</time>
      </trkpt>
      <trkpt lat="42.90591" lon="0.21099">
        <ele>1563</ele>
        <time>2015-08-16T10:06:29Z</time>
      </trkpt>
      <trkpt lat="42.90587" lon="0.21095">
        <ele>1563</ele>
        <time>2015-08-16T10:06:35Z</time>
      </trkpt>
      <trkpt lat="42.90583" lon="0.21094">
        <ele>1564</ele>
        <time>2015-08-16T10:06:40Z</time>
      </trkpt>
      <trkpt lat="42.90581" lon="0.21089">
        <ele>1566</ele>
        <time>2015-08-16T10:06:46Z</time>
      </trkpt>
      <trkpt lat="42.90579" lon="0.21088">
        <ele>1566</ele>
        <time>2015-08-16T10:06:51Z</time>
      </trkpt>
      <trkpt lat="42.90577" lon="0.21082">
        <ele>1567</ele>
        <time>2015-08-16T10:06:57Z</time>
      </trkpt>
      <trkpt lat="42.90576" lon="0.21078">
        <ele>1567</ele>
        <time>2015-08-16T10:07:02Z</time>
      </trkpt>
      <trkpt lat="42.90572" lon="0.21075">
        <ele>1568</ele>
        <time>2015-08-16T10:07:07Z</time>
      </trkpt>
      <trkpt lat="42.90572" lon="0.21069">
        <ele>1568</ele>
        <time>2015-08-16T10:07:13Z</time>
      </trkpt>
      <trkpt lat="42.9057" lon="0.21063">
        <ele>1569</ele>
        <time>2015-08-16T10:07:19Z</time>
      </trkpt>
      <trkpt lat="42.90569" lon="0.21058">
        <ele>1571</ele>
        <time>2015-08-16T10:07:24Z</time>
      </trkpt>
      <trkpt lat="42.90566" lon="0.21052">
        <ele>1572</ele>
        <time>2015-08-16T10:07:30Z</time>
      </trkpt>
      <trkpt lat="42.90564" lon="0.21047">
        <ele>1573</ele>
        <time>2015-08-16T10:07:35Z</time>
      </trkpt>
      <trkpt lat="42.90564" lon="0.21043">
        <ele>1575</ele>
        <time>2015-08-16T10:07:40Z</time>
      </trkpt>
      <trkpt lat="42.90561" lon="0.21039">
        <ele>1576</ele>
        <time>2015-08-16T10:07:46Z</time>
      </trkpt>
      <trkpt lat="42.90561" lon="0.21036">
        <ele>1577</ele>
        <time>2015-08-16T10:07:51Z</time>
      </trkpt>
      <trkpt lat="42.90559" lon="0.21033">
        <ele>1578</ele>
        <time>2015-08-16T10:07:56Z</time>
      </trkpt>
      <trkpt lat="42.90559" lon="0.21029">
        <ele>1580</ele>
        <time>2015-08-16T10:08:02Z</time>
      </trkpt>
      <trkpt lat="42.90556" lon="0.21028">
        <ele>1581</ele>
        <time>2015-08-16T10:08:08Z</time>
      </trkpt>
      <trkpt lat="42.90553" lon="0.21029">
        <ele>1582</ele>
        <time>2015-08-16T10:08:14Z</time>
      </trkpt>
      <trkpt lat="42.90552" lon="0.21027">
        <ele>1583</ele>
        <time>2015-08-16T10:08:19Z</time>
      </trkpt>
      <trkpt lat="42.90551" lon="0.21024">
        <ele>1584</ele>
        <time>2015-08-16T10:08:24Z</time>
      </trkpt>
      <trkpt lat="42.90549" lon="0.21021">
        <ele>1586</ele>
        <time>2015-08-16T10:08:30Z</time>
      </trkpt>
      <trkpt lat="42.90547" lon="0.21017">
        <ele>1587</ele>
        <time>2015-08-16T10:08:36Z</time>
      </trkpt>
      <trkpt lat="42.90545" lon="0.21016">
        <ele>1589</ele>
        <time>2015-08-16T10:08:41Z</time>
      </trkpt>
      <trkpt lat="42.90545" lon="0.21012">
        <ele>1590</ele>
        <time>2015-08-16T10:08:47Z</time>
      </trkpt>
      <trkpt lat="42.90545" lon="0.21011">
        <ele>1590</ele>
        <time>2015-08-16T10:08:53Z</time>
      </trkpt>
      <trkpt lat="42.90545" lon="0.21006">
        <ele>1591</ele>
        <time>2015-08-16T10:08:58Z</time>
      </trkpt>
      <trkpt lat="42.90546" lon="0.21001">
        <ele>1592</ele>
        <time>2015-08-16T10:09:03Z</time>
      </trkpt>
      <trkpt lat="42.90547" lon="0.20996">
        <ele>1592</ele>
        <time>2015-08-16T10:09:08Z</time>
      </trkpt>
      <trkpt lat="42.90548" lon="0.20992">
        <ele>1593</ele>
        <time>2015-08-16T10:09:14Z</time>
      </trkpt>
      <trkpt lat="42.9055" lon="0.20989">
        <ele>1594</ele>
        <time>2015-08-16T10:09:19Z</time>
      </trkpt>
      <trkpt lat="42.9055" lon="0.20984">
        <ele>1595</ele>
        <time>2015-08-16T10:09:24Z</time>
      </trkpt>
      <trkpt lat="42.90551" lon="0.20978">
        <ele>1596</ele>
        <time>2015-08-16T10:09:29Z</time>
      </trkpt>
      <trkpt lat="42.90551" lon="0.20973">
        <ele>1597</ele>
        <time>2015-08-16T10:09:34Z</time>
      </trkpt>
      <trkpt lat="42.90551" lon="0.20967">
        <ele>1599</ele>
        <time>2015-08-16T10:09:40Z</time>
      </trkpt>
      <trkpt lat="42.90552" lon="0.20962">
        <ele>1600</ele>
        <time>2015-08-16T10:09:46Z</time>
      </trkpt>
      <trkpt lat="42.90552" lon="0.20957">
        <ele>1601</ele>
        <time>2015-08-16T10:09:52Z</time>
      </trkpt>
      <trkpt lat="42.90554" lon="0.20952">
        <ele>1602</ele>
        <time>2015-08-16T10:09:57Z</time>
      </trkpt>
      <trkpt lat="42.90557" lon="0.20947">
        <ele>1604</ele>
        <time>2015-08-16T10:10:03Z</time>
      </trkpt>
      <trkpt lat="42.90559" lon="0.20942">
        <ele>1604</ele>
        <time>2015-08-16T10:10:08Z</time>
      </trkpt>
      <trkpt lat="42.90562" lon="0.20938">
        <ele>1605</ele>
        <time>2015-08-16T10:10:13Z</time>
      </trkpt>
      <trkpt lat="42.90564" lon="0.20935">
        <ele>1606</ele>
        <time>2015-08-16T10:10:18Z</time>
      </trkpt>
      <trkpt lat="42.90564" lon="0.20931">
        <ele>1607</ele>
        <time>2015-08-16T10:10:24Z</time>
      </trkpt>
      <trkpt lat="42.90566" lon="0.20929">
        <ele>1608</ele>
        <time>2015-08-16T10:10:29Z</time>
      </trkpt>
      <trkpt lat="42.90566" lon="0.20925">
        <ele>1610</ele>
        <time>2015-08-16T10:10:34Z</time>
      </trkpt>
      <trkpt lat="42.90567" lon="0.20921">
        <ele>1611</ele>
        <time>2015-08-16T10:10:40Z</time>
      </trkpt>
      <trkpt lat="42.90567" lon="0.20918">
        <ele>1612</ele>
        <time>2015-08-16T10:10:45Z</time>
      </trkpt>
      <trkpt lat="42.90567" lon="0.20916">
        <ele>1613</ele>
        <time>2015-08-16T10:10:50Z</time>
      </trkpt>
      <trkpt lat="42.90565" lon="0.20914">
        <ele>1614</ele>
        <time>2015-08-16T10:10:55Z</time>
      </trkpt>
      <trkpt lat="42.90562" lon="0.20914">
        <ele>1615</ele>
        <time>2015-08-16T10:11:00Z</time>
      </trkpt>
      <trkpt lat="42.90558" lon="0.20912">
        <ele>1615</ele>
        <time>2015-08-16T10:11:06Z</time>
      </trkpt>
      <trkpt lat="42.90554" lon="0.20912">
        <ele>1617</ele>
        <time>2015-08-16T10:11:12Z</time>
      </trkpt>
      <trkpt lat="42.90551" lon="0.20912">
        <ele>1618</ele>
        <time>2015-08-16T10:11:18Z</time>
      </trkpt>
      <trkpt lat="42.90547" lon="0.20912">
        <ele>1619</ele>
        <time>2015-08-16T10:11:24Z</time>
      </trkpt>
      <trkpt lat="42.90544" lon="0.20913">
        <ele>1620</ele>
        <time>2015-08-16T10:11:30Z</time>
      </trkpt>
      <trkpt lat="42.90541" lon="0.20915">
        <ele>1621</ele>
        <time>2015-08-16T10:11:35Z</time>
      </trkpt>
      <trkpt lat="42.90539" lon="0.20915">
        <ele>1622</ele>
        <time>2015-08-16T10:11:41Z</time>
      </trkpt>
      <trkpt lat="42.90536" lon="0.20916">
        <ele>1623</ele>
        <time>2015-08-16T10:11:46Z</time>
      </trkpt>
      <trkpt lat="42.90532" lon="0.20918">
        <ele>1624</ele>
        <time>2015-08-16T10:11:52Z</time>
      </trkpt>
      <trkpt lat="42.9053" lon="0.20921">
        <ele>1625</ele>
        <time>2015-08-16T10:11:57Z</time>
      </trkpt>
      <trkpt lat="42.90528" lon="0.2092">
        <ele>1627</ele>
        <time>2015-08-16T10:12:02Z</time>
      </trkpt>
      <trkpt lat="42.90525" lon="0.20919">
        <ele>1628</ele>
        <time>2015-08-16T10:12:08Z</time>
      </trkpt>
      <trkpt lat="42.90524" lon="0.20921">
        <ele>1629</ele>
        <time>2015-08-16T10:12:13Z</time>
      </trkpt>
      <trkpt lat="42.90522" lon="0.2092">
        <ele>1630</ele>
        <time>2015-08-16T10:12:18Z</time>
      </trkpt>
      <trkpt lat="42.90519" lon="0.20922">
        <ele>1631</ele>
        <time>2015-08-16T10:12:23Z</time>
      </trkpt>
      <trkpt lat="42.90516" lon="0.20923">
        <ele>1632</ele>
        <time>2015-08-16T10:12:28Z</time>
      </trkpt>
      <trkpt lat="42.90513" lon="0.20926">
        <ele>1633</ele>
        <time>2015-08-16T10:12:34Z</time>
      </trkpt>
      <trkpt lat="42.90511" lon="0.20928">
        <ele>1634</ele>
        <time>2015-08-16T10:12:39Z</time>
      </trkpt>
      <trkpt lat="42.90509" lon="0.20931">
        <ele>1635</ele>
        <time>2015-08-16T10:12:44Z</time>
      </trkpt>
      <trkpt lat="42.90505" lon="0.20933">
        <ele>1636</ele>
        <time>2015-08-16T10:12:50Z</time>
      </trkpt>
      <trkpt lat="42.90503" lon="0.20935">
        <ele>1637</ele>
        <time>2015-08-16T10:12:55Z</time>
      </trkpt>
      <trkpt lat="42.90503" lon="0.20938">
        <ele>1638</ele>
        <time>2015-08-16T10:13:00Z</time>
      </trkpt>
      <trkpt lat="42.90504" lon="0.20942">
        <ele>1639</ele>
        <time>2015-08-16T10:13:06Z</time>
      </trkpt>
      <trkpt lat="42.90503" lon="0.20943">
        <ele>1640</ele>
        <time>2015-08-16T10:13:11Z</time>
      </trkpt>
      <trkpt lat="42.905" lon="0.20944">
        <ele>1641</ele>
        <time>2015-08-16T10:13:17Z</time>
      </trkpt>
      <trkpt lat="42.90498" lon="0.20947">
        <ele>1641</ele>
        <time>2015-08-16T10:13:22Z</time>
      </trkpt>
      <trkpt lat="42.90495" lon="0.2095">
        <ele>1642</ele>
        <time>2015-08-16T10:13:27Z</time>
      </trkpt>
      <trkpt lat="42.90492" lon="0.20953">
        <ele>1643</ele>
        <time>2015-08-16T10:13:32Z</time>
      </trkpt>
      <trkpt lat="42.90488" lon="0.20955">
        <ele>1644</ele>
        <time>2015-08-16T10:13:38Z</time>
      </trkpt>
      <trkpt lat="42.90486" lon="0.20958">
        <ele>1645</ele>
        <time>2015-08-16T10:13:43Z</time>
      </trkpt>
      <trkpt lat="42.90483" lon="0.2096">
        <ele>1646</ele>
        <time>2015-08-16T10:13:49Z</time>
      </trkpt>
      <trkpt lat="42.90482" lon="0.20961">
        <ele>1647</ele>
        <time>2015-08-16T10:13:54Z</time>
      </trkpt>
      <trkpt lat="42.9048" lon="0.20962">
        <ele>1648</ele>
        <time>2015-08-16T10:13:59Z</time>
      </trkpt>
      <trkpt lat="42.90479" lon="0.20961">
        <ele>1649</ele>
        <time>2015-08-16T10:14:07Z</time>
      </trkpt>
      <trkpt lat="42.90479" lon="0.20961">
        <ele>1649</ele>
        <time>2015-08-16T10:14:13Z</time>
      </trkpt>
      <trkpt lat="42.90478" lon="0.20961">
        <ele>1649</ele>
        <time>2015-08-16T10:14:18Z</time>
      </trkpt>
      <trkpt lat="42.90478" lon="0.20961">
        <ele>1649</ele>
        <time>2015-08-16T10:14:24Z</time>
      </trkpt>
      <trkpt lat="42.90478" lon="0.20961">
        <ele>1649</ele>
        <time>2015-08-16T10:14:31Z</time>
      </trkpt>
      <trkpt lat="42.90477" lon="0.2096">
        <ele>1649</ele>
        <time>2015-08-16T10:14:36Z</time>
      </trkpt>
      <trkpt lat="42.90478" lon="0.2096">
        <ele>1650</ele>
        <time>2015-08-16T10:14:41Z</time>
      </trkpt>
      <trkpt lat="42.90479" lon="0.2096">
        <ele>1649</ele>
        <time>2015-08-16T10:14:47Z</time>
      </trkpt>
      <trkpt lat="42.90479" lon="0.2096">
        <ele>1650</ele>
        <time>2015-08-16T10:14:53Z</time>
      </trkpt>
      <trkpt lat="42.90479" lon="0.2096">
        <ele>1650</ele>
        <time>2015-08-16T10:15:00Z</time>
      </trkpt>
      <trkpt lat="42.90479" lon="0.2096">
        <ele>1650</ele>
        <time>2015-08-16T10:15:06Z</time>
      </trkpt>
      <trkpt lat="42.90478" lon="0.20959">
        <ele>1650</ele>
        <time>2015-08-16T10:15:12Z</time>
      </trkpt>
      <trkpt lat="42.90477" lon="0.20958">
        <ele>1650</ele>
        <time>2015-08-16T10:15:17Z</time>
      </trkpt>
      <trkpt lat="42.90477" lon="0.20959">
        <ele>1650</ele>
        <time>2015-08-16T10:15:24Z</time>
      </trkpt>
      <trkpt lat="42.90476" lon="0.20959">
        <ele>1650</ele>
        <time>2015-08-16T10:15:29Z</time>
      </trkpt>
      <trkpt lat="42.90475" lon="0.20955">
        <ele>1651</ele>
        <time>2015-08-16T10:15:35Z</time>
      </trkpt>
      <trkpt lat="42.90472" lon="0.20954">
        <ele>1652</ele>
        <time>2015-08-16T10:15:40Z</time>
      </trkpt>
      <trkpt lat="42.90472" lon="0.20952">
        <ele>1654</ele>
        <time>2015-08-16T10:15:46Z</time>
      </trkpt>
      <trkpt lat="42.90472" lon="0.20948">
        <ele>1655</ele>
        <time>2015-08-16T10:15:51Z</time>
      </trkpt>
      <trkpt lat="42.90471" lon="0.20946">
        <ele>1656</ele>
        <time>2015-08-16T10:15:56Z</time>
      </trkpt>
      <trkpt lat="42.90468" lon="0.20946">
        <ele>1657</ele>
        <time>2015-08-16T10:16:02Z</time>
      </trkpt>
      <trkpt lat="42.90466" lon="0.20944">
        <ele>1658</ele>
        <time>2015-08-16T10:16:07Z</time>
      </trkpt>
      <trkpt lat="42.90463" lon="0.20947">
        <ele>1660</ele>
        <time>2015-08-16T10:16:13Z</time>
      </trkpt>
      <trkpt lat="42.9046" lon="0.20948">
        <ele>1661</ele>
        <time>2015-08-16T10:16:18Z</time>
      </trkpt>
      <trkpt lat="42.90458" lon="0.20953">
        <ele>1661</ele>
        <time>2015-08-16T10:16:24Z</time>
      </trkpt>
      <trkpt lat="42.90456" lon="0.20957">
        <ele>1662</ele>
        <time>2015-08-16T10:16:29Z</time>
      </trkpt>
      <trkpt lat="42.90456" lon="0.20961">
        <ele>1663</ele>
        <time>2015-08-16T10:16:34Z</time>
      </trkpt>
      <trkpt lat="42.90456" lon="0.20967">
        <ele>1665</ele>
        <time>2015-08-16T10:16:40Z</time>
      </trkpt>
      <trkpt lat="42.90454" lon="0.2097">
        <ele>1666</ele>
        <time>2015-08-16T10:16:45Z</time>
      </trkpt>
      <trkpt lat="42.90452" lon="0.20973">
        <ele>1666</ele>
        <time>2015-08-16T10:16:50Z</time>
      </trkpt>
      <trkpt lat="42.90449" lon="0.20971">
        <ele>1667</ele>
        <time>2015-08-16T10:16:56Z</time>
      </trkpt>
      <trkpt lat="42.90447" lon="0.20968">
        <ele>1668</ele>
        <time>2015-08-16T10:17:01Z</time>
      </trkpt>
      <trkpt lat="42.90447" lon="0.20963">
        <ele>1669</ele>
        <time>2015-08-16T10:17:06Z</time>
      </trkpt>
      <trkpt lat="42.90444" lon="0.20956">
        <ele>1670</ele>
        <time>2015-08-16T10:17:12Z</time>
      </trkpt>
      <trkpt lat="42.9044" lon="0.20951">
        <ele>1670</ele>
        <time>2015-08-16T10:17:18Z</time>
      </trkpt>
      <trkpt lat="42.90437" lon="0.20948">
        <ele>1671</ele>
        <time>2015-08-16T10:17:23Z</time>
      </trkpt>
      <trkpt lat="42.90433" lon="0.20947">
        <ele>1671</ele>
        <time>2015-08-16T10:17:28Z</time>
      </trkpt>
      <trkpt lat="42.9043" lon="0.20945">
        <ele>1672</ele>
        <time>2015-08-16T10:17:33Z</time>
      </trkpt>
      <trkpt lat="42.90425" lon="0.20944">
        <ele>1673</ele>
        <time>2015-08-16T10:17:39Z</time>
      </trkpt>
      <trkpt lat="42.90422" lon="0.20944">
        <ele>1674</ele>
        <time>2015-08-16T10:17:44Z</time>
      </trkpt>
      <trkpt lat="42.90419" lon="0.20942">
        <ele>1675</ele>
        <time>2015-08-16T10:17:50Z</time>
      </trkpt>
      <trkpt lat="42.90416" lon="0.2094">
        <ele>1676</ele>
        <time>2015-08-16T10:17:55Z</time>
      </trkpt>
      <trkpt lat="42.90413" lon="0.20938">
        <ele>1677</ele>
        <time>2015-08-16T10:18:00Z</time>
      </trkpt>
      <trkpt lat="42.90408" lon="0.20938">
        <ele>1678</ele>
        <time>2015-08-16T10:18:06Z</time>
      </trkpt>
      <trkpt lat="42.90405" lon="0.20936">
        <ele>1679</ele>
        <time>2015-08-16T10:18:11Z</time>
      </trkpt>
      <trkpt lat="42.90402" lon="0.20933">
        <ele>1680</ele>
        <time>2015-08-16T10:18:16Z</time>
      </trkpt>
      <trkpt lat="42.90399" lon="0.20933">
        <ele>1680</ele>
        <time>2015-08-16T10:18:21Z</time>
      </trkpt>
      <trkpt lat="42.90395" lon="0.2093">
        <ele>1681</ele>
        <time>2015-08-16T10:18:27Z</time>
      </trkpt>
      <trkpt lat="42.90393" lon="0.20927">
        <ele>1682</ele>
        <time>2015-08-16T10:18:32Z</time>
      </trkpt>
      <trkpt lat="42.9039" lon="0.20924">
        <ele>1683</ele>
        <time>2015-08-16T10:18:38Z</time>
      </trkpt>
      <trkpt lat="42.90389" lon="0.20921">
        <ele>1684</ele>
        <time>2015-08-16T10:18:43Z</time>
      </trkpt>
      <trkpt lat="42.90387" lon="0.20917">
        <ele>1686</ele>
        <time>2015-08-16T10:18:49Z</time>
      </trkpt>
      <trkpt lat="42.90385" lon="0.20914">
        <ele>1686</ele>
        <time>2015-08-16T10:18:54Z</time>
      </trkpt>
      <trkpt lat="42.9038" lon="0.20912">
        <ele>1687</ele>
        <time>2015-08-16T10:19:00Z</time>
      </trkpt>
      <trkpt lat="42.90376" lon="0.20911">
        <ele>1688</ele>
        <time>2015-08-16T10:19:06Z</time>
      </trkpt>
      <trkpt lat="42.90373" lon="0.2091">
        <ele>1689</ele>
        <time>2015-08-16T10:19:11Z</time>
      </trkpt>
      <trkpt lat="42.90371" lon="0.20907">
        <ele>1690</ele>
        <time>2015-08-16T10:19:16Z</time>
      </trkpt>
      <trkpt lat="42.90368" lon="0.20904">
        <ele>1691</ele>
        <time>2015-08-16T10:19:22Z</time>
      </trkpt>
      <trkpt lat="42.90364" lon="0.209">
        <ele>1692</ele>
        <time>2015-08-16T10:19:28Z</time>
      </trkpt>
      <trkpt lat="42.90361" lon="0.20899">
        <ele>1693</ele>
        <time>2015-08-16T10:19:33Z</time>
      </trkpt>
      <trkpt lat="42.90357" lon="0.20897">
        <ele>1693</ele>
        <time>2015-08-16T10:19:38Z</time>
      </trkpt>
      <trkpt lat="42.90353" lon="0.20895">
        <ele>1694</ele>
        <time>2015-08-16T10:19:44Z</time>
      </trkpt>
      <trkpt lat="42.9035" lon="0.20892">
        <ele>1695</ele>
        <time>2015-08-16T10:19:49Z</time>
      </trkpt>
      <trkpt lat="42.90347" lon="0.20891">
        <ele>1696</ele>
        <time>2015-08-16T10:19:54Z</time>
      </trkpt>
      <trkpt lat="42.90344" lon="0.20888">
        <ele>1697</ele>
        <time>2015-08-16T10:20:00Z</time>
      </trkpt>
      <trkpt lat="42.9034" lon="0.20887">
        <ele>1698</ele>
        <time>2015-08-16T10:20:05Z</time>
      </trkpt>
      <trkpt lat="42.90338" lon="0.20884">
        <ele>1699</ele>
        <time>2015-08-16T10:20:11Z</time>
      </trkpt>
      <trkpt lat="42.90335" lon="0.20884">
        <ele>1700</ele>
        <time>2015-08-16T10:20:16Z</time>
      </trkpt>
      <trkpt lat="42.90332" lon="0.20882">
        <ele>1701</ele>
        <time>2015-08-16T10:20:21Z</time>
      </trkpt>
      <trkpt lat="42.90329" lon="0.20881">
        <ele>1702</ele>
        <time>2015-08-16T10:20:27Z</time>
      </trkpt>
      <trkpt lat="42.90325" lon="0.2088">
        <ele>1703</ele>
        <time>2015-08-16T10:20:33Z</time>
      </trkpt>
      <trkpt lat="42.90322" lon="0.20878">
        <ele>1702</ele>
        <time>2015-08-16T10:20:38Z</time>
      </trkpt>
      <trkpt lat="42.90319" lon="0.20873">
        <ele>1702</ele>
        <time>2015-08-16T10:20:44Z</time>
      </trkpt>
      <trkpt lat="42.90316" lon="0.20869">
        <ele>1702</ele>
        <time>2015-08-16T10:20:49Z</time>
      </trkpt>
      <trkpt lat="42.90311" lon="0.20864">
        <ele>1701</ele>
        <time>2015-08-16T10:20:55Z</time>
      </trkpt>
      <trkpt lat="42.90306" lon="0.20862">
        <ele>1701</ele>
        <time>2015-08-16T10:21:00Z</time>
      </trkpt>
      <trkpt lat="42.903" lon="0.20861">
        <ele>1701</ele>
        <time>2015-08-16T10:21:06Z</time>
      </trkpt>
      <trkpt lat="42.90295" lon="0.20859">
        <ele>1702</ele>
        <time>2015-08-16T10:21:11Z</time>
      </trkpt>
      <trkpt lat="42.9029" lon="0.20861">
        <ele>1702</ele>
        <time>2015-08-16T10:21:17Z</time>
      </trkpt>
      <trkpt lat="42.90289" lon="0.20858">
        <ele>1703</ele>
        <time>2015-08-16T10:21:22Z</time>
      </trkpt>
      <trkpt lat="42.90289" lon="0.20854">
        <ele>1704</ele>
        <time>2015-08-16T10:21:27Z</time>
      </trkpt>
      <trkpt lat="42.90287" lon="0.20852">
        <ele>1705</ele>
        <time>2015-08-16T10:21:33Z</time>
      </trkpt>
      <trkpt lat="42.90285" lon="0.2085">
        <ele>1707</ele>
        <time>2015-08-16T10:21:38Z</time>
      </trkpt>
      <trkpt lat="42.90283" lon="0.20852">
        <ele>1707</ele>
        <time>2015-08-16T10:21:43Z</time>
      </trkpt>
      <trkpt lat="42.9028" lon="0.20853">
        <ele>1708</ele>
        <time>2015-08-16T10:21:49Z</time>
      </trkpt>
      <trkpt lat="42.90279" lon="0.2085">
        <ele>1710</ele>
        <time>2015-08-16T10:21:55Z</time>
      </trkpt>
      <trkpt lat="42.9028" lon="0.20847">
        <ele>1711</ele>
        <time>2015-08-16T10:22:00Z</time>
      </trkpt>
      <trkpt lat="42.90279" lon="0.20844">
        <ele>1712</ele>
        <time>2015-08-16T10:22:05Z</time>
      </trkpt>
      <trkpt lat="42.90278" lon="0.20841">
        <ele>1713</ele>
        <time>2015-08-16T10:22:11Z</time>
      </trkpt>
      <trkpt lat="42.90275" lon="0.20842">
        <ele>1713</ele>
        <time>2015-08-16T10:22:16Z</time>
      </trkpt>
      <trkpt lat="42.90273" lon="0.20842">
        <ele>1715</ele>
        <time>2015-08-16T10:22:22Z</time>
      </trkpt>
      <trkpt lat="42.90272" lon="0.2084">
        <ele>1716</ele>
        <time>2015-08-16T10:22:27Z</time>
      </trkpt>
      <trkpt lat="42.90271" lon="0.20838">
        <ele>1716</ele>
        <time>2015-08-16T10:22:32Z</time>
      </trkpt>
      <trkpt lat="42.90269" lon="0.20838">
        <ele>1717</ele>
        <time>2015-08-16T10:22:38Z</time>
      </trkpt>
      <trkpt lat="42.90267" lon="0.20838">
        <ele>1718</ele>
        <time>2015-08-16T10:22:43Z</time>
      </trkpt>
      <trkpt lat="42.90266" lon="0.20836">
        <ele>1719</ele>
        <time>2015-08-16T10:22:48Z</time>
      </trkpt>
      <trkpt lat="42.90264" lon="0.20836">
        <ele>1719</ele>
        <time>2015-08-16T10:22:53Z</time>
      </trkpt>
      <trkpt lat="42.90262" lon="0.20836">
        <ele>1720</ele>
        <time>2015-08-16T10:22:58Z</time>
      </trkpt>
      <trkpt lat="42.9026" lon="0.20834">
        <ele>1722</ele>
        <time>2015-08-16T10:23:04Z</time>
      </trkpt>
      <trkpt lat="42.90257" lon="0.20833">
        <ele>1723</ele>
        <time>2015-08-16T10:23:09Z</time>
      </trkpt>
      <trkpt lat="42.90255" lon="0.20832">
        <ele>1724</ele>
        <time>2015-08-16T10:23:15Z</time>
      </trkpt>
      <trkpt lat="42.90253" lon="0.20834">
        <ele>1726</ele>
        <time>2015-08-16T10:23:20Z</time>
      </trkpt>
      <trkpt lat="42.90253" lon="0.20837">
        <ele>1727</ele>
        <time>2015-08-16T10:23:26Z</time>
      </trkpt>
      <trkpt lat="42.90249" lon="0.2084">
        <ele>1727</ele>
        <time>2015-08-16T10:23:31Z</time>
      </trkpt>
      <trkpt lat="42.90244" lon="0.20842">
        <ele>1728</ele>
        <time>2015-08-16T10:23:37Z</time>
      </trkpt>
      <trkpt lat="42.90241" lon="0.20842">
        <ele>1728</ele>
        <time>2015-08-16T10:23:42Z</time>
      </trkpt>
      <trkpt lat="42.90237" lon="0.20844">
        <ele>1729</ele>
        <time>2015-08-16T10:23:48Z</time>
      </trkpt>
      <trkpt lat="42.90233" lon="0.20843">
        <ele>1730</ele>
        <time>2015-08-16T10:23:54Z</time>
      </trkpt>
      <trkpt lat="42.9023" lon="0.20843">
        <ele>1732</ele>
        <time>2015-08-16T10:24:00Z</time>
      </trkpt>
      <trkpt lat="42.90229" lon="0.20841">
        <ele>1733</ele>
        <time>2015-08-16T10:24:05Z</time>
      </trkpt>
      <trkpt lat="42.90226" lon="0.20842">
        <ele>1734</ele>
        <time>2015-08-16T10:24:11Z</time>
      </trkpt>
      <trkpt lat="42.90224" lon="0.20842">
        <ele>1735</ele>
        <time>2015-08-16T10:24:16Z</time>
      </trkpt>
      <trkpt lat="42.90222" lon="0.20841">
        <ele>1736</ele>
        <time>2015-08-16T10:24:21Z</time>
      </trkpt>
      <trkpt lat="42.90219" lon="0.20841">
        <ele>1737</ele>
        <time>2015-08-16T10:24:27Z</time>
      </trkpt>
      <trkpt lat="42.90217" lon="0.20838">
        <ele>1738</ele>
        <time>2015-08-16T10:24:32Z</time>
      </trkpt>
      <trkpt lat="42.90216" lon="0.20834">
        <ele>1739</ele>
        <time>2015-08-16T10:24:38Z</time>
      </trkpt>
      <trkpt lat="42.90218" lon="0.20831">
        <ele>1740</ele>
        <time>2015-08-16T10:24:43Z</time>
      </trkpt>
      <trkpt lat="42.90218" lon="0.20826">
        <ele>1741</ele>
        <time>2015-08-16T10:24:49Z</time>
      </trkpt>
      <trkpt lat="42.90218" lon="0.20822">
        <ele>1742</ele>
        <time>2015-08-16T10:24:54Z</time>
      </trkpt>
      <trkpt lat="42.90218" lon="0.20818">
        <ele>1743</ele>
        <time>2015-08-16T10:25:00Z</time>
      </trkpt>
      <trkpt lat="42.90218" lon="0.20815">
        <ele>1743</ele>
        <time>2015-08-16T10:25:05Z</time>
      </trkpt>
      <trkpt lat="42.90216" lon="0.20813">
        <ele>1744</ele>
        <time>2015-08-16T10:25:10Z</time>
      </trkpt>
      <trkpt lat="42.90214" lon="0.2081">
        <ele>1745</ele>
        <time>2015-08-16T10:25:16Z</time>
      </trkpt>
      <trkpt lat="42.90212" lon="0.20808">
        <ele>1746</ele>
        <time>2015-08-16T10:25:21Z</time>
      </trkpt>
      <trkpt lat="42.9021" lon="0.20805">
        <ele>1747</ele>
        <time>2015-08-16T10:25:26Z</time>
      </trkpt>
      <trkpt lat="42.90208" lon="0.20803">
        <ele>1748</ele>
        <time>2015-08-16T10:25:31Z</time>
      </trkpt>
      <trkpt lat="42.90207" lon="0.208">
        <ele>1749</ele>
        <time>2015-08-16T10:25:37Z</time>
      </trkpt>
      <trkpt lat="42.90205" lon="0.20799">
        <ele>1749</ele>
        <time>2015-08-16T10:25:42Z</time>
      </trkpt>
      <trkpt lat="42.90203" lon="0.20799">
        <ele>1750</ele>
        <time>2015-08-16T10:25:47Z</time>
      </trkpt>
      <trkpt lat="42.90201" lon="0.20799">
        <ele>1751</ele>
        <time>2015-08-16T10:25:52Z</time>
      </trkpt>
      <trkpt lat="42.90198" lon="0.208">
        <ele>1752</ele>
        <time>2015-08-16T10:25:58Z</time>
      </trkpt>
      <trkpt lat="42.90195" lon="0.20798">
        <ele>1752</ele>
        <time>2015-08-16T10:26:03Z</time>
      </trkpt>
      <trkpt lat="42.90192" lon="0.20798">
        <ele>1753</ele>
        <time>2015-08-16T10:26:08Z</time>
      </trkpt>
      <trkpt lat="42.90189" lon="0.20796">
        <ele>1754</ele>
        <time>2015-08-16T10:26:14Z</time>
      </trkpt>
      <trkpt lat="42.90186" lon="0.20794">
        <ele>1756</ele>
        <time>2015-08-16T10:26:20Z</time>
      </trkpt>
      <trkpt lat="42.90184" lon="0.20791">
        <ele>1757</ele>
        <time>2015-08-16T10:26:26Z</time>
      </trkpt>
      <trkpt lat="42.90181" lon="0.20789">
        <ele>1758</ele>
        <time>2015-08-16T10:26:31Z</time>
      </trkpt>
      <trkpt lat="42.90179" lon="0.20788">
        <ele>1759</ele>
        <time>2015-08-16T10:26:36Z</time>
      </trkpt>
      <trkpt lat="42.90177" lon="0.20786">
        <ele>1760</ele>
        <time>2015-08-16T10:26:42Z</time>
      </trkpt>
      <trkpt lat="42.90174" lon="0.20786">
        <ele>1761</ele>
        <time>2015-08-16T10:26:47Z</time>
      </trkpt>
      <trkpt lat="42.90173" lon="0.20783">
        <ele>1762</ele>
        <time>2015-08-16T10:26:52Z</time>
      </trkpt>
      <trkpt lat="42.90173" lon="0.20779">
        <ele>1763</ele>
        <time>2015-08-16T10:26:58Z</time>
      </trkpt>
      <trkpt lat="42.90173" lon="0.20775">
        <ele>1764</ele>
        <time>2015-08-16T10:27:03Z</time>
      </trkpt>
      <trkpt lat="42.90171" lon="0.20774">
        <ele>1765</ele>
        <time>2015-08-16T10:27:08Z</time>
      </trkpt>
      <trkpt lat="42.90169" lon="0.2077">
        <ele>1767</ele>
        <time>2015-08-16T10:27:14Z</time>
      </trkpt>
      <trkpt lat="42.90168" lon="0.20768">
        <ele>1768</ele>
        <time>2015-08-16T10:27:19Z</time>
      </trkpt>
      <trkpt lat="42.90169" lon="0.20764">
        <ele>1769</ele>
        <time>2015-08-16T10:27:25Z</time>
      </trkpt>
      <trkpt lat="42.90168" lon="0.20761">
        <ele>1770</ele>
        <time>2015-08-16T10:27:31Z</time>
      </trkpt>
      <trkpt lat="42.90168" lon="0.20757">
        <ele>1771</ele>
        <time>2015-08-16T10:27:37Z</time>
      </trkpt>
      <trkpt lat="42.90167" lon="0.20755">
        <ele>1772</ele>
        <time>2015-08-16T10:27:42Z</time>
      </trkpt>
      <trkpt lat="42.90166" lon="0.20752">
        <ele>1773</ele>
        <time>2015-08-16T10:27:47Z</time>
      </trkpt>
      <trkpt lat="42.90165" lon="0.2075">
        <ele>1774</ele>
        <time>2015-08-16T10:27:53Z</time>
      </trkpt>
      <trkpt lat="42.90163" lon="0.20747">
        <ele>1775</ele>
        <time>2015-08-16T10:27:58Z</time>
      </trkpt>
      <trkpt lat="42.90163" lon="0.20744">
        <ele>1776</ele>
        <time>2015-08-16T10:28:04Z</time>
      </trkpt>
      <trkpt lat="42.90163" lon="0.2074">
        <ele>1778</ele>
        <time>2015-08-16T10:28:10Z</time>
      </trkpt>
      <trkpt lat="42.90163" lon="0.20738">
        <ele>1779</ele>
        <time>2015-08-16T10:28:15Z</time>
      </trkpt>
      <trkpt lat="42.90162" lon="0.20734">
        <ele>1780</ele>
        <time>2015-08-16T10:28:21Z</time>
      </trkpt>
      <trkpt lat="42.90163" lon="0.20732">
        <ele>1781</ele>
        <time>2015-08-16T10:28:26Z</time>
      </trkpt>
      <trkpt lat="42.90165" lon="0.2073">
        <ele>1782</ele>
        <time>2015-08-16T10:28:31Z</time>
      </trkpt>
      <trkpt lat="42.90166" lon="0.20728">
        <ele>1783</ele>
        <time>2015-08-16T10:28:37Z</time>
      </trkpt>
      <trkpt lat="42.90165" lon="0.20725">
        <ele>1785</ele>
        <time>2015-08-16T10:28:42Z</time>
      </trkpt>
      <trkpt lat="42.90166" lon="0.20725">
        <ele>1785</ele>
        <time>2015-08-16T10:28:47Z</time>
      </trkpt>
      <trkpt lat="42.90168" lon="0.20727">
        <ele>1784</ele>
        <time>2015-08-16T10:28:52Z</time>
      </trkpt>
      <trkpt lat="42.90168" lon="0.20727">
        <ele>1784</ele>
        <time>2015-08-16T10:28:57Z</time>
      </trkpt>
      <trkpt lat="42.90168" lon="0.20727">
        <ele>1784</ele>
        <time>2015-08-16T10:29:04Z</time>
      </trkpt>
      <trkpt lat="42.90167" lon="0.20727">
        <ele>1784</ele>
        <time>2015-08-16T10:29:09Z</time>
      </trkpt>
      <trkpt lat="42.90165" lon="0.20726">
        <ele>1784</ele>
        <time>2015-08-16T10:29:14Z</time>
      </trkpt>
      <trkpt lat="42.90165" lon="0.20726">
        <ele>1784</ele>
        <time>2015-08-16T10:29:19Z</time>
      </trkpt>
      <trkpt lat="42.90165" lon="0.20726">
        <ele>1784</ele>
        <time>2015-08-16T10:29:25Z</time>
      </trkpt>
      <trkpt lat="42.90165" lon="0.20726">
        <ele>1784</ele>
        <time>2015-08-16T10:29:30Z</time>
      </trkpt>
      <trkpt lat="42.90166" lon="0.20726">
        <ele>1784</ele>
        <time>2015-08-16T10:29:36Z</time>
      </trkpt>
      <trkpt lat="42.90167" lon="0.20726">
        <ele>1783</ele>
        <time>2015-08-16T10:29:42Z</time>
      </trkpt>
      <trkpt lat="42.90168" lon="0.20727">
        <ele>1784</ele>
        <time>2015-08-16T10:29:47Z</time>
      </trkpt>
      <trkpt lat="42.9017" lon="0.20727">
        <ele>1784</ele>
        <time>2015-08-16T10:29:52Z</time>
      </trkpt>
      <trkpt lat="42.90171" lon="0.20727">
        <ele>1783</ele>
        <time>2015-08-16T10:29:57Z</time>
      </trkpt>
      <trkpt lat="42.90173" lon="0.20728">
        <ele>1784</ele>
        <time>2015-08-16T10:30:02Z</time>
      </trkpt>
      <trkpt lat="42.90175" lon="0.20728">
        <ele>1784</ele>
        <time>2015-08-16T10:30:08Z</time>
      </trkpt>
      <trkpt lat="42.90175" lon="0.20728">
        <ele>1783</ele>
        <time>2015-08-16T10:30:13Z</time>
      </trkpt>
      <trkpt lat="42.90175" lon="0.20728">
        <ele>1784</ele>
        <time>2015-08-16T10:30:19Z</time>
      </trkpt>
      <trkpt lat="42.90174" lon="0.20728">
        <ele>1784</ele>
        <time>2015-08-16T10:30:24Z</time>
      </trkpt>
      <trkpt lat="42.90173" lon="0.20728">
        <ele>1783</ele>
        <time>2015-08-16T10:30:30Z</time>
      </trkpt>
      <trkpt lat="42.9017" lon="0.20727">
        <ele>1784</ele>
        <time>2015-08-16T10:30:35Z</time>
      </trkpt>
      <trkpt lat="42.90168" lon="0.20727">
        <ele>1784</ele>
        <time>2015-08-16T10:30:40Z</time>
      </trkpt>
      <trkpt lat="42.90168" lon="0.20726">
        <ele>1784</ele>
        <time>2015-08-16T10:30:46Z</time>
      </trkpt>
      <trkpt lat="42.90167" lon="0.20725">
        <ele>1784</ele>
        <time>2015-08-16T10:30:53Z</time>
      </trkpt>
      <trkpt lat="42.90166" lon="0.20725">
        <ele>1784</ele>
        <time>2015-08-16T10:30:58Z</time>
      </trkpt>
      <trkpt lat="42.90165" lon="0.20725">
        <ele>1784</ele>
        <time>2015-08-16T10:31:03Z</time>
      </trkpt>
      <trkpt lat="42.90166" lon="0.20725">
        <ele>1783</ele>
        <time>2015-08-16T10:31:09Z</time>
      </trkpt>
      <trkpt lat="42.90169" lon="0.20725">
        <ele>1783</ele>
        <time>2015-08-16T10:31:14Z</time>
      </trkpt>
      <trkpt lat="42.90171" lon="0.20725">
        <ele>1784</ele>
        <time>2015-08-16T10:31:19Z</time>
      </trkpt>
      <trkpt lat="42.90174" lon="0.20725">
        <ele>1784</ele>
        <time>2015-08-16T10:31:24Z</time>
      </trkpt>
      <trkpt lat="42.90176" lon="0.20725">
        <ele>1784</ele>
        <time>2015-08-16T10:31:30Z</time>
      </trkpt>
      <trkpt lat="42.90178" lon="0.20725">
        <ele>1783</ele>
        <time>2015-08-16T10:31:37Z</time>
      </trkpt>
      <trkpt lat="42.90178" lon="0.20726">
        <ele>1783</ele>
        <time>2015-08-16T10:31:43Z</time>
      </trkpt>
      <trkpt lat="42.90178" lon="0.20726">
        <ele>1783</ele>
        <time>2015-08-16T10:31:48Z</time>
      </trkpt>
      <trkpt lat="42.90177" lon="0.20726">
        <ele>1783</ele>
        <time>2015-08-16T10:31:54Z</time>
      </trkpt>
      <trkpt lat="42.90177" lon="0.20727">
        <ele>1784</ele>
        <time>2015-08-16T10:32:00Z</time>
      </trkpt>
      <trkpt lat="42.90178" lon="0.20727">
        <ele>1784</ele>
        <time>2015-08-16T10:32:05Z</time>
      </trkpt>
      <trkpt lat="42.90178" lon="0.20727">
        <ele>1784</ele>
        <time>2015-08-16T10:32:11Z</time>
      </trkpt>
      <trkpt lat="42.90178" lon="0.20727">
        <ele>1784</ele>
        <time>2015-08-16T10:32:16Z</time>
      </trkpt>
      <trkpt lat="42.90176" lon="0.20727">
        <ele>1784</ele>
        <time>2015-08-16T10:32:21Z</time>
      </trkpt>
      <trkpt lat="42.90172" lon="0.20726">
        <ele>1783</ele>
        <time>2015-08-16T10:32:27Z</time>
      </trkpt>
      <trkpt lat="42.9017" lon="0.20725">
        <ele>1784</ele>
        <time>2015-08-16T10:32:33Z</time>
      </trkpt>
      <trkpt lat="42.90168" lon="0.20724">
        <ele>1784</ele>
        <time>2015-08-16T10:32:38Z</time>
      </trkpt>
      <trkpt lat="42.90167" lon="0.20724">
        <ele>1784</ele>
        <time>2015-08-16T10:32:44Z</time>
      </trkpt>
      <trkpt lat="42.90168" lon="0.20724">
        <ele>1783</ele>
        <time>2015-08-16T10:32:49Z</time>
      </trkpt>
      <trkpt lat="42.90168" lon="0.20724">
        <ele>1783</ele>
        <time>2015-08-16T10:32:55Z</time>
      </trkpt>
      <trkpt lat="42.90169" lon="0.20724">
        <ele>1783</ele>
        <time>2015-08-16T10:33:01Z</time>
      </trkpt>
      <trkpt lat="42.90169" lon="0.20725">
        <ele>1783</ele>
        <time>2015-08-16T10:33:06Z</time>
      </trkpt>
      <trkpt lat="42.90168" lon="0.20725">
        <ele>1783</ele>
        <time>2015-08-16T10:33:12Z</time>
      </trkpt>
      <trkpt lat="42.90168" lon="0.20724">
        <ele>1783</ele>
        <time>2015-08-16T10:33:18Z</time>
      </trkpt>
      <trkpt lat="42.90167" lon="0.20723">
        <ele>1784</ele>
        <time>2015-08-16T10:33:24Z</time>
      </trkpt>
      <trkpt lat="42.90168" lon="0.20722">
        <ele>1783</ele>
        <time>2015-08-16T10:33:29Z</time>
      </trkpt>
      <trkpt lat="42.90167" lon="0.20722">
        <ele>1784</ele>
        <time>2015-08-16T10:33:35Z</time>
      </trkpt>
      <trkpt lat="42.90168" lon="0.20722">
        <ele>1784</ele>
        <time>2015-08-16T10:33:40Z</time>
      </trkpt>
      <trkpt lat="42.90168" lon="0.20722">
        <ele>1784</ele>
        <time>2015-08-16T10:33:46Z</time>
      </trkpt>
      <trkpt lat="42.90168" lon="0.20722">
        <ele>1783</ele>
        <time>2015-08-16T10:33:54Z</time>
      </trkpt>
      <trkpt lat="42.90166" lon="0.20722">
        <ele>1783</ele>
        <time>2015-08-16T10:33:59Z</time>
      </trkpt>
      <trkpt lat="42.90164" lon="0.20721">
        <ele>1783</ele>
        <time>2015-08-16T10:34:05Z</time>
      </trkpt>
      <trkpt lat="42.90163" lon="0.20721">
        <ele>1784</ele>
        <time>2015-08-16T10:34:10Z</time>
      </trkpt>
      <trkpt lat="42.90162" lon="0.20721">
        <ele>1783</ele>
        <time>2015-08-16T10:34:17Z</time>
      </trkpt>
      <trkpt lat="42.90162" lon="0.20721">
        <ele>1783</ele>
        <time>2015-08-16T10:34:23Z</time>
      </trkpt>
      <trkpt lat="42.9016" lon="0.20721">
        <ele>1784</ele>
        <time>2015-08-16T10:34:28Z</time>
      </trkpt>
      <trkpt lat="42.90159" lon="0.20721">
        <ele>1784</ele>
        <time>2015-08-16T10:34:34Z</time>
      </trkpt>
      <trkpt lat="42.90159" lon="0.20721">
        <ele>1784</ele>
        <time>2015-08-16T10:34:40Z</time>
      </trkpt>
      <trkpt lat="42.90157" lon="0.20721">
        <ele>1784</ele>
        <time>2015-08-16T10:34:45Z</time>
      </trkpt>
      <trkpt lat="42.90156" lon="0.20721">
        <ele>1783</ele>
        <time>2015-08-16T10:34:51Z</time>
      </trkpt>
      <trkpt lat="42.90156" lon="0.20721">
        <ele>1783</ele>
        <time>2015-08-16T10:34:57Z</time>
      </trkpt>
      <trkpt lat="42.90155" lon="0.20721">
        <ele>1784</ele>
        <time>2015-08-16T10:35:03Z</time>
      </trkpt>
      <trkpt lat="42.90155" lon="0.20722">
        <ele>1784</ele>
        <time>2015-08-16T10:35:09Z</time>
      </trkpt>
      <trkpt lat="42.90157" lon="0.20722">
        <ele>1784</ele>
        <time>2015-08-16T10:35:15Z</time>
      </trkpt>
      <trkpt lat="42.90159" lon="0.20722">
        <ele>1783</ele>
        <time>2015-08-16T10:35:20Z</time>
      </trkpt>
      <trkpt lat="42.9016" lon="0.20722">
        <ele>1783</ele>
        <time>2015-08-16T10:35:26Z</time>
      </trkpt>
      <trkpt lat="42.9016" lon="0.20722">
        <ele>1783</ele>
        <time>2015-08-16T10:35:31Z</time>
      </trkpt>
      <trkpt lat="42.90162" lon="0.20722">
        <ele>1783</ele>
        <time>2015-08-16T10:35:36Z</time>
      </trkpt>
      <trkpt lat="42.90162" lon="0.20722">
        <ele>1783</ele>
        <time>2015-08-16T10:35:42Z</time>
      </trkpt>
      <trkpt lat="42.90163" lon="0.20722">
        <ele>1783</ele>
        <time>2015-08-16T10:35:48Z</time>
      </trkpt>
      <trkpt lat="42.90161" lon="0.20722">
        <ele>1783</ele>
        <time>2015-08-16T10:35:54Z</time>
      </trkpt>
      <trkpt lat="42.9016" lon="0.20722">
        <ele>1783</ele>
        <time>2015-08-16T10:36:01Z</time>
      </trkpt>
      <trkpt lat="42.90159" lon="0.20722">
        <ele>1784</ele>
        <time>2015-08-16T10:36:06Z</time>
      </trkpt>
      <trkpt lat="42.90158" lon="0.20722">
        <ele>1784</ele>
        <time>2015-08-16T10:36:11Z</time>
      </trkpt>
      <trkpt lat="42.90158" lon="0.20721">
        <ele>1783</ele>
        <time>2015-08-16T10:36:17Z</time>
      </trkpt>
      <trkpt lat="42.90158" lon="0.20721">
        <ele>1783</ele>
        <time>2015-08-16T10:36:24Z</time>
      </trkpt>
      <trkpt lat="42.90158" lon="0.20721">
        <ele>1784</ele>
        <time>2015-08-16T10:36:30Z</time>
      </trkpt>
      <trkpt lat="42.90157" lon="0.2072">
        <ele>1784</ele>
        <time>2015-08-16T10:36:36Z</time>
      </trkpt>
      <trkpt lat="42.90155" lon="0.20719">
        <ele>1783</ele>
        <time>2015-08-16T10:36:42Z</time>
      </trkpt>
      <trkpt lat="42.90154" lon="0.20717">
        <ele>1783</ele>
        <time>2015-08-16T10:36:48Z</time>
      </trkpt>
      <trkpt lat="42.90153" lon="0.20717">
        <ele>1783</ele>
        <time>2015-08-16T10:36:54Z</time>
      </trkpt>
      <trkpt lat="42.90155" lon="0.20718">
        <ele>1784</ele>
        <time>2015-08-16T10:37:00Z</time>
      </trkpt>
      <trkpt lat="42.90159" lon="0.2072">
        <ele>1784</ele>
        <time>2015-08-16T10:37:05Z</time>
      </trkpt>
      <trkpt lat="42.90163" lon="0.20722">
        <ele>1783</ele>
        <time>2015-08-16T10:37:10Z</time>
      </trkpt>
      <trkpt lat="42.90165" lon="0.20723">
        <ele>1783</ele>
        <time>2015-08-16T10:37:15Z</time>
      </trkpt>
      <trkpt lat="42.90166" lon="0.20723">
        <ele>1783</ele>
        <time>2015-08-16T10:37:20Z</time>
      </trkpt>
      <trkpt lat="42.90167" lon="0.20724">
        <ele>1784</ele>
        <time>2015-08-16T10:37:28Z</time>
      </trkpt>
      <trkpt lat="42.90168" lon="0.20723">
        <ele>1784</ele>
        <time>2015-08-16T10:37:33Z</time>
      </trkpt>
      <trkpt lat="42.90168" lon="0.20723">
        <ele>1783</ele>
        <time>2015-08-16T10:37:40Z</time>
      </trkpt>
      <trkpt lat="42.90166" lon="0.20723">
        <ele>1784</ele>
        <time>2015-08-16T10:37:45Z</time>
      </trkpt>
      <trkpt lat="42.90168" lon="0.20723">
        <ele>1784</ele>
        <time>2015-08-16T10:37:51Z</time>
      </trkpt>
      <trkpt lat="42.90168" lon="0.20723">
        <ele>1784</ele>
        <time>2015-08-16T10:37:56Z</time>
      </trkpt>
      <trkpt lat="42.90166" lon="0.20723">
        <ele>1784</ele>
        <time>2015-08-16T10:38:01Z</time>
      </trkpt>
      <trkpt lat="42.90165" lon="0.20723">
        <ele>1784</ele>
        <time>2015-08-16T10:38:06Z</time>
      </trkpt>
      <trkpt lat="42.90164" lon="0.20722">
        <ele>1784</ele>
        <time>2015-08-16T10:38:11Z</time>
      </trkpt>
      <trkpt lat="42.90163" lon="0.20722">
        <ele>1784</ele>
        <time>2015-08-16T10:38:17Z</time>
      </trkpt>
      <trkpt lat="42.90162" lon="0.20717">
        <ele>1785</ele>
        <time>2015-08-16T10:38:23Z</time>
      </trkpt>
      <trkpt lat="42.90161" lon="0.20712">
        <ele>1786</ele>
        <time>2015-08-16T10:38:28Z</time>
      </trkpt>
      <trkpt lat="42.9016" lon="0.20706">
        <ele>1787</ele>
        <time>2015-08-16T10:38:34Z</time>
      </trkpt>
      <trkpt lat="42.90157" lon="0.207">
        <ele>1788</ele>
        <time>2015-08-16T10:38:40Z</time>
      </trkpt>
      <trkpt lat="42.90154" lon="0.20696">
        <ele>1789</ele>
        <time>2015-08-16T10:38:46Z</time>
      </trkpt>
      <trkpt lat="42.90151" lon="0.20692">
        <ele>1790</ele>
        <time>2015-08-16T10:38:51Z</time>
      </trkpt>
      <trkpt lat="42.9015" lon="0.20686">
        <ele>1791</ele>
        <time>2015-08-16T10:38:56Z</time>
      </trkpt>
      <trkpt lat="42.90148" lon="0.20681">
        <ele>1792</ele>
        <time>2015-08-16T10:39:01Z</time>
      </trkpt>
      <trkpt lat="42.90147" lon="0.20674">
        <ele>1793</ele>
        <time>2015-08-16T10:39:07Z</time>
      </trkpt>
      <trkpt lat="42.90144" lon="0.2067">
        <ele>1794</ele>
        <time>2015-08-16T10:39:12Z</time>
      </trkpt>
      <trkpt lat="42.90142" lon="0.20665">
        <ele>1795</ele>
        <time>2015-08-16T10:39:17Z</time>
      </trkpt>
      <trkpt lat="42.90138" lon="0.2066">
        <ele>1796</ele>
        <time>2015-08-16T10:39:23Z</time>
      </trkpt>
      <trkpt lat="42.90135" lon="0.20654">
        <ele>1797</ele>
        <time>2015-08-16T10:39:29Z</time>
      </trkpt>
      <trkpt lat="42.90134" lon="0.20649">
        <ele>1798</ele>
        <time>2015-08-16T10:39:34Z</time>
      </trkpt>
      <trkpt lat="42.90132" lon="0.20644">
        <ele>1800</ele>
        <time>2015-08-16T10:39:40Z</time>
      </trkpt>
      <trkpt lat="42.9013" lon="0.20638">
        <ele>1800</ele>
        <time>2015-08-16T10:39:46Z</time>
      </trkpt>
      <trkpt lat="42.90129" lon="0.20632">
        <ele>1802</ele>
        <time>2015-08-16T10:39:52Z</time>
      </trkpt>
      <trkpt lat="42.90128" lon="0.20627">
        <ele>1803</ele>
        <time>2015-08-16T10:39:57Z</time>
      </trkpt>
      <trkpt lat="42.90127" lon="0.20621">
        <ele>1804</ele>
        <time>2015-08-16T10:40:03Z</time>
      </trkpt>
      <trkpt lat="42.90125" lon="0.20618">
        <ele>1805</ele>
        <time>2015-08-16T10:40:08Z</time>
      </trkpt>
      <trkpt lat="42.90123" lon="0.20614">
        <ele>1806</ele>
        <time>2015-08-16T10:40:13Z</time>
      </trkpt>
      <trkpt lat="42.9012" lon="0.20608">
        <ele>1807</ele>
        <time>2015-08-16T10:40:19Z</time>
      </trkpt>
      <trkpt lat="42.90118" lon="0.20603">
        <ele>1808</ele>
        <time>2015-08-16T10:40:24Z</time>
      </trkpt>
      <trkpt lat="42.90116" lon="0.20597">
        <ele>1809</ele>
        <time>2015-08-16T10:40:30Z</time>
      </trkpt>
      <trkpt lat="42.90114" lon="0.20593">
        <ele>1810</ele>
        <time>2015-08-16T10:40:35Z</time>
      </trkpt>
      <trkpt lat="42.90112" lon="0.20587">
        <ele>1811</ele>
        <time>2015-08-16T10:40:41Z</time>
      </trkpt>
      <trkpt lat="42.9011" lon="0.20583">
        <ele>1812</ele>
        <time>2015-08-16T10:40:46Z</time>
      </trkpt>
      <trkpt lat="42.90108" lon="0.20577">
        <ele>1813</ele>
        <time>2015-08-16T10:40:52Z</time>
      </trkpt>
      <trkpt lat="42.90107" lon="0.20573">
        <ele>1814</ele>
        <time>2015-08-16T10:40:57Z</time>
      </trkpt>
      <trkpt lat="42.90105" lon="0.20568">
        <ele>1816</ele>
        <time>2015-08-16T10:41:03Z</time>
      </trkpt>
      <trkpt lat="42.90102" lon="0.20562">
        <ele>1817</ele>
        <time>2015-08-16T10:41:09Z</time>
      </trkpt>
      <trkpt lat="42.90101" lon="0.20557">
        <ele>1818</ele>
        <time>2015-08-16T10:41:14Z</time>
      </trkpt>
      <trkpt lat="42.90099" lon="0.20552">
        <ele>1820</ele>
        <time>2015-08-16T10:41:20Z</time>
      </trkpt>
      <trkpt lat="42.90097" lon="0.20548">
        <ele>1821</ele>
        <time>2015-08-16T10:41:25Z</time>
      </trkpt>
      <trkpt lat="42.90093" lon="0.20544">
        <ele>1822</ele>
        <time>2015-08-16T10:41:31Z</time>
      </trkpt>
      <trkpt lat="42.90089" lon="0.20543">
        <ele>1823</ele>
        <time>2015-08-16T10:41:36Z</time>
      </trkpt>
      <trkpt lat="42.90086" lon="0.20539">
        <ele>1824</ele>
        <time>2015-08-16T10:41:42Z</time>
      </trkpt>
      <trkpt lat="42.90085" lon="0.20535">
        <ele>1826</ele>
        <time>2015-08-16T10:41:48Z</time>
      </trkpt>
      <trkpt lat="42.90083" lon="0.2053">
        <ele>1827</ele>
        <time>2015-08-16T10:41:54Z</time>
      </trkpt>
      <trkpt lat="42.90082" lon="0.20526">
        <ele>1828</ele>
        <time>2015-08-16T10:41:59Z</time>
      </trkpt>
      <trkpt lat="42.90081" lon="0.20521">
        <ele>1829</ele>
        <time>2015-08-16T10:42:05Z</time>
      </trkpt>
      <trkpt lat="42.90079" lon="0.20515">
        <ele>1830</ele>
        <time>2015-08-16T10:42:11Z</time>
      </trkpt>
      <trkpt lat="42.90077" lon="0.2051">
        <ele>1832</ele>
        <time>2015-08-16T10:42:16Z</time>
      </trkpt>
      <trkpt lat="42.90074" lon="0.20505">
        <ele>1833</ele>
        <time>2015-08-16T10:42:22Z</time>
      </trkpt>
      <trkpt lat="42.90072" lon="0.20501">
        <ele>1835</ele>
        <time>2015-08-16T10:42:28Z</time>
      </trkpt>
      <trkpt lat="42.9007" lon="0.20496">
        <ele>1836</ele>
        <time>2015-08-16T10:42:34Z</time>
      </trkpt>
      <trkpt lat="42.90068" lon="0.20493">
        <ele>1838</ele>
        <time>2015-08-16T10:42:40Z</time>
      </trkpt>
      <trkpt lat="42.90065" lon="0.20491">
        <ele>1839</ele>
        <time>2015-08-16T10:42:45Z</time>
      </trkpt>
      <trkpt lat="42.90062" lon="0.20486">
        <ele>1840</ele>
        <time>2015-08-16T10:42:51Z</time>
      </trkpt>
      <trkpt lat="42.90059" lon="0.20485">
        <ele>1840</ele>
        <time>2015-08-16T10:42:57Z</time>
      </trkpt>
      <trkpt lat="42.90058" lon="0.20481">
        <ele>1841</ele>
        <time>2015-08-16T10:43:02Z</time>
      </trkpt>
      <trkpt lat="42.90054" lon="0.20476">
        <ele>1842</ele>
        <time>2015-08-16T10:43:08Z</time>
      </trkpt>
      <trkpt lat="42.90052" lon="0.20469">
        <ele>1843</ele>
        <time>2015-08-16T10:43:14Z</time>
      </trkpt>
      <trkpt lat="42.90049" lon="0.20465">
        <ele>1844</ele>
        <time>2015-08-16T10:43:20Z</time>
      </trkpt>
      <trkpt lat="42.90046" lon="0.20461">
        <ele>1845</ele>
        <time>2015-08-16T10:43:25Z</time>
      </trkpt>
      <trkpt lat="42.90043" lon="0.20458">
        <ele>1846</ele>
        <time>2015-08-16T10:43:30Z</time>
      </trkpt>
      <trkpt lat="42.9004" lon="0.20453">
        <ele>1847</ele>
        <time>2015-08-16T10:43:36Z</time>
      </trkpt>
      <trkpt lat="42.90039" lon="0.20449">
        <ele>1847</ele>
        <time>2015-08-16T10:43:41Z</time>
      </trkpt>
      <trkpt lat="42.90036" lon="0.20445">
        <ele>1848</ele>
        <time>2015-08-16T10:43:46Z</time>
      </trkpt>
      <trkpt lat="42.90034" lon="0.2044">
        <ele>1849</ele>
        <time>2015-08-16T10:43:51Z</time>
      </trkpt>
      <trkpt lat="42.90031" lon="0.20435">
        <ele>1851</ele>
        <time>2015-08-16T10:43:57Z</time>
      </trkpt>
      <trkpt lat="42.90028" lon="0.20434">
        <ele>1852</ele>
        <time>2015-08-16T10:44:02Z</time>
      </trkpt>
      <trkpt lat="42.90024" lon="0.20436">
        <ele>1853</ele>
        <time>2015-08-16T10:44:07Z</time>
      </trkpt>
      <trkpt lat="42.9002" lon="0.20435">
        <ele>1854</ele>
        <time>2015-08-16T10:44:13Z</time>
      </trkpt>
      <trkpt lat="42.90017" lon="0.20435">
        <ele>1855</ele>
        <time>2015-08-16T10:44:19Z</time>
      </trkpt>
      <trkpt lat="42.90017" lon="0.20434">
        <ele>1855</ele>
        <time>2015-08-16T10:44:25Z</time>
      </trkpt>
      <trkpt lat="42.90017" lon="0.20434">
        <ele>1856</ele>
        <time>2015-08-16T10:44:30Z</time>
      </trkpt>
      <trkpt lat="42.90017" lon="0.20433">
        <ele>1855</ele>
        <time>2015-08-16T10:44:35Z</time>
      </trkpt>
      <trkpt lat="42.90017" lon="0.20433">
        <ele>1855</ele>
        <time>2015-08-16T10:44:42Z</time>
      </trkpt>
      <trkpt lat="42.90017" lon="0.20434">
        <ele>1855</ele>
        <time>2015-08-16T10:44:47Z</time>
      </trkpt>
      <trkpt lat="42.90017" lon="0.20434">
        <ele>1855</ele>
        <time>2015-08-16T10:44:54Z</time>
      </trkpt>
      <trkpt lat="42.90016" lon="0.20434">
        <ele>1855</ele>
        <time>2015-08-16T10:45:00Z</time>
      </trkpt>
      <trkpt lat="42.90012" lon="0.20435">
        <ele>1856</ele>
        <time>2015-08-16T10:45:05Z</time>
      </trkpt>
      <trkpt lat="42.90007" lon="0.20435">
        <ele>1857</ele>
        <time>2015-08-16T10:45:11Z</time>
      </trkpt>
      <trkpt lat="42.90003" lon="0.20435">
        <ele>1858</ele>
        <time>2015-08-16T10:45:17Z</time>
      </trkpt>
      <trkpt lat="42.89999" lon="0.20435">
        <ele>1859</ele>
        <time>2015-08-16T10:45:22Z</time>
      </trkpt>
      <trkpt lat="42.89997" lon="0.2043">
        <ele>1861</ele>
        <time>2015-08-16T10:45:28Z</time>
      </trkpt>
      <trkpt lat="42.89994" lon="0.20425">
        <ele>1862</ele>
        <time>2015-08-16T10:45:34Z</time>
      </trkpt>
      <trkpt lat="42.89991" lon="0.20422">
        <ele>1863</ele>
        <time>2015-08-16T10:45:39Z</time>
      </trkpt>
      <trkpt lat="42.89988" lon="0.20416">
        <ele>1863</ele>
        <time>2015-08-16T10:45:44Z</time>
      </trkpt>
      <trkpt lat="42.89985" lon="0.20411">
        <ele>1865</ele>
        <time>2015-08-16T10:45:50Z</time>
      </trkpt>
      <trkpt lat="42.89982" lon="0.20408">
        <ele>1866</ele>
        <time>2015-08-16T10:45:55Z</time>
      </trkpt>
      <trkpt lat="42.89978" lon="0.20404">
        <ele>1867</ele>
        <time>2015-08-16T10:46:01Z</time>
      </trkpt>
      <trkpt lat="42.89975" lon="0.204">
        <ele>1867</ele>
        <time>2015-08-16T10:46:06Z</time>
      </trkpt>
      <trkpt lat="42.89974" lon="0.20395">
        <ele>1868</ele>
        <time>2015-08-16T10:46:12Z</time>
      </trkpt>
      <trkpt lat="42.89972" lon="0.20389">
        <ele>1869</ele>
        <time>2015-08-16T10:46:18Z</time>
      </trkpt>
      <trkpt lat="42.89971" lon="0.20384">
        <ele>1870</ele>
        <time>2015-08-16T10:46:23Z</time>
      </trkpt>
      <trkpt lat="42.8997" lon="0.20378">
        <ele>1871</ele>
        <time>2015-08-16T10:46:29Z</time>
      </trkpt>
      <trkpt lat="42.89967" lon="0.20373">
        <ele>1872</ele>
        <time>2015-08-16T10:46:34Z</time>
      </trkpt>
      <trkpt lat="42.89965" lon="0.20366">
        <ele>1873</ele>
        <time>2015-08-16T10:46:40Z</time>
      </trkpt>
      <trkpt lat="42.89963" lon="0.2036">
        <ele>1874</ele>
        <time>2015-08-16T10:46:46Z</time>
      </trkpt>
      <trkpt lat="42.89961" lon="0.20354">
        <ele>1875</ele>
        <time>2015-08-16T10:46:52Z</time>
      </trkpt>
      <trkpt lat="42.89959" lon="0.20348">
        <ele>1876</ele>
        <time>2015-08-16T10:46:58Z</time>
      </trkpt>
      <trkpt lat="42.89957" lon="0.20342">
        <ele>1877</ele>
        <time>2015-08-16T10:47:04Z</time>
      </trkpt>
      <trkpt lat="42.89955" lon="0.20336">
        <ele>1878</ele>
        <time>2015-08-16T10:47:10Z</time>
      </trkpt>
      <trkpt lat="42.89954" lon="0.2033">
        <ele>1879</ele>
        <time>2015-08-16T10:47:16Z</time>
      </trkpt>
      <trkpt lat="42.89953" lon="0.20324">
        <ele>1880</ele>
        <time>2015-08-16T10:47:21Z</time>
      </trkpt>
      <trkpt lat="42.89952" lon="0.20318">
        <ele>1881</ele>
        <time>2015-08-16T10:47:27Z</time>
      </trkpt>
      <trkpt lat="42.8995" lon="0.20311">
        <ele>1882</ele>
        <time>2015-08-16T10:47:33Z</time>
      </trkpt>
      <trkpt lat="42.89948" lon="0.20305">
        <ele>1882</ele>
        <time>2015-08-16T10:47:39Z</time>
      </trkpt>
      <trkpt lat="42.89948" lon="0.203">
        <ele>1884</ele>
        <time>2015-08-16T10:47:44Z</time>
      </trkpt>
      <trkpt lat="42.89948" lon="0.20294">
        <ele>1884</ele>
        <time>2015-08-16T10:47:49Z</time>
      </trkpt>
      <trkpt lat="42.89947" lon="0.20287">
        <ele>1885</ele>
        <time>2015-08-16T10:47:55Z</time>
      </trkpt>
      <trkpt lat="42.89944" lon="0.20283">
        <ele>1885</ele>
        <time>2015-08-16T10:48:00Z</time>
      </trkpt>
      <trkpt lat="42.89943" lon="0.20277">
        <ele>1886</ele>
        <time>2015-08-16T10:48:05Z</time>
      </trkpt>
      <trkpt lat="42.8994" lon="0.20272">
        <ele>1886</ele>
        <time>2015-08-16T10:48:10Z</time>
      </trkpt>
      <trkpt lat="42.89936" lon="0.20268">
        <ele>1886</ele>
        <time>2015-08-16T10:48:15Z</time>
      </trkpt>
      <trkpt lat="42.89929" lon="0.20267">
        <ele>1887</ele>
        <time>2015-08-16T10:48:21Z</time>
      </trkpt>
      <trkpt lat="42.89925" lon="0.20262">
        <ele>1886</ele>
        <time>2015-08-16T10:48:26Z</time>
      </trkpt>
      <trkpt lat="42.8992" lon="0.20258">
        <ele>1887</ele>
        <time>2015-08-16T10:48:31Z</time>
      </trkpt>
      <trkpt lat="42.89916" lon="0.20254">
        <ele>1887</ele>
        <time>2015-08-16T10:48:37Z</time>
      </trkpt>
      <trkpt lat="42.89913" lon="0.2025">
        <ele>1888</ele>
        <time>2015-08-16T10:48:42Z</time>
      </trkpt>
      <trkpt lat="42.8991" lon="0.20245">
        <ele>1889</ele>
        <time>2015-08-16T10:48:48Z</time>
      </trkpt>
      <trkpt lat="42.89906" lon="0.20239">
        <ele>1889</ele>
        <time>2015-08-16T10:48:54Z</time>
      </trkpt>
      <trkpt lat="42.89899" lon="0.20238">
        <ele>1889</ele>
        <time>2015-08-16T10:49:00Z</time>
      </trkpt>
      <trkpt lat="42.89896" lon="0.20233">
        <ele>1889</ele>
        <time>2015-08-16T10:49:05Z</time>
      </trkpt>
      <trkpt lat="42.89892" lon="0.20227">
        <ele>1889</ele>
        <time>2015-08-16T10:49:10Z</time>
      </trkpt>
      <trkpt lat="42.89889" lon="0.20221">
        <ele>1889</ele>
        <time>2015-08-16T10:49:15Z</time>
      </trkpt>
      <trkpt lat="42.89885" lon="0.20215">
        <ele>1890</ele>
        <time>2015-08-16T10:49:21Z</time>
      </trkpt>
      <trkpt lat="42.89882" lon="0.2021">
        <ele>1890</ele>
        <time>2015-08-16T10:49:26Z</time>
      </trkpt>
      <trkpt lat="42.89877" lon="0.20204">
        <ele>1891</ele>
        <time>2015-08-16T10:49:32Z</time>
      </trkpt>
      <trkpt lat="42.89872" lon="0.202">
        <ele>1891</ele>
        <time>2015-08-16T10:49:38Z</time>
      </trkpt>
      <trkpt lat="42.89869" lon="0.20195">
        <ele>1892</ele>
        <time>2015-08-16T10:49:43Z</time>
      </trkpt>
      <trkpt lat="42.89866" lon="0.2019">
        <ele>1893</ele>
        <time>2015-08-16T10:49:48Z</time>
      </trkpt>
      <trkpt lat="42.89863" lon="0.20185">
        <ele>1892</ele>
        <time>2015-08-16T10:49:53Z</time>
      </trkpt>
      <trkpt lat="42.89861" lon="0.20179">
        <ele>1893</ele>
        <time>2015-08-16T10:49:58Z</time>
      </trkpt>
      <trkpt lat="42.8986" lon="0.20171">
        <ele>1893</ele>
        <time>2015-08-16T10:50:04Z</time>
      </trkpt>
      <trkpt lat="42.89859" lon="0.20164">
        <ele>1893</ele>
        <time>2015-08-16T10:50:09Z</time>
      </trkpt>
      <trkpt lat="42.89857" lon="0.20159">
        <ele>1894</ele>
        <time>2015-08-16T10:50:15Z</time>
      </trkpt>
      <trkpt lat="42.89857" lon="0.20153">
        <ele>1895</ele>
        <time>2015-08-16T10:50:21Z</time>
      </trkpt>
      <trkpt lat="42.89857" lon="0.20147">
        <ele>1896</ele>
        <time>2015-08-16T10:50:27Z</time>
      </trkpt>
      <trkpt lat="42.89859" lon="0.20141">
        <ele>1897</ele>
        <time>2015-08-16T10:50:33Z</time>
      </trkpt>
      <trkpt lat="42.89859" lon="0.20135">
        <ele>1898</ele>
        <time>2015-08-16T10:50:38Z</time>
      </trkpt>
      <trkpt lat="42.89861" lon="0.2013">
        <ele>1899</ele>
        <time>2015-08-16T10:50:44Z</time>
      </trkpt>
      <trkpt lat="42.89863" lon="0.20127">
        <ele>1900</ele>
        <time>2015-08-16T10:50:49Z</time>
      </trkpt>
      <trkpt lat="42.89865" lon="0.20122">
        <ele>1902</ele>
        <time>2015-08-16T10:50:55Z</time>
      </trkpt>
      <trkpt lat="42.89867" lon="0.20118">
        <ele>1903</ele>
        <time>2015-08-16T10:51:00Z</time>
      </trkpt>
      <trkpt lat="42.89868" lon="0.20112">
        <ele>1903</ele>
        <time>2015-08-16T10:51:06Z</time>
      </trkpt>
      <trkpt lat="42.8987" lon="0.20108">
        <ele>1905</ele>
        <time>2015-08-16T10:51:12Z</time>
      </trkpt>
      <trkpt lat="42.89872" lon="0.20103">
        <ele>1906</ele>
        <time>2015-08-16T10:51:17Z</time>
      </trkpt>
      <trkpt lat="42.89875" lon="0.20098">
        <ele>1907</ele>
        <time>2015-08-16T10:51:22Z</time>
      </trkpt>
      <trkpt lat="42.89877" lon="0.20094">
        <ele>1908</ele>
        <time>2015-08-16T10:51:28Z</time>
      </trkpt>
      <trkpt lat="42.89877" lon="0.2009">
        <ele>1909</ele>
        <time>2015-08-16T10:51:33Z</time>
      </trkpt>
      <trkpt lat="42.89878" lon="0.20084">
        <ele>1910</ele>
        <time>2015-08-16T10:51:39Z</time>
      </trkpt>
      <trkpt lat="42.89879" lon="0.20081">
        <ele>1912</ele>
        <time>2015-08-16T10:51:44Z</time>
      </trkpt>
      <trkpt lat="42.89881" lon="0.20076">
        <ele>1913</ele>
        <time>2015-08-16T10:51:50Z</time>
      </trkpt>
      <trkpt lat="42.89881" lon="0.20071">
        <ele>1914</ele>
        <time>2015-08-16T10:51:56Z</time>
      </trkpt>
      <trkpt lat="42.89879" lon="0.20069">
        <ele>1915</ele>
        <time>2015-08-16T10:52:02Z</time>
      </trkpt>
      <trkpt lat="42.89877" lon="0.20066">
        <ele>1916</ele>
        <time>2015-08-16T10:52:08Z</time>
      </trkpt>
      <trkpt lat="42.89876" lon="0.20063">
        <ele>1917</ele>
        <time>2015-08-16T10:52:13Z</time>
      </trkpt>
      <trkpt lat="42.89874" lon="0.20061">
        <ele>1918</ele>
        <time>2015-08-16T10:52:19Z</time>
      </trkpt>
      <trkpt lat="42.89872" lon="0.2006">
        <ele>1919</ele>
        <time>2015-08-16T10:52:24Z</time>
      </trkpt>
      <trkpt lat="42.8987" lon="0.20062">
        <ele>1920</ele>
        <time>2015-08-16T10:52:30Z</time>
      </trkpt>
      <trkpt lat="42.89867" lon="0.20063">
        <ele>1921</ele>
        <time>2015-08-16T10:52:35Z</time>
      </trkpt>
      <trkpt lat="42.89864" lon="0.20063">
        <ele>1921</ele>
        <time>2015-08-16T10:52:40Z</time>
      </trkpt>
      <trkpt lat="42.89859" lon="0.20065">
        <ele>1921</ele>
        <time>2015-08-16T10:52:46Z</time>
      </trkpt>
      <trkpt lat="42.89853" lon="0.20064">
        <ele>1921</ele>
        <time>2015-08-16T10:52:52Z</time>
      </trkpt>
      <trkpt lat="42.89848" lon="0.20064">
        <ele>1922</ele>
        <time>2015-08-16T10:52:57Z</time>
      </trkpt>
      <trkpt lat="42.89844" lon="0.20062">
        <ele>1923</ele>
        <time>2015-08-16T10:53:02Z</time>
      </trkpt>
      <trkpt lat="42.8984" lon="0.2006">
        <ele>1924</ele>
        <time>2015-08-16T10:53:08Z</time>
      </trkpt>
      <trkpt lat="42.89836" lon="0.2006">
        <ele>1925</ele>
        <time>2015-08-16T10:53:13Z</time>
      </trkpt>
      <trkpt lat="42.89833" lon="0.20058">
        <ele>1926</ele>
        <time>2015-08-16T10:53:18Z</time>
      </trkpt>
      <trkpt lat="42.8983" lon="0.20056">
        <ele>1927</ele>
        <time>2015-08-16T10:53:23Z</time>
      </trkpt>
      <trkpt lat="42.89827" lon="0.20055">
        <ele>1928</ele>
        <time>2015-08-16T10:53:29Z</time>
      </trkpt>
      <trkpt lat="42.89822" lon="0.20053">
        <ele>1930</ele>
        <time>2015-08-16T10:53:35Z</time>
      </trkpt>
      <trkpt lat="42.89818" lon="0.20053">
        <ele>1931</ele>
        <time>2015-08-16T10:53:41Z</time>
      </trkpt>
      <trkpt lat="42.89814" lon="0.20053">
        <ele>1931</ele>
        <time>2015-08-16T10:53:46Z</time>
      </trkpt>
      <trkpt lat="42.89812" lon="0.20052">
        <ele>1932</ele>
        <time>2015-08-16T10:53:52Z</time>
      </trkpt>
      <trkpt lat="42.89808" lon="0.20051">
        <ele>1932</ele>
        <time>2015-08-16T10:53:57Z</time>
      </trkpt>
      <trkpt lat="42.89803" lon="0.20049">
        <ele>1933</ele>
        <time>2015-08-16T10:54:03Z</time>
      </trkpt>
      <trkpt lat="42.89797" lon="0.20047">
        <ele>1934</ele>
        <time>2015-08-16T10:54:09Z</time>
      </trkpt>
      <trkpt lat="42.89792" lon="0.20044">
        <ele>1935</ele>
        <time>2015-08-16T10:54:15Z</time>
      </trkpt>
      <trkpt lat="42.89788" lon="0.20043">
        <ele>1936</ele>
        <time>2015-08-16T10:54:20Z</time>
      </trkpt>
      <trkpt lat="42.89786" lon="0.2004">
        <ele>1936</ele>
        <time>2015-08-16T10:54:25Z</time>
      </trkpt>
      <trkpt lat="42.89782" lon="0.20037">
        <ele>1938</ele>
        <time>2015-08-16T10:54:31Z</time>
      </trkpt>
      <trkpt lat="42.89779" lon="0.20034">
        <ele>1939</ele>
        <time>2015-08-16T10:54:36Z</time>
      </trkpt>
      <trkpt lat="42.89774" lon="0.20031">
        <ele>1940</ele>
        <time>2015-08-16T10:54:42Z</time>
      </trkpt>
      <trkpt lat="42.8977" lon="0.20029">
        <ele>1941</ele>
        <time>2015-08-16T10:54:47Z</time>
      </trkpt>
      <trkpt lat="42.89766" lon="0.20028">
        <ele>1943</ele>
        <time>2015-08-16T10:54:53Z</time>
      </trkpt>
      <trkpt lat="42.89764" lon="0.20025">
        <ele>1943</ele>
        <time>2015-08-16T10:54:58Z</time>
      </trkpt>
      <trkpt lat="42.89761" lon="0.20022">
        <ele>1944</ele>
        <time>2015-08-16T10:55:04Z</time>
      </trkpt>
      <trkpt lat="42.89759" lon="0.2002">
        <ele>1946</ele>
        <time>2015-08-16T10:55:09Z</time>
      </trkpt>
      <trkpt lat="42.89755" lon="0.20019">
        <ele>1947</ele>
        <time>2015-08-16T10:55:15Z</time>
      </trkpt>
      <trkpt lat="42.89755" lon="0.20017">
        <ele>1948</ele>
        <time>2015-08-16T10:55:20Z</time>
      </trkpt>
      <trkpt lat="42.89753" lon="0.20012">
        <ele>1949</ele>
        <time>2015-08-16T10:55:26Z</time>
      </trkpt>
      <trkpt lat="42.8975" lon="0.20011">
        <ele>1950</ele>
        <time>2015-08-16T10:55:31Z</time>
      </trkpt>
      <trkpt lat="42.89746" lon="0.2001">
        <ele>1950</ele>
        <time>2015-08-16T10:55:36Z</time>
      </trkpt>
      <trkpt lat="42.89742" lon="0.20009">
        <ele>1951</ele>
        <time>2015-08-16T10:55:41Z</time>
      </trkpt>
      <trkpt lat="42.89738" lon="0.20007">
        <ele>1951</ele>
        <time>2015-08-16T10:55:47Z</time>
      </trkpt>
      <trkpt lat="42.89732" lon="0.20009">
        <ele>1951</ele>
        <time>2015-08-16T10:55:53Z</time>
      </trkpt>
      <trkpt lat="42.89727" lon="0.20014">
        <ele>1951</ele>
        <time>2015-08-16T10:55:59Z</time>
      </trkpt>
      <trkpt lat="42.89721" lon="0.20017">
        <ele>1951</ele>
        <time>2015-08-16T10:56:05Z</time>
      </trkpt>
      <trkpt lat="42.89716" lon="0.20018">
        <ele>1951</ele>
        <time>2015-08-16T10:56:10Z</time>
      </trkpt>
      <trkpt lat="42.8971" lon="0.2002">
        <ele>1952</ele>
        <time>2015-08-16T10:56:16Z</time>
      </trkpt>
      <trkpt lat="42.89706" lon="0.2002">
        <ele>1953</ele>
        <time>2015-08-16T10:56:21Z</time>
      </trkpt>
      <trkpt lat="42.89702" lon="0.20023">
        <ele>1954</ele>
        <time>2015-08-16T10:56:27Z</time>
      </trkpt>
      <trkpt lat="42.89697" lon="0.20026">
        <ele>1954</ele>
        <time>2015-08-16T10:56:33Z</time>
      </trkpt>
      <trkpt lat="42.89692" lon="0.20029">
        <ele>1954</ele>
        <time>2015-08-16T10:56:38Z</time>
      </trkpt>
      <trkpt lat="42.89687" lon="0.20031">
        <ele>1955</ele>
        <time>2015-08-16T10:56:43Z</time>
      </trkpt>
      <trkpt lat="42.89684" lon="0.20033">
        <ele>1955</ele>
        <time>2015-08-16T10:56:49Z</time>
      </trkpt>
      <trkpt lat="42.8968" lon="0.20036">
        <ele>1955</ele>
        <time>2015-08-16T10:56:54Z</time>
      </trkpt>
      <trkpt lat="42.89674" lon="0.20042">
        <ele>1956</ele>
        <time>2015-08-16T10:57:00Z</time>
      </trkpt>
      <trkpt lat="42.89669" lon="0.20044">
        <ele>1956</ele>
        <time>2015-08-16T10:57:05Z</time>
      </trkpt>
      <trkpt lat="42.89665" lon="0.20041">
        <ele>1956</ele>
        <time>2015-08-16T10:57:11Z</time>
      </trkpt>
      <trkpt lat="42.89665" lon="0.20036">
        <ele>1957</ele>
        <time>2015-08-16T10:57:17Z</time>
      </trkpt>
      <trkpt lat="42.89662" lon="0.20032">
        <ele>1958</ele>
        <time>2015-08-16T10:57:22Z</time>
      </trkpt>
      <trkpt lat="42.89661" lon="0.2003">
        <ele>1959</ele>
        <time>2015-08-16T10:57:28Z</time>
      </trkpt>
      <trkpt lat="42.89662" lon="0.20025">
        <ele>1961</ele>
        <time>2015-08-16T10:57:33Z</time>
      </trkpt>
      <trkpt lat="42.89661" lon="0.20018">
        <ele>1961</ele>
        <time>2015-08-16T10:57:39Z</time>
      </trkpt>
      <trkpt lat="42.89658" lon="0.20014">
        <ele>1962</ele>
        <time>2015-08-16T10:57:44Z</time>
      </trkpt>
      <trkpt lat="42.89657" lon="0.20007">
        <ele>1963</ele>
        <time>2015-08-16T10:57:50Z</time>
      </trkpt>
      <trkpt lat="42.89658" lon="0.20003">
        <ele>1964</ele>
        <time>2015-08-16T10:57:56Z</time>
      </trkpt>
      <trkpt lat="42.89658" lon="0.19999">
        <ele>1965</ele>
        <time>2015-08-16T10:58:02Z</time>
      </trkpt>
      <trkpt lat="42.89661" lon="0.19996">
        <ele>1967</ele>
        <time>2015-08-16T10:58:08Z</time>
      </trkpt>
      <trkpt lat="42.8966" lon="0.19993">
        <ele>1968</ele>
        <time>2015-08-16T10:58:14Z</time>
      </trkpt>
      <trkpt lat="42.89657" lon="0.19994">
        <ele>1968</ele>
        <time>2015-08-16T10:58:20Z</time>
      </trkpt>
      <trkpt lat="42.89657" lon="0.19994">
        <ele>1968</ele>
        <time>2015-08-16T10:58:28Z</time>
      </trkpt>
      <trkpt lat="42.89657" lon="0.19994">
        <ele>1968</ele>
        <time>2015-08-16T10:58:35Z</time>
      </trkpt>
      <trkpt lat="42.89656" lon="0.19994">
        <ele>1968</ele>
        <time>2015-08-16T10:58:43Z</time>
      </trkpt>
      <trkpt lat="42.89656" lon="0.19993">
        <ele>1968</ele>
        <time>2015-08-16T10:58:49Z</time>
      </trkpt>
      <trkpt lat="42.89655" lon="0.19993">
        <ele>1968</ele>
        <time>2015-08-16T10:58:54Z</time>
      </trkpt>
      <trkpt lat="42.89655" lon="0.19992">
        <ele>1969</ele>
        <time>2015-08-16T10:59:00Z</time>
      </trkpt>
      <trkpt lat="42.89654" lon="0.19992">
        <ele>1968</ele>
        <time>2015-08-16T10:59:10Z</time>
      </trkpt>
      <trkpt lat="42.89654" lon="0.19992">
        <ele>1968</ele>
        <time>2015-08-16T10:59:16Z</time>
      </trkpt>
      <trkpt lat="42.89654" lon="0.19992">
        <ele>1968</ele>
        <time>2015-08-16T10:59:22Z</time>
      </trkpt>
      <trkpt lat="42.89653" lon="0.19991">
        <ele>1968</ele>
        <time>2015-08-16T10:59:29Z</time>
      </trkpt>
      <trkpt lat="42.89653" lon="0.19992">
        <ele>1968</ele>
        <time>2015-08-16T10:59:35Z</time>
      </trkpt>
      <trkpt lat="42.89653" lon="0.19992">
        <ele>1969</ele>
        <time>2015-08-16T10:59:41Z</time>
      </trkpt>
      <trkpt lat="42.89653" lon="0.19993">
        <ele>1968</ele>
        <time>2015-08-16T10:59:47Z</time>
      </trkpt>
      <trkpt lat="42.89653" lon="0.19994">
        <ele>1968</ele>
        <time>2015-08-16T10:59:52Z</time>
      </trkpt>
      <trkpt lat="42.89653" lon="0.19994">
        <ele>1968</ele>
        <time>2015-08-16T11:00:02Z</time>
      </trkpt>
      <trkpt lat="42.89654" lon="0.19994">
        <ele>1968</ele>
        <time>2015-08-16T11:00:07Z</time>
      </trkpt>
      <trkpt lat="42.89654" lon="0.19993">
        <ele>1968</ele>
        <time>2015-08-16T11:00:12Z</time>
      </trkpt>
      <trkpt lat="42.89653" lon="0.19993">
        <ele>1968</ele>
        <time>2015-08-16T11:00:17Z</time>
      </trkpt>
      <trkpt lat="42.89653" lon="0.19993">
        <ele>1968</ele>
        <time>2015-08-16T11:00:26Z</time>
      </trkpt>
      <trkpt lat="42.89653" lon="0.19993">
        <ele>1968</ele>
        <time>2015-08-16T11:00:33Z</time>
      </trkpt>
      <trkpt lat="42.89653" lon="0.19993">
        <ele>1968</ele>
        <time>2015-08-16T11:00:39Z</time>
      </trkpt>
      <trkpt lat="42.89652" lon="0.19993">
        <ele>1968</ele>
        <time>2015-08-16T11:00:45Z</time>
      </trkpt>
      <trkpt lat="42.89653" lon="0.19993">
        <ele>1968</ele>
        <time>2015-08-16T11:00:52Z</time>
      </trkpt>
      <trkpt lat="42.89653" lon="0.19993">
        <ele>1968</ele>
        <time>2015-08-16T11:00:57Z</time>
      </trkpt>
      <trkpt lat="42.89653" lon="0.19994">
        <ele>1968</ele>
        <time>2015-08-16T11:01:03Z</time>
      </trkpt>
      <trkpt lat="42.89654" lon="0.19995">
        <ele>1968</ele>
        <time>2015-08-16T11:01:08Z</time>
      </trkpt>
      <trkpt lat="42.89655" lon="0.19994">
        <ele>1968</ele>
        <time>2015-08-16T11:01:14Z</time>
      </trkpt>
      <trkpt lat="42.89656" lon="0.19994">
        <ele>1968</ele>
        <time>2015-08-16T11:01:19Z</time>
      </trkpt>
      <trkpt lat="42.89656" lon="0.19995">
        <ele>1968</ele>
        <time>2015-08-16T11:01:24Z</time>
      </trkpt>
      <trkpt lat="42.89656" lon="0.19995">
        <ele>1968</ele>
        <time>2015-08-16T11:01:34Z</time>
      </trkpt>
      <trkpt lat="42.89656" lon="0.19996">
        <ele>1968</ele>
        <time>2015-08-16T11:01:39Z</time>
      </trkpt>
      <trkpt lat="42.89657" lon="0.19997">
        <ele>1968</ele>
        <time>2015-08-16T11:01:44Z</time>
      </trkpt>
      <trkpt lat="42.89658" lon="0.19999">
        <ele>1968</ele>
        <time>2015-08-16T11:01:49Z</time>
      </trkpt>
      <trkpt lat="42.89658" lon="0.2">
        <ele>1968</ele>
        <time>2015-08-16T11:01:55Z</time>
      </trkpt>
      <trkpt lat="42.89659" lon="0.20001">
        <ele>1968</ele>
        <time>2015-08-16T11:02:00Z</time>
      </trkpt>
      <trkpt lat="42.89659" lon="0.20002">
        <ele>1968</ele>
        <time>2015-08-16T11:02:07Z</time>
      </trkpt>
      <trkpt lat="42.89659" lon="0.20001">
        <ele>1967</ele>
        <time>2015-08-16T11:02:13Z</time>
      </trkpt>
      <trkpt lat="42.89659" lon="0.20001">
        <ele>1968</ele>
        <time>2015-08-16T11:02:20Z</time>
      </trkpt>
      <trkpt lat="42.89659" lon="0.20001">
        <ele>1968</ele>
        <time>2015-08-16T11:02:25Z</time>
      </trkpt>
      <trkpt lat="42.89659" lon="0.2">
        <ele>1968</ele>
        <time>2015-08-16T11:02:30Z</time>
      </trkpt>
      <trkpt lat="42.89658" lon="0.19999">
        <ele>1968</ele>
        <time>2015-08-16T11:02:37Z</time>
      </trkpt>
      <trkpt lat="42.89658" lon="0.19998">
        <ele>1968</ele>
        <time>2015-08-16T11:02:42Z</time>
      </trkpt>
      <trkpt lat="42.89658" lon="0.19997">
        <ele>1967</ele>
        <time>2015-08-16T11:02:48Z</time>
      </trkpt>
      <trkpt lat="42.89657" lon="0.19996">
        <ele>1968</ele>
        <time>2015-08-16T11:02:54Z</time>
      </trkpt>
      <trkpt lat="42.89658" lon="0.19995">
        <ele>1968</ele>
        <time>2015-08-16T11:03:00Z</time>
      </trkpt>
      <trkpt lat="42.89656" lon="0.1999">
        <ele>1968</ele>
        <time>2015-08-16T11:03:05Z</time>
      </trkpt>
      <trkpt lat="42.89653" lon="0.19984">
        <ele>1967</ele>
        <time>2015-08-16T11:03:10Z</time>
      </trkpt>
      <trkpt lat="42.89649" lon="0.19976">
        <ele>1968</ele>
        <time>2015-08-16T11:03:16Z</time>
      </trkpt>
      <trkpt lat="42.89647" lon="0.19969">
        <ele>1968</ele>
        <time>2015-08-16T11:03:22Z</time>
      </trkpt>
      <trkpt lat="42.89646" lon="0.19961">
        <ele>1968</ele>
        <time>2015-08-16T11:03:28Z</time>
      </trkpt>
      <trkpt lat="42.89644" lon="0.19955">
        <ele>1968</ele>
        <time>2015-08-16T11:03:33Z</time>
      </trkpt>
      <trkpt lat="42.89642" lon="0.19949">
        <ele>1969</ele>
        <time>2015-08-16T11:03:39Z</time>
      </trkpt>
      <trkpt lat="42.89641" lon="0.19945">
        <ele>1969</ele>
        <time>2015-08-16T11:03:44Z</time>
      </trkpt>
      <trkpt lat="42.89639" lon="0.19942">
        <ele>1969</ele>
        <time>2015-08-16T11:03:49Z</time>
      </trkpt>
      <trkpt lat="42.89637" lon="0.1994">
        <ele>1969</ele>
        <time>2015-08-16T11:03:55Z</time>
      </trkpt>
      <trkpt lat="42.89635" lon="0.19938">
        <ele>1969</ele>
        <time>2015-08-16T11:04:01Z</time>
      </trkpt>
      <trkpt lat="42.89633" lon="0.19934">
        <ele>1968</ele>
        <time>2015-08-16T11:04:06Z</time>
      </trkpt>
      <trkpt lat="42.89632" lon="0.19931">
        <ele>1968</ele>
        <time>2015-08-16T11:04:12Z</time>
      </trkpt>
      <trkpt lat="42.89631" lon="0.19929">
        <ele>1968</ele>
        <time>2015-08-16T11:04:17Z</time>
      </trkpt>
      <trkpt lat="42.89629" lon="0.19927">
        <ele>1968</ele>
        <time>2015-08-16T11:04:22Z</time>
      </trkpt>
      <trkpt lat="42.89627" lon="0.1992">
        <ele>1968</ele>
        <time>2015-08-16T11:04:28Z</time>
      </trkpt>
      <trkpt lat="42.89626" lon="0.19914">
        <ele>1968</ele>
        <time>2015-08-16T11:04:34Z</time>
      </trkpt>
      <trkpt lat="42.89625" lon="0.19908">
        <ele>1968</ele>
        <time>2015-08-16T11:04:39Z</time>
      </trkpt>
      <trkpt lat="42.89623" lon="0.19901">
        <ele>1969</ele>
        <time>2015-08-16T11:04:45Z</time>
      </trkpt>
      <trkpt lat="42.89621" lon="0.19898">
        <ele>1968</ele>
        <time>2015-08-16T11:04:50Z</time>
      </trkpt>
      <trkpt lat="42.89619" lon="0.19894">
        <ele>1968</ele>
        <time>2015-08-16T11:04:56Z</time>
      </trkpt>
      <trkpt lat="42.89616" lon="0.1989">
        <ele>1968</ele>
        <time>2015-08-16T11:05:01Z</time>
      </trkpt>
      <trkpt lat="42.89613" lon="0.19886">
        <ele>1968</ele>
        <time>2015-08-16T11:05:06Z</time>
      </trkpt>
      <trkpt lat="42.8961" lon="0.19883">
        <ele>1968</ele>
        <time>2015-08-16T11:05:12Z</time>
      </trkpt>
      <trkpt lat="42.89607" lon="0.19879">
        <ele>1967</ele>
        <time>2015-08-16T11:05:17Z</time>
      </trkpt>
      <trkpt lat="42.89604" lon="0.19874">
        <ele>1967</ele>
        <time>2015-08-16T11:05:22Z</time>
      </trkpt>
      <trkpt lat="42.89601" lon="0.19872">
        <ele>1967</ele>
        <time>2015-08-16T11:05:27Z</time>
      </trkpt>
      <trkpt lat="42.89597" lon="0.19867">
        <ele>1967</ele>
        <time>2015-08-16T11:05:33Z</time>
      </trkpt>
      <trkpt lat="42.89595" lon="0.19863">
        <ele>1968</ele>
        <time>2015-08-16T11:05:38Z</time>
      </trkpt>
      <trkpt lat="42.89592" lon="0.1986">
        <ele>1968</ele>
        <time>2015-08-16T11:05:43Z</time>
      </trkpt>
      <trkpt lat="42.89588" lon="0.19857">
        <ele>1968</ele>
        <time>2015-08-16T11:05:48Z</time>
      </trkpt>
      <trkpt lat="42.89584" lon="0.19856">
        <ele>1969</ele>
        <time>2015-08-16T11:05:53Z</time>
      </trkpt>
      <trkpt lat="42.89581" lon="0.19857">
        <ele>1968</ele>
        <time>2015-08-16T11:05:59Z</time>
      </trkpt>
      <trkpt lat="42.89576" lon="0.19857">
        <ele>1967</ele>
        <time>2015-08-16T11:06:04Z</time>
      </trkpt>
      <trkpt lat="42.89571" lon="0.19857">
        <ele>1968</ele>
        <time>2015-08-16T11:06:09Z</time>
      </trkpt>
      <trkpt lat="42.8957" lon="0.19856">
        <ele>1968</ele>
        <time>2015-08-16T11:06:15Z</time>
      </trkpt>
      <trkpt lat="42.89567" lon="0.19857">
        <ele>1968</ele>
        <time>2015-08-16T11:06:21Z</time>
      </trkpt>
      <trkpt lat="42.89565" lon="0.19858">
        <ele>1967</ele>
        <time>2015-08-16T11:06:26Z</time>
      </trkpt>
      <trkpt lat="42.89562" lon="0.19859">
        <ele>1965</ele>
        <time>2015-08-16T11:06:32Z</time>
      </trkpt>
      <trkpt lat="42.89561" lon="0.19861">
        <ele>1965</ele>
        <time>2015-08-16T11:06:38Z</time>
      </trkpt>
      <trkpt lat="42.8956" lon="0.19863">
        <ele>1964</ele>
        <time>2015-08-16T11:06:43Z</time>
      </trkpt>
      <trkpt lat="42.89559" lon="0.19865">
        <ele>1964</ele>
        <time>2015-08-16T11:06:49Z</time>
      </trkpt>
      <trkpt lat="42.89559" lon="0.19865">
        <ele>1963</ele>
        <time>2015-08-16T11:06:54Z</time>
      </trkpt>
      <trkpt lat="42.89558" lon="0.19866">
        <ele>1963</ele>
        <time>2015-08-16T11:07:00Z</time>
      </trkpt>
      <trkpt lat="42.89558" lon="0.19866">
        <ele>1962</ele>
        <time>2015-08-16T11:07:06Z</time>
      </trkpt>
      <trkpt lat="42.89549" lon="0.19874">
        <ele>1962</ele>
        <time>2015-08-16T13:31:48Z</time>
      </trkpt>
      <trkpt lat="42.8955" lon="0.19874">
        <ele>1962</ele>
        <time>2015-08-16T13:31:53Z</time>
      </trkpt>
      <trkpt lat="42.89551" lon="0.19873">
        <ele>1963</ele>
        <time>2015-08-16T13:31:58Z</time>
      </trkpt>
      <trkpt lat="42.89553" lon="0.19872">
        <ele>1963</ele>
        <time>2015-08-16T13:32:04Z</time>
      </trkpt>
      <trkpt lat="42.89553" lon="0.1987">
        <ele>1964</ele>
        <time>2015-08-16T13:32:09Z</time>
      </trkpt>
      <trkpt lat="42.89553" lon="0.19867">
        <ele>1964</ele>
        <time>2015-08-16T13:32:14Z</time>
      </trkpt>
      <trkpt lat="42.89553" lon="0.19866">
        <ele>1965</ele>
        <time>2015-08-16T13:32:19Z</time>
      </trkpt>
      <trkpt lat="42.89553" lon="0.19862">
        <ele>1965</ele>
        <time>2015-08-16T13:32:24Z</time>
      </trkpt>
      <trkpt lat="42.89555" lon="0.19861">
        <ele>1965</ele>
        <time>2015-08-16T13:32:30Z</time>
      </trkpt>
      <trkpt lat="42.89557" lon="0.19859">
        <ele>1965</ele>
        <time>2015-08-16T13:32:35Z</time>
      </trkpt>
      <trkpt lat="42.89559" lon="0.19855">
        <ele>1966</ele>
        <time>2015-08-16T13:32:41Z</time>
      </trkpt>
      <trkpt lat="42.89558" lon="0.19854">
        <ele>1967</ele>
        <time>2015-08-16T13:32:46Z</time>
      </trkpt>
      <trkpt lat="42.89558" lon="0.19851">
        <ele>1967</ele>
        <time>2015-08-16T13:32:51Z</time>
      </trkpt>
      <trkpt lat="42.89555" lon="0.19849">
        <ele>1968</ele>
        <time>2015-08-16T13:32:57Z</time>
      </trkpt>
      <trkpt lat="42.89553" lon="0.19847">
        <ele>1969</ele>
        <time>2015-08-16T13:33:02Z</time>
      </trkpt>
      <trkpt lat="42.8955" lon="0.19846">
        <ele>1969</ele>
        <time>2015-08-16T13:33:08Z</time>
      </trkpt>
      <trkpt lat="42.89548" lon="0.19847">
        <ele>1969</ele>
        <time>2015-08-16T13:33:13Z</time>
      </trkpt>
      <trkpt lat="42.89545" lon="0.19844">
        <ele>1969</ele>
        <time>2015-08-16T13:33:19Z</time>
      </trkpt>
      <trkpt lat="42.8954" lon="0.19839">
        <ele>1968</ele>
        <time>2015-08-16T13:33:25Z</time>
      </trkpt>
      <trkpt lat="42.89536" lon="0.19838">
        <ele>1968</ele>
        <time>2015-08-16T13:33:30Z</time>
      </trkpt>
      <trkpt lat="42.89531" lon="0.19837">
        <ele>1967</ele>
        <time>2015-08-16T13:33:36Z</time>
      </trkpt>
      <trkpt lat="42.89526" lon="0.19835">
        <ele>1967</ele>
        <time>2015-08-16T13:33:41Z</time>
      </trkpt>
      <trkpt lat="42.89524" lon="0.19832">
        <ele>1968</ele>
        <time>2015-08-16T13:33:47Z</time>
      </trkpt>
      <trkpt lat="42.8952" lon="0.19829">
        <ele>1969</ele>
        <time>2015-08-16T13:33:52Z</time>
      </trkpt>
      <trkpt lat="42.89517" lon="0.19826">
        <ele>1969</ele>
        <time>2015-08-16T13:33:57Z</time>
      </trkpt>
      <trkpt lat="42.89511" lon="0.19826">
        <ele>1968</ele>
        <time>2015-08-16T13:34:03Z</time>
      </trkpt>
      <trkpt lat="42.89506" lon="0.19825">
        <ele>1968</ele>
        <time>2015-08-16T13:34:08Z</time>
      </trkpt>
      <trkpt lat="42.895" lon="0.19824">
        <ele>1969</ele>
        <time>2015-08-16T13:34:14Z</time>
      </trkpt>
      <trkpt lat="42.89496" lon="0.19823">
        <ele>1970</ele>
        <time>2015-08-16T13:34:19Z</time>
      </trkpt>
      <trkpt lat="42.89491" lon="0.19819">
        <ele>1970</ele>
        <time>2015-08-16T13:34:25Z</time>
      </trkpt>
      <trkpt lat="42.89485" lon="0.19817">
        <ele>1969</ele>
        <time>2015-08-16T13:34:31Z</time>
      </trkpt>
      <trkpt lat="42.89481" lon="0.19808">
        <ele>1969</ele>
        <time>2015-08-16T13:34:37Z</time>
      </trkpt>
      <trkpt lat="42.89479" lon="0.19799">
        <ele>1970</ele>
        <time>2015-08-16T13:34:43Z</time>
      </trkpt>
      <trkpt lat="42.89475" lon="0.19793">
        <ele>1969</ele>
        <time>2015-08-16T13:34:49Z</time>
      </trkpt>
      <trkpt lat="42.89471" lon="0.19788">
        <ele>1969</ele>
        <time>2015-08-16T13:34:54Z</time>
      </trkpt>
      <trkpt lat="42.89468" lon="0.19783">
        <ele>1969</ele>
        <time>2015-08-16T13:35:00Z</time>
      </trkpt>
      <trkpt lat="42.89465" lon="0.19778">
        <ele>1969</ele>
        <time>2015-08-16T13:35:05Z</time>
      </trkpt>
      <trkpt lat="42.89462" lon="0.19774">
        <ele>1969</ele>
        <time>2015-08-16T13:35:11Z</time>
      </trkpt>
      <trkpt lat="42.89457" lon="0.19774">
        <ele>1969</ele>
        <time>2015-08-16T13:35:16Z</time>
      </trkpt>
      <trkpt lat="42.89453" lon="0.19771">
        <ele>1969</ele>
        <time>2015-08-16T13:35:22Z</time>
      </trkpt>
      <trkpt lat="42.8945" lon="0.19765">
        <ele>1970</ele>
        <time>2015-08-16T13:35:28Z</time>
      </trkpt>
      <trkpt lat="42.89449" lon="0.1976">
        <ele>1971</ele>
        <time>2015-08-16T13:35:34Z</time>
      </trkpt>
      <trkpt lat="42.89445" lon="0.19754">
        <ele>1972</ele>
        <time>2015-08-16T13:35:40Z</time>
      </trkpt>
      <trkpt lat="42.89443" lon="0.19749">
        <ele>1972</ele>
        <time>2015-08-16T13:35:45Z</time>
      </trkpt>
      <trkpt lat="42.89441" lon="0.19745">
        <ele>1973</ele>
        <time>2015-08-16T13:35:50Z</time>
      </trkpt>
      <trkpt lat="42.89439" lon="0.1974">
        <ele>1974</ele>
        <time>2015-08-16T13:35:56Z</time>
      </trkpt>
      <trkpt lat="42.89437" lon="0.19735">
        <ele>1974</ele>
        <time>2015-08-16T13:36:01Z</time>
      </trkpt>
      <trkpt lat="42.89434" lon="0.19731">
        <ele>1974</ele>
        <time>2015-08-16T13:36:06Z</time>
      </trkpt>
      <trkpt lat="42.89429" lon="0.19729">
        <ele>1974</ele>
        <time>2015-08-16T13:36:12Z</time>
      </trkpt>
      <trkpt lat="42.89423" lon="0.19728">
        <ele>1974</ele>
        <time>2015-08-16T13:36:17Z</time>
      </trkpt>
      <trkpt lat="42.8942" lon="0.19725">
        <ele>1975</ele>
        <time>2015-08-16T13:36:23Z</time>
      </trkpt>
      <trkpt lat="42.89417" lon="0.19723">
        <ele>1976</ele>
        <time>2015-08-16T13:36:28Z</time>
      </trkpt>
      <trkpt lat="42.89416" lon="0.19719">
        <ele>1976</ele>
        <time>2015-08-16T13:36:33Z</time>
      </trkpt>
      <trkpt lat="42.89415" lon="0.19715">
        <ele>1977</ele>
        <time>2015-08-16T13:36:38Z</time>
      </trkpt>
      <trkpt lat="42.8941" lon="0.19714">
        <ele>1978</ele>
        <time>2015-08-16T13:36:44Z</time>
      </trkpt>
      <trkpt lat="42.89408" lon="0.19713">
        <ele>1978</ele>
        <time>2015-08-16T13:36:49Z</time>
      </trkpt>
      <trkpt lat="42.89405" lon="0.19715">
        <ele>1979</ele>
        <time>2015-08-16T13:36:54Z</time>
      </trkpt>
      <trkpt lat="42.89402" lon="0.1972">
        <ele>1979</ele>
        <time>2015-08-16T13:37:00Z</time>
      </trkpt>
      <trkpt lat="42.89399" lon="0.19722">
        <ele>1979</ele>
        <time>2015-08-16T13:37:05Z</time>
      </trkpt>
      <trkpt lat="42.89395" lon="0.19723">
        <ele>1980</ele>
        <time>2015-08-16T13:37:11Z</time>
      </trkpt>
      <trkpt lat="42.89392" lon="0.19725">
        <ele>1980</ele>
        <time>2015-08-16T13:37:16Z</time>
      </trkpt>
      <trkpt lat="42.89389" lon="0.19726">
        <ele>1981</ele>
        <time>2015-08-16T13:37:22Z</time>
      </trkpt>
      <trkpt lat="42.89385" lon="0.19726">
        <ele>1982</ele>
        <time>2015-08-16T13:37:28Z</time>
      </trkpt>
      <trkpt lat="42.89381" lon="0.19727">
        <ele>1983</ele>
        <time>2015-08-16T13:37:34Z</time>
      </trkpt>
      <trkpt lat="42.89378" lon="0.19728">
        <ele>1984</ele>
        <time>2015-08-16T13:37:39Z</time>
      </trkpt>
      <trkpt lat="42.89374" lon="0.19731">
        <ele>1984</ele>
        <time>2015-08-16T13:37:45Z</time>
      </trkpt>
      <trkpt lat="42.89368" lon="0.19731">
        <ele>1984</ele>
        <time>2015-08-16T13:37:51Z</time>
      </trkpt>
      <trkpt lat="42.89364" lon="0.19736">
        <ele>1983</ele>
        <time>2015-08-16T13:37:57Z</time>
      </trkpt>
      <trkpt lat="42.89361" lon="0.19738">
        <ele>1983</ele>
        <time>2015-08-16T13:38:02Z</time>
      </trkpt>
      <trkpt lat="42.89355" lon="0.1974">
        <ele>1983</ele>
        <time>2015-08-16T13:38:08Z</time>
      </trkpt>
      <trkpt lat="42.89351" lon="0.19742">
        <ele>1983</ele>
        <time>2015-08-16T13:38:14Z</time>
      </trkpt>
      <trkpt lat="42.89347" lon="0.1974">
        <ele>1984</ele>
        <time>2015-08-16T13:38:19Z</time>
      </trkpt>
      <trkpt lat="42.89342" lon="0.19741">
        <ele>1984</ele>
        <time>2015-08-16T13:38:25Z</time>
      </trkpt>
      <trkpt lat="42.89338" lon="0.1974">
        <ele>1985</ele>
        <time>2015-08-16T13:38:31Z</time>
      </trkpt>
      <trkpt lat="42.89333" lon="0.1974">
        <ele>1986</ele>
        <time>2015-08-16T13:38:36Z</time>
      </trkpt>
      <trkpt lat="42.8933" lon="0.19742">
        <ele>1987</ele>
        <time>2015-08-16T13:38:42Z</time>
      </trkpt>
      <trkpt lat="42.8933" lon="0.19748">
        <ele>1988</ele>
        <time>2015-08-16T13:38:48Z</time>
      </trkpt>
      <trkpt lat="42.89328" lon="0.19752">
        <ele>1989</ele>
        <time>2015-08-16T13:38:54Z</time>
      </trkpt>
      <trkpt lat="42.89326" lon="0.1975">
        <ele>1990</ele>
        <time>2015-08-16T13:38:59Z</time>
      </trkpt>
      <trkpt lat="42.89324" lon="0.19749">
        <ele>1991</ele>
        <time>2015-08-16T13:39:05Z</time>
      </trkpt>
      <trkpt lat="42.89322" lon="0.19749">
        <ele>1992</ele>
        <time>2015-08-16T13:39:10Z</time>
      </trkpt>
      <trkpt lat="42.8932" lon="0.19748">
        <ele>1993</ele>
        <time>2015-08-16T13:39:16Z</time>
      </trkpt>
      <trkpt lat="42.89319" lon="0.19748">
        <ele>1994</ele>
        <time>2015-08-16T13:39:22Z</time>
      </trkpt>
      <trkpt lat="42.89317" lon="0.19747">
        <ele>1994</ele>
        <time>2015-08-16T13:39:27Z</time>
      </trkpt>
      <trkpt lat="42.89315" lon="0.19743">
        <ele>1995</ele>
        <time>2015-08-16T13:39:33Z</time>
      </trkpt>
      <trkpt lat="42.89312" lon="0.19742">
        <ele>1996</ele>
        <time>2015-08-16T13:39:39Z</time>
      </trkpt>
      <trkpt lat="42.89309" lon="0.1974">
        <ele>1997</ele>
        <time>2015-08-16T13:39:44Z</time>
      </trkpt>
      <trkpt lat="42.89307" lon="0.1974">
        <ele>1998</ele>
        <time>2015-08-16T13:39:50Z</time>
      </trkpt>
      <trkpt lat="42.89302" lon="0.19743">
        <ele>1999</ele>
        <time>2015-08-16T13:39:56Z</time>
      </trkpt>
      <trkpt lat="42.89298" lon="0.19745">
        <ele>2000</ele>
        <time>2015-08-16T13:40:02Z</time>
      </trkpt>
      <trkpt lat="42.89296" lon="0.19749">
        <ele>2001</ele>
        <time>2015-08-16T13:40:07Z</time>
      </trkpt>
      <trkpt lat="42.89294" lon="0.19752">
        <ele>2002</ele>
        <time>2015-08-16T13:40:12Z</time>
      </trkpt>
      <trkpt lat="42.8929" lon="0.19755">
        <ele>2002</ele>
        <time>2015-08-16T13:40:18Z</time>
      </trkpt>
      <trkpt lat="42.89285" lon="0.19758">
        <ele>2002</ele>
        <time>2015-08-16T13:40:24Z</time>
      </trkpt>
      <trkpt lat="42.89283" lon="0.19761">
        <ele>2003</ele>
        <time>2015-08-16T13:40:29Z</time>
      </trkpt>
      <trkpt lat="42.89281" lon="0.19768">
        <ele>2003</ele>
        <time>2015-08-16T13:40:35Z</time>
      </trkpt>
      <trkpt lat="42.89278" lon="0.19774">
        <ele>2003</ele>
        <time>2015-08-16T13:40:41Z</time>
      </trkpt>
      <trkpt lat="42.89274" lon="0.1978">
        <ele>2002</ele>
        <time>2015-08-16T13:40:47Z</time>
      </trkpt>
      <trkpt lat="42.89269" lon="0.19782">
        <ele>2003</ele>
        <time>2015-08-16T13:40:53Z</time>
      </trkpt>
      <trkpt lat="42.89265" lon="0.19785">
        <ele>2003</ele>
        <time>2015-08-16T13:40:58Z</time>
      </trkpt>
      <trkpt lat="42.89262" lon="0.19789">
        <ele>2004</ele>
        <time>2015-08-16T13:41:03Z</time>
      </trkpt>
      <trkpt lat="42.89258" lon="0.19793">
        <ele>2004</ele>
        <time>2015-08-16T13:41:09Z</time>
      </trkpt>
      <trkpt lat="42.89254" lon="0.19798">
        <ele>2005</ele>
        <time>2015-08-16T13:41:15Z</time>
      </trkpt>
      <trkpt lat="42.8925" lon="0.19807">
        <ele>2006</ele>
        <time>2015-08-16T13:41:21Z</time>
      </trkpt>
      <trkpt lat="42.89247" lon="0.19816">
        <ele>2006</ele>
        <time>2015-08-16T13:41:27Z</time>
      </trkpt>
      <trkpt lat="42.89245" lon="0.19824">
        <ele>2005</ele>
        <time>2015-08-16T13:41:32Z</time>
      </trkpt>
      <trkpt lat="42.89242" lon="0.1983">
        <ele>2005</ele>
        <time>2015-08-16T13:41:37Z</time>
      </trkpt>
      <trkpt lat="42.89238" lon="0.19836">
        <ele>2007</ele>
        <time>2015-08-16T13:41:43Z</time>
      </trkpt>
      <trkpt lat="42.89239" lon="0.19841">
        <ele>2008</ele>
        <time>2015-08-16T13:41:49Z</time>
      </trkpt>
      <trkpt lat="42.8924" lon="0.19845">
        <ele>2009</ele>
        <time>2015-08-16T13:41:55Z</time>
      </trkpt>
      <trkpt lat="42.89243" lon="0.19849">
        <ele>2009</ele>
        <time>2015-08-16T13:42:00Z</time>
      </trkpt>
      <trkpt lat="42.89246" lon="0.19852">
        <ele>2010</ele>
        <time>2015-08-16T13:42:05Z</time>
      </trkpt>
      <trkpt lat="42.89249" lon="0.19859">
        <ele>2010</ele>
        <time>2015-08-16T13:42:11Z</time>
      </trkpt>
      <trkpt lat="42.89251" lon="0.19866">
        <ele>2010</ele>
        <time>2015-08-16T13:42:16Z</time>
      </trkpt>
      <trkpt lat="42.89254" lon="0.1987">
        <ele>2011</ele>
        <time>2015-08-16T13:42:21Z</time>
      </trkpt>
      <trkpt lat="42.89257" lon="0.19873">
        <ele>2012</ele>
        <time>2015-08-16T13:42:26Z</time>
      </trkpt>
      <trkpt lat="42.89259" lon="0.19877">
        <ele>2013</ele>
        <time>2015-08-16T13:42:31Z</time>
      </trkpt>
      <trkpt lat="42.89261" lon="0.1988">
        <ele>2014</ele>
        <time>2015-08-16T13:42:36Z</time>
      </trkpt>
      <trkpt lat="42.89265" lon="0.19884">
        <ele>2015</ele>
        <time>2015-08-16T13:42:41Z</time>
      </trkpt>
      <trkpt lat="42.8927" lon="0.19889">
        <ele>2015</ele>
        <time>2015-08-16T13:42:46Z</time>
      </trkpt>
      <trkpt lat="42.89273" lon="0.19894">
        <ele>2015</ele>
        <time>2015-08-16T13:42:51Z</time>
      </trkpt>
      <trkpt lat="42.89276" lon="0.19901">
        <ele>2015</ele>
        <time>2015-08-16T13:42:56Z</time>
      </trkpt>
      <trkpt lat="42.89279" lon="0.19908">
        <ele>2015</ele>
        <time>2015-08-16T13:43:01Z</time>
      </trkpt>
      <trkpt lat="42.89282" lon="0.19915">
        <ele>2015</ele>
        <time>2015-08-16T13:43:07Z</time>
      </trkpt>
      <trkpt lat="42.89283" lon="0.19921">
        <ele>2015</ele>
        <time>2015-08-16T13:43:12Z</time>
      </trkpt>
      <trkpt lat="42.89282" lon="0.19925">
        <ele>2016</ele>
        <time>2015-08-16T13:43:18Z</time>
      </trkpt>
      <trkpt lat="42.89282" lon="0.19925">
        <ele>2017</ele>
        <time>2015-08-16T13:43:23Z</time>
      </trkpt>
      <trkpt lat="42.89282" lon="0.19926">
        <ele>2017</ele>
        <time>2015-08-16T13:43:29Z</time>
      </trkpt>
      <trkpt lat="42.89282" lon="0.19926">
        <ele>2016</ele>
        <time>2015-08-16T13:43:37Z</time>
      </trkpt>
      <trkpt lat="42.89282" lon="0.19926">
        <ele>2017</ele>
        <time>2015-08-16T13:43:43Z</time>
      </trkpt>
      <trkpt lat="42.89283" lon="0.19927">
        <ele>2017</ele>
        <time>2015-08-16T13:43:48Z</time>
      </trkpt>
      <trkpt lat="42.89283" lon="0.19927">
        <ele>2017</ele>
        <time>2015-08-16T13:43:57Z</time>
      </trkpt>
      <trkpt lat="42.89282" lon="0.19927">
        <ele>2017</ele>
        <time>2015-08-16T13:44:03Z</time>
      </trkpt>
      <trkpt lat="42.89282" lon="0.1993">
        <ele>2017</ele>
        <time>2015-08-16T13:44:08Z</time>
      </trkpt>
      <trkpt lat="42.89282" lon="0.19935">
        <ele>2017</ele>
        <time>2015-08-16T13:44:13Z</time>
      </trkpt>
      <trkpt lat="42.8928" lon="0.19939">
        <ele>2018</ele>
        <time>2015-08-16T13:44:19Z</time>
      </trkpt>
      <trkpt lat="42.89276" lon="0.19943">
        <ele>2020</ele>
        <time>2015-08-16T13:44:25Z</time>
      </trkpt>
      <trkpt lat="42.89273" lon="0.19947">
        <ele>2020</ele>
        <time>2015-08-16T13:44:31Z</time>
      </trkpt>
      <trkpt lat="42.89274" lon="0.19951">
        <ele>2022</ele>
        <time>2015-08-16T13:44:37Z</time>
      </trkpt>
      <trkpt lat="42.89277" lon="0.19953">
        <ele>2023</ele>
        <time>2015-08-16T13:44:42Z</time>
      </trkpt>
      <trkpt lat="42.8928" lon="0.19955">
        <ele>2025</ele>
        <time>2015-08-16T13:44:48Z</time>
      </trkpt>
      <trkpt lat="42.89285" lon="0.19958">
        <ele>2025</ele>
        <time>2015-08-16T13:44:54Z</time>
      </trkpt>
      <trkpt lat="42.89289" lon="0.19962">
        <ele>2026</ele>
        <time>2015-08-16T13:44:59Z</time>
      </trkpt>
      <trkpt lat="42.89292" lon="0.19969">
        <ele>2026</ele>
        <time>2015-08-16T13:45:05Z</time>
      </trkpt>
      <trkpt lat="42.89294" lon="0.19975">
        <ele>2026</ele>
        <time>2015-08-16T13:45:10Z</time>
      </trkpt>
      <trkpt lat="42.89296" lon="0.1998">
        <ele>2027</ele>
        <time>2015-08-16T13:45:15Z</time>
      </trkpt>
      <trkpt lat="42.893" lon="0.19987">
        <ele>2027</ele>
        <time>2015-08-16T13:45:21Z</time>
      </trkpt>
      <trkpt lat="42.89299" lon="0.19992">
        <ele>2028</ele>
        <time>2015-08-16T13:45:26Z</time>
      </trkpt>
      <trkpt lat="42.89298" lon="0.19997">
        <ele>2029</ele>
        <time>2015-08-16T13:45:31Z</time>
      </trkpt>
      <trkpt lat="42.89297" lon="0.20001">
        <ele>2029</ele>
        <time>2015-08-16T13:45:37Z</time>
      </trkpt>
      <trkpt lat="42.89293" lon="0.20002">
        <ele>2030</ele>
        <time>2015-08-16T13:45:43Z</time>
      </trkpt>
      <trkpt lat="42.8929" lon="0.20001">
        <ele>2031</ele>
        <time>2015-08-16T13:45:48Z</time>
      </trkpt>
      <trkpt lat="42.89286" lon="0.20003">
        <ele>2032</ele>
        <time>2015-08-16T13:45:54Z</time>
      </trkpt>
      <trkpt lat="42.89284" lon="0.20005">
        <ele>2033</ele>
        <time>2015-08-16T13:46:00Z</time>
      </trkpt>
      <trkpt lat="42.89282" lon="0.20006">
        <ele>2035</ele>
        <time>2015-08-16T13:46:06Z</time>
      </trkpt>
      <trkpt lat="42.89279" lon="0.20008">
        <ele>2036</ele>
        <time>2015-08-16T13:46:12Z</time>
      </trkpt>
      <trkpt lat="42.8928" lon="0.20011">
        <ele>2038</ele>
        <time>2015-08-16T13:46:18Z</time>
      </trkpt>
      <trkpt lat="42.89281" lon="0.20015">
        <ele>2039</ele>
        <time>2015-08-16T13:46:24Z</time>
      </trkpt>
      <trkpt lat="42.89281" lon="0.20018">
        <ele>2039</ele>
        <time>2015-08-16T13:46:30Z</time>
      </trkpt>
      <trkpt lat="42.89283" lon="0.2002">
        <ele>2040</ele>
        <time>2015-08-16T13:46:36Z</time>
      </trkpt>
      <trkpt lat="42.89283" lon="0.20023">
        <ele>2042</ele>
        <time>2015-08-16T13:46:41Z</time>
      </trkpt>
      <trkpt lat="42.89281" lon="0.20024">
        <ele>2043</ele>
        <time>2015-08-16T13:46:47Z</time>
      </trkpt>
      <trkpt lat="42.89279" lon="0.20024">
        <ele>2043</ele>
        <time>2015-08-16T13:46:53Z</time>
      </trkpt>
      <trkpt lat="42.89276" lon="0.20025">
        <ele>2044</ele>
        <time>2015-08-16T13:46:59Z</time>
      </trkpt>
      <trkpt lat="42.89274" lon="0.20025">
        <ele>2046</ele>
        <time>2015-08-16T13:47:04Z</time>
      </trkpt>
      <trkpt lat="42.89274" lon="0.20028">
        <ele>2047</ele>
        <time>2015-08-16T13:47:09Z</time>
      </trkpt>
      <trkpt lat="42.89275" lon="0.20032">
        <ele>2047</ele>
        <time>2015-08-16T13:47:15Z</time>
      </trkpt>
      <trkpt lat="42.89275" lon="0.20036">
        <ele>2048</ele>
        <time>2015-08-16T13:47:20Z</time>
      </trkpt>
      <trkpt lat="42.89276" lon="0.20041">
        <ele>2049</ele>
        <time>2015-08-16T13:47:26Z</time>
      </trkpt>
      <trkpt lat="42.89276" lon="0.20046">
        <ele>2049</ele>
        <time>2015-08-16T13:47:31Z</time>
      </trkpt>
      <trkpt lat="42.89275" lon="0.20051">
        <ele>2050</ele>
        <time>2015-08-16T13:47:37Z</time>
      </trkpt>
      <trkpt lat="42.89273" lon="0.20055">
        <ele>2051</ele>
        <time>2015-08-16T13:47:42Z</time>
      </trkpt>
      <trkpt lat="42.89272" lon="0.20059">
        <ele>2052</ele>
        <time>2015-08-16T13:47:47Z</time>
      </trkpt>
      <trkpt lat="42.89271" lon="0.20064">
        <ele>2053</ele>
        <time>2015-08-16T13:47:53Z</time>
      </trkpt>
      <trkpt lat="42.8927" lon="0.20068">
        <ele>2054</ele>
        <time>2015-08-16T13:47:59Z</time>
      </trkpt>
      <trkpt lat="42.89269" lon="0.20073">
        <ele>2055</ele>
        <time>2015-08-16T13:48:05Z</time>
      </trkpt>
      <trkpt lat="42.89266" lon="0.20073">
        <ele>2056</ele>
        <time>2015-08-16T13:48:10Z</time>
      </trkpt>
      <trkpt lat="42.89262" lon="0.20076">
        <ele>2055</ele>
        <time>2015-08-16T13:48:16Z</time>
      </trkpt>
      <trkpt lat="42.89258" lon="0.20079">
        <ele>2054</ele>
        <time>2015-08-16T13:48:21Z</time>
      </trkpt>
      <trkpt lat="42.89254" lon="0.20083">
        <ele>2054</ele>
        <time>2015-08-16T13:48:27Z</time>
      </trkpt>
      <trkpt lat="42.89249" lon="0.20086">
        <ele>2055</ele>
        <time>2015-08-16T13:48:33Z</time>
      </trkpt>
      <trkpt lat="42.89246" lon="0.20086">
        <ele>2055</ele>
        <time>2015-08-16T13:48:38Z</time>
      </trkpt>
      <trkpt lat="42.89242" lon="0.20086">
        <ele>2055</ele>
        <time>2015-08-16T13:48:43Z</time>
      </trkpt>
      <trkpt lat="42.89238" lon="0.20084">
        <ele>2055</ele>
        <time>2015-08-16T13:48:49Z</time>
      </trkpt>
      <trkpt lat="42.89234" lon="0.20082">
        <ele>2056</ele>
        <time>2015-08-16T13:48:54Z</time>
      </trkpt>
      <trkpt lat="42.89229" lon="0.20085">
        <ele>2056</ele>
        <time>2015-08-16T13:48:59Z</time>
      </trkpt>
      <trkpt lat="42.89226" lon="0.20086">
        <ele>2055</ele>
        <time>2015-08-16T13:49:04Z</time>
      </trkpt>
      <trkpt lat="42.89222" lon="0.20088">
        <ele>2055</ele>
        <time>2015-08-16T13:49:09Z</time>
      </trkpt>
      <trkpt lat="42.89216" lon="0.20092">
        <ele>2055</ele>
        <time>2015-08-16T13:49:15Z</time>
      </trkpt>
      <trkpt lat="42.89211" lon="0.20096">
        <ele>2055</ele>
        <time>2015-08-16T13:49:21Z</time>
      </trkpt>
      <trkpt lat="42.89205" lon="0.20099">
        <ele>2055</ele>
        <time>2015-08-16T13:49:27Z</time>
      </trkpt>
      <trkpt lat="42.892" lon="0.20101">
        <ele>2054</ele>
        <time>2015-08-16T13:49:32Z</time>
      </trkpt>
      <trkpt lat="42.89195" lon="0.20102">
        <ele>2053</ele>
        <time>2015-08-16T13:49:38Z</time>
      </trkpt>
      <trkpt lat="42.8919" lon="0.20102">
        <ele>2053</ele>
        <time>2015-08-16T13:49:44Z</time>
      </trkpt>
      <trkpt lat="42.8919" lon="0.20101">
        <ele>2054</ele>
        <time>2015-08-16T13:49:51Z</time>
      </trkpt>
      <trkpt lat="42.8919" lon="0.20101">
        <ele>2054</ele>
        <time>2015-08-16T13:49:57Z</time>
      </trkpt>
      <trkpt lat="42.8919" lon="0.201">
        <ele>2054</ele>
        <time>2015-08-16T13:50:02Z</time>
      </trkpt>
      <trkpt lat="42.8919" lon="0.201">
        <ele>2054</ele>
        <time>2015-08-16T13:50:07Z</time>
      </trkpt>
      <trkpt lat="42.8919" lon="0.20099">
        <ele>2054</ele>
        <time>2015-08-16T13:50:14Z</time>
      </trkpt>
      <trkpt lat="42.8919" lon="0.20098">
        <ele>2054</ele>
        <time>2015-08-16T13:50:20Z</time>
      </trkpt>
      <trkpt lat="42.89189" lon="0.20099">
        <ele>2054</ele>
        <time>2015-08-16T13:50:25Z</time>
      </trkpt>
      <trkpt lat="42.89189" lon="0.20099">
        <ele>2054</ele>
        <time>2015-08-16T13:50:33Z</time>
      </trkpt>
      <trkpt lat="42.89189" lon="0.20099">
        <ele>2054</ele>
        <time>2015-08-16T13:50:38Z</time>
      </trkpt>
      <trkpt lat="42.8919" lon="0.20099">
        <ele>2054</ele>
        <time>2015-08-16T13:50:43Z</time>
      </trkpt>
      <trkpt lat="42.8919" lon="0.20099">
        <ele>2054</ele>
        <time>2015-08-16T13:50:49Z</time>
      </trkpt>
      <trkpt lat="42.8919" lon="0.20099">
        <ele>2054</ele>
        <time>2015-08-16T13:50:54Z</time>
      </trkpt>
      <trkpt lat="42.89188" lon="0.20099">
        <ele>2054</ele>
        <time>2015-08-16T13:51:00Z</time>
      </trkpt>
      <trkpt lat="42.89183" lon="0.20098">
        <ele>2054</ele>
        <time>2015-08-16T13:51:06Z</time>
      </trkpt>
      <trkpt lat="42.89179" lon="0.20097">
        <ele>2055</ele>
        <time>2015-08-16T13:51:11Z</time>
      </trkpt>
      <trkpt lat="42.89175" lon="0.20096">
        <ele>2056</ele>
        <time>2015-08-16T13:51:16Z</time>
      </trkpt>
      <trkpt lat="42.89172" lon="0.20093">
        <ele>2057</ele>
        <time>2015-08-16T13:51:22Z</time>
      </trkpt>
      <trkpt lat="42.89168" lon="0.20092">
        <ele>2059</ele>
        <time>2015-08-16T13:51:27Z</time>
      </trkpt>
      <trkpt lat="42.89166" lon="0.20094">
        <ele>2060</ele>
        <time>2015-08-16T13:51:33Z</time>
      </trkpt>
      <trkpt lat="42.89163" lon="0.20089">
        <ele>2060</ele>
        <time>2015-08-16T13:51:38Z</time>
      </trkpt>
      <trkpt lat="42.89161" lon="0.20087">
        <ele>2062</ele>
        <time>2015-08-16T13:51:44Z</time>
      </trkpt>
      <trkpt lat="42.89158" lon="0.20086">
        <ele>2063</ele>
        <time>2015-08-16T13:51:49Z</time>
      </trkpt>
      <trkpt lat="42.89156" lon="0.20085">
        <ele>2064</ele>
        <time>2015-08-16T13:51:54Z</time>
      </trkpt>
      <trkpt lat="42.89152" lon="0.20083">
        <ele>2064</ele>
        <time>2015-08-16T13:51:59Z</time>
      </trkpt>
      <trkpt lat="42.89149" lon="0.20081">
        <ele>2065</ele>
        <time>2015-08-16T13:52:04Z</time>
      </trkpt>
      <trkpt lat="42.89147" lon="0.20082">
        <ele>2066</ele>
        <time>2015-08-16T13:52:09Z</time>
      </trkpt>
      <trkpt lat="42.89144" lon="0.20083">
        <ele>2068</ele>
        <time>2015-08-16T13:52:15Z</time>
      </trkpt>
      <trkpt lat="42.89141" lon="0.20086">
        <ele>2069</ele>
        <time>2015-08-16T13:52:21Z</time>
      </trkpt>
      <trkpt lat="42.89138" lon="0.20086">
        <ele>2070</ele>
        <time>2015-08-16T13:52:26Z</time>
      </trkpt>
      <trkpt lat="42.89136" lon="0.20085">
        <ele>2070</ele>
        <time>2015-08-16T13:52:31Z</time>
      </trkpt>
      <trkpt lat="42.89134" lon="0.20084">
        <ele>2070</ele>
        <time>2015-08-16T13:52:36Z</time>
      </trkpt>
      <trkpt lat="42.89134" lon="0.20083">
        <ele>2070</ele>
        <time>2015-08-16T13:52:44Z</time>
      </trkpt>
      <trkpt lat="42.89134" lon="0.20083">
        <ele>2070</ele>
        <time>2015-08-16T13:53:08Z</time>
      </trkpt>
      <trkpt lat="42.89134" lon="0.20083">
        <ele>2070</ele>
        <time>2015-08-16T13:53:14Z</time>
      </trkpt>
      <trkpt lat="42.89134" lon="0.20083">
        <ele>2071</ele>
        <time>2015-08-16T13:53:27Z</time>
      </trkpt>
      <trkpt lat="42.89134" lon="0.20083">
        <ele>2070</ele>
        <time>2015-08-16T13:53:34Z</time>
      </trkpt>
      <trkpt lat="42.89134" lon="0.20083">
        <ele>2070</ele>
        <time>2015-08-16T13:53:42Z</time>
      </trkpt>
      <trkpt lat="42.89134" lon="0.20083">
        <ele>2070</ele>
        <time>2015-08-16T13:53:47Z</time>
      </trkpt>
      <trkpt lat="42.89134" lon="0.20083">
        <ele>2070</ele>
        <time>2015-08-16T13:53:55Z</time>
      </trkpt>
      <trkpt lat="42.89134" lon="0.20083">
        <ele>2070</ele>
        <time>2015-08-16T13:54:00Z</time>
      </trkpt>
      <trkpt lat="42.89133" lon="0.20083">
        <ele>2070</ele>
        <time>2015-08-16T13:54:08Z</time>
      </trkpt>
      <trkpt lat="42.89133" lon="0.20083">
        <ele>2071</ele>
        <time>2015-08-16T13:54:13Z</time>
      </trkpt>
      <trkpt lat="42.89133" lon="0.20083">
        <ele>2071</ele>
        <time>2015-08-16T13:54:20Z</time>
      </trkpt>
      <trkpt lat="42.89133" lon="0.20083">
        <ele>2070</ele>
        <time>2015-08-16T13:54:26Z</time>
      </trkpt>
      <trkpt lat="42.89133" lon="0.20083">
        <ele>2070</ele>
        <time>2015-08-16T13:54:31Z</time>
      </trkpt>
      <trkpt lat="42.89133" lon="0.20083">
        <ele>2070</ele>
        <time>2015-08-16T13:54:36Z</time>
      </trkpt>
      <trkpt lat="42.89133" lon="0.20084">
        <ele>2070</ele>
        <time>2015-08-16T13:54:42Z</time>
      </trkpt>
      <trkpt lat="42.89133" lon="0.20084">
        <ele>2070</ele>
        <time>2015-08-16T13:54:47Z</time>
      </trkpt>
      <trkpt lat="42.89133" lon="0.20083">
        <ele>2071</ele>
        <time>2015-08-16T13:54:53Z</time>
      </trkpt>
      <trkpt lat="42.89134" lon="0.20082">
        <ele>2071</ele>
        <time>2015-08-16T13:55:02Z</time>
      </trkpt>
      <trkpt lat="42.89133" lon="0.20082">
        <ele>2071</ele>
        <time>2015-08-16T13:55:08Z</time>
      </trkpt>
      <trkpt lat="42.89134" lon="0.20084">
        <ele>2071</ele>
        <time>2015-08-16T13:55:14Z</time>
      </trkpt>
      <trkpt lat="42.89134" lon="0.20089">
        <ele>2072</ele>
        <time>2015-08-16T13:55:20Z</time>
      </trkpt>
      <trkpt lat="42.89135" lon="0.20095">
        <ele>2073</ele>
        <time>2015-08-16T13:55:26Z</time>
      </trkpt>
      <trkpt lat="42.89133" lon="0.20101">
        <ele>2074</ele>
        <time>2015-08-16T13:55:32Z</time>
      </trkpt>
      <trkpt lat="42.8913" lon="0.20103">
        <ele>2074</ele>
        <time>2015-08-16T13:55:37Z</time>
      </trkpt>
      <trkpt lat="42.89127" lon="0.20106">
        <ele>2076</ele>
        <time>2015-08-16T13:55:42Z</time>
      </trkpt>
      <trkpt lat="42.89124" lon="0.20107">
        <ele>2077</ele>
        <time>2015-08-16T13:55:48Z</time>
      </trkpt>
      <trkpt lat="42.89121" lon="0.20109">
        <ele>2078</ele>
        <time>2015-08-16T13:55:53Z</time>
      </trkpt>
      <trkpt lat="42.89118" lon="0.20112">
        <ele>2079</ele>
        <time>2015-08-16T13:55:58Z</time>
      </trkpt>
      <trkpt lat="42.89117" lon="0.20118">
        <ele>2080</ele>
        <time>2015-08-16T13:56:04Z</time>
      </trkpt>
      <trkpt lat="42.89117" lon="0.20122">
        <ele>2081</ele>
        <time>2015-08-16T13:56:09Z</time>
      </trkpt>
      <trkpt lat="42.89115" lon="0.20127">
        <ele>2081</ele>
        <time>2015-08-16T13:56:15Z</time>
      </trkpt>
      <trkpt lat="42.89112" lon="0.20129">
        <ele>2082</ele>
        <time>2015-08-16T13:56:21Z</time>
      </trkpt>
      <trkpt lat="42.89109" lon="0.2013">
        <ele>2083</ele>
        <time>2015-08-16T13:56:26Z</time>
      </trkpt>
      <trkpt lat="42.89105" lon="0.20134">
        <ele>2083</ele>
        <time>2015-08-16T13:56:32Z</time>
      </trkpt>
      <trkpt lat="42.89101" lon="0.20139">
        <ele>2084</ele>
        <time>2015-08-16T13:56:37Z</time>
      </trkpt>
      <trkpt lat="42.89099" lon="0.20144">
        <ele>2085</ele>
        <time>2015-08-16T13:56:43Z</time>
      </trkpt>
      <trkpt lat="42.89096" lon="0.2015">
        <ele>2085</ele>
        <time>2015-08-16T13:56:48Z</time>
      </trkpt>
      <trkpt lat="42.89094" lon="0.20155">
        <ele>2085</ele>
        <time>2015-08-16T13:56:54Z</time>
      </trkpt>
      <trkpt lat="42.8909" lon="0.20157">
        <ele>2085</ele>
        <time>2015-08-16T13:56:59Z</time>
      </trkpt>
      <trkpt lat="42.89088" lon="0.20159">
        <ele>2085</ele>
        <time>2015-08-16T13:57:05Z</time>
      </trkpt>
      <trkpt lat="42.89087" lon="0.2016">
        <ele>2084</ele>
        <time>2015-08-16T13:57:11Z</time>
      </trkpt>
      <trkpt lat="42.89087" lon="0.2016">
        <ele>2085</ele>
        <time>2015-08-16T13:57:18Z</time>
      </trkpt>
      <trkpt lat="42.89086" lon="0.2016">
        <ele>2085</ele>
        <time>2015-08-16T13:57:23Z</time>
      </trkpt>
      <trkpt lat="42.89086" lon="0.20161">
        <ele>2085</ele>
        <time>2015-08-16T13:57:28Z</time>
      </trkpt>
      <trkpt lat="42.89085" lon="0.20161">
        <ele>2085</ele>
        <time>2015-08-16T13:57:34Z</time>
      </trkpt>
      <trkpt lat="42.89085" lon="0.20161">
        <ele>2085</ele>
        <time>2015-08-16T13:57:40Z</time>
      </trkpt>
      <trkpt lat="42.89085" lon="0.20162">
        <ele>2084</ele>
        <time>2015-08-16T13:57:46Z</time>
      </trkpt>
      <trkpt lat="42.89085" lon="0.20161">
        <ele>2085</ele>
        <time>2015-08-16T13:57:53Z</time>
      </trkpt>
      <trkpt lat="42.89083" lon="0.20163">
        <ele>2084</ele>
        <time>2015-08-16T13:58:00Z</time>
      </trkpt>
      <trkpt lat="42.89079" lon="0.20163">
        <ele>2083</ele>
        <time>2015-08-16T13:58:05Z</time>
      </trkpt>
      <trkpt lat="42.89077" lon="0.20166">
        <ele>2082</ele>
        <time>2015-08-16T13:58:10Z</time>
      </trkpt>
      <trkpt lat="42.89074" lon="0.20173">
        <ele>2081</ele>
        <time>2015-08-16T13:58:17Z</time>
      </trkpt>
      <trkpt lat="42.89072" lon="0.20178">
        <ele>2080</ele>
        <time>2015-08-16T13:58:22Z</time>
      </trkpt>
      <trkpt lat="42.8907" lon="0.20186">
        <ele>2079</ele>
        <time>2015-08-16T13:58:27Z</time>
      </trkpt>
      <trkpt lat="42.89067" lon="0.20192">
        <ele>2079</ele>
        <time>2015-08-16T13:58:32Z</time>
      </trkpt>
      <trkpt lat="42.89064" lon="0.20197">
        <ele>2079</ele>
        <time>2015-08-16T13:58:38Z</time>
      </trkpt>
      <trkpt lat="42.89063" lon="0.202">
        <ele>2080</ele>
        <time>2015-08-16T13:58:44Z</time>
      </trkpt>
      <trkpt lat="42.89061" lon="0.20206">
        <ele>2081</ele>
        <time>2015-08-16T13:58:50Z</time>
      </trkpt>
      <trkpt lat="42.89058" lon="0.20208">
        <ele>2082</ele>
        <time>2015-08-16T13:58:56Z</time>
      </trkpt>
      <trkpt lat="42.89054" lon="0.20212">
        <ele>2083</ele>
        <time>2015-08-16T13:59:01Z</time>
      </trkpt>
      <trkpt lat="42.89051" lon="0.20218">
        <ele>2083</ele>
        <time>2015-08-16T13:59:07Z</time>
      </trkpt>
      <trkpt lat="42.89048" lon="0.20221">
        <ele>2083</ele>
        <time>2015-08-16T13:59:13Z</time>
      </trkpt>
      <trkpt lat="42.89048" lon="0.20221">
        <ele>2082</ele>
        <time>2015-08-16T13:59:18Z</time>
      </trkpt>
      <trkpt lat="42.89048" lon="0.20222">
        <ele>2083</ele>
        <time>2015-08-16T13:59:24Z</time>
      </trkpt>
      <trkpt lat="42.89048" lon="0.20222">
        <ele>2083</ele>
        <time>2015-08-16T13:59:29Z</time>
      </trkpt>
      <trkpt lat="42.89048" lon="0.20222">
        <ele>2083</ele>
        <time>2015-08-16T13:59:35Z</time>
      </trkpt>
      <trkpt lat="42.89048" lon="0.20222">
        <ele>2083</ele>
        <time>2015-08-16T13:59:40Z</time>
      </trkpt>
      <trkpt lat="42.89047" lon="0.20223">
        <ele>2083</ele>
        <time>2015-08-16T13:59:48Z</time>
      </trkpt>
      <trkpt lat="42.89047" lon="0.20223">
        <ele>2082</ele>
        <time>2015-08-16T13:59:54Z</time>
      </trkpt>
      <trkpt lat="42.89047" lon="0.20223">
        <ele>2083</ele>
        <time>2015-08-16T14:00:01Z</time>
      </trkpt>
      <trkpt lat="42.89047" lon="0.20223">
        <ele>2083</ele>
        <time>2015-08-16T14:00:10Z</time>
      </trkpt>
      <trkpt lat="42.89047" lon="0.20222">
        <ele>2083</ele>
        <time>2015-08-16T14:00:19Z</time>
      </trkpt>
      <trkpt lat="42.89047" lon="0.20222">
        <ele>2083</ele>
        <time>2015-08-16T14:00:25Z</time>
      </trkpt>
      <trkpt lat="42.89047" lon="0.20222">
        <ele>2083</ele>
        <time>2015-08-16T14:00:30Z</time>
      </trkpt>
      <trkpt lat="42.89046" lon="0.20222">
        <ele>2083</ele>
        <time>2015-08-16T14:00:36Z</time>
      </trkpt>
      <trkpt lat="42.89046" lon="0.20222">
        <ele>2083</ele>
        <time>2015-08-16T14:00:41Z</time>
      </trkpt>
      <trkpt lat="42.89046" lon="0.20222">
        <ele>2083</ele>
        <time>2015-08-16T14:00:47Z</time>
      </trkpt>
      <trkpt lat="42.89046" lon="0.20222">
        <ele>2083</ele>
        <time>2015-08-16T14:00:54Z</time>
      </trkpt>
      <trkpt lat="42.89045" lon="0.20223">
        <ele>2083</ele>
        <time>2015-08-16T14:00:59Z</time>
      </trkpt>
      <trkpt lat="42.89043" lon="0.20227">
        <ele>2082</ele>
        <time>2015-08-16T14:01:04Z</time>
      </trkpt>
      <trkpt lat="42.89041" lon="0.20233">
        <ele>2081</ele>
        <time>2015-08-16T14:01:10Z</time>
      </trkpt>
      <trkpt lat="42.8904" lon="0.20238">
        <ele>2081</ele>
        <time>2015-08-16T14:01:15Z</time>
      </trkpt>
      <trkpt lat="42.89036" lon="0.20242">
        <ele>2079</ele>
        <time>2015-08-16T14:01:20Z</time>
      </trkpt>
      <trkpt lat="42.89033" lon="0.20248">
        <ele>2078</ele>
        <time>2015-08-16T14:01:26Z</time>
      </trkpt>
      <trkpt lat="42.8903" lon="0.20252">
        <ele>2077</ele>
        <time>2015-08-16T14:01:31Z</time>
      </trkpt>
      <trkpt lat="42.89027" lon="0.20255">
        <ele>2076</ele>
        <time>2015-08-16T14:01:38Z</time>
      </trkpt>
      <trkpt lat="42.89022" lon="0.20259">
        <ele>2075</ele>
        <time>2015-08-16T14:01:43Z</time>
      </trkpt>
      <trkpt lat="42.89018" lon="0.20263">
        <ele>2073</ele>
        <time>2015-08-16T14:01:49Z</time>
      </trkpt>
      <trkpt lat="42.89013" lon="0.20266">
        <ele>2072</ele>
        <time>2015-08-16T14:01:55Z</time>
      </trkpt>
      <trkpt lat="42.89008" lon="0.20271">
        <ele>2070</ele>
        <time>2015-08-16T14:02:00Z</time>
      </trkpt>
      <trkpt lat="42.89003" lon="0.20277">
        <ele>2069</ele>
        <time>2015-08-16T14:02:06Z</time>
      </trkpt>
      <trkpt lat="42.88999" lon="0.20284">
        <ele>2069</ele>
        <time>2015-08-16T14:02:11Z</time>
      </trkpt>
      <trkpt lat="42.88995" lon="0.2029">
        <ele>2068</ele>
        <time>2015-08-16T14:02:17Z</time>
      </trkpt>
      <trkpt lat="42.88991" lon="0.20295">
        <ele>2067</ele>
        <time>2015-08-16T14:02:22Z</time>
      </trkpt>
      <trkpt lat="42.88988" lon="0.20301">
        <ele>2068</ele>
        <time>2015-08-16T14:02:28Z</time>
      </trkpt>
      <trkpt lat="42.88986" lon="0.20303">
        <ele>2068</ele>
        <time>2015-08-16T14:02:33Z</time>
      </trkpt>
      <trkpt lat="42.88984" lon="0.20306">
        <ele>2067</ele>
        <time>2015-08-16T14:02:38Z</time>
      </trkpt>
      <trkpt lat="42.88982" lon="0.20311">
        <ele>2067</ele>
        <time>2015-08-16T14:02:44Z</time>
      </trkpt>
      <trkpt lat="42.88981" lon="0.20313">
        <ele>2066</ele>
        <time>2015-08-16T14:02:49Z</time>
      </trkpt>
      <trkpt lat="42.8898" lon="0.20319">
        <ele>2065</ele>
        <time>2015-08-16T14:02:55Z</time>
      </trkpt>
      <trkpt lat="42.8898" lon="0.2032">
        <ele>2064</ele>
        <time>2015-08-16T14:03:00Z</time>
      </trkpt>
      <trkpt lat="42.88978" lon="0.20321">
        <ele>2064</ele>
        <time>2015-08-16T14:03:06Z</time>
      </trkpt>
      <trkpt lat="42.88975" lon="0.20326">
        <ele>2063</ele>
        <time>2015-08-16T14:03:11Z</time>
      </trkpt>
      <trkpt lat="42.88972" lon="0.20332">
        <ele>2062</ele>
        <time>2015-08-16T14:03:16Z</time>
      </trkpt>
      <trkpt lat="42.88969" lon="0.20337">
        <ele>2060</ele>
        <time>2015-08-16T14:03:23Z</time>
      </trkpt>
      <trkpt lat="42.88968" lon="0.20346">
        <ele>2058</ele>
        <time>2015-08-16T14:03:28Z</time>
      </trkpt>
      <trkpt lat="42.88965" lon="0.2035">
        <ele>2057</ele>
        <time>2015-08-16T14:03:33Z</time>
      </trkpt>
      <trkpt lat="42.88961" lon="0.20356">
        <ele>2057</ele>
        <time>2015-08-16T14:03:40Z</time>
      </trkpt>
      <trkpt lat="42.88958" lon="0.2036">
        <ele>2055</ele>
        <time>2015-08-16T14:03:45Z</time>
      </trkpt>
      <trkpt lat="42.88956" lon="0.20364">
        <ele>2054</ele>
        <time>2015-08-16T14:03:51Z</time>
      </trkpt>
      <trkpt lat="42.88952" lon="0.20368">
        <ele>2053</ele>
        <time>2015-08-16T14:03:56Z</time>
      </trkpt>
      <trkpt lat="42.88948" lon="0.20369">
        <ele>2052</ele>
        <time>2015-08-16T14:04:01Z</time>
      </trkpt>
      <trkpt lat="42.88946" lon="0.20375">
        <ele>2051</ele>
        <time>2015-08-16T14:04:07Z</time>
      </trkpt>
      <trkpt lat="42.88942" lon="0.2038">
        <ele>2050</ele>
        <time>2015-08-16T14:04:12Z</time>
      </trkpt>
      <trkpt lat="42.8894" lon="0.20385">
        <ele>2049</ele>
        <time>2015-08-16T14:04:18Z</time>
      </trkpt>
      <trkpt lat="42.88936" lon="0.20388">
        <ele>2048</ele>
        <time>2015-08-16T14:04:24Z</time>
      </trkpt>
      <trkpt lat="42.88935" lon="0.20384">
        <ele>2047</ele>
        <time>2015-08-16T14:04:29Z</time>
      </trkpt>
      <trkpt lat="42.88934" lon="0.2038">
        <ele>2044</ele>
        <time>2015-08-16T14:04:34Z</time>
      </trkpt>
      <trkpt lat="42.88929" lon="0.20387">
        <ele>2043</ele>
        <time>2015-08-16T14:04:41Z</time>
      </trkpt>
      <trkpt lat="42.88925" lon="0.20394">
        <ele>2043</ele>
        <time>2015-08-16T14:04:46Z</time>
      </trkpt>
      <trkpt lat="42.88921" lon="0.20402">
        <ele>2042</ele>
        <time>2015-08-16T14:04:52Z</time>
      </trkpt>
      <trkpt lat="42.88917" lon="0.2041">
        <ele>2042</ele>
        <time>2015-08-16T14:04:58Z</time>
      </trkpt>
      <trkpt lat="42.88914" lon="0.20416">
        <ele>2043</ele>
        <time>2015-08-16T14:05:03Z</time>
      </trkpt>
      <trkpt lat="42.8891" lon="0.20422">
        <ele>2043</ele>
        <time>2015-08-16T14:05:09Z</time>
      </trkpt>
      <trkpt lat="42.88906" lon="0.20425">
        <ele>2044</ele>
        <time>2015-08-16T14:05:14Z</time>
      </trkpt>
      <trkpt lat="42.88903" lon="0.20429">
        <ele>2044</ele>
        <time>2015-08-16T14:05:20Z</time>
      </trkpt>
      <trkpt lat="42.889" lon="0.20437">
        <ele>2045</ele>
        <time>2015-08-16T14:05:25Z</time>
      </trkpt>
      <trkpt lat="42.88899" lon="0.20442">
        <ele>2044</ele>
        <time>2015-08-16T14:05:30Z</time>
      </trkpt>
      <trkpt lat="42.889" lon="0.20449">
        <ele>2044</ele>
        <time>2015-08-16T14:05:36Z</time>
      </trkpt>
      <trkpt lat="42.88897" lon="0.20457">
        <ele>2044</ele>
        <time>2015-08-16T14:05:43Z</time>
      </trkpt>
      <trkpt lat="42.88897" lon="0.20465">
        <ele>2044</ele>
        <time>2015-08-16T14:05:49Z</time>
      </trkpt>
      <trkpt lat="42.88894" lon="0.20471">
        <ele>2044</ele>
        <time>2015-08-16T14:05:54Z</time>
      </trkpt>
      <trkpt lat="42.88893" lon="0.20475">
        <ele>2043</ele>
        <time>2015-08-16T14:05:59Z</time>
      </trkpt>
      <trkpt lat="42.88893" lon="0.2048">
        <ele>2044</ele>
        <time>2015-08-16T14:06:05Z</time>
      </trkpt>
      <trkpt lat="42.88892" lon="0.20484">
        <ele>2045</ele>
        <time>2015-08-16T14:06:10Z</time>
      </trkpt>
      <trkpt lat="42.88889" lon="0.20488">
        <ele>2046</ele>
        <time>2015-08-16T14:06:15Z</time>
      </trkpt>
      <trkpt lat="42.88886" lon="0.20493">
        <ele>2047</ele>
        <time>2015-08-16T14:06:22Z</time>
      </trkpt>
      <trkpt lat="42.88884" lon="0.20498">
        <ele>2048</ele>
        <time>2015-08-16T14:06:27Z</time>
      </trkpt>
      <trkpt lat="42.88881" lon="0.20504">
        <ele>2049</ele>
        <time>2015-08-16T14:06:32Z</time>
      </trkpt>
      <trkpt lat="42.88879" lon="0.20509">
        <ele>2050</ele>
        <time>2015-08-16T14:06:37Z</time>
      </trkpt>
      <trkpt lat="42.88876" lon="0.20515">
        <ele>2050</ele>
        <time>2015-08-16T14:06:43Z</time>
      </trkpt>
      <trkpt lat="42.88872" lon="0.20515">
        <ele>2051</ele>
        <time>2015-08-16T14:06:48Z</time>
      </trkpt>
      <trkpt lat="42.88867" lon="0.20517">
        <ele>2051</ele>
        <time>2015-08-16T14:06:54Z</time>
      </trkpt>
      <trkpt lat="42.88862" lon="0.20516">
        <ele>2051</ele>
        <time>2015-08-16T14:06:59Z</time>
      </trkpt>
      <trkpt lat="42.88857" lon="0.20512">
        <ele>2051</ele>
        <time>2015-08-16T14:07:04Z</time>
      </trkpt>
      <trkpt lat="42.88852" lon="0.20512">
        <ele>2051</ele>
        <time>2015-08-16T14:07:09Z</time>
      </trkpt>
      <trkpt lat="42.88847" lon="0.20513">
        <ele>2051</ele>
        <time>2015-08-16T14:07:15Z</time>
      </trkpt>
      <trkpt lat="42.88842" lon="0.20516">
        <ele>2051</ele>
        <time>2015-08-16T14:07:20Z</time>
      </trkpt>
      <trkpt lat="42.88839" lon="0.20514">
        <ele>2051</ele>
        <time>2015-08-16T14:07:25Z</time>
      </trkpt>
      <trkpt lat="42.88834" lon="0.20512">
        <ele>2051</ele>
        <time>2015-08-16T14:07:31Z</time>
      </trkpt>
      <trkpt lat="42.8883" lon="0.20516">
        <ele>2050</ele>
        <time>2015-08-16T14:07:36Z</time>
      </trkpt>
      <trkpt lat="42.88826" lon="0.20517">
        <ele>2051</ele>
        <time>2015-08-16T14:07:42Z</time>
      </trkpt>
      <trkpt lat="42.8882" lon="0.20518">
        <ele>2051</ele>
        <time>2015-08-16T14:07:47Z</time>
      </trkpt>
      <trkpt lat="42.88813" lon="0.20516">
        <ele>2050</ele>
        <time>2015-08-16T14:07:52Z</time>
      </trkpt>
      <trkpt lat="42.88809" lon="0.20516">
        <ele>2049</ele>
        <time>2015-08-16T14:07:58Z</time>
      </trkpt>
      <trkpt lat="42.88804" lon="0.20519">
        <ele>2049</ele>
        <time>2015-08-16T14:08:03Z</time>
      </trkpt>
      <trkpt lat="42.88799" lon="0.20521">
        <ele>2050</ele>
        <time>2015-08-16T14:08:10Z</time>
      </trkpt>
      <trkpt lat="42.88793" lon="0.2052">
        <ele>2049</ele>
        <time>2015-08-16T14:08:15Z</time>
      </trkpt>
      <trkpt lat="42.88788" lon="0.20519">
        <ele>2049</ele>
        <time>2015-08-16T14:08:20Z</time>
      </trkpt>
      <trkpt lat="42.88784" lon="0.20518">
        <ele>2048</ele>
        <time>2015-08-16T14:08:26Z</time>
      </trkpt>
      <trkpt lat="42.8878" lon="0.20518">
        <ele>2048</ele>
        <time>2015-08-16T14:08:31Z</time>
      </trkpt>
      <trkpt lat="42.88776" lon="0.20515">
        <ele>2049</ele>
        <time>2015-08-16T14:08:36Z</time>
      </trkpt>
      <trkpt lat="42.88773" lon="0.20517">
        <ele>2050</ele>
        <time>2015-08-16T14:08:42Z</time>
      </trkpt>
      <trkpt lat="42.88771" lon="0.20521">
        <ele>2051</ele>
        <time>2015-08-16T14:08:47Z</time>
      </trkpt>
      <trkpt lat="42.88766" lon="0.20519">
        <ele>2052</ele>
        <time>2015-08-16T14:08:52Z</time>
      </trkpt>
      <trkpt lat="42.88762" lon="0.20518">
        <ele>2053</ele>
        <time>2015-08-16T14:08:57Z</time>
      </trkpt>
      <trkpt lat="42.88759" lon="0.2052">
        <ele>2053</ele>
        <time>2015-08-16T14:09:02Z</time>
      </trkpt>
      <trkpt lat="42.88756" lon="0.20521">
        <ele>2053</ele>
        <time>2015-08-16T14:09:09Z</time>
      </trkpt>
      <trkpt lat="42.88753" lon="0.20527">
        <ele>2053</ele>
        <time>2015-08-16T14:09:14Z</time>
      </trkpt>
      <trkpt lat="42.88749" lon="0.20531">
        <ele>2053</ele>
        <time>2015-08-16T14:09:20Z</time>
      </trkpt>
      <trkpt lat="42.88743" lon="0.20532">
        <ele>2053</ele>
        <time>2015-08-16T14:09:26Z</time>
      </trkpt>
      <trkpt lat="42.88736" lon="0.20533">
        <ele>2052</ele>
        <time>2015-08-16T14:09:32Z</time>
      </trkpt>
      <trkpt lat="42.88731" lon="0.20535">
        <ele>2050</ele>
        <time>2015-08-16T14:09:38Z</time>
      </trkpt>
      <trkpt lat="42.88725" lon="0.20534">
        <ele>2049</ele>
        <time>2015-08-16T14:09:45Z</time>
      </trkpt>
      <trkpt lat="42.88721" lon="0.20536">
        <ele>2048</ele>
        <time>2015-08-16T14:09:50Z</time>
      </trkpt>
      <trkpt lat="42.88718" lon="0.20537">
        <ele>2047</ele>
        <time>2015-08-16T14:09:55Z</time>
      </trkpt>
      <trkpt lat="42.88712" lon="0.20538">
        <ele>2046</ele>
        <time>2015-08-16T14:10:01Z</time>
      </trkpt>
      <trkpt lat="42.88709" lon="0.20539">
        <ele>2044</ele>
        <time>2015-08-16T14:10:06Z</time>
      </trkpt>
      <trkpt lat="42.88705" lon="0.20537">
        <ele>2045</ele>
        <time>2015-08-16T14:10:12Z</time>
      </trkpt>
      <trkpt lat="42.88699" lon="0.20538">
        <ele>2044</ele>
        <time>2015-08-16T14:10:17Z</time>
      </trkpt>
      <trkpt lat="42.88694" lon="0.20542">
        <ele>2043</ele>
        <time>2015-08-16T14:10:23Z</time>
      </trkpt>
      <trkpt lat="42.88687" lon="0.20544">
        <ele>2043</ele>
        <time>2015-08-16T14:10:29Z</time>
      </trkpt>
      <trkpt lat="42.88683" lon="0.20545">
        <ele>2042</ele>
        <time>2015-08-16T14:10:34Z</time>
      </trkpt>
      <trkpt lat="42.88677" lon="0.20545">
        <ele>2041</ele>
        <time>2015-08-16T14:10:41Z</time>
      </trkpt>
      <trkpt lat="42.88672" lon="0.20546">
        <ele>2041</ele>
        <time>2015-08-16T14:10:46Z</time>
      </trkpt>
      <trkpt lat="42.88668" lon="0.20549">
        <ele>2041</ele>
        <time>2015-08-16T14:10:51Z</time>
      </trkpt>
      <trkpt lat="42.88665" lon="0.20553">
        <ele>2041</ele>
        <time>2015-08-16T14:10:57Z</time>
      </trkpt>
      <trkpt lat="42.88662" lon="0.20556">
        <ele>2042</ele>
        <time>2015-08-16T14:11:02Z</time>
      </trkpt>
      <trkpt lat="42.88657" lon="0.20561">
        <ele>2042</ele>
        <time>2015-08-16T14:11:08Z</time>
      </trkpt>
      <trkpt lat="42.88654" lon="0.20565">
        <ele>2043</ele>
        <time>2015-08-16T14:11:13Z</time>
      </trkpt>
      <trkpt lat="42.88652" lon="0.20569">
        <ele>2044</ele>
        <time>2015-08-16T14:11:19Z</time>
      </trkpt>
      <trkpt lat="42.88649" lon="0.20572">
        <ele>2044</ele>
        <time>2015-08-16T14:11:24Z</time>
      </trkpt>
      <trkpt lat="42.88648" lon="0.20573">
        <ele>2045</ele>
        <time>2015-08-16T14:11:29Z</time>
      </trkpt>
      <trkpt lat="42.88647" lon="0.20572">
        <ele>2045</ele>
        <time>2015-08-16T14:11:34Z</time>
      </trkpt>
      <trkpt lat="42.88647" lon="0.20572">
        <ele>2045</ele>
        <time>2015-08-16T14:11:39Z</time>
      </trkpt>
      <trkpt lat="42.88647" lon="0.20572">
        <ele>2044</ele>
        <time>2015-08-16T14:11:45Z</time>
      </trkpt>
      <trkpt lat="42.88646" lon="0.20572">
        <ele>2045</ele>
        <time>2015-08-16T14:11:51Z</time>
      </trkpt>
      <trkpt lat="42.88646" lon="0.20572">
        <ele>2045</ele>
        <time>2015-08-16T14:11:57Z</time>
      </trkpt>
      <trkpt lat="42.88645" lon="0.20572">
        <ele>2045</ele>
        <time>2015-08-16T14:12:02Z</time>
      </trkpt>
      <trkpt lat="42.88646" lon="0.20572">
        <ele>2045</ele>
        <time>2015-08-16T14:12:08Z</time>
      </trkpt>
      <trkpt lat="42.88645" lon="0.20572">
        <ele>2045</ele>
        <time>2015-08-16T14:12:13Z</time>
      </trkpt>
      <trkpt lat="42.88645" lon="0.20571">
        <ele>2045</ele>
        <time>2015-08-16T14:12:19Z</time>
      </trkpt>
      <trkpt lat="42.88644" lon="0.20571">
        <ele>2045</ele>
        <time>2015-08-16T14:12:26Z</time>
      </trkpt>
      <trkpt lat="42.88643" lon="0.2057">
        <ele>2045</ele>
        <time>2015-08-16T14:12:32Z</time>
      </trkpt>
      <trkpt lat="42.88643" lon="0.2057">
        <ele>2044</ele>
        <time>2015-08-16T14:12:38Z</time>
      </trkpt>
      <trkpt lat="42.88642" lon="0.20569">
        <ele>2045</ele>
        <time>2015-08-16T14:12:45Z</time>
      </trkpt>
      <trkpt lat="42.88641" lon="0.20569">
        <ele>2045</ele>
        <time>2015-08-16T14:12:50Z</time>
      </trkpt>
      <trkpt lat="42.88641" lon="0.20568">
        <ele>2044</ele>
        <time>2015-08-16T14:12:55Z</time>
      </trkpt>
      <trkpt lat="42.8864" lon="0.20568">
        <ele>2044</ele>
        <time>2015-08-16T14:13:01Z</time>
      </trkpt>
      <trkpt lat="42.88639" lon="0.20567">
        <ele>2045</ele>
        <time>2015-08-16T14:13:06Z</time>
      </trkpt>
      <trkpt lat="42.88638" lon="0.20567">
        <ele>2044</ele>
        <time>2015-08-16T14:13:11Z</time>
      </trkpt>
      <trkpt lat="42.88638" lon="0.20566">
        <ele>2044</ele>
        <time>2015-08-16T14:13:19Z</time>
      </trkpt>
      <trkpt lat="42.88637" lon="0.20565">
        <ele>2045</ele>
        <time>2015-08-16T14:13:25Z</time>
      </trkpt>
      <trkpt lat="42.88636" lon="0.20565">
        <ele>2044</ele>
        <time>2015-08-16T14:13:30Z</time>
      </trkpt>
      <trkpt lat="42.88635" lon="0.20564">
        <ele>2044</ele>
        <time>2015-08-16T14:13:36Z</time>
      </trkpt>
      <trkpt lat="42.88633" lon="0.20563">
        <ele>2045</ele>
        <time>2015-08-16T14:13:41Z</time>
      </trkpt>
      <trkpt lat="42.88631" lon="0.20561">
        <ele>2044</ele>
        <time>2015-08-16T14:13:47Z</time>
      </trkpt>
      <trkpt lat="42.8863" lon="0.2056">
        <ele>2044</ele>
        <time>2015-08-16T14:13:52Z</time>
      </trkpt>
      <trkpt lat="42.88629" lon="0.20559">
        <ele>2044</ele>
        <time>2015-08-16T14:13:58Z</time>
      </trkpt>
      <trkpt lat="42.88629" lon="0.20559">
        <ele>2045</ele>
        <time>2015-08-16T14:14:04Z</time>
      </trkpt>
      <trkpt lat="42.88629" lon="0.20559">
        <ele>2044</ele>
        <time>2015-08-16T14:14:14Z</time>
      </trkpt>
      <trkpt lat="42.88628" lon="0.20559">
        <ele>2044</ele>
        <time>2015-08-16T14:14:20Z</time>
      </trkpt>
      <trkpt lat="42.88629" lon="0.20559">
        <ele>2045</ele>
        <time>2015-08-16T14:14:26Z</time>
      </trkpt>
      <trkpt lat="42.88629" lon="0.20559">
        <ele>2044</ele>
        <time>2015-08-16T14:14:34Z</time>
      </trkpt>
      <trkpt lat="42.88628" lon="0.20559">
        <ele>2044</ele>
        <time>2015-08-16T14:14:40Z</time>
      </trkpt>
      <trkpt lat="42.88629" lon="0.20559">
        <ele>2045</ele>
        <time>2015-08-16T14:14:47Z</time>
      </trkpt>
      <trkpt lat="42.88629" lon="0.20559">
        <ele>2045</ele>
        <time>2015-08-16T14:14:52Z</time>
      </trkpt>
      <trkpt lat="42.88629" lon="0.20559">
        <ele>2045</ele>
        <time>2015-08-16T14:15:02Z</time>
      </trkpt>
      <trkpt lat="42.88629" lon="0.20559">
        <ele>2045</ele>
        <time>2015-08-16T14:15:10Z</time>
      </trkpt>
      <trkpt lat="42.8863" lon="0.2056">
        <ele>2045</ele>
        <time>2015-08-16T14:15:16Z</time>
      </trkpt>
      <trkpt lat="42.8863" lon="0.2056">
        <ele>2045</ele>
        <time>2015-08-16T14:15:21Z</time>
      </trkpt>
      <trkpt lat="42.8863" lon="0.20561">
        <ele>2045</ele>
        <time>2015-08-16T14:15:27Z</time>
      </trkpt>
      <trkpt lat="42.88631" lon="0.20561">
        <ele>2045</ele>
        <time>2015-08-16T14:15:33Z</time>
      </trkpt>
      <trkpt lat="42.88631" lon="0.20561">
        <ele>2045</ele>
        <time>2015-08-16T14:15:42Z</time>
      </trkpt>
      <trkpt lat="42.88631" lon="0.20561">
        <ele>2045</ele>
        <time>2015-08-16T14:15:48Z</time>
      </trkpt>
      <trkpt lat="42.88632" lon="0.20561">
        <ele>2045</ele>
        <time>2015-08-16T14:15:54Z</time>
      </trkpt>
      <trkpt lat="42.88632" lon="0.20561">
        <ele>2045</ele>
        <time>2015-08-16T14:15:59Z</time>
      </trkpt>
      <trkpt lat="42.88633" lon="0.20562">
        <ele>2045</ele>
        <time>2015-08-16T14:16:05Z</time>
      </trkpt>
      <trkpt lat="42.88633" lon="0.20562">
        <ele>2045</ele>
        <time>2015-08-16T14:16:10Z</time>
      </trkpt>
      <trkpt lat="42.88633" lon="0.20562">
        <ele>2045</ele>
        <time>2015-08-16T14:16:15Z</time>
      </trkpt>
      <trkpt lat="42.88634" lon="0.20563">
        <ele>2045</ele>
        <time>2015-08-16T14:16:22Z</time>
      </trkpt>
      <trkpt lat="42.88634" lon="0.20563">
        <ele>2045</ele>
        <time>2015-08-16T14:16:34Z</time>
      </trkpt>
      <trkpt lat="42.88634" lon="0.20563">
        <ele>2045</ele>
        <time>2015-08-16T14:16:39Z</time>
      </trkpt>
      <trkpt lat="42.88635" lon="0.20564">
        <ele>2045</ele>
        <time>2015-08-16T14:16:46Z</time>
      </trkpt>
      <trkpt lat="42.88635" lon="0.20564">
        <ele>2045</ele>
        <time>2015-08-16T14:16:51Z</time>
      </trkpt>
      <trkpt lat="42.88636" lon="0.20564">
        <ele>2045</ele>
        <time>2015-08-16T14:16:56Z</time>
      </trkpt>
      <trkpt lat="42.88636" lon="0.20565">
        <ele>2045</ele>
        <time>2015-08-16T14:17:02Z</time>
      </trkpt>
      <trkpt lat="42.88637" lon="0.20565">
        <ele>2045</ele>
        <time>2015-08-16T14:17:07Z</time>
      </trkpt>
      <trkpt lat="42.88638" lon="0.20566">
        <ele>2045</ele>
        <time>2015-08-16T14:17:12Z</time>
      </trkpt>
      <trkpt lat="42.88639" lon="0.20567">
        <ele>2045</ele>
        <time>2015-08-16T14:17:18Z</time>
      </trkpt>
      <trkpt lat="42.88639" lon="0.20567">
        <ele>2045</ele>
        <time>2015-08-16T14:17:23Z</time>
      </trkpt>
      <trkpt lat="42.88639" lon="0.20567">
        <ele>2045</ele>
        <time>2015-08-16T14:17:29Z</time>
      </trkpt>
      <trkpt lat="42.8864" lon="0.20567">
        <ele>2045</ele>
        <time>2015-08-16T14:17:37Z</time>
      </trkpt>
      <trkpt lat="42.8864" lon="0.20567">
        <ele>2045</ele>
        <time>2015-08-16T14:17:44Z</time>
      </trkpt>
      <trkpt lat="42.88639" lon="0.20566">
        <ele>2045</ele>
        <time>2015-08-16T14:17:49Z</time>
      </trkpt>
      <trkpt lat="42.88639" lon="0.20566">
        <ele>2045</ele>
        <time>2015-08-16T14:17:54Z</time>
      </trkpt>
      <trkpt lat="42.88639" lon="0.20565">
        <ele>2045</ele>
        <time>2015-08-16T14:18:00Z</time>
      </trkpt>
      <trkpt lat="42.88638" lon="0.20565">
        <ele>2045</ele>
        <time>2015-08-16T14:18:12Z</time>
      </trkpt>
      <trkpt lat="42.88638" lon="0.20565">
        <ele>2045</ele>
        <time>2015-08-16T14:18:19Z</time>
      </trkpt>
      <trkpt lat="42.88639" lon="0.20565">
        <ele>2045</ele>
        <time>2015-08-16T14:18:24Z</time>
      </trkpt>
      <trkpt lat="42.88636" lon="0.20566">
        <ele>2045</ele>
        <time>2015-08-16T14:18:30Z</time>
      </trkpt>
      <trkpt lat="42.88633" lon="0.2057">
        <ele>2044</ele>
        <time>2015-08-16T14:18:35Z</time>
      </trkpt>
      <trkpt lat="42.8863" lon="0.20578">
        <ele>2044</ele>
        <time>2015-08-16T14:18:41Z</time>
      </trkpt>
      <trkpt lat="42.88626" lon="0.20585">
        <ele>2044</ele>
        <time>2015-08-16T14:18:47Z</time>
      </trkpt>
      <trkpt lat="42.88625" lon="0.2059">
        <ele>2045</ele>
        <time>2015-08-16T14:18:52Z</time>
      </trkpt>
      <trkpt lat="42.88623" lon="0.20595">
        <ele>2046</ele>
        <time>2015-08-16T14:18:57Z</time>
      </trkpt>
      <trkpt lat="42.88622" lon="0.20601">
        <ele>2047</ele>
        <time>2015-08-16T14:19:03Z</time>
      </trkpt>
      <trkpt lat="42.8862" lon="0.20606">
        <ele>2047</ele>
        <time>2015-08-16T14:19:08Z</time>
      </trkpt>
      <trkpt lat="42.88619" lon="0.20612">
        <ele>2048</ele>
        <time>2015-08-16T14:19:13Z</time>
      </trkpt>
      <trkpt lat="42.88617" lon="0.20618">
        <ele>2048</ele>
        <time>2015-08-16T14:19:19Z</time>
      </trkpt>
      <trkpt lat="42.88613" lon="0.20623">
        <ele>2048</ele>
        <time>2015-08-16T14:19:25Z</time>
      </trkpt>
      <trkpt lat="42.88609" lon="0.20624">
        <ele>2047</ele>
        <time>2015-08-16T14:19:31Z</time>
      </trkpt>
      <trkpt lat="42.88606" lon="0.20627">
        <ele>2046</ele>
        <time>2015-08-16T14:19:36Z</time>
      </trkpt>
      <trkpt lat="42.88602" lon="0.2063">
        <ele>2045</ele>
        <time>2015-08-16T14:19:42Z</time>
      </trkpt>
      <trkpt lat="42.88597" lon="0.2063">
        <ele>2045</ele>
        <time>2015-08-16T14:19:47Z</time>
      </trkpt>
      <trkpt lat="42.88595" lon="0.20628">
        <ele>2044</ele>
        <time>2015-08-16T14:19:53Z</time>
      </trkpt>
      <trkpt lat="42.88592" lon="0.20629">
        <ele>2043</ele>
        <time>2015-08-16T14:19:59Z</time>
      </trkpt>
      <trkpt lat="42.88588" lon="0.2063">
        <ele>2042</ele>
        <time>2015-08-16T14:20:04Z</time>
      </trkpt>
      <trkpt lat="42.88585" lon="0.20632">
        <ele>2041</ele>
        <time>2015-08-16T14:20:10Z</time>
      </trkpt>
      <trkpt lat="42.88582" lon="0.20634">
        <ele>2041</ele>
        <time>2015-08-16T14:20:15Z</time>
      </trkpt>
      <trkpt lat="42.88578" lon="0.20635">
        <ele>2041</ele>
        <time>2015-08-16T14:20:21Z</time>
      </trkpt>
      <trkpt lat="42.88575" lon="0.20639">
        <ele>2041</ele>
        <time>2015-08-16T14:20:27Z</time>
      </trkpt>
      <trkpt lat="42.88572" lon="0.20643">
        <ele>2042</ele>
        <time>2015-08-16T14:20:33Z</time>
      </trkpt>
      <trkpt lat="42.88571" lon="0.20648">
        <ele>2043</ele>
        <time>2015-08-16T14:20:38Z</time>
      </trkpt>
      <trkpt lat="42.88566" lon="0.20652">
        <ele>2043</ele>
        <time>2015-08-16T14:20:44Z</time>
      </trkpt>
      <trkpt lat="42.88562" lon="0.20655">
        <ele>2043</ele>
        <time>2015-08-16T14:20:49Z</time>
      </trkpt>
      <trkpt lat="42.88556" lon="0.20654">
        <ele>2044</ele>
        <time>2015-08-16T14:20:55Z</time>
      </trkpt>
      <trkpt lat="42.88551" lon="0.20654">
        <ele>2045</ele>
        <time>2015-08-16T14:21:00Z</time>
      </trkpt>
      <trkpt lat="42.88544" lon="0.20656">
        <ele>2045</ele>
        <time>2015-08-16T14:21:06Z</time>
      </trkpt>
      <trkpt lat="42.88538" lon="0.20657">
        <ele>2045</ele>
        <time>2015-08-16T14:21:12Z</time>
      </trkpt>
      <trkpt lat="42.88533" lon="0.20654">
        <ele>2045</ele>
        <time>2015-08-16T14:21:17Z</time>
      </trkpt>
      <trkpt lat="42.88529" lon="0.2065">
        <ele>2045</ele>
        <time>2015-08-16T14:21:23Z</time>
      </trkpt>
      <trkpt lat="42.88527" lon="0.20644">
        <ele>2045</ele>
        <time>2015-08-16T14:21:28Z</time>
      </trkpt>
      <trkpt lat="42.88527" lon="0.20639">
        <ele>2045</ele>
        <time>2015-08-16T14:21:34Z</time>
      </trkpt>
      <trkpt lat="42.8853" lon="0.20633">
        <ele>2045</ele>
        <time>2015-08-16T14:21:40Z</time>
      </trkpt>
      <trkpt lat="42.8853" lon="0.20627">
        <ele>2045</ele>
        <time>2015-08-16T14:21:45Z</time>
      </trkpt>
      <trkpt lat="42.8853" lon="0.2062">
        <ele>2045</ele>
        <time>2015-08-16T14:21:51Z</time>
      </trkpt>
      <trkpt lat="42.8853" lon="0.20615">
        <ele>2046</ele>
        <time>2015-08-16T14:21:56Z</time>
      </trkpt>
      <trkpt lat="42.88528" lon="0.2061">
        <ele>2047</ele>
        <time>2015-08-16T14:22:02Z</time>
      </trkpt>
      <trkpt lat="42.88527" lon="0.20604">
        <ele>2047</ele>
        <time>2015-08-16T14:22:07Z</time>
      </trkpt>
      <trkpt lat="42.88525" lon="0.20598">
        <ele>2048</ele>
        <time>2015-08-16T14:22:13Z</time>
      </trkpt>
      <trkpt lat="42.88523" lon="0.20591">
        <ele>2048</ele>
        <time>2015-08-16T14:22:18Z</time>
      </trkpt>
      <trkpt lat="42.88522" lon="0.20584">
        <ele>2048</ele>
        <time>2015-08-16T14:22:24Z</time>
      </trkpt>
      <trkpt lat="42.88521" lon="0.20579">
        <ele>2049</ele>
        <time>2015-08-16T14:22:29Z</time>
      </trkpt>
      <trkpt lat="42.88521" lon="0.20572">
        <ele>2050</ele>
        <time>2015-08-16T14:22:35Z</time>
      </trkpt>
      <trkpt lat="42.88522" lon="0.20567">
        <ele>2050</ele>
        <time>2015-08-16T14:22:41Z</time>
      </trkpt>
      <trkpt lat="42.88519" lon="0.20561">
        <ele>2051</ele>
        <time>2015-08-16T14:22:46Z</time>
      </trkpt>
      <trkpt lat="42.88518" lon="0.20557">
        <ele>2052</ele>
        <time>2015-08-16T14:22:51Z</time>
      </trkpt>
      <trkpt lat="42.88514" lon="0.20553">
        <ele>2052</ele>
        <time>2015-08-16T14:22:57Z</time>
      </trkpt>
      <trkpt lat="42.8851" lon="0.20555">
        <ele>2052</ele>
        <time>2015-08-16T14:23:02Z</time>
      </trkpt>
      <trkpt lat="42.88505" lon="0.20553">
        <ele>2051</ele>
        <time>2015-08-16T14:23:08Z</time>
      </trkpt>
      <trkpt lat="42.885" lon="0.2055">
        <ele>2051</ele>
        <time>2015-08-16T14:23:13Z</time>
      </trkpt>
      <trkpt lat="42.88495" lon="0.20546">
        <ele>2051</ele>
        <time>2015-08-16T14:23:19Z</time>
      </trkpt>
      <trkpt lat="42.88491" lon="0.20539">
        <ele>2051</ele>
        <time>2015-08-16T14:23:25Z</time>
      </trkpt>
      <trkpt lat="42.88487" lon="0.20535">
        <ele>2051</ele>
        <time>2015-08-16T14:23:30Z</time>
      </trkpt>
      <trkpt lat="42.88484" lon="0.20531">
        <ele>2051</ele>
        <time>2015-08-16T14:23:35Z</time>
      </trkpt>
      <trkpt lat="42.88481" lon="0.2053">
        <ele>2052</ele>
        <time>2015-08-16T14:23:40Z</time>
      </trkpt>
      <trkpt lat="42.88479" lon="0.20529">
        <ele>2053</ele>
        <time>2015-08-16T14:23:46Z</time>
      </trkpt>
      <trkpt lat="42.88478" lon="0.20527">
        <ele>2055</ele>
        <time>2015-08-16T14:23:51Z</time>
      </trkpt>
      <trkpt lat="42.88476" lon="0.20526">
        <ele>2055</ele>
        <time>2015-08-16T14:23:57Z</time>
      </trkpt>
      <trkpt lat="42.88474" lon="0.20526">
        <ele>2056</ele>
        <time>2015-08-16T14:24:02Z</time>
      </trkpt>
      <trkpt lat="42.88472" lon="0.20524">
        <ele>2057</ele>
        <time>2015-08-16T14:24:07Z</time>
      </trkpt>
      <trkpt lat="42.88469" lon="0.20521">
        <ele>2059</ele>
        <time>2015-08-16T14:24:13Z</time>
      </trkpt>
      <trkpt lat="42.88468" lon="0.20518">
        <ele>2061</ele>
        <time>2015-08-16T14:24:19Z</time>
      </trkpt>
      <trkpt lat="42.8847" lon="0.20514">
        <ele>2062</ele>
        <time>2015-08-16T14:24:25Z</time>
      </trkpt>
      <trkpt lat="42.88472" lon="0.2051">
        <ele>2063</ele>
        <time>2015-08-16T14:24:30Z</time>
      </trkpt>
      <trkpt lat="42.88474" lon="0.20504">
        <ele>2063</ele>
        <time>2015-08-16T14:24:36Z</time>
      </trkpt>
      <trkpt lat="42.88477" lon="0.20499">
        <ele>2064</ele>
        <time>2015-08-16T14:24:42Z</time>
      </trkpt>
      <trkpt lat="42.88478" lon="0.20494">
        <ele>2065</ele>
        <time>2015-08-16T14:24:47Z</time>
      </trkpt>
      <trkpt lat="42.88478" lon="0.2049">
        <ele>2065</ele>
        <time>2015-08-16T14:24:53Z</time>
      </trkpt>
      <trkpt lat="42.88475" lon="0.20489">
        <ele>2066</ele>
        <time>2015-08-16T14:24:58Z</time>
      </trkpt>
      <trkpt lat="42.88472" lon="0.20489">
        <ele>2067</ele>
        <time>2015-08-16T14:25:03Z</time>
      </trkpt>
      <trkpt lat="42.88469" lon="0.20489">
        <ele>2068</ele>
        <time>2015-08-16T14:25:09Z</time>
      </trkpt>
      <trkpt lat="42.88465" lon="0.20488">
        <ele>2070</ele>
        <time>2015-08-16T14:25:15Z</time>
      </trkpt>
      <trkpt lat="42.88461" lon="0.20488">
        <ele>2071</ele>
        <time>2015-08-16T14:25:21Z</time>
      </trkpt>
      <trkpt lat="42.88457" lon="0.20489">
        <ele>2072</ele>
        <time>2015-08-16T14:25:27Z</time>
      </trkpt>
      <trkpt lat="42.88455" lon="0.20485">
        <ele>2073</ele>
        <time>2015-08-16T14:25:33Z</time>
      </trkpt>
      <trkpt lat="42.88454" lon="0.20482">
        <ele>2073</ele>
        <time>2015-08-16T14:25:38Z</time>
      </trkpt>
      <trkpt lat="42.88452" lon="0.20481">
        <ele>2074</ele>
        <time>2015-08-16T14:25:43Z</time>
      </trkpt>
      <trkpt lat="42.88449" lon="0.20479">
        <ele>2075</ele>
        <time>2015-08-16T14:25:48Z</time>
      </trkpt>
      <trkpt lat="42.88448" lon="0.20477">
        <ele>2076</ele>
        <time>2015-08-16T14:25:53Z</time>
      </trkpt>
      <trkpt lat="42.88444" lon="0.20477">
        <ele>2078</ele>
        <time>2015-08-16T14:25:59Z</time>
      </trkpt>
      <trkpt lat="42.88441" lon="0.20474">
        <ele>2079</ele>
        <time>2015-08-16T14:26:05Z</time>
      </trkpt>
      <trkpt lat="42.8844" lon="0.20472">
        <ele>2079</ele>
        <time>2015-08-16T14:26:10Z</time>
      </trkpt>
      <trkpt lat="42.8844" lon="0.20468">
        <ele>2080</ele>
        <time>2015-08-16T14:26:16Z</time>
      </trkpt>
      <trkpt lat="42.88442" lon="0.20464">
        <ele>2081</ele>
        <time>2015-08-16T14:26:21Z</time>
      </trkpt>
      <trkpt lat="42.88441" lon="0.20462">
        <ele>2082</ele>
        <time>2015-08-16T14:26:27Z</time>
      </trkpt>
      <trkpt lat="42.88441" lon="0.20459">
        <ele>2084</ele>
        <time>2015-08-16T14:26:32Z</time>
      </trkpt>
      <trkpt lat="42.88442" lon="0.20456">
        <ele>2085</ele>
        <time>2015-08-16T14:26:37Z</time>
      </trkpt>
      <trkpt lat="42.88441" lon="0.20453">
        <ele>2086</ele>
        <time>2015-08-16T14:26:43Z</time>
      </trkpt>
      <trkpt lat="42.88439" lon="0.20451">
        <ele>2087</ele>
        <time>2015-08-16T14:26:48Z</time>
      </trkpt>
      <trkpt lat="42.88437" lon="0.2045">
        <ele>2088</ele>
        <time>2015-08-16T14:26:53Z</time>
      </trkpt>
      <trkpt lat="42.88436" lon="0.20446">
        <ele>2089</ele>
        <time>2015-08-16T14:26:59Z</time>
      </trkpt>
      <trkpt lat="42.88434" lon="0.20444">
        <ele>2091</ele>
        <time>2015-08-16T14:27:04Z</time>
      </trkpt>
      <trkpt lat="42.88432" lon="0.20443">
        <ele>2092</ele>
        <time>2015-08-16T14:27:10Z</time>
      </trkpt>
      <trkpt lat="42.88428" lon="0.20444">
        <ele>2093</ele>
        <time>2015-08-16T14:27:16Z</time>
      </trkpt>
      <trkpt lat="42.88426" lon="0.20442">
        <ele>2093</ele>
        <time>2015-08-16T14:27:21Z</time>
      </trkpt>
      <trkpt lat="42.88423" lon="0.20441">
        <ele>2093</ele>
        <time>2015-08-16T14:27:26Z</time>
      </trkpt>
      <trkpt lat="42.88419" lon="0.20442">
        <ele>2095</ele>
        <time>2015-08-16T14:27:32Z</time>
      </trkpt>
      <trkpt lat="42.88417" lon="0.20443">
        <ele>2095</ele>
        <time>2015-08-16T14:27:37Z</time>
      </trkpt>
      <trkpt lat="42.88417" lon="0.20439">
        <ele>2096</ele>
        <time>2015-08-16T14:27:42Z</time>
      </trkpt>
      <trkpt lat="42.88418" lon="0.20435">
        <ele>2097</ele>
        <time>2015-08-16T14:27:48Z</time>
      </trkpt>
      <trkpt lat="42.88418" lon="0.20433">
        <ele>2098</ele>
        <time>2015-08-16T14:27:54Z</time>
      </trkpt>
      <trkpt lat="42.88419" lon="0.2043">
        <ele>2098</ele>
        <time>2015-08-16T14:27:59Z</time>
      </trkpt>
      <trkpt lat="42.88418" lon="0.20427">
        <ele>2100</ele>
        <time>2015-08-16T14:28:04Z</time>
      </trkpt>
      <trkpt lat="42.88416" lon="0.20426">
        <ele>2101</ele>
        <time>2015-08-16T14:28:09Z</time>
      </trkpt>
      <trkpt lat="42.88413" lon="0.20427">
        <ele>2101</ele>
        <time>2015-08-16T14:28:15Z</time>
      </trkpt>
      <trkpt lat="42.8841" lon="0.20431">
        <ele>2102</ele>
        <time>2015-08-16T14:28:20Z</time>
      </trkpt>
      <trkpt lat="42.88407" lon="0.20435">
        <ele>2103</ele>
        <time>2015-08-16T14:28:26Z</time>
      </trkpt>
      <trkpt lat="42.88404" lon="0.20438">
        <ele>2103</ele>
        <time>2015-08-16T14:28:31Z</time>
      </trkpt>
      <trkpt lat="42.88403" lon="0.20444">
        <ele>2101</ele>
        <time>2015-08-16T14:28:37Z</time>
      </trkpt>
      <trkpt lat="42.88401" lon="0.2045">
        <ele>2101</ele>
        <time>2015-08-16T14:28:42Z</time>
      </trkpt>
      <trkpt lat="42.88397" lon="0.20455">
        <ele>2101</ele>
        <time>2015-08-16T14:28:48Z</time>
      </trkpt>
      <trkpt lat="42.88395" lon="0.20458">
        <ele>2102</ele>
        <time>2015-08-16T14:28:53Z</time>
      </trkpt>
      <trkpt lat="42.88391" lon="0.20464">
        <ele>2103</ele>
        <time>2015-08-16T14:28:59Z</time>
      </trkpt>
      <trkpt lat="42.88388" lon="0.20469">
        <ele>2103</ele>
        <time>2015-08-16T14:29:04Z</time>
      </trkpt>
      <trkpt lat="42.88386" lon="0.20476">
        <ele>2102</ele>
        <time>2015-08-16T14:29:10Z</time>
      </trkpt>
      <trkpt lat="42.88387" lon="0.20483">
        <ele>2102</ele>
        <time>2015-08-16T14:29:15Z</time>
      </trkpt>
      <trkpt lat="42.88386" lon="0.20491">
        <ele>2103</ele>
        <time>2015-08-16T14:29:21Z</time>
      </trkpt>
      <trkpt lat="42.88385" lon="0.20497">
        <ele>2102</ele>
        <time>2015-08-16T14:29:26Z</time>
      </trkpt>
      <trkpt lat="42.88382" lon="0.20503">
        <ele>2103</ele>
        <time>2015-08-16T14:29:32Z</time>
      </trkpt>
      <trkpt lat="42.88382" lon="0.20503">
        <ele>2103</ele>
        <time>2015-08-16T14:29:40Z</time>
      </trkpt>
      <trkpt lat="42.88382" lon="0.20503">
        <ele>2103</ele>
        <time>2015-08-16T14:29:48Z</time>
      </trkpt>
      <trkpt lat="42.88382" lon="0.20503">
        <ele>2103</ele>
        <time>2015-08-16T14:29:53Z</time>
      </trkpt>
      <trkpt lat="42.88382" lon="0.20504">
        <ele>2103</ele>
        <time>2015-08-16T14:29:59Z</time>
      </trkpt>
      <trkpt lat="42.88377" lon="0.20507">
        <ele>2103</ele>
        <time>2015-08-16T14:30:05Z</time>
      </trkpt>
      <trkpt lat="42.88374" lon="0.20505">
        <ele>2104</ele>
        <time>2015-08-16T14:30:11Z</time>
      </trkpt>
      <trkpt lat="42.88371" lon="0.20506">
        <ele>2105</ele>
        <time>2015-08-16T14:30:16Z</time>
      </trkpt>
      <trkpt lat="42.88368" lon="0.2051">
        <ele>2106</ele>
        <time>2015-08-16T14:30:21Z</time>
      </trkpt>
      <trkpt lat="42.88364" lon="0.20512">
        <ele>2107</ele>
        <time>2015-08-16T14:30:27Z</time>
      </trkpt>
      <trkpt lat="42.8836" lon="0.20513">
        <ele>2107</ele>
        <time>2015-08-16T14:30:32Z</time>
      </trkpt>
      <trkpt lat="42.88357" lon="0.20512">
        <ele>2109</ele>
        <time>2015-08-16T14:30:38Z</time>
      </trkpt>
      <trkpt lat="42.88354" lon="0.20512">
        <ele>2110</ele>
        <time>2015-08-16T14:30:43Z</time>
      </trkpt>
      <trkpt lat="42.88351" lon="0.20514">
        <ele>2111</ele>
        <time>2015-08-16T14:30:49Z</time>
      </trkpt>
      <trkpt lat="42.88347" lon="0.20515">
        <ele>2112</ele>
        <time>2015-08-16T14:30:54Z</time>
      </trkpt>
      <trkpt lat="42.88343" lon="0.20517">
        <ele>2113</ele>
        <time>2015-08-16T14:31:00Z</time>
      </trkpt>
      <trkpt lat="42.8834" lon="0.20516">
        <ele>2114</ele>
        <time>2015-08-16T14:31:05Z</time>
      </trkpt>
      <trkpt lat="42.88338" lon="0.20514">
        <ele>2116</ele>
        <time>2015-08-16T14:31:11Z</time>
      </trkpt>
      <trkpt lat="42.88335" lon="0.20514">
        <ele>2117</ele>
        <time>2015-08-16T14:31:17Z</time>
      </trkpt>
      <trkpt lat="42.88331" lon="0.20515">
        <ele>2118</ele>
        <time>2015-08-16T14:31:23Z</time>
      </trkpt>
      <trkpt lat="42.88327" lon="0.20516">
        <ele>2118</ele>
        <time>2015-08-16T14:31:28Z</time>
      </trkpt>
      <trkpt lat="42.88322" lon="0.20517">
        <ele>2119</ele>
        <time>2015-08-16T14:31:34Z</time>
      </trkpt>
      <trkpt lat="42.88316" lon="0.20517">
        <ele>2119</ele>
        <time>2015-08-16T14:31:39Z</time>
      </trkpt>
      <trkpt lat="42.88311" lon="0.20517">
        <ele>2119</ele>
        <time>2015-08-16T14:31:45Z</time>
      </trkpt>
      <trkpt lat="42.88306" lon="0.20517">
        <ele>2119</ele>
        <time>2015-08-16T14:31:50Z</time>
      </trkpt>
      <trkpt lat="42.88301" lon="0.20517">
        <ele>2121</ele>
        <time>2015-08-16T14:31:56Z</time>
      </trkpt>
      <trkpt lat="42.88296" lon="0.20518">
        <ele>2122</ele>
        <time>2015-08-16T14:32:02Z</time>
      </trkpt>
      <trkpt lat="42.88291" lon="0.2052">
        <ele>2121</ele>
        <time>2015-08-16T14:32:07Z</time>
      </trkpt>
      <trkpt lat="42.88286" lon="0.20523">
        <ele>2121</ele>
        <time>2015-08-16T14:32:13Z</time>
      </trkpt>
      <trkpt lat="42.88282" lon="0.20523">
        <ele>2121</ele>
        <time>2015-08-16T14:32:18Z</time>
      </trkpt>
      <trkpt lat="42.88277" lon="0.2052">
        <ele>2122</ele>
        <time>2015-08-16T14:32:24Z</time>
      </trkpt>
      <trkpt lat="42.88273" lon="0.2052">
        <ele>2123</ele>
        <time>2015-08-16T14:32:29Z</time>
      </trkpt>
      <trkpt lat="42.88269" lon="0.20523">
        <ele>2122</ele>
        <time>2015-08-16T14:32:34Z</time>
      </trkpt>
      <trkpt lat="42.88264" lon="0.20527">
        <ele>2122</ele>
        <time>2015-08-16T14:32:40Z</time>
      </trkpt>
      <trkpt lat="42.88261" lon="0.20529">
        <ele>2123</ele>
        <time>2015-08-16T14:32:45Z</time>
      </trkpt>
      <trkpt lat="42.88257" lon="0.20534">
        <ele>2123</ele>
        <time>2015-08-16T14:32:51Z</time>
      </trkpt>
      <trkpt lat="42.88253" lon="0.20536">
        <ele>2123</ele>
        <time>2015-08-16T14:32:57Z</time>
      </trkpt>
      <trkpt lat="42.88248" lon="0.20538">
        <ele>2123</ele>
        <time>2015-08-16T14:33:03Z</time>
      </trkpt>
      <trkpt lat="42.88245" lon="0.20537">
        <ele>2124</ele>
        <time>2015-08-16T14:33:09Z</time>
      </trkpt>
      <trkpt lat="42.88243" lon="0.20535">
        <ele>2125</ele>
        <time>2015-08-16T14:33:15Z</time>
      </trkpt>
      <trkpt lat="42.8824" lon="0.20532">
        <ele>2127</ele>
        <time>2015-08-16T14:33:21Z</time>
      </trkpt>
      <trkpt lat="42.88236" lon="0.20529">
        <ele>2128</ele>
        <time>2015-08-16T14:33:27Z</time>
      </trkpt>
      <trkpt lat="42.88233" lon="0.20527">
        <ele>2128</ele>
        <time>2015-08-16T14:33:32Z</time>
      </trkpt>
      <trkpt lat="42.8823" lon="0.20526">
        <ele>2129</ele>
        <time>2015-08-16T14:33:38Z</time>
      </trkpt>
      <trkpt lat="42.88226" lon="0.20526">
        <ele>2130</ele>
        <time>2015-08-16T14:33:44Z</time>
      </trkpt>
      <trkpt lat="42.88223" lon="0.20525">
        <ele>2131</ele>
        <time>2015-08-16T14:33:49Z</time>
      </trkpt>
      <trkpt lat="42.88219" lon="0.20525">
        <ele>2132</ele>
        <time>2015-08-16T14:33:55Z</time>
      </trkpt>
      <trkpt lat="42.88216" lon="0.20525">
        <ele>2132</ele>
        <time>2015-08-16T14:34:00Z</time>
      </trkpt>
      <trkpt lat="42.88213" lon="0.20525">
        <ele>2132</ele>
        <time>2015-08-16T14:34:06Z</time>
      </trkpt>
      <trkpt lat="42.8821" lon="0.20528">
        <ele>2133</ele>
        <time>2015-08-16T14:34:11Z</time>
      </trkpt>
      <trkpt lat="42.8821" lon="0.20534">
        <ele>2133</ele>
        <time>2015-08-16T14:34:16Z</time>
      </trkpt>
      <trkpt lat="42.8821" lon="0.20537">
        <ele>2133</ele>
        <time>2015-08-16T14:34:22Z</time>
      </trkpt>
      <trkpt lat="42.88211" lon="0.20542">
        <ele>2134</ele>
        <time>2015-08-16T14:34:27Z</time>
      </trkpt>
      <trkpt lat="42.8821" lon="0.20548">
        <ele>2135</ele>
        <time>2015-08-16T14:34:33Z</time>
      </trkpt>
      <trkpt lat="42.88207" lon="0.20551">
        <ele>2135</ele>
        <time>2015-08-16T14:34:38Z</time>
      </trkpt>
      <trkpt lat="42.88203" lon="0.20554">
        <ele>2136</ele>
        <time>2015-08-16T14:34:43Z</time>
      </trkpt>
      <trkpt lat="42.88199" lon="0.20557">
        <ele>2136</ele>
        <time>2015-08-16T14:34:49Z</time>
      </trkpt>
      <trkpt lat="42.88197" lon="0.20561">
        <ele>2136</ele>
        <time>2015-08-16T14:34:54Z</time>
      </trkpt>
      <trkpt lat="42.88194" lon="0.20563">
        <ele>2137</ele>
        <time>2015-08-16T14:34:59Z</time>
      </trkpt>
      <trkpt lat="42.88191" lon="0.20567">
        <ele>2137</ele>
        <time>2015-08-16T14:35:04Z</time>
      </trkpt>
      <trkpt lat="42.88189" lon="0.20572">
        <ele>2138</ele>
        <time>2015-08-16T14:35:10Z</time>
      </trkpt>
      <trkpt lat="42.88186" lon="0.20574">
        <ele>2138</ele>
        <time>2015-08-16T14:35:15Z</time>
      </trkpt>
      <trkpt lat="42.8818" lon="0.20576">
        <ele>2138</ele>
        <time>2015-08-16T14:35:21Z</time>
      </trkpt>
      <trkpt lat="42.88175" lon="0.20579">
        <ele>2138</ele>
        <time>2015-08-16T14:35:27Z</time>
      </trkpt>
      <trkpt lat="42.88171" lon="0.20579">
        <ele>2138</ele>
        <time>2015-08-16T14:35:33Z</time>
      </trkpt>
      <trkpt lat="42.88167" lon="0.20579">
        <ele>2138</ele>
        <time>2015-08-16T14:35:38Z</time>
      </trkpt>
      <trkpt lat="42.88164" lon="0.20577">
        <ele>2139</ele>
        <time>2015-08-16T14:35:43Z</time>
      </trkpt>
      <trkpt lat="42.8816" lon="0.20576">
        <ele>2140</ele>
        <time>2015-08-16T14:35:49Z</time>
      </trkpt>
      <trkpt lat="42.88157" lon="0.20573">
        <ele>2141</ele>
        <time>2015-08-16T14:35:55Z</time>
      </trkpt>
      <trkpt lat="42.88154" lon="0.20572">
        <ele>2141</ele>
        <time>2015-08-16T14:36:01Z</time>
      </trkpt>
      <trkpt lat="42.88151" lon="0.20568">
        <ele>2142</ele>
        <time>2015-08-16T14:36:06Z</time>
      </trkpt>
      <trkpt lat="42.8815" lon="0.20565">
        <ele>2142</ele>
        <time>2015-08-16T14:36:11Z</time>
      </trkpt>
      <trkpt lat="42.88147" lon="0.2056">
        <ele>2142</ele>
        <time>2015-08-16T14:36:16Z</time>
      </trkpt>
      <trkpt lat="42.88147" lon="0.20555">
        <ele>2143</ele>
        <time>2015-08-16T14:36:21Z</time>
      </trkpt>
      <trkpt lat="42.88144" lon="0.2055">
        <ele>2143</ele>
        <time>2015-08-16T14:36:26Z</time>
      </trkpt>
      <trkpt lat="42.88143" lon="0.20549">
        <ele>2143</ele>
        <time>2015-08-16T14:36:31Z</time>
      </trkpt>
      <trkpt lat="42.88143" lon="0.20548">
        <ele>2143</ele>
        <time>2015-08-16T14:36:37Z</time>
      </trkpt>
      <trkpt lat="42.88141" lon="0.20545">
        <ele>2143</ele>
        <time>2015-08-16T14:36:42Z</time>
      </trkpt>
      <trkpt lat="42.88139" lon="0.2054">
        <ele>2142</ele>
        <time>2015-08-16T14:36:47Z</time>
      </trkpt>
      <trkpt lat="42.88138" lon="0.20538">
        <ele>2142</ele>
        <time>2015-08-16T14:36:54Z</time>
      </trkpt>
      <trkpt lat="42.88138" lon="0.20538">
        <ele>2143</ele>
        <time>2015-08-16T14:37:00Z</time>
      </trkpt>
      <trkpt lat="42.88138" lon="0.20538">
        <ele>2143</ele>
        <time>2015-08-16T14:37:06Z</time>
      </trkpt>
      <trkpt lat="42.88138" lon="0.20538">
        <ele>2143</ele>
        <time>2015-08-16T14:37:12Z</time>
      </trkpt>
      <trkpt lat="42.88137" lon="0.20539">
        <ele>2143</ele>
        <time>2015-08-16T14:37:24Z</time>
      </trkpt>
      <trkpt lat="42.88136" lon="0.20541">
        <ele>2143</ele>
        <time>2015-08-16T14:37:30Z</time>
      </trkpt>
      <trkpt lat="42.88136" lon="0.20541">
        <ele>2143</ele>
        <time>2015-08-16T14:37:36Z</time>
      </trkpt>
      <trkpt lat="42.88136" lon="0.20541">
        <ele>2142</ele>
        <time>2015-08-16T14:37:42Z</time>
      </trkpt>
      <trkpt lat="42.88133" lon="0.20536">
        <ele>2143</ele>
        <time>2015-08-16T14:37:48Z</time>
      </trkpt>
      <trkpt lat="42.88133" lon="0.20537">
        <ele>2142</ele>
        <time>2015-08-16T14:37:53Z</time>
      </trkpt>
      <trkpt lat="42.88133" lon="0.20538">
        <ele>2141</ele>
        <time>2015-08-16T14:38:00Z</time>
      </trkpt>
      <trkpt lat="42.88134" lon="0.20538">
        <ele>2142</ele>
        <time>2015-08-16T14:38:05Z</time>
      </trkpt>
      <trkpt lat="42.88134" lon="0.20538">
        <ele>2142</ele>
        <time>2015-08-16T14:38:11Z</time>
      </trkpt>
      <trkpt lat="42.88134" lon="0.20539">
        <ele>2142</ele>
        <time>2015-08-16T14:38:17Z</time>
      </trkpt>
      <trkpt lat="42.88133" lon="0.20539">
        <ele>2142</ele>
        <time>2015-08-16T14:38:22Z</time>
      </trkpt>
      <trkpt lat="42.88133" lon="0.20541">
        <ele>2142</ele>
        <time>2015-08-16T14:38:28Z</time>
      </trkpt>
      <trkpt lat="42.88129" lon="0.20542">
        <ele>2141</ele>
        <time>2015-08-16T14:38:34Z</time>
      </trkpt>
      <trkpt lat="42.88125" lon="0.20542">
        <ele>2141</ele>
        <time>2015-08-16T14:38:39Z</time>
      </trkpt>
      <trkpt lat="42.88121" lon="0.20542">
        <ele>2141</ele>
        <time>2015-08-16T14:38:45Z</time>
      </trkpt>
      <trkpt lat="42.88117" lon="0.20546">
        <ele>2141</ele>
        <time>2015-08-16T14:38:51Z</time>
      </trkpt>
      <trkpt lat="42.88114" lon="0.20551">
        <ele>2142</ele>
        <time>2015-08-16T14:38:56Z</time>
      </trkpt>
      <trkpt lat="42.88111" lon="0.20557">
        <ele>2142</ele>
        <time>2015-08-16T14:39:02Z</time>
      </trkpt>
      <trkpt lat="42.88107" lon="0.2056">
        <ele>2142</ele>
        <time>2015-08-16T14:39:08Z</time>
      </trkpt>
      <trkpt lat="42.88104" lon="0.20561">
        <ele>2143</ele>
        <time>2015-08-16T14:39:13Z</time>
      </trkpt>
      <trkpt lat="42.881" lon="0.20563">
        <ele>2144</ele>
        <time>2015-08-16T14:39:19Z</time>
      </trkpt>
      <trkpt lat="42.88098" lon="0.20567">
        <ele>2144</ele>
        <time>2015-08-16T14:39:25Z</time>
      </trkpt>
      <trkpt lat="42.88096" lon="0.20569">
        <ele>2145</ele>
        <time>2015-08-16T14:39:31Z</time>
      </trkpt>
      <trkpt lat="42.88094" lon="0.20572">
        <ele>2145</ele>
        <time>2015-08-16T14:39:36Z</time>
      </trkpt>
      <trkpt lat="42.8809" lon="0.20573">
        <ele>2146</ele>
        <time>2015-08-16T14:39:41Z</time>
      </trkpt>
      <trkpt lat="42.88086" lon="0.20574">
        <ele>2147</ele>
        <time>2015-08-16T14:39:47Z</time>
      </trkpt>
      <trkpt lat="42.88083" lon="0.20576">
        <ele>2148</ele>
        <time>2015-08-16T14:39:53Z</time>
      </trkpt>
      <trkpt lat="42.88078" lon="0.20574">
        <ele>2149</ele>
        <time>2015-08-16T14:39:59Z</time>
      </trkpt>
      <trkpt lat="42.88075" lon="0.20572">
        <ele>2150</ele>
        <time>2015-08-16T14:40:04Z</time>
      </trkpt>
      <trkpt lat="42.88071" lon="0.20571">
        <ele>2151</ele>
        <time>2015-08-16T14:40:09Z</time>
      </trkpt>
      <trkpt lat="42.88066" lon="0.20569">
        <ele>2151</ele>
        <time>2015-08-16T14:40:15Z</time>
      </trkpt>
      <trkpt lat="42.88062" lon="0.20568">
        <ele>2151</ele>
        <time>2015-08-16T14:40:20Z</time>
      </trkpt>
      <trkpt lat="42.88056" lon="0.20567">
        <ele>2151</ele>
        <time>2015-08-16T14:40:26Z</time>
      </trkpt>
      <trkpt lat="42.8805" lon="0.20566">
        <ele>2151</ele>
        <time>2015-08-16T14:40:32Z</time>
      </trkpt>
      <trkpt lat="42.88047" lon="0.20568">
        <ele>2151</ele>
        <time>2015-08-16T14:40:37Z</time>
      </trkpt>
      <trkpt lat="42.88042" lon="0.20568">
        <ele>2152</ele>
        <time>2015-08-16T14:40:43Z</time>
      </trkpt>
      <trkpt lat="42.88037" lon="0.2057">
        <ele>2152</ele>
        <time>2015-08-16T14:40:49Z</time>
      </trkpt>
      <trkpt lat="42.88032" lon="0.20573">
        <ele>2152</ele>
        <time>2015-08-16T14:40:55Z</time>
      </trkpt>
      <trkpt lat="42.88027" lon="0.20575">
        <ele>2152</ele>
        <time>2015-08-16T14:41:01Z</time>
      </trkpt>
      <trkpt lat="42.88022" lon="0.20579">
        <ele>2152</ele>
        <time>2015-08-16T14:41:06Z</time>
      </trkpt>
      <trkpt lat="42.88017" lon="0.20576">
        <ele>2152</ele>
        <time>2015-08-16T14:41:12Z</time>
      </trkpt>
      <trkpt lat="42.88013" lon="0.20574">
        <ele>2152</ele>
        <time>2015-08-16T14:41:17Z</time>
      </trkpt>
      <trkpt lat="42.8801" lon="0.20571">
        <ele>2153</ele>
        <time>2015-08-16T14:41:23Z</time>
      </trkpt>
      <trkpt lat="42.88006" lon="0.20569">
        <ele>2154</ele>
        <time>2015-08-16T14:41:28Z</time>
      </trkpt>
      <trkpt lat="42.88002" lon="0.20566">
        <ele>2154</ele>
        <time>2015-08-16T14:41:34Z</time>
      </trkpt>
      <trkpt lat="42.87998" lon="0.20568">
        <ele>2155</ele>
        <time>2015-08-16T14:41:39Z</time>
      </trkpt>
      <trkpt lat="42.87996" lon="0.20571">
        <ele>2156</ele>
        <time>2015-08-16T14:41:44Z</time>
      </trkpt>
      <trkpt lat="42.8799" lon="0.20571">
        <ele>2156</ele>
        <time>2015-08-16T14:41:50Z</time>
      </trkpt>
      <trkpt lat="42.87987" lon="0.20571">
        <ele>2156</ele>
        <time>2015-08-16T14:41:55Z</time>
      </trkpt>
      <trkpt lat="42.87982" lon="0.2057">
        <ele>2156</ele>
        <time>2015-08-16T14:42:01Z</time>
      </trkpt>
      <trkpt lat="42.87978" lon="0.20567">
        <ele>2157</ele>
        <time>2015-08-16T14:42:07Z</time>
      </trkpt>
      <trkpt lat="42.87975" lon="0.20564">
        <ele>2157</ele>
        <time>2015-08-16T14:42:12Z</time>
      </trkpt>
      <trkpt lat="42.87973" lon="0.2056">
        <ele>2157</ele>
        <time>2015-08-16T14:42:17Z</time>
      </trkpt>
      <trkpt lat="42.8797" lon="0.20553">
        <ele>2156</ele>
        <time>2015-08-16T14:42:23Z</time>
      </trkpt>
      <trkpt lat="42.8797" lon="0.20548">
        <ele>2156</ele>
        <time>2015-08-16T14:42:29Z</time>
      </trkpt>
      <trkpt lat="42.87968" lon="0.20542">
        <ele>2156</ele>
        <time>2015-08-16T14:42:35Z</time>
      </trkpt>
      <trkpt lat="42.87965" lon="0.20537">
        <ele>2156</ele>
        <time>2015-08-16T14:42:41Z</time>
      </trkpt>
      <trkpt lat="42.87963" lon="0.20533">
        <ele>2156</ele>
        <time>2015-08-16T14:42:46Z</time>
      </trkpt>
      <trkpt lat="42.8796" lon="0.20527">
        <ele>2156</ele>
        <time>2015-08-16T14:42:52Z</time>
      </trkpt>
      <trkpt lat="42.87959" lon="0.20522">
        <ele>2157</ele>
        <time>2015-08-16T14:42:57Z</time>
      </trkpt>
      <trkpt lat="42.87957" lon="0.20517">
        <ele>2158</ele>
        <time>2015-08-16T14:43:03Z</time>
      </trkpt>
      <trkpt lat="42.87957" lon="0.20509">
        <ele>2159</ele>
        <time>2015-08-16T14:43:09Z</time>
      </trkpt>
      <trkpt lat="42.87957" lon="0.20506">
        <ele>2160</ele>
        <time>2015-08-16T14:43:14Z</time>
      </trkpt>
      <trkpt lat="42.87953" lon="0.20505">
        <ele>2160</ele>
        <time>2015-08-16T14:43:20Z</time>
      </trkpt>
      <trkpt lat="42.87949" lon="0.20501">
        <ele>2160</ele>
        <time>2015-08-16T14:43:25Z</time>
      </trkpt>
      <trkpt lat="42.87946" lon="0.20496">
        <ele>2159</ele>
        <time>2015-08-16T14:43:30Z</time>
      </trkpt>
      <trkpt lat="42.87946" lon="0.20492">
        <ele>2160</ele>
        <time>2015-08-16T14:43:36Z</time>
      </trkpt>
      <trkpt lat="42.87947" lon="0.20492">
        <ele>2160</ele>
        <time>2015-08-16T14:43:43Z</time>
      </trkpt>
      <trkpt lat="42.87945" lon="0.20489">
        <ele>2160</ele>
        <time>2015-08-16T14:43:49Z</time>
      </trkpt>
      <trkpt lat="42.87944" lon="0.20485">
        <ele>2161</ele>
        <time>2015-08-16T14:43:55Z</time>
      </trkpt>
      <trkpt lat="42.87944" lon="0.2048">
        <ele>2162</ele>
        <time>2015-08-16T14:44:01Z</time>
      </trkpt>
      <trkpt lat="42.87944" lon="0.20476">
        <ele>2164</ele>
        <time>2015-08-16T14:44:06Z</time>
      </trkpt>
      <trkpt lat="42.87942" lon="0.20471">
        <ele>2164</ele>
        <time>2015-08-16T14:44:12Z</time>
      </trkpt>
      <trkpt lat="42.8794" lon="0.20467">
        <ele>2165</ele>
        <time>2015-08-16T14:44:18Z</time>
      </trkpt>
      <trkpt lat="42.87938" lon="0.20464">
        <ele>2166</ele>
        <time>2015-08-16T14:44:23Z</time>
      </trkpt>
      <trkpt lat="42.87936" lon="0.20459">
        <ele>2167</ele>
        <time>2015-08-16T14:44:29Z</time>
      </trkpt>
      <trkpt lat="42.87937" lon="0.20454">
        <ele>2168</ele>
        <time>2015-08-16T14:44:34Z</time>
      </trkpt>
      <trkpt lat="42.87937" lon="0.20448">
        <ele>2169</ele>
        <time>2015-08-16T14:44:40Z</time>
      </trkpt>
      <trkpt lat="42.87937" lon="0.20442">
        <ele>2170</ele>
        <time>2015-08-16T14:44:45Z</time>
      </trkpt>
      <trkpt lat="42.87935" lon="0.20435">
        <ele>2170</ele>
        <time>2015-08-16T14:44:51Z</time>
      </trkpt>
      <trkpt lat="42.87931" lon="0.2043">
        <ele>2171</ele>
        <time>2015-08-16T14:44:57Z</time>
      </trkpt>
      <trkpt lat="42.87928" lon="0.20429">
        <ele>2171</ele>
        <time>2015-08-16T14:45:02Z</time>
      </trkpt>
      <trkpt lat="42.87926" lon="0.20425">
        <ele>2172</ele>
        <time>2015-08-16T14:45:08Z</time>
      </trkpt>
      <trkpt lat="42.87925" lon="0.20421">
        <ele>2174</ele>
        <time>2015-08-16T14:45:13Z</time>
      </trkpt>
      <trkpt lat="42.87922" lon="0.20419">
        <ele>2174</ele>
        <time>2015-08-16T14:45:19Z</time>
      </trkpt>
      <trkpt lat="42.87919" lon="0.20422">
        <ele>2176</ele>
        <time>2015-08-16T14:45:24Z</time>
      </trkpt>
      <trkpt lat="42.87917" lon="0.20423">
        <ele>2177</ele>
        <time>2015-08-16T14:45:29Z</time>
      </trkpt>
      <trkpt lat="42.87917" lon="0.20419">
        <ele>2178</ele>
        <time>2015-08-16T14:45:34Z</time>
      </trkpt>
      <trkpt lat="42.87916" lon="0.20414">
        <ele>2179</ele>
        <time>2015-08-16T14:45:39Z</time>
      </trkpt>
      <trkpt lat="42.87917" lon="0.20408">
        <ele>2180</ele>
        <time>2015-08-16T14:45:45Z</time>
      </trkpt>
      <trkpt lat="42.87915" lon="0.20404">
        <ele>2180</ele>
        <time>2015-08-16T14:45:51Z</time>
      </trkpt>
      <trkpt lat="42.87912" lon="0.20407">
        <ele>2181</ele>
        <time>2015-08-16T14:45:57Z</time>
      </trkpt>
      <trkpt lat="42.87908" lon="0.20411">
        <ele>2182</ele>
        <time>2015-08-16T14:46:03Z</time>
      </trkpt>
      <trkpt lat="42.87905" lon="0.20413">
        <ele>2183</ele>
        <time>2015-08-16T14:46:08Z</time>
      </trkpt>
      <trkpt lat="42.879" lon="0.20416">
        <ele>2183</ele>
        <time>2015-08-16T14:46:14Z</time>
      </trkpt>
      <trkpt lat="42.87898" lon="0.20412">
        <ele>2184</ele>
        <time>2015-08-16T14:46:19Z</time>
      </trkpt>
      <trkpt lat="42.87897" lon="0.20408">
        <ele>2184</ele>
        <time>2015-08-16T14:46:24Z</time>
      </trkpt>
      <trkpt lat="42.87894" lon="0.20405">
        <ele>2185</ele>
        <time>2015-08-16T14:46:29Z</time>
      </trkpt>
      <trkpt lat="42.8789" lon="0.20402">
        <ele>2186</ele>
        <time>2015-08-16T14:46:35Z</time>
      </trkpt>
      <trkpt lat="42.87884" lon="0.20402">
        <ele>2186</ele>
        <time>2015-08-16T14:46:41Z</time>
      </trkpt>
      <trkpt lat="42.87879" lon="0.20404">
        <ele>2186</ele>
        <time>2015-08-16T14:46:46Z</time>
      </trkpt>
      <trkpt lat="42.87874" lon="0.20406">
        <ele>2186</ele>
        <time>2015-08-16T14:46:51Z</time>
      </trkpt>
      <trkpt lat="42.87868" lon="0.20408">
        <ele>2186</ele>
        <time>2015-08-16T14:46:57Z</time>
      </trkpt>
      <trkpt lat="42.87863" lon="0.20412">
        <ele>2187</ele>
        <time>2015-08-16T14:47:03Z</time>
      </trkpt>
      <trkpt lat="42.87858" lon="0.20417">
        <ele>2187</ele>
        <time>2015-08-16T14:47:08Z</time>
      </trkpt>
      <trkpt lat="42.87852" lon="0.20422">
        <ele>2188</ele>
        <time>2015-08-16T14:47:14Z</time>
      </trkpt>
      <trkpt lat="42.8785" lon="0.20427">
        <ele>2188</ele>
        <time>2015-08-16T14:47:19Z</time>
      </trkpt>
      <trkpt lat="42.87847" lon="0.20433">
        <ele>2189</ele>
        <time>2015-08-16T14:47:25Z</time>
      </trkpt>
      <trkpt lat="42.87842" lon="0.20436">
        <ele>2189</ele>
        <time>2015-08-16T14:47:30Z</time>
      </trkpt>
      <trkpt lat="42.87838" lon="0.20441">
        <ele>2190</ele>
        <time>2015-08-16T14:47:36Z</time>
      </trkpt>
      <trkpt lat="42.87834" lon="0.20446">
        <ele>2190</ele>
        <time>2015-08-16T14:47:41Z</time>
      </trkpt>
      <trkpt lat="42.8783" lon="0.20449">
        <ele>2192</ele>
        <time>2015-08-16T14:47:47Z</time>
      </trkpt>
      <trkpt lat="42.87826" lon="0.20449">
        <ele>2193</ele>
        <time>2015-08-16T14:47:53Z</time>
      </trkpt>
      <trkpt lat="42.87823" lon="0.20445">
        <ele>2194</ele>
        <time>2015-08-16T14:47:58Z</time>
      </trkpt>
      <trkpt lat="42.87821" lon="0.20444">
        <ele>2195</ele>
        <time>2015-08-16T14:48:04Z</time>
      </trkpt>
      <trkpt lat="42.87817" lon="0.20446">
        <ele>2196</ele>
        <time>2015-08-16T14:48:10Z</time>
      </trkpt>
      <trkpt lat="42.87816" lon="0.20447">
        <ele>2197</ele>
        <time>2015-08-16T14:48:15Z</time>
      </trkpt>
      <trkpt lat="42.87813" lon="0.2045">
        <ele>2198</ele>
        <time>2015-08-16T14:48:21Z</time>
      </trkpt>
      <trkpt lat="42.87812" lon="0.20453">
        <ele>2200</ele>
        <time>2015-08-16T14:48:26Z</time>
      </trkpt>
      <trkpt lat="42.87809" lon="0.20456">
        <ele>2201</ele>
        <time>2015-08-16T14:48:32Z</time>
      </trkpt>
      <trkpt lat="42.87807" lon="0.20458">
        <ele>2202</ele>
        <time>2015-08-16T14:48:38Z</time>
      </trkpt>
      <trkpt lat="42.87804" lon="0.20459">
        <ele>2203</ele>
        <time>2015-08-16T14:48:44Z</time>
      </trkpt>
      <trkpt lat="42.87802" lon="0.20461">
        <ele>2204</ele>
        <time>2015-08-16T14:48:49Z</time>
      </trkpt>
      <trkpt lat="42.87797" lon="0.20462">
        <ele>2205</ele>
        <time>2015-08-16T14:48:55Z</time>
      </trkpt>
      <trkpt lat="42.87791" lon="0.20463">
        <ele>2205</ele>
        <time>2015-08-16T14:49:01Z</time>
      </trkpt>
      <trkpt lat="42.87785" lon="0.20464">
        <ele>2205</ele>
        <time>2015-08-16T14:49:07Z</time>
      </trkpt>
      <trkpt lat="42.87779" lon="0.20468">
        <ele>2204</ele>
        <time>2015-08-16T14:49:12Z</time>
      </trkpt>
      <trkpt lat="42.87773" lon="0.20471">
        <ele>2204</ele>
        <time>2015-08-16T14:49:18Z</time>
      </trkpt>
      <trkpt lat="42.8777" lon="0.20477">
        <ele>2205</ele>
        <time>2015-08-16T14:49:24Z</time>
      </trkpt>
      <trkpt lat="42.87766" lon="0.2048">
        <ele>2206</ele>
        <time>2015-08-16T14:49:29Z</time>
      </trkpt>
      <trkpt lat="42.87762" lon="0.20484">
        <ele>2207</ele>
        <time>2015-08-16T14:49:35Z</time>
      </trkpt>
      <trkpt lat="42.87759" lon="0.20489">
        <ele>2207</ele>
        <time>2015-08-16T14:49:40Z</time>
      </trkpt>
      <trkpt lat="42.87755" lon="0.20495">
        <ele>2208</ele>
        <time>2015-08-16T14:49:46Z</time>
      </trkpt>
      <trkpt lat="42.87751" lon="0.20498">
        <ele>2209</ele>
        <time>2015-08-16T14:49:51Z</time>
      </trkpt>
      <trkpt lat="42.87747" lon="0.20502">
        <ele>2210</ele>
        <time>2015-08-16T14:49:56Z</time>
      </trkpt>
      <trkpt lat="42.87743" lon="0.20506">
        <ele>2211</ele>
        <time>2015-08-16T14:50:02Z</time>
      </trkpt>
      <trkpt lat="42.8774" lon="0.20509">
        <ele>2212</ele>
        <time>2015-08-16T14:50:07Z</time>
      </trkpt>
      <trkpt lat="42.87736" lon="0.2051">
        <ele>2213</ele>
        <time>2015-08-16T14:50:12Z</time>
      </trkpt>
      <trkpt lat="42.87732" lon="0.20511">
        <ele>2214</ele>
        <time>2015-08-16T14:50:17Z</time>
      </trkpt>
      <trkpt lat="42.87729" lon="0.20513">
        <ele>2214</ele>
        <time>2015-08-16T14:50:22Z</time>
      </trkpt>
      <trkpt lat="42.87726" lon="0.20515">
        <ele>2215</ele>
        <time>2015-08-16T14:50:27Z</time>
      </trkpt>
      <trkpt lat="42.87723" lon="0.20518">
        <ele>2216</ele>
        <time>2015-08-16T14:50:33Z</time>
      </trkpt>
      <trkpt lat="42.8772" lon="0.20521">
        <ele>2217</ele>
        <time>2015-08-16T14:50:38Z</time>
      </trkpt>
      <trkpt lat="42.87716" lon="0.20526">
        <ele>2217</ele>
        <time>2015-08-16T14:50:44Z</time>
      </trkpt>
      <trkpt lat="42.87713" lon="0.20529">
        <ele>2218</ele>
        <time>2015-08-16T14:50:49Z</time>
      </trkpt>
      <trkpt lat="42.8771" lon="0.20534">
        <ele>2219</ele>
        <time>2015-08-16T14:50:55Z</time>
      </trkpt>
      <trkpt lat="42.87708" lon="0.20537">
        <ele>2220</ele>
        <time>2015-08-16T14:51:00Z</time>
      </trkpt>
      <trkpt lat="42.87706" lon="0.20541">
        <ele>2221</ele>
        <time>2015-08-16T14:51:06Z</time>
      </trkpt>
      <trkpt lat="42.87703" lon="0.20543">
        <ele>2222</ele>
        <time>2015-08-16T14:51:12Z</time>
      </trkpt>
      <trkpt lat="42.87699" lon="0.20544">
        <ele>2223</ele>
        <time>2015-08-16T14:51:17Z</time>
      </trkpt>
      <trkpt lat="42.87696" lon="0.20547">
        <ele>2224</ele>
        <time>2015-08-16T14:51:23Z</time>
      </trkpt>
      <trkpt lat="42.87695" lon="0.2055">
        <ele>2225</ele>
        <time>2015-08-16T14:51:28Z</time>
      </trkpt>
      <trkpt lat="42.87693" lon="0.20553">
        <ele>2226</ele>
        <time>2015-08-16T14:51:33Z</time>
      </trkpt>
      <trkpt lat="42.87691" lon="0.20554">
        <ele>2227</ele>
        <time>2015-08-16T14:51:38Z</time>
      </trkpt>
      <trkpt lat="42.8769" lon="0.20558">
        <ele>2228</ele>
        <time>2015-08-16T14:51:44Z</time>
      </trkpt>
      <trkpt lat="42.87689" lon="0.20559">
        <ele>2229</ele>
        <time>2015-08-16T14:51:50Z</time>
      </trkpt>
      <trkpt lat="42.87688" lon="0.20561">
        <ele>2230</ele>
        <time>2015-08-16T14:51:56Z</time>
      </trkpt>
      <trkpt lat="42.87686" lon="0.2056">
        <ele>2231</ele>
        <time>2015-08-16T14:52:01Z</time>
      </trkpt>
      <trkpt lat="42.87685" lon="0.20564">
        <ele>2232</ele>
        <time>2015-08-16T14:52:07Z</time>
      </trkpt>
      <trkpt lat="42.87682" lon="0.20566">
        <ele>2232</ele>
        <time>2015-08-16T14:52:12Z</time>
      </trkpt>
      <trkpt lat="42.8768" lon="0.20569">
        <ele>2234</ele>
        <time>2015-08-16T14:52:17Z</time>
      </trkpt>
      <trkpt lat="42.87675" lon="0.20571">
        <ele>2234</ele>
        <time>2015-08-16T14:52:23Z</time>
      </trkpt>
      <trkpt lat="42.87671" lon="0.20573">
        <ele>2234</ele>
        <time>2015-08-16T14:52:29Z</time>
      </trkpt>
      <trkpt lat="42.87668" lon="0.20575">
        <ele>2235</ele>
        <time>2015-08-16T14:52:34Z</time>
      </trkpt>
      <trkpt lat="42.87663" lon="0.20577">
        <ele>2235</ele>
        <time>2015-08-16T14:52:40Z</time>
      </trkpt>
      <trkpt lat="42.87658" lon="0.20579">
        <ele>2235</ele>
        <time>2015-08-16T14:52:46Z</time>
      </trkpt>
      <trkpt lat="42.87657" lon="0.20582">
        <ele>2236</ele>
        <time>2015-08-16T14:52:51Z</time>
      </trkpt>
      <trkpt lat="42.87656" lon="0.20585">
        <ele>2237</ele>
        <time>2015-08-16T14:52:56Z</time>
      </trkpt>
      <trkpt lat="42.87652" lon="0.20586">
        <ele>2238</ele>
        <time>2015-08-16T14:53:02Z</time>
      </trkpt>
      <trkpt lat="42.87648" lon="0.20588">
        <ele>2239</ele>
        <time>2015-08-16T14:53:07Z</time>
      </trkpt>
      <trkpt lat="42.87643" lon="0.20592">
        <ele>2240</ele>
        <time>2015-08-16T14:53:13Z</time>
      </trkpt>
      <trkpt lat="42.87638" lon="0.20593">
        <ele>2240</ele>
        <time>2015-08-16T14:53:19Z</time>
      </trkpt>
      <trkpt lat="42.87634" lon="0.20592">
        <ele>2241</ele>
        <time>2015-08-16T14:53:24Z</time>
      </trkpt>
      <trkpt lat="42.87629" lon="0.20595">
        <ele>2241</ele>
        <time>2015-08-16T14:53:30Z</time>
      </trkpt>
      <trkpt lat="42.87626" lon="0.20595">
        <ele>2241</ele>
        <time>2015-08-16T14:53:35Z</time>
      </trkpt>
      <trkpt lat="42.87621" lon="0.20595">
        <ele>2242</ele>
        <time>2015-08-16T14:53:40Z</time>
      </trkpt>
      <trkpt lat="42.87617" lon="0.20596">
        <ele>2242</ele>
        <time>2015-08-16T14:53:46Z</time>
      </trkpt>
      <trkpt lat="42.87613" lon="0.20596">
        <ele>2243</ele>
        <time>2015-08-16T14:53:51Z</time>
      </trkpt>
      <trkpt lat="42.87608" lon="0.20596">
        <ele>2244</ele>
        <time>2015-08-16T14:53:57Z</time>
      </trkpt>
      <trkpt lat="42.87604" lon="0.20594">
        <ele>2244</ele>
        <time>2015-08-16T14:54:02Z</time>
      </trkpt>
      <trkpt lat="42.87601" lon="0.20591">
        <ele>2245</ele>
        <time>2015-08-16T14:54:08Z</time>
      </trkpt>
      <trkpt lat="42.87601" lon="0.20591">
        <ele>2246</ele>
        <time>2015-08-16T14:54:13Z</time>
      </trkpt>
      <trkpt lat="42.87602" lon="0.2059">
        <ele>2247</ele>
        <time>2015-08-16T14:54:18Z</time>
      </trkpt>
      <trkpt lat="42.87597" lon="0.20589">
        <ele>2248</ele>
        <time>2015-08-16T14:54:24Z</time>
      </trkpt>
      <trkpt lat="42.87594" lon="0.20587">
        <ele>2249</ele>
        <time>2015-08-16T14:54:30Z</time>
      </trkpt>
      <trkpt lat="42.87591" lon="0.20584">
        <ele>2249</ele>
        <time>2015-08-16T14:54:36Z</time>
      </trkpt>
      <trkpt lat="42.87589" lon="0.2058">
        <ele>2250</ele>
        <time>2015-08-16T14:54:42Z</time>
      </trkpt>
      <trkpt lat="42.87587" lon="0.20575">
        <ele>2251</ele>
        <time>2015-08-16T14:54:47Z</time>
      </trkpt>
      <trkpt lat="42.87584" lon="0.2057">
        <ele>2252</ele>
        <time>2015-08-16T14:54:53Z</time>
      </trkpt>
      <trkpt lat="42.87579" lon="0.20566">
        <ele>2252</ele>
        <time>2015-08-16T14:54:59Z</time>
      </trkpt>
      <trkpt lat="42.87576" lon="0.20561">
        <ele>2252</ele>
        <time>2015-08-16T14:55:04Z</time>
      </trkpt>
      <trkpt lat="42.87572" lon="0.20559">
        <ele>2253</ele>
        <time>2015-08-16T14:55:09Z</time>
      </trkpt>
      <trkpt lat="42.87567" lon="0.20554">
        <ele>2252</ele>
        <time>2015-08-16T14:55:15Z</time>
      </trkpt>
      <trkpt lat="42.87562" lon="0.2055">
        <ele>2253</ele>
        <time>2015-08-16T14:55:20Z</time>
      </trkpt>
      <trkpt lat="42.87558" lon="0.20546">
        <ele>2253</ele>
        <time>2015-08-16T14:55:25Z</time>
      </trkpt>
      <trkpt lat="42.87553" lon="0.20546">
        <ele>2252</ele>
        <time>2015-08-16T14:55:30Z</time>
      </trkpt>
      <trkpt lat="42.87546" lon="0.20547">
        <ele>2253</ele>
        <time>2015-08-16T14:55:36Z</time>
      </trkpt>
      <trkpt lat="42.87541" lon="0.20548">
        <ele>2253</ele>
        <time>2015-08-16T14:55:41Z</time>
      </trkpt>
      <trkpt lat="42.87537" lon="0.20553">
        <ele>2253</ele>
        <time>2015-08-16T14:55:47Z</time>
      </trkpt>
      <trkpt lat="42.87532" lon="0.20554">
        <ele>2253</ele>
        <time>2015-08-16T14:55:52Z</time>
      </trkpt>
      <trkpt lat="42.87529" lon="0.20559">
        <ele>2252</ele>
        <time>2015-08-16T14:55:57Z</time>
      </trkpt>
      <trkpt lat="42.87525" lon="0.20558">
        <ele>2253</ele>
        <time>2015-08-16T14:56:02Z</time>
      </trkpt>
      <trkpt lat="42.8752" lon="0.20559">
        <ele>2253</ele>
        <time>2015-08-16T14:56:08Z</time>
      </trkpt>
      <trkpt lat="42.87516" lon="0.20562">
        <ele>2253</ele>
        <time>2015-08-16T14:56:13Z</time>
      </trkpt>
      <trkpt lat="42.87511" lon="0.20563">
        <ele>2252</ele>
        <time>2015-08-16T14:56:18Z</time>
      </trkpt>
      <trkpt lat="42.87506" lon="0.20563">
        <ele>2252</ele>
        <time>2015-08-16T14:56:24Z</time>
      </trkpt>
      <trkpt lat="42.87501" lon="0.20562">
        <ele>2252</ele>
        <time>2015-08-16T14:56:29Z</time>
      </trkpt>
      <trkpt lat="42.87497" lon="0.2056">
        <ele>2252</ele>
        <time>2015-08-16T14:56:35Z</time>
      </trkpt>
      <trkpt lat="42.87495" lon="0.20562">
        <ele>2253</ele>
        <time>2015-08-16T14:56:42Z</time>
      </trkpt>
      <trkpt lat="42.87495" lon="0.20561">
        <ele>2253</ele>
        <time>2015-08-16T14:56:49Z</time>
      </trkpt>
      <trkpt lat="42.87495" lon="0.20561">
        <ele>2253</ele>
        <time>2015-08-16T14:56:55Z</time>
      </trkpt>
      <trkpt lat="42.87495" lon="0.20561">
        <ele>2252</ele>
        <time>2015-08-16T14:57:00Z</time>
      </trkpt>
      <trkpt lat="42.87495" lon="0.2056">
        <ele>2253</ele>
        <time>2015-08-16T14:57:06Z</time>
      </trkpt>
      <trkpt lat="42.87495" lon="0.2056">
        <ele>2253</ele>
        <time>2015-08-16T14:57:11Z</time>
      </trkpt>
      <trkpt lat="42.87495" lon="0.20561">
        <ele>2253</ele>
        <time>2015-08-16T14:57:16Z</time>
      </trkpt>
      <trkpt lat="42.87495" lon="0.20562">
        <ele>2253</ele>
        <time>2015-08-16T14:57:22Z</time>
      </trkpt>
      <trkpt lat="42.87495" lon="0.20563">
        <ele>2253</ele>
        <time>2015-08-16T14:57:28Z</time>
      </trkpt>
      <trkpt lat="42.87495" lon="0.20564">
        <ele>2253</ele>
        <time>2015-08-16T14:57:35Z</time>
      </trkpt>
      <trkpt lat="42.87495" lon="0.20564">
        <ele>2253</ele>
        <time>2015-08-16T14:57:41Z</time>
      </trkpt>
      <trkpt lat="42.87495" lon="0.20564">
        <ele>2253</ele>
        <time>2015-08-16T14:57:53Z</time>
      </trkpt>
      <trkpt lat="42.87495" lon="0.20564">
        <ele>2253</ele>
        <time>2015-08-16T14:58:03Z</time>
      </trkpt>
      <trkpt lat="42.87495" lon="0.20564">
        <ele>2253</ele>
        <time>2015-08-16T14:58:08Z</time>
      </trkpt>
      <trkpt lat="42.87495" lon="0.20565">
        <ele>2253</ele>
        <time>2015-08-16T14:58:17Z</time>
      </trkpt>
      <trkpt lat="42.87495" lon="0.20565">
        <ele>2253</ele>
        <time>2015-08-16T14:58:23Z</time>
      </trkpt>
      <trkpt lat="42.87495" lon="0.20564">
        <ele>2253</ele>
        <time>2015-08-16T14:58:29Z</time>
      </trkpt>
      <trkpt lat="42.87495" lon="0.20563">
        <ele>2253</ele>
        <time>2015-08-16T14:58:34Z</time>
      </trkpt>
      <trkpt lat="42.87495" lon="0.20562">
        <ele>2253</ele>
        <time>2015-08-16T14:58:39Z</time>
      </trkpt>
      <trkpt lat="42.87495" lon="0.20561">
        <ele>2253</ele>
        <time>2015-08-16T14:58:45Z</time>
      </trkpt>
      <trkpt lat="42.87495" lon="0.20562">
        <ele>2253</ele>
        <time>2015-08-16T14:58:52Z</time>
      </trkpt>
      <trkpt lat="42.87495" lon="0.20563">
        <ele>2253</ele>
        <time>2015-08-16T14:58:57Z</time>
      </trkpt>
      <trkpt lat="42.87495" lon="0.20563">
        <ele>2253</ele>
        <time>2015-08-16T14:59:04Z</time>
      </trkpt>
      <trkpt lat="42.87495" lon="0.20564">
        <ele>2252</ele>
        <time>2015-08-16T14:59:10Z</time>
      </trkpt>
      <trkpt lat="42.87495" lon="0.20564">
        <ele>2253</ele>
        <time>2015-08-16T14:59:16Z</time>
      </trkpt>
      <trkpt lat="42.87494" lon="0.20564">
        <ele>2253</ele>
        <time>2015-08-16T14:59:25Z</time>
      </trkpt>
      <trkpt lat="42.87494" lon="0.20563">
        <ele>2253</ele>
        <time>2015-08-16T14:59:30Z</time>
      </trkpt>
      <trkpt lat="42.87494" lon="0.20563">
        <ele>2252</ele>
        <time>2015-08-16T14:59:35Z</time>
      </trkpt>
      <trkpt lat="42.87494" lon="0.20562">
        <ele>2253</ele>
        <time>2015-08-16T14:59:44Z</time>
      </trkpt>
      <trkpt lat="42.87495" lon="0.20562">
        <ele>2253</ele>
        <time>2015-08-16T14:59:56Z</time>
      </trkpt>
      <trkpt lat="42.87495" lon="0.20562">
        <ele>2253</ele>
        <time>2015-08-16T15:00:02Z</time>
      </trkpt>
      <trkpt lat="42.87495" lon="0.20562">
        <ele>2253</ele>
        <time>2015-08-16T15:00:10Z</time>
      </trkpt>
      <trkpt lat="42.87495" lon="0.20561">
        <ele>2253</ele>
        <time>2015-08-16T15:00:17Z</time>
      </trkpt>
      <trkpt lat="42.87495" lon="0.20561">
        <ele>2253</ele>
        <time>2015-08-16T15:00:25Z</time>
      </trkpt>
      <trkpt lat="42.87495" lon="0.20561">
        <ele>2253</ele>
        <time>2015-08-16T15:00:36Z</time>
      </trkpt>
      <trkpt lat="42.87495" lon="0.20561">
        <ele>2253</ele>
        <time>2015-08-16T15:00:42Z</time>
      </trkpt>
      <trkpt lat="42.87495" lon="0.20561">
        <ele>2253</ele>
        <time>2015-08-16T15:00:51Z</time>
      </trkpt>
      <trkpt lat="42.87495" lon="0.2056">
        <ele>2253</ele>
        <time>2015-08-16T15:00:57Z</time>
      </trkpt>
      <trkpt lat="42.87495" lon="0.2056">
        <ele>2253</ele>
        <time>2015-08-16T15:01:02Z</time>
      </trkpt>
      <trkpt lat="42.87495" lon="0.20561">
        <ele>2253</ele>
        <time>2015-08-16T15:01:08Z</time>
      </trkpt>
      <trkpt lat="42.87495" lon="0.20561">
        <ele>2253</ele>
        <time>2015-08-16T15:01:28Z</time>
      </trkpt>
      <trkpt lat="42.87495" lon="0.20562">
        <ele>2253</ele>
        <time>2015-08-16T15:01:35Z</time>
      </trkpt>
      <trkpt lat="42.87495" lon="0.20562">
        <ele>2253</ele>
        <time>2015-08-16T15:01:41Z</time>
      </trkpt>
      <trkpt lat="42.87495" lon="0.20562">
        <ele>2253</ele>
        <time>2015-08-16T15:01:48Z</time>
      </trkpt>
      <trkpt lat="42.87495" lon="0.20561">
        <ele>2253</ele>
        <time>2015-08-16T15:01:54Z</time>
      </trkpt>
      <trkpt lat="42.87495" lon="0.20561">
        <ele>2253</ele>
        <time>2015-08-16T15:01:59Z</time>
      </trkpt>
      <trkpt lat="42.87496" lon="0.20561">
        <ele>2253</ele>
        <time>2015-08-16T15:02:05Z</time>
      </trkpt>
      <trkpt lat="42.87496" lon="0.20561">
        <ele>2253</ele>
        <time>2015-08-16T15:02:11Z</time>
      </trkpt>
      <trkpt lat="42.87496" lon="0.20562">
        <ele>2253</ele>
        <time>2015-08-16T15:02:17Z</time>
      </trkpt>
      <trkpt lat="42.87496" lon="0.20563">
        <ele>2253</ele>
        <time>2015-08-16T15:02:22Z</time>
      </trkpt>
      <trkpt lat="42.87496" lon="0.20563">
        <ele>2253</ele>
        <time>2015-08-16T15:02:31Z</time>
      </trkpt>
      <trkpt lat="42.87495" lon="0.20563">
        <ele>2253</ele>
        <time>2015-08-16T15:02:39Z</time>
      </trkpt>
      <trkpt lat="42.87495" lon="0.20563">
        <ele>2253</ele>
        <time>2015-08-16T15:02:45Z</time>
      </trkpt>
      <trkpt lat="42.87495" lon="0.20564">
        <ele>2253</ele>
        <time>2015-08-16T15:02:56Z</time>
      </trkpt>
      <trkpt lat="42.87495" lon="0.20564">
        <ele>2253</ele>
        <time>2015-08-16T15:03:02Z</time>
      </trkpt>
      <trkpt lat="42.87495" lon="0.20565">
        <ele>2253</ele>
        <time>2015-08-16T15:03:07Z</time>
      </trkpt>
      <trkpt lat="42.87495" lon="0.20565">
        <ele>2253</ele>
        <time>2015-08-16T15:03:13Z</time>
      </trkpt>
      <trkpt lat="42.87495" lon="0.20566">
        <ele>2253</ele>
        <time>2015-08-16T15:03:18Z</time>
      </trkpt>
      <trkpt lat="42.87495" lon="0.20566">
        <ele>2253</ele>
        <time>2015-08-16T15:03:23Z</time>
      </trkpt>
      <trkpt lat="42.87495" lon="0.20567">
        <ele>2253</ele>
        <time>2015-08-16T15:03:31Z</time>
      </trkpt>
      <trkpt lat="42.87495" lon="0.20567">
        <ele>2253</ele>
        <time>2015-08-16T15:03:36Z</time>
      </trkpt>
      <trkpt lat="42.87495" lon="0.20566">
        <ele>2253</ele>
        <time>2015-08-16T15:03:42Z</time>
      </trkpt>
      <trkpt lat="42.87495" lon="0.20566">
        <ele>2253</ele>
        <time>2015-08-16T15:03:47Z</time>
      </trkpt>
      <trkpt lat="42.87495" lon="0.20566">
        <ele>2253</ele>
        <time>2015-08-16T15:03:55Z</time>
      </trkpt>
      <trkpt lat="42.87495" lon="0.20566">
        <ele>2253</ele>
        <time>2015-08-16T15:04:02Z</time>
      </trkpt>
      <trkpt lat="42.87495" lon="0.20566">
        <ele>2253</ele>
        <time>2015-08-16T15:04:10Z</time>
      </trkpt>
      <trkpt lat="42.87495" lon="0.20565">
        <ele>2253</ele>
        <time>2015-08-16T15:04:16Z</time>
      </trkpt>
      <trkpt lat="42.87495" lon="0.20565">
        <ele>2253</ele>
        <time>2015-08-16T15:04:22Z</time>
      </trkpt>
      <trkpt lat="42.87495" lon="0.20564">
        <ele>2253</ele>
        <time>2015-08-16T15:04:28Z</time>
      </trkpt>
      <trkpt lat="42.87495" lon="0.20563">
        <ele>2253</ele>
        <time>2015-08-16T15:04:34Z</time>
      </trkpt>
      <trkpt lat="42.87495" lon="0.20563">
        <ele>2253</ele>
        <time>2015-08-16T15:04:40Z</time>
      </trkpt>
      <trkpt lat="42.87495" lon="0.20563">
        <ele>2253</ele>
        <time>2015-08-16T15:04:46Z</time>
      </trkpt>
      <trkpt lat="42.87494" lon="0.20563">
        <ele>2253</ele>
        <time>2015-08-16T15:04:52Z</time>
      </trkpt>
      <trkpt lat="42.87494" lon="0.20563">
        <ele>2252</ele>
        <time>2015-08-16T15:05:03Z</time>
      </trkpt>
      <trkpt lat="42.87494" lon="0.20563">
        <ele>2253</ele>
        <time>2015-08-16T15:05:08Z</time>
      </trkpt>
      <trkpt lat="42.87495" lon="0.20563">
        <ele>2253</ele>
        <time>2015-08-16T15:05:15Z</time>
      </trkpt>
      <trkpt lat="42.87495" lon="0.20563">
        <ele>2253</ele>
        <time>2015-08-16T15:05:20Z</time>
      </trkpt>
      <trkpt lat="42.87495" lon="0.20563">
        <ele>2254</ele>
        <time>2015-08-16T15:05:37Z</time>
      </trkpt>
      <trkpt lat="42.87495" lon="0.20563">
        <ele>2254</ele>
        <time>2015-08-16T15:05:44Z</time>
      </trkpt>
      <trkpt lat="42.87495" lon="0.20563">
        <ele>2253</ele>
        <time>2015-08-16T15:05:50Z</time>
      </trkpt>
      <trkpt lat="42.87495" lon="0.20563">
        <ele>2253</ele>
        <time>2015-08-16T15:05:56Z</time>
      </trkpt>
      <trkpt lat="42.87495" lon="0.20564">
        <ele>2253</ele>
        <time>2015-08-16T15:06:01Z</time>
      </trkpt>
      <trkpt lat="42.87495" lon="0.20565">
        <ele>2253</ele>
        <time>2015-08-16T15:06:07Z</time>
      </trkpt>
      <trkpt lat="42.87495" lon="0.20565">
        <ele>2253</ele>
        <time>2015-08-16T15:06:12Z</time>
      </trkpt>
      <trkpt lat="42.87495" lon="0.20565">
        <ele>2254</ele>
        <time>2015-08-16T15:06:19Z</time>
      </trkpt>
      <trkpt lat="42.87495" lon="0.20565">
        <ele>2254</ele>
        <time>2015-08-16T15:06:24Z</time>
      </trkpt>
      <trkpt lat="42.87495" lon="0.20566">
        <ele>2254</ele>
        <time>2015-08-16T15:06:31Z</time>
      </trkpt>
      <trkpt lat="42.87495" lon="0.20567">
        <ele>2253</ele>
        <time>2015-08-16T15:06:37Z</time>
      </trkpt>
      <trkpt lat="42.87495" lon="0.20568">
        <ele>2253</ele>
        <time>2015-08-16T15:06:43Z</time>
      </trkpt>
      <trkpt lat="42.87495" lon="0.20568">
        <ele>2253</ele>
        <time>2015-08-16T15:06:50Z</time>
      </trkpt>
      <trkpt lat="42.87495" lon="0.20568">
        <ele>2254</ele>
        <time>2015-08-16T15:06:56Z</time>
      </trkpt>
      <trkpt lat="42.87495" lon="0.20568">
        <ele>2254</ele>
        <time>2015-08-16T15:07:04Z</time>
      </trkpt>
      <trkpt lat="42.87495" lon="0.20567">
        <ele>2253</ele>
        <time>2015-08-16T15:07:10Z</time>
      </trkpt>
      <trkpt lat="42.87495" lon="0.20566">
        <ele>2253</ele>
        <time>2015-08-16T15:07:15Z</time>
      </trkpt>
      <trkpt lat="42.87496" lon="0.20565">
        <ele>2253</ele>
        <time>2015-08-16T15:07:22Z</time>
      </trkpt>
      <trkpt lat="42.87496" lon="0.20565">
        <ele>2253</ele>
        <time>2015-08-16T15:07:32Z</time>
      </trkpt>
      <trkpt lat="42.87496" lon="0.20565">
        <ele>2253</ele>
        <time>2015-08-16T15:07:37Z</time>
      </trkpt>
      <trkpt lat="42.87496" lon="0.20564">
        <ele>2254</ele>
        <time>2015-08-16T15:07:46Z</time>
      </trkpt>
      <trkpt lat="42.87496" lon="0.20564">
        <ele>2254</ele>
        <time>2015-08-16T15:07:53Z</time>
      </trkpt>
      <trkpt lat="42.87496" lon="0.20564">
        <ele>2254</ele>
        <time>2015-08-16T15:07:58Z</time>
      </trkpt>
      <trkpt lat="42.87496" lon="0.20564">
        <ele>2253</ele>
        <time>2015-08-16T15:08:04Z</time>
      </trkpt>
      <trkpt lat="42.87496" lon="0.20565">
        <ele>2253</ele>
        <time>2015-08-16T15:08:17Z</time>
      </trkpt>
      <trkpt lat="42.87496" lon="0.20564">
        <ele>2253</ele>
        <time>2015-08-16T15:08:22Z</time>
      </trkpt>
      <trkpt lat="42.87496" lon="0.20564">
        <ele>2253</ele>
        <time>2015-08-16T15:08:28Z</time>
      </trkpt>
      <trkpt lat="42.87495" lon="0.20564">
        <ele>2253</ele>
        <time>2015-08-16T15:08:34Z</time>
      </trkpt>
      <trkpt lat="42.87494" lon="0.20562">
        <ele>2253</ele>
        <time>2015-08-16T15:08:40Z</time>
      </trkpt>
      <trkpt lat="42.8749" lon="0.2056">
        <ele>2253</ele>
        <time>2015-08-16T15:08:45Z</time>
      </trkpt>
      <trkpt lat="42.87487" lon="0.20557">
        <ele>2253</ele>
        <time>2015-08-16T15:08:50Z</time>
      </trkpt>
      <trkpt lat="42.87482" lon="0.20555">
        <ele>2254</ele>
        <time>2015-08-16T15:08:56Z</time>
      </trkpt>
      <trkpt lat="42.87479" lon="0.20558">
        <ele>2255</ele>
        <time>2015-08-16T15:09:02Z</time>
      </trkpt>
      <trkpt lat="42.87479" lon="0.20557">
        <ele>2255</ele>
        <time>2015-08-16T15:09:08Z</time>
      </trkpt>
      <trkpt lat="42.87479" lon="0.20557">
        <ele>2255</ele>
        <time>2015-08-16T15:09:13Z</time>
      </trkpt>
      <trkpt lat="42.87478" lon="0.20557">
        <ele>2255</ele>
        <time>2015-08-16T15:09:19Z</time>
      </trkpt>
      <trkpt lat="42.87477" lon="0.20557">
        <ele>2255</ele>
        <time>2015-08-16T15:09:26Z</time>
      </trkpt>
      <trkpt lat="42.87477" lon="0.20556">
        <ele>2255</ele>
        <time>2015-08-16T15:09:33Z</time>
      </trkpt>
      <trkpt lat="42.87476" lon="0.20556">
        <ele>2255</ele>
        <time>2015-08-16T15:09:38Z</time>
      </trkpt>
      <trkpt lat="42.87475" lon="0.20553">
        <ele>2255</ele>
        <time>2015-08-16T15:09:44Z</time>
      </trkpt>
      <trkpt lat="42.87471" lon="0.2055">
        <ele>2254</ele>
        <time>2015-08-16T15:09:49Z</time>
      </trkpt>
      <trkpt lat="42.87467" lon="0.20545">
        <ele>2255</ele>
        <time>2015-08-16T15:09:55Z</time>
      </trkpt>
      <trkpt lat="42.87463" lon="0.20541">
        <ele>2255</ele>
        <time>2015-08-16T15:10:00Z</time>
      </trkpt>
      <trkpt lat="42.87458" lon="0.20538">
        <ele>2255</ele>
        <time>2015-08-16T15:10:06Z</time>
      </trkpt>
      <trkpt lat="42.87453" lon="0.20535">
        <ele>2256</ele>
        <time>2015-08-16T15:10:11Z</time>
      </trkpt>
      <trkpt lat="42.87447" lon="0.20535">
        <ele>2256</ele>
        <time>2015-08-16T15:10:17Z</time>
      </trkpt>
      <trkpt lat="42.87444" lon="0.20529">
        <ele>2256</ele>
        <time>2015-08-16T15:10:22Z</time>
      </trkpt>
      <trkpt lat="42.87445" lon="0.20523">
        <ele>2257</ele>
        <time>2015-08-16T15:10:28Z</time>
      </trkpt>
      <trkpt lat="42.87446" lon="0.2052">
        <ele>2258</ele>
        <time>2015-08-16T15:10:33Z</time>
      </trkpt>
      <trkpt lat="42.87449" lon="0.20518">
        <ele>2259</ele>
        <time>2015-08-16T15:10:39Z</time>
      </trkpt>
      <trkpt lat="42.87451" lon="0.20516">
        <ele>2261</ele>
        <time>2015-08-16T15:10:45Z</time>
      </trkpt>
      <trkpt lat="42.87448" lon="0.20515">
        <ele>2261</ele>
        <time>2015-08-16T15:10:50Z</time>
      </trkpt>
      <trkpt lat="42.87444" lon="0.20516">
        <ele>2261</ele>
        <time>2015-08-16T15:10:55Z</time>
      </trkpt>
      <trkpt lat="42.87439" lon="0.20517">
        <ele>2263</ele>
        <time>2015-08-16T15:11:01Z</time>
      </trkpt>
      <trkpt lat="42.87435" lon="0.20518">
        <ele>2264</ele>
        <time>2015-08-16T15:11:06Z</time>
      </trkpt>
      <trkpt lat="42.8743" lon="0.20519">
        <ele>2264</ele>
        <time>2015-08-16T15:11:12Z</time>
      </trkpt>
      <trkpt lat="42.87427" lon="0.20522">
        <ele>2265</ele>
        <time>2015-08-16T15:11:17Z</time>
      </trkpt>
      <trkpt lat="42.87425" lon="0.20527">
        <ele>2266</ele>
        <time>2015-08-16T15:11:23Z</time>
      </trkpt>
      <trkpt lat="42.87423" lon="0.20532">
        <ele>2266</ele>
        <time>2015-08-16T15:11:28Z</time>
      </trkpt>
      <trkpt lat="42.87421" lon="0.20535">
        <ele>2267</ele>
        <time>2015-08-16T15:11:33Z</time>
      </trkpt>
      <trkpt lat="42.8742" lon="0.20537">
        <ele>2268</ele>
        <time>2015-08-16T15:11:38Z</time>
      </trkpt>
      <trkpt lat="42.87418" lon="0.20534">
        <ele>2269</ele>
        <time>2015-08-16T15:11:44Z</time>
      </trkpt>
      <trkpt lat="42.87416" lon="0.20536">
        <ele>2270</ele>
        <time>2015-08-16T15:11:49Z</time>
      </trkpt>
      <trkpt lat="42.87416" lon="0.20539">
        <ele>2271</ele>
        <time>2015-08-16T15:11:55Z</time>
      </trkpt>
      <trkpt lat="42.87415" lon="0.2054">
        <ele>2271</ele>
        <time>2015-08-16T15:12:00Z</time>
      </trkpt>
      <trkpt lat="42.87413" lon="0.20543">
        <ele>2272</ele>
        <time>2015-08-16T15:12:06Z</time>
      </trkpt>
      <trkpt lat="42.8741" lon="0.20543">
        <ele>2273</ele>
        <time>2015-08-16T15:12:12Z</time>
      </trkpt>
      <trkpt lat="42.87409" lon="0.20542">
        <ele>2274</ele>
        <time>2015-08-16T15:12:18Z</time>
      </trkpt>
      <trkpt lat="42.87408" lon="0.20544">
        <ele>2274</ele>
        <time>2015-08-16T15:12:24Z</time>
      </trkpt>
      <trkpt lat="42.87408" lon="0.20546">
        <ele>2276</ele>
        <time>2015-08-16T15:12:29Z</time>
      </trkpt>
      <trkpt lat="42.87407" lon="0.20548">
        <ele>2277</ele>
        <time>2015-08-16T15:12:35Z</time>
      </trkpt>
      <trkpt lat="42.87406" lon="0.2055">
        <ele>2278</ele>
        <time>2015-08-16T15:12:44Z</time>
      </trkpt>
      <trkpt lat="42.87405" lon="0.20551">
        <ele>2279</ele>
        <time>2015-08-16T15:12:50Z</time>
      </trkpt>
      <trkpt lat="42.87403" lon="0.2055">
        <ele>2279</ele>
        <time>2015-08-16T15:12:55Z</time>
      </trkpt>
      <trkpt lat="42.87401" lon="0.20552">
        <ele>2280</ele>
        <time>2015-08-16T15:13:01Z</time>
      </trkpt>
      <trkpt lat="42.87399" lon="0.20552">
        <ele>2281</ele>
        <time>2015-08-16T15:13:06Z</time>
      </trkpt>
      <trkpt lat="42.87397" lon="0.20553">
        <ele>2281</ele>
        <time>2015-08-16T15:13:11Z</time>
      </trkpt>
      <trkpt lat="42.87395" lon="0.20556">
        <ele>2282</ele>
        <time>2015-08-16T15:13:17Z</time>
      </trkpt>
      <trkpt lat="42.87392" lon="0.20557">
        <ele>2283</ele>
        <time>2015-08-16T15:13:22Z</time>
      </trkpt>
      <trkpt lat="42.87387" lon="0.20559">
        <ele>2284</ele>
        <time>2015-08-16T15:13:28Z</time>
      </trkpt>
      <trkpt lat="42.87383" lon="0.2056">
        <ele>2284</ele>
        <time>2015-08-16T15:13:33Z</time>
      </trkpt>
      <trkpt lat="42.87377" lon="0.20564">
        <ele>2284</ele>
        <time>2015-08-16T15:13:39Z</time>
      </trkpt>
      <trkpt lat="42.87372" lon="0.20564">
        <ele>2284</ele>
        <time>2015-08-16T15:13:44Z</time>
      </trkpt>
      <trkpt lat="42.87366" lon="0.20563">
        <ele>2284</ele>
        <time>2015-08-16T15:13:50Z</time>
      </trkpt>
      <trkpt lat="42.87363" lon="0.2056">
        <ele>2285</ele>
        <time>2015-08-16T15:13:56Z</time>
      </trkpt>
      <trkpt lat="42.87361" lon="0.20554">
        <ele>2286</ele>
        <time>2015-08-16T15:14:02Z</time>
      </trkpt>
      <trkpt lat="42.87358" lon="0.20551">
        <ele>2286</ele>
        <time>2015-08-16T15:14:07Z</time>
      </trkpt>
      <trkpt lat="42.87355" lon="0.20549">
        <ele>2287</ele>
        <time>2015-08-16T15:14:12Z</time>
      </trkpt>
      <trkpt lat="42.87352" lon="0.20543">
        <ele>2287</ele>
        <time>2015-08-16T15:14:17Z</time>
      </trkpt>
      <trkpt lat="42.87349" lon="0.2054">
        <ele>2287</ele>
        <time>2015-08-16T15:14:22Z</time>
      </trkpt>
      <trkpt lat="42.87344" lon="0.20541">
        <ele>2287</ele>
        <time>2015-08-16T15:14:28Z</time>
      </trkpt>
      <trkpt lat="42.87339" lon="0.20542">
        <ele>2288</ele>
        <time>2015-08-16T15:14:34Z</time>
      </trkpt>
      <trkpt lat="42.87335" lon="0.20543">
        <ele>2289</ele>
        <time>2015-08-16T15:14:40Z</time>
      </trkpt>
      <trkpt lat="42.87332" lon="0.20547">
        <ele>2290</ele>
        <time>2015-08-16T15:14:45Z</time>
      </trkpt>
      <trkpt lat="42.87328" lon="0.2055">
        <ele>2290</ele>
        <time>2015-08-16T15:14:51Z</time>
      </trkpt>
      <trkpt lat="42.87324" lon="0.20551">
        <ele>2291</ele>
        <time>2015-08-16T15:14:56Z</time>
      </trkpt>
      <trkpt lat="42.87323" lon="0.20547">
        <ele>2292</ele>
        <time>2015-08-16T15:15:02Z</time>
      </trkpt>
      <trkpt lat="42.87321" lon="0.20546">
        <ele>2293</ele>
        <time>2015-08-16T15:15:07Z</time>
      </trkpt>
      <trkpt lat="42.87318" lon="0.20542">
        <ele>2294</ele>
        <time>2015-08-16T15:15:13Z</time>
      </trkpt>
      <trkpt lat="42.87317" lon="0.20538">
        <ele>2295</ele>
        <time>2015-08-16T15:15:18Z</time>
      </trkpt>
      <trkpt lat="42.87314" lon="0.20535">
        <ele>2296</ele>
        <time>2015-08-16T15:15:24Z</time>
      </trkpt>
      <trkpt lat="42.87313" lon="0.20532">
        <ele>2296</ele>
        <time>2015-08-16T15:15:29Z</time>
      </trkpt>
      <trkpt lat="42.87313" lon="0.20527">
        <ele>2297</ele>
        <time>2015-08-16T15:15:35Z</time>
      </trkpt>
      <trkpt lat="42.87314" lon="0.20523">
        <ele>2298</ele>
        <time>2015-08-16T15:15:40Z</time>
      </trkpt>
      <trkpt lat="42.87313" lon="0.20518">
        <ele>2299</ele>
        <time>2015-08-16T15:15:46Z</time>
      </trkpt>
      <trkpt lat="42.8731" lon="0.20515">
        <ele>2299</ele>
        <time>2015-08-16T15:15:51Z</time>
      </trkpt>
      <trkpt lat="42.87307" lon="0.20511">
        <ele>2300</ele>
        <time>2015-08-16T15:15:57Z</time>
      </trkpt>
      <trkpt lat="42.87306" lon="0.20506">
        <ele>2301</ele>
        <time>2015-08-16T15:16:02Z</time>
      </trkpt>
      <trkpt lat="42.87306" lon="0.20502">
        <ele>2302</ele>
        <time>2015-08-16T15:16:07Z</time>
      </trkpt>
      <trkpt lat="42.87305" lon="0.20499">
        <ele>2302</ele>
        <time>2015-08-16T15:16:12Z</time>
      </trkpt>
      <trkpt lat="42.87302" lon="0.20501">
        <ele>2303</ele>
        <time>2015-08-16T15:16:18Z</time>
      </trkpt>
      <trkpt lat="42.87298" lon="0.20502">
        <ele>2304</ele>
        <time>2015-08-16T15:16:24Z</time>
      </trkpt>
      <trkpt lat="42.87296" lon="0.20504">
        <ele>2305</ele>
        <time>2015-08-16T15:16:29Z</time>
      </trkpt>
      <trkpt lat="42.87293" lon="0.20504">
        <ele>2306</ele>
        <time>2015-08-16T15:16:35Z</time>
      </trkpt>
      <trkpt lat="42.87291" lon="0.20506">
        <ele>2307</ele>
        <time>2015-08-16T15:16:40Z</time>
      </trkpt>
      <trkpt lat="42.87289" lon="0.20511">
        <ele>2308</ele>
        <time>2015-08-16T15:16:46Z</time>
      </trkpt>
      <trkpt lat="42.87287" lon="0.20515">
        <ele>2309</ele>
        <time>2015-08-16T15:16:51Z</time>
      </trkpt>
      <trkpt lat="42.87287" lon="0.2052">
        <ele>2310</ele>
        <time>2015-08-16T15:16:57Z</time>
      </trkpt>
      <trkpt lat="42.87289" lon="0.20525">
        <ele>2311</ele>
        <time>2015-08-16T15:17:03Z</time>
      </trkpt>
      <trkpt lat="42.87291" lon="0.20528">
        <ele>2312</ele>
        <time>2015-08-16T15:17:08Z</time>
      </trkpt>
      <trkpt lat="42.87292" lon="0.20531">
        <ele>2312</ele>
        <time>2015-08-16T15:17:13Z</time>
      </trkpt>
      <trkpt lat="42.87291" lon="0.20535">
        <ele>2312</ele>
        <time>2015-08-16T15:17:18Z</time>
      </trkpt>
      <trkpt lat="42.87288" lon="0.20535">
        <ele>2314</ele>
        <time>2015-08-16T15:17:24Z</time>
      </trkpt>
      <trkpt lat="42.87285" lon="0.20533">
        <ele>2314</ele>
        <time>2015-08-16T15:17:30Z</time>
      </trkpt>
      <trkpt lat="42.87281" lon="0.20534">
        <ele>2316</ele>
        <time>2015-08-16T15:17:36Z</time>
      </trkpt>
      <trkpt lat="42.87279" lon="0.20538">
        <ele>2317</ele>
        <time>2015-08-16T15:17:41Z</time>
      </trkpt>
      <trkpt lat="42.87277" lon="0.2054">
        <ele>2317</ele>
        <time>2015-08-16T15:17:46Z</time>
      </trkpt>
      <trkpt lat="42.87275" lon="0.20542">
        <ele>2318</ele>
        <time>2015-08-16T15:17:51Z</time>
      </trkpt>
      <trkpt lat="42.87274" lon="0.20546">
        <ele>2319</ele>
        <time>2015-08-16T15:17:56Z</time>
      </trkpt>
      <trkpt lat="42.87271" lon="0.20549">
        <ele>2320</ele>
        <time>2015-08-16T15:18:02Z</time>
      </trkpt>
      <trkpt lat="42.87269" lon="0.20552">
        <ele>2320</ele>
        <time>2015-08-16T15:18:07Z</time>
      </trkpt>
      <trkpt lat="42.87265" lon="0.20551">
        <ele>2320</ele>
        <time>2015-08-16T15:18:13Z</time>
      </trkpt>
      <trkpt lat="42.87261" lon="0.20546">
        <ele>2319</ele>
        <time>2015-08-16T15:18:18Z</time>
      </trkpt>
      <trkpt lat="42.87257" lon="0.20542">
        <ele>2320</ele>
        <time>2015-08-16T15:18:23Z</time>
      </trkpt>
      <trkpt lat="42.87253" lon="0.20539">
        <ele>2320</ele>
        <time>2015-08-16T15:18:28Z</time>
      </trkpt>
      <trkpt lat="42.87249" lon="0.20536">
        <ele>2319</ele>
        <time>2015-08-16T15:18:33Z</time>
      </trkpt>
      <trkpt lat="42.87243" lon="0.20536">
        <ele>2320</ele>
        <time>2015-08-16T15:18:39Z</time>
      </trkpt>
      <trkpt lat="42.87238" lon="0.20533">
        <ele>2320</ele>
        <time>2015-08-16T15:18:44Z</time>
      </trkpt>
      <trkpt lat="42.87232" lon="0.20529">
        <ele>2320</ele>
        <time>2015-08-16T15:18:50Z</time>
      </trkpt>
      <trkpt lat="42.87228" lon="0.20524">
        <ele>2321</ele>
        <time>2015-08-16T15:18:56Z</time>
      </trkpt>
      <trkpt lat="42.87223" lon="0.20524">
        <ele>2321</ele>
        <time>2015-08-16T15:19:01Z</time>
      </trkpt>
      <trkpt lat="42.87216" lon="0.20525">
        <ele>2321</ele>
        <time>2015-08-16T15:19:07Z</time>
      </trkpt>
      <trkpt lat="42.87211" lon="0.20526">
        <ele>2321</ele>
        <time>2015-08-16T15:19:12Z</time>
      </trkpt>
      <trkpt lat="42.87204" lon="0.20527">
        <ele>2321</ele>
        <time>2015-08-16T15:19:18Z</time>
      </trkpt>
      <trkpt lat="42.87198" lon="0.20532">
        <ele>2320</ele>
        <time>2015-08-16T15:19:24Z</time>
      </trkpt>
      <trkpt lat="42.87192" lon="0.20537">
        <ele>2320</ele>
        <time>2015-08-16T15:19:30Z</time>
      </trkpt>
      <trkpt lat="42.87186" lon="0.20539">
        <ele>2321</ele>
        <time>2015-08-16T15:19:36Z</time>
      </trkpt>
      <trkpt lat="42.8718" lon="0.20542">
        <ele>2321</ele>
        <time>2015-08-16T15:19:42Z</time>
      </trkpt>
      <trkpt lat="42.87175" lon="0.20543">
        <ele>2322</ele>
        <time>2015-08-16T15:19:47Z</time>
      </trkpt>
      <trkpt lat="42.8717" lon="0.20541">
        <ele>2322</ele>
        <time>2015-08-16T15:19:53Z</time>
      </trkpt>
      <trkpt lat="42.87166" lon="0.20537">
        <ele>2323</ele>
        <time>2015-08-16T15:19:59Z</time>
      </trkpt>
      <trkpt lat="42.87162" lon="0.20534">
        <ele>2323</ele>
        <time>2015-08-16T15:20:04Z</time>
      </trkpt>
      <trkpt lat="42.87157" lon="0.2053">
        <ele>2324</ele>
        <time>2015-08-16T15:20:10Z</time>
      </trkpt>
      <trkpt lat="42.87155" lon="0.20527">
        <ele>2324</ele>
        <time>2015-08-16T15:20:16Z</time>
      </trkpt>
      <trkpt lat="42.87153" lon="0.20528">
        <ele>2324</ele>
        <time>2015-08-16T15:20:21Z</time>
      </trkpt>
      <trkpt lat="42.87151" lon="0.2053">
        <ele>2324</ele>
        <time>2015-08-16T15:20:27Z</time>
      </trkpt>
      <trkpt lat="42.87144" lon="0.20535">
        <ele>2323</ele>
        <time>2015-08-16T15:20:33Z</time>
      </trkpt>
      <trkpt lat="42.87138" lon="0.2054">
        <ele>2323</ele>
        <time>2015-08-16T15:20:39Z</time>
      </trkpt>
      <trkpt lat="42.87133" lon="0.20543">
        <ele>2322</ele>
        <time>2015-08-16T15:20:44Z</time>
      </trkpt>
      <trkpt lat="42.87128" lon="0.20544">
        <ele>2322</ele>
        <time>2015-08-16T15:20:49Z</time>
      </trkpt>
      <trkpt lat="42.87121" lon="0.20542">
        <ele>2322</ele>
        <time>2015-08-16T15:20:55Z</time>
      </trkpt>
      <trkpt lat="42.87115" lon="0.20543">
        <ele>2322</ele>
        <time>2015-08-16T15:21:00Z</time>
      </trkpt>
      <trkpt lat="42.87108" lon="0.20543">
        <ele>2322</ele>
        <time>2015-08-16T15:21:06Z</time>
      </trkpt>
      <trkpt lat="42.87102" lon="0.20543">
        <ele>2322</ele>
        <time>2015-08-16T15:21:11Z</time>
      </trkpt>
      <trkpt lat="42.87097" lon="0.20546">
        <ele>2323</ele>
        <time>2015-08-16T15:21:17Z</time>
      </trkpt>
      <trkpt lat="42.87093" lon="0.20547">
        <ele>2323</ele>
        <time>2015-08-16T15:21:23Z</time>
      </trkpt>
      <trkpt lat="42.87093" lon="0.20546">
        <ele>2324</ele>
        <time>2015-08-16T15:21:28Z</time>
      </trkpt>
      <trkpt lat="42.87093" lon="0.20546">
        <ele>2324</ele>
        <time>2015-08-16T15:21:36Z</time>
      </trkpt>
      <trkpt lat="42.87093" lon="0.20546">
        <ele>2324</ele>
        <time>2015-08-16T15:21:43Z</time>
      </trkpt>
      <trkpt lat="42.87093" lon="0.20547">
        <ele>2324</ele>
        <time>2015-08-16T15:21:51Z</time>
      </trkpt>
      <trkpt lat="42.87091" lon="0.20546">
        <ele>2324</ele>
        <time>2015-08-16T15:21:56Z</time>
      </trkpt>
      <trkpt lat="42.87088" lon="0.20544">
        <ele>2324</ele>
        <time>2015-08-16T15:22:02Z</time>
      </trkpt>
      <trkpt lat="42.87086" lon="0.20541">
        <ele>2325</ele>
        <time>2015-08-16T15:22:07Z</time>
      </trkpt>
      <trkpt lat="42.87086" lon="0.2054">
        <ele>2325</ele>
        <time>2015-08-16T15:22:14Z</time>
      </trkpt>
      <trkpt lat="42.87086" lon="0.2054">
        <ele>2325</ele>
        <time>2015-08-16T15:22:22Z</time>
      </trkpt>
      <trkpt lat="42.87087" lon="0.2054">
        <ele>2324</ele>
        <time>2015-08-16T15:22:32Z</time>
      </trkpt>
      <trkpt lat="42.87086" lon="0.2054">
        <ele>2324</ele>
        <time>2015-08-16T15:22:37Z</time>
      </trkpt>
      <trkpt lat="42.87086" lon="0.2054">
        <ele>2324</ele>
        <time>2015-08-16T15:22:43Z</time>
      </trkpt>
      <trkpt lat="42.87086" lon="0.2054">
        <ele>2325</ele>
        <time>2015-08-16T15:22:48Z</time>
      </trkpt>
      <trkpt lat="42.87085" lon="0.20539">
        <ele>2323</ele>
        <time>2015-08-16T15:22:55Z</time>
      </trkpt>
      <trkpt lat="42.87084" lon="0.20539">
        <ele>2324</ele>
        <time>2015-08-16T15:23:01Z</time>
      </trkpt>
      <trkpt lat="42.87084" lon="0.20538">
        <ele>2324</ele>
        <time>2015-08-16T15:23:08Z</time>
      </trkpt>
      <trkpt lat="42.87084" lon="0.20538">
        <ele>2324</ele>
        <time>2015-08-16T15:23:17Z</time>
      </trkpt>
      <trkpt lat="42.87084" lon="0.20538">
        <ele>2324</ele>
        <time>2015-08-16T15:23:30Z</time>
      </trkpt>
      <trkpt lat="42.87084" lon="0.20538">
        <ele>2324</ele>
        <time>2015-08-16T15:23:37Z</time>
      </trkpt>
      <trkpt lat="42.87084" lon="0.20538">
        <ele>2324</ele>
        <time>2015-08-16T15:23:43Z</time>
      </trkpt>
      <trkpt lat="42.87084" lon="0.20539">
        <ele>2324</ele>
        <time>2015-08-16T15:23:50Z</time>
      </trkpt>
      <trkpt lat="42.87084" lon="0.20539">
        <ele>2323</ele>
        <time>2015-08-16T15:23:57Z</time>
      </trkpt>
      <trkpt lat="42.87084" lon="0.20539">
        <ele>2323</ele>
        <time>2015-08-16T15:24:04Z</time>
      </trkpt>
      <trkpt lat="42.87084" lon="0.20539">
        <ele>2323</ele>
        <time>2015-08-16T15:24:13Z</time>
      </trkpt>
      <trkpt lat="42.87084" lon="0.20539">
        <ele>2324</ele>
        <time>2015-08-16T15:24:20Z</time>
      </trkpt>
      <trkpt lat="42.87084" lon="0.20538">
        <ele>2324</ele>
        <time>2015-08-16T15:24:25Z</time>
      </trkpt>
      <trkpt lat="42.87084" lon="0.20538">
        <ele>2323</ele>
        <time>2015-08-16T15:24:36Z</time>
      </trkpt>
      <trkpt lat="42.87084" lon="0.20538">
        <ele>2323</ele>
        <time>2015-08-16T15:24:41Z</time>
      </trkpt>
      <trkpt lat="42.87084" lon="0.20538">
        <ele>2324</ele>
        <time>2015-08-16T15:24:48Z</time>
      </trkpt>
      <trkpt lat="42.87085" lon="0.20539">
        <ele>2323</ele>
        <time>2015-08-16T15:24:57Z</time>
      </trkpt>
      <trkpt lat="42.87085" lon="0.20539">
        <ele>2324</ele>
        <time>2015-08-16T15:25:09Z</time>
      </trkpt>
      <trkpt lat="42.87085" lon="0.20539">
        <ele>2324</ele>
        <time>2015-08-16T15:25:23Z</time>
      </trkpt>
      <trkpt lat="42.87085" lon="0.20539">
        <ele>2324</ele>
        <time>2015-08-16T15:25:29Z</time>
      </trkpt>
      <trkpt lat="42.87085" lon="0.20538">
        <ele>2324</ele>
        <time>2015-08-16T15:25:37Z</time>
      </trkpt>
      <trkpt lat="42.87084" lon="0.20538">
        <ele>2324</ele>
        <time>2015-08-16T15:25:42Z</time>
      </trkpt>
      <trkpt lat="42.87084" lon="0.20538">
        <ele>2324</ele>
        <time>2015-08-16T15:25:48Z</time>
      </trkpt>
      <trkpt lat="42.87084" lon="0.20538">
        <ele>2324</ele>
        <time>2015-08-16T15:26:04Z</time>
      </trkpt>
      <trkpt lat="42.87084" lon="0.20538">
        <ele>2324</ele>
        <time>2015-08-16T15:26:13Z</time>
      </trkpt>
      <trkpt lat="42.87085" lon="0.20538">
        <ele>2324</ele>
        <time>2015-08-16T15:26:19Z</time>
      </trkpt>
      <trkpt lat="42.87085" lon="0.20539">
        <ele>2324</ele>
        <time>2015-08-16T15:26:25Z</time>
      </trkpt>
      <trkpt lat="42.87085" lon="0.20539">
        <ele>2324</ele>
        <time>2015-08-16T15:26:32Z</time>
      </trkpt>
      <trkpt lat="42.87085" lon="0.20539">
        <ele>2324</ele>
        <time>2015-08-16T15:26:40Z</time>
      </trkpt>
      <trkpt lat="42.87085" lon="0.20539">
        <ele>2323</ele>
        <time>2015-08-16T15:26:53Z</time>
      </trkpt>
      <trkpt lat="42.87085" lon="0.20539">
        <ele>2323</ele>
        <time>2015-08-16T15:27:00Z</time>
      </trkpt>
      <trkpt lat="42.87085" lon="0.20539">
        <ele>2324</ele>
        <time>2015-08-16T15:27:07Z</time>
      </trkpt>
      <trkpt lat="42.87085" lon="0.20539">
        <ele>2324</ele>
        <time>2015-08-16T15:27:28Z</time>
      </trkpt>
      <trkpt lat="42.87085" lon="0.20539">
        <ele>2324</ele>
        <time>2015-08-16T15:27:40Z</time>
      </trkpt>
      <trkpt lat="42.87085" lon="0.20539">
        <ele>2323</ele>
        <time>2015-08-16T15:27:49Z</time>
      </trkpt>
      <trkpt lat="42.87085" lon="0.20539">
        <ele>2324</ele>
        <time>2015-08-16T15:28:01Z</time>
      </trkpt>
      <trkpt lat="42.87085" lon="0.2054">
        <ele>2323</ele>
        <time>2015-08-16T15:28:16Z</time>
      </trkpt>
      <trkpt lat="42.87085" lon="0.2054">
        <ele>2324</ele>
        <time>2015-08-16T15:28:22Z</time>
      </trkpt>
      <trkpt lat="42.87085" lon="0.2054">
        <ele>2324</ele>
        <time>2015-08-16T15:28:27Z</time>
      </trkpt>
      <trkpt lat="42.87085" lon="0.20539">
        <ele>2323</ele>
        <time>2015-08-16T15:28:33Z</time>
      </trkpt>
      <trkpt lat="42.87085" lon="0.20541">
        <ele>2324</ele>
        <time>2015-08-16T15:28:38Z</time>
      </trkpt>
      <trkpt lat="42.87084" lon="0.20548">
        <ele>2324</ele>
        <time>2015-08-16T15:28:43Z</time>
      </trkpt>
      <trkpt lat="42.8708" lon="0.20555">
        <ele>2323</ele>
        <time>2015-08-16T15:28:49Z</time>
      </trkpt>
      <trkpt lat="42.87075" lon="0.20561">
        <ele>2323</ele>
        <time>2015-08-16T15:28:55Z</time>
      </trkpt>
      <trkpt lat="42.8707" lon="0.20566">
        <ele>2323</ele>
        <time>2015-08-16T15:29:00Z</time>
      </trkpt>
      <trkpt lat="42.87067" lon="0.20572">
        <ele>2323</ele>
        <time>2015-08-16T15:29:05Z</time>
      </trkpt>
      <trkpt lat="42.87061" lon="0.20578">
        <ele>2322</ele>
        <time>2015-08-16T15:29:11Z</time>
      </trkpt>
      <trkpt lat="42.87055" lon="0.20578">
        <ele>2322</ele>
        <time>2015-08-16T15:29:16Z</time>
      </trkpt>
      <trkpt lat="42.87048" lon="0.2058">
        <ele>2322</ele>
        <time>2015-08-16T15:29:22Z</time>
      </trkpt>
      <trkpt lat="42.87043" lon="0.20582">
        <ele>2321</ele>
        <time>2015-08-16T15:29:27Z</time>
      </trkpt>
      <trkpt lat="42.87037" lon="0.20586">
        <ele>2321</ele>
        <time>2015-08-16T15:29:33Z</time>
      </trkpt>
      <trkpt lat="42.87033" lon="0.20592">
        <ele>2321</ele>
        <time>2015-08-16T15:29:38Z</time>
      </trkpt>
      <trkpt lat="42.8703" lon="0.20598">
        <ele>2321</ele>
        <time>2015-08-16T15:29:44Z</time>
      </trkpt>
      <trkpt lat="42.87028" lon="0.20603">
        <ele>2322</ele>
        <time>2015-08-16T15:29:49Z</time>
      </trkpt>
      <trkpt lat="42.87029" lon="0.2061">
        <ele>2322</ele>
        <time>2015-08-16T15:29:55Z</time>
      </trkpt>
      <trkpt lat="42.87028" lon="0.20618">
        <ele>2322</ele>
        <time>2015-08-16T15:30:01Z</time>
      </trkpt>
      <trkpt lat="42.87025" lon="0.20621">
        <ele>2322</ele>
        <time>2015-08-16T15:30:06Z</time>
      </trkpt>
      <trkpt lat="42.87022" lon="0.20624">
        <ele>2323</ele>
        <time>2015-08-16T15:30:11Z</time>
      </trkpt>
      <trkpt lat="42.87016" lon="0.20625">
        <ele>2324</ele>
        <time>2015-08-16T15:30:17Z</time>
      </trkpt>
      <trkpt lat="42.87011" lon="0.20628">
        <ele>2324</ele>
        <time>2015-08-16T15:30:22Z</time>
      </trkpt>
      <trkpt lat="42.87007" lon="0.20636">
        <ele>2324</ele>
        <time>2015-08-16T15:30:28Z</time>
      </trkpt>
      <trkpt lat="42.87004" lon="0.20643">
        <ele>2324</ele>
        <time>2015-08-16T15:30:33Z</time>
      </trkpt>
      <trkpt lat="42.87" lon="0.20649">
        <ele>2323</ele>
        <time>2015-08-16T15:30:38Z</time>
      </trkpt>
      <trkpt lat="42.86996" lon="0.20655">
        <ele>2323</ele>
        <time>2015-08-16T15:30:43Z</time>
      </trkpt>
      <trkpt lat="42.86991" lon="0.2066">
        <ele>2323</ele>
        <time>2015-08-16T15:30:49Z</time>
      </trkpt>
      <trkpt lat="42.86987" lon="0.20663">
        <ele>2323</ele>
        <time>2015-08-16T15:30:54Z</time>
      </trkpt>
      <trkpt lat="42.86983" lon="0.20668">
        <ele>2324</ele>
        <time>2015-08-16T15:30:59Z</time>
      </trkpt>
      <trkpt lat="42.86979" lon="0.20674">
        <ele>2325</ele>
        <time>2015-08-16T15:31:05Z</time>
      </trkpt>
      <trkpt lat="42.86976" lon="0.20682">
        <ele>2325</ele>
        <time>2015-08-16T15:31:11Z</time>
      </trkpt>
      <trkpt lat="42.86974" lon="0.20689">
        <ele>2326</ele>
        <time>2015-08-16T15:31:17Z</time>
      </trkpt>
      <trkpt lat="42.86971" lon="0.20695">
        <ele>2327</ele>
        <time>2015-08-16T15:31:22Z</time>
      </trkpt>
      <trkpt lat="42.86967" lon="0.20702">
        <ele>2327</ele>
        <time>2015-08-16T15:31:28Z</time>
      </trkpt>
      <trkpt lat="42.86963" lon="0.20707">
        <ele>2328</ele>
        <time>2015-08-16T15:31:33Z</time>
      </trkpt>
      <trkpt lat="42.86958" lon="0.20711">
        <ele>2328</ele>
        <time>2015-08-16T15:31:38Z</time>
      </trkpt>
      <trkpt lat="42.86952" lon="0.20713">
        <ele>2327</ele>
        <time>2015-08-16T15:31:43Z</time>
      </trkpt>
      <trkpt lat="42.86948" lon="0.20709">
        <ele>2327</ele>
        <time>2015-08-16T15:31:49Z</time>
      </trkpt>
      <trkpt lat="42.86943" lon="0.20707">
        <ele>2328</ele>
        <time>2015-08-16T15:31:54Z</time>
      </trkpt>
      <trkpt lat="42.8694" lon="0.20702">
        <ele>2328</ele>
        <time>2015-08-16T15:31:59Z</time>
      </trkpt>
      <trkpt lat="42.86937" lon="0.20697">
        <ele>2329</ele>
        <time>2015-08-16T15:32:05Z</time>
      </trkpt>
      <trkpt lat="42.86934" lon="0.20693">
        <ele>2330</ele>
        <time>2015-08-16T15:32:11Z</time>
      </trkpt>
      <trkpt lat="42.86932" lon="0.2069">
        <ele>2331</ele>
        <time>2015-08-16T15:32:17Z</time>
      </trkpt>
      <trkpt lat="42.86928" lon="0.20687">
        <ele>2333</ele>
        <time>2015-08-16T15:32:23Z</time>
      </trkpt>
      <trkpt lat="42.86925" lon="0.20687">
        <ele>2333</ele>
        <time>2015-08-16T15:32:29Z</time>
      </trkpt>
      <trkpt lat="42.86922" lon="0.20688">
        <ele>2334</ele>
        <time>2015-08-16T15:32:34Z</time>
      </trkpt>
      <trkpt lat="42.86918" lon="0.20689">
        <ele>2336</ele>
        <time>2015-08-16T15:32:40Z</time>
      </trkpt>
      <trkpt lat="42.86915" lon="0.20687">
        <ele>2337</ele>
        <time>2015-08-16T15:32:46Z</time>
      </trkpt>
      <trkpt lat="42.86912" lon="0.20686">
        <ele>2338</ele>
        <time>2015-08-16T15:32:51Z</time>
      </trkpt>
      <trkpt lat="42.86909" lon="0.20685">
        <ele>2339</ele>
        <time>2015-08-16T15:32:56Z</time>
      </trkpt>
      <trkpt lat="42.86907" lon="0.20685">
        <ele>2340</ele>
        <time>2015-08-16T15:33:01Z</time>
      </trkpt>
      <trkpt lat="42.86905" lon="0.20685">
        <ele>2340</ele>
        <time>2015-08-16T15:33:06Z</time>
      </trkpt>
      <trkpt lat="42.86902" lon="0.20684">
        <ele>2342</ele>
        <time>2015-08-16T15:33:12Z</time>
      </trkpt>
      <trkpt lat="42.86901" lon="0.2068">
        <ele>2343</ele>
        <time>2015-08-16T15:33:17Z</time>
      </trkpt>
      <trkpt lat="42.86898" lon="0.20678">
        <ele>2343</ele>
        <time>2015-08-16T15:33:23Z</time>
      </trkpt>
      <trkpt lat="42.86896" lon="0.20676">
        <ele>2344</ele>
        <time>2015-08-16T15:33:28Z</time>
      </trkpt>
      <trkpt lat="42.86893" lon="0.20674">
        <ele>2345</ele>
        <time>2015-08-16T15:33:34Z</time>
      </trkpt>
      <trkpt lat="42.86891" lon="0.20672">
        <ele>2346</ele>
        <time>2015-08-16T15:33:39Z</time>
      </trkpt>
      <trkpt lat="42.86889" lon="0.20675">
        <ele>2347</ele>
        <time>2015-08-16T15:33:45Z</time>
      </trkpt>
      <trkpt lat="42.86888" lon="0.20679">
        <ele>2348</ele>
        <time>2015-08-16T15:33:51Z</time>
      </trkpt>
      <trkpt lat="42.86887" lon="0.20683">
        <ele>2348</ele>
        <time>2015-08-16T15:33:57Z</time>
      </trkpt>
      <trkpt lat="42.86884" lon="0.20687">
        <ele>2350</ele>
        <time>2015-08-16T15:34:02Z</time>
      </trkpt>
      <trkpt lat="42.86882" lon="0.2069">
        <ele>2351</ele>
        <time>2015-08-16T15:34:07Z</time>
      </trkpt>
      <trkpt lat="42.86881" lon="0.20694">
        <ele>2352</ele>
        <time>2015-08-16T15:34:13Z</time>
      </trkpt>
      <trkpt lat="42.86879" lon="0.20697">
        <ele>2353</ele>
        <time>2015-08-16T15:34:18Z</time>
      </trkpt>
      <trkpt lat="42.86876" lon="0.20701">
        <ele>2353</ele>
        <time>2015-08-16T15:34:24Z</time>
      </trkpt>
      <trkpt lat="42.86874" lon="0.20706">
        <ele>2355</ele>
        <time>2015-08-16T15:34:29Z</time>
      </trkpt>
      <trkpt lat="42.86871" lon="0.20705">
        <ele>2355</ele>
        <time>2015-08-16T15:34:34Z</time>
      </trkpt>
      <trkpt lat="42.86869" lon="0.20707">
        <ele>2356</ele>
        <time>2015-08-16T15:34:40Z</time>
      </trkpt>
      <trkpt lat="42.86867" lon="0.2071">
        <ele>2358</ele>
        <time>2015-08-16T15:34:46Z</time>
      </trkpt>
      <trkpt lat="42.86866" lon="0.20712">
        <ele>2359</ele>
        <time>2015-08-16T15:34:51Z</time>
      </trkpt>
      <trkpt lat="42.86864" lon="0.20715">
        <ele>2360</ele>
        <time>2015-08-16T15:34:57Z</time>
      </trkpt>
      <trkpt lat="42.86862" lon="0.20716">
        <ele>2361</ele>
        <time>2015-08-16T15:35:02Z</time>
      </trkpt>
      <trkpt lat="42.8686" lon="0.20714">
        <ele>2362</ele>
        <time>2015-08-16T15:35:08Z</time>
      </trkpt>
      <trkpt lat="42.86859" lon="0.20711">
        <ele>2363</ele>
        <time>2015-08-16T15:35:13Z</time>
      </trkpt>
      <trkpt lat="42.86857" lon="0.20707">
        <ele>2364</ele>
        <time>2015-08-16T15:35:19Z</time>
      </trkpt>
      <trkpt lat="42.86855" lon="0.20709">
        <ele>2365</ele>
        <time>2015-08-16T15:35:24Z</time>
      </trkpt>
      <trkpt lat="42.86853" lon="0.2071">
        <ele>2366</ele>
        <time>2015-08-16T15:35:29Z</time>
      </trkpt>
      <trkpt lat="42.86851" lon="0.20713">
        <ele>2367</ele>
        <time>2015-08-16T15:35:35Z</time>
      </trkpt>
      <trkpt lat="42.8685" lon="0.20717">
        <ele>2368</ele>
        <time>2015-08-16T15:35:41Z</time>
      </trkpt>
      <trkpt lat="42.86847" lon="0.20719">
        <ele>2370</ele>
        <time>2015-08-16T15:35:47Z</time>
      </trkpt>
      <trkpt lat="42.86844" lon="0.20721">
        <ele>2371</ele>
        <time>2015-08-16T15:35:52Z</time>
      </trkpt>
      <trkpt lat="42.8684" lon="0.20719">
        <ele>2371</ele>
        <time>2015-08-16T15:35:58Z</time>
      </trkpt>
      <trkpt lat="42.86838" lon="0.20717">
        <ele>2372</ele>
        <time>2015-08-16T15:36:03Z</time>
      </trkpt>
      <trkpt lat="42.86833" lon="0.20717">
        <ele>2373</ele>
        <time>2015-08-16T15:36:09Z</time>
      </trkpt>
      <trkpt lat="42.86829" lon="0.20716">
        <ele>2374</ele>
        <time>2015-08-16T15:36:14Z</time>
      </trkpt>
      <trkpt lat="42.86825" lon="0.20717">
        <ele>2374</ele>
        <time>2015-08-16T15:36:20Z</time>
      </trkpt>
      <trkpt lat="42.86821" lon="0.20716">
        <ele>2375</ele>
        <time>2015-08-16T15:36:26Z</time>
      </trkpt>
      <trkpt lat="42.86817" lon="0.20716">
        <ele>2376</ele>
        <time>2015-08-16T15:36:32Z</time>
      </trkpt>
      <trkpt lat="42.86814" lon="0.20715">
        <ele>2377</ele>
        <time>2015-08-16T15:36:37Z</time>
      </trkpt>
      <trkpt lat="42.86809" lon="0.20713">
        <ele>2378</ele>
        <time>2015-08-16T15:36:43Z</time>
      </trkpt>
      <trkpt lat="42.86806" lon="0.20712">
        <ele>2379</ele>
        <time>2015-08-16T15:36:48Z</time>
      </trkpt>
      <trkpt lat="42.86804" lon="0.20714">
        <ele>2380</ele>
        <time>2015-08-16T15:36:53Z</time>
      </trkpt>
      <trkpt lat="42.868" lon="0.20714">
        <ele>2381</ele>
        <time>2015-08-16T15:36:59Z</time>
      </trkpt>
      <trkpt lat="42.86797" lon="0.20714">
        <ele>2383</ele>
        <time>2015-08-16T15:37:05Z</time>
      </trkpt>
      <trkpt lat="42.86794" lon="0.20712">
        <ele>2383</ele>
        <time>2015-08-16T15:37:11Z</time>
      </trkpt>
      <trkpt lat="42.86791" lon="0.20713">
        <ele>2385</ele>
        <time>2015-08-16T15:37:17Z</time>
      </trkpt>
      <trkpt lat="42.86787" lon="0.20711">
        <ele>2386</ele>
        <time>2015-08-16T15:37:23Z</time>
      </trkpt>
      <trkpt lat="42.86785" lon="0.20709">
        <ele>2387</ele>
        <time>2015-08-16T15:37:28Z</time>
      </trkpt>
      <trkpt lat="42.86783" lon="0.2071">
        <ele>2388</ele>
        <time>2015-08-16T15:37:33Z</time>
      </trkpt>
      <trkpt lat="42.8678" lon="0.20708">
        <ele>2389</ele>
        <time>2015-08-16T15:37:39Z</time>
      </trkpt>
      <trkpt lat="42.86777" lon="0.20706">
        <ele>2389</ele>
        <time>2015-08-16T15:37:44Z</time>
      </trkpt>
      <trkpt lat="42.86775" lon="0.20707">
        <ele>2390</ele>
        <time>2015-08-16T15:37:49Z</time>
      </trkpt>
      <trkpt lat="42.86773" lon="0.20708">
        <ele>2391</ele>
        <time>2015-08-16T15:37:54Z</time>
      </trkpt>
      <trkpt lat="42.8677" lon="0.20708">
        <ele>2393</ele>
        <time>2015-08-16T15:38:00Z</time>
      </trkpt>
      <trkpt lat="42.86767" lon="0.20709">
        <ele>2393</ele>
        <time>2015-08-16T15:38:05Z</time>
      </trkpt>
      <trkpt lat="42.86764" lon="0.20707">
        <ele>2394</ele>
        <time>2015-08-16T15:38:11Z</time>
      </trkpt>
      <trkpt lat="42.86761" lon="0.20706">
        <ele>2396</ele>
        <time>2015-08-16T15:38:17Z</time>
      </trkpt>
      <trkpt lat="42.86758" lon="0.20705">
        <ele>2396</ele>
        <time>2015-08-16T15:38:23Z</time>
      </trkpt>
      <trkpt lat="42.86755" lon="0.20703">
        <ele>2398</ele>
        <time>2015-08-16T15:38:29Z</time>
      </trkpt>
      <trkpt lat="42.86753" lon="0.20703">
        <ele>2398</ele>
        <time>2015-08-16T15:38:34Z</time>
      </trkpt>
      <trkpt lat="42.8675" lon="0.20702">
        <ele>2400</ele>
        <time>2015-08-16T15:38:40Z</time>
      </trkpt>
      <trkpt lat="42.86747" lon="0.207">
        <ele>2401</ele>
        <time>2015-08-16T15:38:45Z</time>
      </trkpt>
      <trkpt lat="42.86745" lon="0.20701">
        <ele>2403</ele>
        <time>2015-08-16T15:38:50Z</time>
      </trkpt>
      <trkpt lat="42.86742" lon="0.20702">
        <ele>2404</ele>
        <time>2015-08-16T15:38:56Z</time>
      </trkpt>
      <trkpt lat="42.86741" lon="0.20699">
        <ele>2405</ele>
        <time>2015-08-16T15:39:01Z</time>
      </trkpt>
      <trkpt lat="42.86739" lon="0.20699">
        <ele>2406</ele>
        <time>2015-08-16T15:39:06Z</time>
      </trkpt>
      <trkpt lat="42.86736" lon="0.20697">
        <ele>2406</ele>
        <time>2015-08-16T15:39:11Z</time>
      </trkpt>
      <trkpt lat="42.86734" lon="0.20695">
        <ele>2407</ele>
        <time>2015-08-16T15:39:16Z</time>
      </trkpt>
      <trkpt lat="42.86732" lon="0.20693">
        <ele>2408</ele>
        <time>2015-08-16T15:39:22Z</time>
      </trkpt>
      <trkpt lat="42.86731" lon="0.20692">
        <ele>2409</ele>
        <time>2015-08-16T15:39:27Z</time>
      </trkpt>
      <trkpt lat="42.86729" lon="0.20688">
        <ele>2409</ele>
        <time>2015-08-16T15:39:33Z</time>
      </trkpt>
      <trkpt lat="42.86728" lon="0.20689">
        <ele>2411</ele>
        <time>2015-08-16T15:39:39Z</time>
      </trkpt>
      <trkpt lat="42.86725" lon="0.20689">
        <ele>2412</ele>
        <time>2015-08-16T15:39:45Z</time>
      </trkpt>
      <trkpt lat="42.86726" lon="0.20689">
        <ele>2413</ele>
        <time>2015-08-16T15:39:50Z</time>
      </trkpt>
      <trkpt lat="42.86726" lon="0.20689">
        <ele>2413</ele>
        <time>2015-08-16T15:39:55Z</time>
      </trkpt>
      <trkpt lat="42.86726" lon="0.20686">
        <ele>2413</ele>
        <time>2015-08-16T15:40:01Z</time>
      </trkpt>
      <trkpt lat="42.86725" lon="0.20684">
        <ele>2414</ele>
        <time>2015-08-16T15:40:06Z</time>
      </trkpt>
      <trkpt lat="42.86723" lon="0.20682">
        <ele>2415</ele>
        <time>2015-08-16T15:40:12Z</time>
      </trkpt>
      <trkpt lat="42.86723" lon="0.2068">
        <ele>2416</ele>
        <time>2015-08-16T15:40:17Z</time>
      </trkpt>
      <trkpt lat="42.86722" lon="0.20677">
        <ele>2417</ele>
        <time>2015-08-16T15:40:22Z</time>
      </trkpt>
      <trkpt lat="42.86723" lon="0.20671">
        <ele>2418</ele>
        <time>2015-08-16T15:40:28Z</time>
      </trkpt>
      <trkpt lat="42.86723" lon="0.20664">
        <ele>2418</ele>
        <time>2015-08-16T15:40:33Z</time>
      </trkpt>
      <trkpt lat="42.86722" lon="0.20657">
        <ele>2419</ele>
        <time>2015-08-16T15:40:39Z</time>
      </trkpt>
      <trkpt lat="42.8672" lon="0.20651">
        <ele>2419</ele>
        <time>2015-08-16T15:40:44Z</time>
      </trkpt>
      <trkpt lat="42.86718" lon="0.20647">
        <ele>2420</ele>
        <time>2015-08-16T15:40:49Z</time>
      </trkpt>
      <trkpt lat="42.86716" lon="0.20643">
        <ele>2421</ele>
        <time>2015-08-16T15:40:54Z</time>
      </trkpt>
      <trkpt lat="42.86714" lon="0.2064">
        <ele>2421</ele>
        <time>2015-08-16T15:41:00Z</time>
      </trkpt>
      <trkpt lat="42.86712" lon="0.20638">
        <ele>2421</ele>
        <time>2015-08-16T15:41:05Z</time>
      </trkpt>
      <trkpt lat="42.86712" lon="0.20637">
        <ele>2421</ele>
        <time>2015-08-16T15:41:11Z</time>
      </trkpt>
      <trkpt lat="42.86712" lon="0.20637">
        <ele>2421</ele>
        <time>2015-08-16T15:41:16Z</time>
      </trkpt>
      <trkpt lat="42.86712" lon="0.20637">
        <ele>2421</ele>
        <time>2015-08-16T15:41:27Z</time>
      </trkpt>
      <trkpt lat="42.86712" lon="0.20637">
        <ele>2421</ele>
        <time>2015-08-16T15:41:32Z</time>
      </trkpt>
      <trkpt lat="42.86711" lon="0.20637">
        <ele>2420</ele>
        <time>2015-08-16T15:41:39Z</time>
      </trkpt>
      <trkpt lat="42.86711" lon="0.20637">
        <ele>2420</ele>
        <time>2015-08-16T15:41:52Z</time>
      </trkpt>
      <trkpt lat="42.86712" lon="0.20635">
        <ele>2420</ele>
        <time>2015-08-16T15:41:58Z</time>
      </trkpt>
      <trkpt lat="42.86713" lon="0.20635">
        <ele>2420</ele>
        <time>2015-08-16T15:42:05Z</time>
      </trkpt>
      <trkpt lat="42.86713" lon="0.20635">
        <ele>2420</ele>
        <time>2015-08-16T15:42:11Z</time>
      </trkpt>
      <trkpt lat="42.86713" lon="0.20635">
        <ele>2420</ele>
        <time>2015-08-16T15:42:17Z</time>
      </trkpt>
      <trkpt lat="42.86714" lon="0.20635">
        <ele>2420</ele>
        <time>2015-08-16T15:42:22Z</time>
      </trkpt>
      <trkpt lat="42.86714" lon="0.20635">
        <ele>2421</ele>
        <time>2015-08-16T15:42:28Z</time>
      </trkpt>
      <trkpt lat="42.86715" lon="0.20635">
        <ele>2420</ele>
        <time>2015-08-16T15:42:34Z</time>
      </trkpt>
      <trkpt lat="42.86715" lon="0.20635">
        <ele>2420</ele>
        <time>2015-08-16T15:42:40Z</time>
      </trkpt>
      <trkpt lat="42.86715" lon="0.20635">
        <ele>2421</ele>
        <time>2015-08-16T15:42:45Z</time>
      </trkpt>
      <trkpt lat="42.86715" lon="0.20634">
        <ele>2421</ele>
        <time>2015-08-16T15:42:51Z</time>
      </trkpt>
      <trkpt lat="42.86715" lon="0.20634">
        <ele>2421</ele>
        <time>2015-08-16T15:42:56Z</time>
      </trkpt>
      <trkpt lat="42.86715" lon="0.20634">
        <ele>2420</ele>
        <time>2015-08-16T15:43:01Z</time>
      </trkpt>
      <trkpt lat="42.86715" lon="0.20633">
        <ele>2420</ele>
        <time>2015-08-16T15:43:07Z</time>
      </trkpt>
      <trkpt lat="42.86715" lon="0.20633">
        <ele>2421</ele>
        <time>2015-08-16T15:43:14Z</time>
      </trkpt>
      <trkpt lat="42.86715" lon="0.20632">
        <ele>2421</ele>
        <time>2015-08-16T15:43:21Z</time>
      </trkpt>
      <trkpt lat="42.86715" lon="0.20632">
        <ele>2421</ele>
        <time>2015-08-16T15:43:35Z</time>
      </trkpt>
      <trkpt lat="42.86715" lon="0.20632">
        <ele>2421</ele>
        <time>2015-08-16T15:43:40Z</time>
      </trkpt>
      <trkpt lat="42.86715" lon="0.20632">
        <ele>2421</ele>
        <time>2015-08-16T15:43:45Z</time>
      </trkpt>
      <trkpt lat="42.86715" lon="0.20632">
        <ele>2421</ele>
        <time>2015-08-16T15:43:52Z</time>
      </trkpt>
      <trkpt lat="42.86716" lon="0.20632">
        <ele>2421</ele>
        <time>2015-08-16T15:43:57Z</time>
      </trkpt>
      <trkpt lat="42.86716" lon="0.20632">
        <ele>2421</ele>
        <time>2015-08-16T15:44:07Z</time>
      </trkpt>
      <trkpt lat="42.86716" lon="0.20632">
        <ele>2421</ele>
        <time>2015-08-16T15:44:15Z</time>
      </trkpt>
      <trkpt lat="42.86716" lon="0.20632">
        <ele>2421</ele>
        <time>2015-08-16T15:44:22Z</time>
      </trkpt>
      <trkpt lat="42.86716" lon="0.20632">
        <ele>2421</ele>
        <time>2015-08-16T15:44:30Z</time>
      </trkpt>
      <trkpt lat="42.86716" lon="0.20632">
        <ele>2421</ele>
        <time>2015-08-16T15:44:36Z</time>
      </trkpt>
      <trkpt lat="42.86716" lon="0.20632">
        <ele>2421</ele>
        <time>2015-08-16T15:44:41Z</time>
      </trkpt>
      <trkpt lat="42.86715" lon="0.20632">
        <ele>2421</ele>
        <time>2015-08-16T15:44:52Z</time>
      </trkpt>
      <trkpt lat="42.86715" lon="0.20632">
        <ele>2420</ele>
        <time>2015-08-16T15:45:02Z</time>
      </trkpt>
      <trkpt lat="42.86715" lon="0.20632">
        <ele>2421</ele>
        <time>2015-08-16T15:45:08Z</time>
      </trkpt>
      <trkpt lat="42.86716" lon="0.20632">
        <ele>2420</ele>
        <time>2015-08-16T15:45:18Z</time>
      </trkpt>
      <trkpt lat="42.86716" lon="0.20631">
        <ele>2421</ele>
        <time>2015-08-16T15:45:23Z</time>
      </trkpt>
      <trkpt lat="42.86717" lon="0.20631">
        <ele>2421</ele>
        <time>2015-08-16T15:45:29Z</time>
      </trkpt>
      <trkpt lat="42.86717" lon="0.20631">
        <ele>2421</ele>
        <time>2015-08-16T15:45:35Z</time>
      </trkpt>
      <trkpt lat="42.86717" lon="0.20632">
        <ele>2421</ele>
        <time>2015-08-16T15:45:44Z</time>
      </trkpt>
      <trkpt lat="42.86716" lon="0.20632">
        <ele>2421</ele>
        <time>2015-08-16T15:45:49Z</time>
      </trkpt>
      <trkpt lat="42.86716" lon="0.20633">
        <ele>2421</ele>
        <time>2015-08-16T15:45:55Z</time>
      </trkpt>
      <trkpt lat="42.86716" lon="0.20633">
        <ele>2421</ele>
        <time>2015-08-16T15:46:01Z</time>
      </trkpt>
      <trkpt lat="42.86716" lon="0.20633">
        <ele>2421</ele>
        <time>2015-08-16T15:46:06Z</time>
      </trkpt>
      <trkpt lat="42.86716" lon="0.20633">
        <ele>2421</ele>
        <time>2015-08-16T15:46:12Z</time>
      </trkpt>
      <trkpt lat="42.86716" lon="0.20634">
        <ele>2421</ele>
        <time>2015-08-16T15:46:18Z</time>
      </trkpt>
      <trkpt lat="42.86716" lon="0.20634">
        <ele>2421</ele>
        <time>2015-08-16T15:46:24Z</time>
      </trkpt>
      <trkpt lat="42.86716" lon="0.20635">
        <ele>2421</ele>
        <time>2015-08-16T15:46:29Z</time>
      </trkpt>
      <trkpt lat="42.86717" lon="0.20635">
        <ele>2421</ele>
        <time>2015-08-16T15:46:34Z</time>
      </trkpt>
      <trkpt lat="42.86718" lon="0.20634">
        <ele>2421</ele>
        <time>2015-08-16T15:46:39Z</time>
      </trkpt>
      <trkpt lat="42.86718" lon="0.20634">
        <ele>2421</ele>
        <time>2015-08-16T15:46:45Z</time>
      </trkpt>
      <trkpt lat="42.86719" lon="0.20633">
        <ele>2421</ele>
        <time>2015-08-16T15:46:52Z</time>
      </trkpt>
      <trkpt lat="42.8672" lon="0.20633">
        <ele>2421</ele>
        <time>2015-08-16T15:46:59Z</time>
      </trkpt>
      <trkpt lat="42.8672" lon="0.20633">
        <ele>2421</ele>
        <time>2015-08-16T15:47:08Z</time>
      </trkpt>
      <trkpt lat="42.86721" lon="0.20633">
        <ele>2421</ele>
        <time>2015-08-16T15:47:14Z</time>
      </trkpt>
      <trkpt lat="42.86721" lon="0.20633">
        <ele>2421</ele>
        <time>2015-08-16T15:47:19Z</time>
      </trkpt>
      <trkpt lat="42.86721" lon="0.20633">
        <ele>2421</ele>
        <time>2015-08-16T15:47:25Z</time>
      </trkpt>
      <trkpt lat="42.86721" lon="0.20633">
        <ele>2421</ele>
        <time>2015-08-16T15:47:32Z</time>
      </trkpt>
      <trkpt lat="42.86721" lon="0.20633">
        <ele>2421</ele>
        <time>2015-08-16T15:47:38Z</time>
      </trkpt>
      <trkpt lat="42.86721" lon="0.20633">
        <ele>2421</ele>
        <time>2015-08-16T15:47:43Z</time>
      </trkpt>
      <trkpt lat="42.86721" lon="0.20633">
        <ele>2422</ele>
        <time>2015-08-16T15:47:49Z</time>
      </trkpt>
      <trkpt lat="42.8672" lon="0.20633">
        <ele>2421</ele>
        <time>2015-08-16T15:47:56Z</time>
      </trkpt>
      <trkpt lat="42.8672" lon="0.20633">
        <ele>2421</ele>
        <time>2015-08-16T15:48:02Z</time>
      </trkpt>
      <trkpt lat="42.8672" lon="0.20634">
        <ele>2421</ele>
        <time>2015-08-16T15:48:08Z</time>
      </trkpt>
      <trkpt lat="42.8672" lon="0.20634">
        <ele>2421</ele>
        <time>2015-08-16T15:48:13Z</time>
      </trkpt>
      <trkpt lat="42.86721" lon="0.20634">
        <ele>2421</ele>
        <time>2015-08-16T15:48:19Z</time>
      </trkpt>
      <trkpt lat="42.86721" lon="0.20633">
        <ele>2421</ele>
        <time>2015-08-16T15:48:24Z</time>
      </trkpt>
      <trkpt lat="42.86721" lon="0.20633">
        <ele>2421</ele>
        <time>2015-08-16T15:48:30Z</time>
      </trkpt>
      <trkpt lat="42.86721" lon="0.20634">
        <ele>2421</ele>
        <time>2015-08-16T15:48:36Z</time>
      </trkpt>
      <trkpt lat="42.8672" lon="0.20635">
        <ele>2420</ele>
        <time>2015-08-16T15:48:42Z</time>
      </trkpt>
      <trkpt lat="42.8672" lon="0.20635">
        <ele>2420</ele>
        <time>2015-08-16T15:48:48Z</time>
      </trkpt>
      <trkpt lat="42.86719" lon="0.20635">
        <ele>2420</ele>
        <time>2015-08-16T15:48:53Z</time>
      </trkpt>
      <trkpt lat="42.86718" lon="0.20635">
        <ele>2420</ele>
        <time>2015-08-16T15:48:58Z</time>
      </trkpt>
      <trkpt lat="42.86715" lon="0.20634">
        <ele>2420</ele>
        <time>2015-08-16T15:49:04Z</time>
      </trkpt>
      <trkpt lat="42.86711" lon="0.20636">
        <ele>2419</ele>
        <time>2015-08-16T15:49:10Z</time>
      </trkpt>
      <trkpt lat="42.86706" lon="0.20643">
        <ele>2417</ele>
        <time>2015-08-16T15:49:16Z</time>
      </trkpt>
      <trkpt lat="42.86701" lon="0.20642">
        <ele>2416</ele>
        <time>2015-08-16T15:49:21Z</time>
      </trkpt>
      <trkpt lat="42.86695" lon="0.20639">
        <ele>2414</ele>
        <time>2015-08-16T15:49:26Z</time>
      </trkpt>
      <trkpt lat="42.8669" lon="0.20641">
        <ele>2410</ele>
        <time>2015-08-16T15:49:32Z</time>
      </trkpt>
      <trkpt lat="42.8669" lon="0.20647">
        <ele>2409</ele>
        <time>2015-08-16T15:49:38Z</time>
      </trkpt>
      <trkpt lat="42.86689" lon="0.20652">
        <ele>2407</ele>
        <time>2015-08-16T15:49:43Z</time>
      </trkpt>
      <trkpt lat="42.86688" lon="0.20655">
        <ele>2406</ele>
        <time>2015-08-16T15:49:48Z</time>
      </trkpt>
      <trkpt lat="42.86686" lon="0.20653">
        <ele>2405</ele>
        <time>2015-08-16T15:49:53Z</time>
      </trkpt>
      <trkpt lat="42.86686" lon="0.2066">
        <ele>2403</ele>
        <time>2015-08-16T15:49:59Z</time>
      </trkpt>
      <trkpt lat="42.86684" lon="0.20662">
        <ele>2402</ele>
        <time>2015-08-16T15:50:05Z</time>
      </trkpt>
      <trkpt lat="42.86683" lon="0.20664">
        <ele>2401</ele>
        <time>2015-08-16T15:50:11Z</time>
      </trkpt>
      <trkpt lat="42.86682" lon="0.20665">
        <ele>2400</ele>
        <time>2015-08-16T15:50:17Z</time>
      </trkpt>
      <trkpt lat="42.86679" lon="0.20667">
        <ele>2399</ele>
        <time>2015-08-16T15:50:22Z</time>
      </trkpt>
      <trkpt lat="42.86677" lon="0.20673">
        <ele>2397</ele>
        <time>2015-08-16T15:50:28Z</time>
      </trkpt>
      <trkpt lat="42.86674" lon="0.20673">
        <ele>2395</ele>
        <time>2015-08-16T15:50:33Z</time>
      </trkpt>
      <trkpt lat="42.86671" lon="0.20667">
        <ele>2393</ele>
        <time>2015-08-16T15:50:38Z</time>
      </trkpt>
      <trkpt lat="42.86671" lon="0.20665">
        <ele>2392</ele>
        <time>2015-08-16T15:50:43Z</time>
      </trkpt>
      <trkpt lat="42.86668" lon="0.20666">
        <ele>2390</ele>
        <time>2015-08-16T15:50:49Z</time>
      </trkpt>
      <trkpt lat="42.86664" lon="0.20668">
        <ele>2387</ele>
        <time>2015-08-16T15:50:55Z</time>
      </trkpt>
      <trkpt lat="42.86662" lon="0.20671">
        <ele>2386</ele>
        <time>2015-08-16T15:51:01Z</time>
      </trkpt>
      <trkpt lat="42.8666" lon="0.20674">
        <ele>2384</ele>
        <time>2015-08-16T15:51:06Z</time>
      </trkpt>
      <trkpt lat="42.86657" lon="0.20678">
        <ele>2382</ele>
        <time>2015-08-16T15:51:12Z</time>
      </trkpt>
      <trkpt lat="42.86652" lon="0.2068">
        <ele>2380</ele>
        <time>2015-08-16T15:51:18Z</time>
      </trkpt>
      <trkpt lat="42.86648" lon="0.20683">
        <ele>2378</ele>
        <time>2015-08-16T15:51:25Z</time>
      </trkpt>
      <trkpt lat="42.86648" lon="0.20683">
        <ele>2378</ele>
        <time>2015-08-16T15:51:30Z</time>
      </trkpt>
      <trkpt lat="42.86644" lon="0.20683">
        <ele>2377</ele>
        <time>2015-08-16T15:51:35Z</time>
      </trkpt>
      <trkpt lat="42.86639" lon="0.20685">
        <ele>2376</ele>
        <time>2015-08-16T15:51:40Z</time>
      </trkpt>
      <trkpt lat="42.86631" lon="0.20687">
        <ele>2374</ele>
        <time>2015-08-16T15:51:46Z</time>
      </trkpt>
      <trkpt lat="42.86626" lon="0.20688">
        <ele>2372</ele>
        <time>2015-08-16T15:51:51Z</time>
      </trkpt>
      <trkpt lat="42.86623" lon="0.20687">
        <ele>2370</ele>
        <time>2015-08-16T15:51:56Z</time>
      </trkpt>
      <trkpt lat="42.8662" lon="0.20685">
        <ele>2369</ele>
        <time>2015-08-16T15:52:02Z</time>
      </trkpt>
      <trkpt lat="42.86616" lon="0.20684">
        <ele>2366</ele>
        <time>2015-08-16T15:52:08Z</time>
      </trkpt>
      <trkpt lat="42.86613" lon="0.20684">
        <ele>2365</ele>
        <time>2015-08-16T15:52:13Z</time>
      </trkpt>
      <trkpt lat="42.86613" lon="0.2068">
        <ele>2363</ele>
        <time>2015-08-16T15:52:18Z</time>
      </trkpt>
      <trkpt lat="42.8661" lon="0.20675">
        <ele>2361</ele>
        <time>2015-08-16T15:52:24Z</time>
      </trkpt>
      <trkpt lat="42.86605" lon="0.20675">
        <ele>2360</ele>
        <time>2015-08-16T15:52:29Z</time>
      </trkpt>
      <trkpt lat="42.86604" lon="0.20669">
        <ele>2358</ele>
        <time>2015-08-16T15:52:35Z</time>
      </trkpt>
      <trkpt lat="42.86599" lon="0.20667">
        <ele>2357</ele>
        <time>2015-08-16T15:52:40Z</time>
      </trkpt>
      <trkpt lat="42.86595" lon="0.20662">
        <ele>2356</ele>
        <time>2015-08-16T15:52:45Z</time>
      </trkpt>
      <trkpt lat="42.8659" lon="0.20662">
        <ele>2353</ele>
        <time>2015-08-16T15:52:50Z</time>
      </trkpt>
      <trkpt lat="42.86588" lon="0.20656">
        <ele>2351</ele>
        <time>2015-08-16T15:52:55Z</time>
      </trkpt>
      <trkpt lat="42.86581" lon="0.20654">
        <ele>2349</ele>
        <time>2015-08-16T15:53:01Z</time>
      </trkpt>
      <trkpt lat="42.86578" lon="0.20653">
        <ele>2346</ele>
        <time>2015-08-16T15:53:06Z</time>
      </trkpt>
      <trkpt lat="42.86572" lon="0.20652">
        <ele>2346</ele>
        <time>2015-08-16T15:53:12Z</time>
      </trkpt>
      <trkpt lat="42.86568" lon="0.20649">
        <ele>2344</ele>
        <time>2015-08-16T15:53:18Z</time>
      </trkpt>
      <trkpt lat="42.86563" lon="0.20649">
        <ele>2343</ele>
        <time>2015-08-16T15:53:24Z</time>
      </trkpt>
      <trkpt lat="42.8656" lon="0.20649">
        <ele>2341</ele>
        <time>2015-08-16T15:53:29Z</time>
      </trkpt>
      <trkpt lat="42.86558" lon="0.20648">
        <ele>2340</ele>
        <time>2015-08-16T15:53:34Z</time>
      </trkpt>
      <trkpt lat="42.86554" lon="0.20647">
        <ele>2338</ele>
        <time>2015-08-16T15:53:40Z</time>
      </trkpt>
      <trkpt lat="42.8655" lon="0.20649">
        <ele>2337</ele>
        <time>2015-08-16T15:53:45Z</time>
      </trkpt>
      <trkpt lat="42.86545" lon="0.20651">
        <ele>2336</ele>
        <time>2015-08-16T15:53:51Z</time>
      </trkpt>
      <trkpt lat="42.86541" lon="0.20654">
        <ele>2335</ele>
        <time>2015-08-16T15:53:56Z</time>
      </trkpt>
      <trkpt lat="42.86536" lon="0.20657">
        <ele>2334</ele>
        <time>2015-08-16T15:54:02Z</time>
      </trkpt>
      <trkpt lat="42.86531" lon="0.20655">
        <ele>2333</ele>
        <time>2015-08-16T15:54:08Z</time>
      </trkpt>
      <trkpt lat="42.86525" lon="0.20655">
        <ele>2332</ele>
        <time>2015-08-16T15:54:14Z</time>
      </trkpt>
      <trkpt lat="42.86523" lon="0.20659">
        <ele>2332</ele>
        <time>2015-08-16T15:54:19Z</time>
      </trkpt>
      <trkpt lat="42.86523" lon="0.20661">
        <ele>2333</ele>
        <time>2015-08-16T15:54:25Z</time>
      </trkpt>
      <trkpt lat="42.8652" lon="0.20662">
        <ele>2333</ele>
        <time>2015-08-16T15:54:31Z</time>
      </trkpt>
      <trkpt lat="42.86517" lon="0.20664">
        <ele>2333</ele>
        <time>2015-08-16T15:54:36Z</time>
      </trkpt>
      <trkpt lat="42.86513" lon="0.20667">
        <ele>2333</ele>
        <time>2015-08-16T15:54:41Z</time>
      </trkpt>
      <trkpt lat="42.86509" lon="0.20671">
        <ele>2333</ele>
        <time>2015-08-16T15:54:47Z</time>
      </trkpt>
      <trkpt lat="42.86506" lon="0.20675">
        <ele>2333</ele>
        <time>2015-08-16T15:54:52Z</time>
      </trkpt>
      <trkpt lat="42.86501" lon="0.20677">
        <ele>2333</ele>
        <time>2015-08-16T15:54:58Z</time>
      </trkpt>
      <trkpt lat="42.86497" lon="0.20678">
        <ele>2334</ele>
        <time>2015-08-16T15:55:04Z</time>
      </trkpt>
      <trkpt lat="42.86494" lon="0.20684">
        <ele>2334</ele>
        <time>2015-08-16T15:55:10Z</time>
      </trkpt>
      <trkpt lat="42.86492" lon="0.20688">
        <ele>2333</ele>
        <time>2015-08-16T15:55:15Z</time>
      </trkpt>
      <trkpt lat="42.86487" lon="0.20692">
        <ele>2333</ele>
        <time>2015-08-16T15:55:21Z</time>
      </trkpt>
      <trkpt lat="42.86485" lon="0.20697">
        <ele>2334</ele>
        <time>2015-08-16T15:55:26Z</time>
      </trkpt>
      <trkpt lat="42.8648" lon="0.20701">
        <ele>2333</ele>
        <time>2015-08-16T15:55:32Z</time>
      </trkpt>
      <trkpt lat="42.86476" lon="0.20704">
        <ele>2333</ele>
        <time>2015-08-16T15:55:37Z</time>
      </trkpt>
      <trkpt lat="42.86471" lon="0.20707">
        <ele>2334</ele>
        <time>2015-08-16T15:55:43Z</time>
      </trkpt>
      <trkpt lat="42.86465" lon="0.20706">
        <ele>2334</ele>
        <time>2015-08-16T15:55:48Z</time>
      </trkpt>
      <trkpt lat="42.8646" lon="0.20707">
        <ele>2334</ele>
        <time>2015-08-16T15:55:53Z</time>
      </trkpt>
      <trkpt lat="42.86455" lon="0.2071">
        <ele>2334</ele>
        <time>2015-08-16T15:55:59Z</time>
      </trkpt>
      <trkpt lat="42.86449" lon="0.2071">
        <ele>2333</ele>
        <time>2015-08-16T15:56:05Z</time>
      </trkpt>
      <trkpt lat="42.86443" lon="0.20709">
        <ele>2332</ele>
        <time>2015-08-16T15:56:11Z</time>
      </trkpt>
      <trkpt lat="42.86438" lon="0.20704">
        <ele>2331</ele>
        <time>2015-08-16T15:56:16Z</time>
      </trkpt>
      <trkpt lat="42.86431" lon="0.20705">
        <ele>2330</ele>
        <time>2015-08-16T15:56:22Z</time>
      </trkpt>
      <trkpt lat="42.86425" lon="0.20703">
        <ele>2330</ele>
        <time>2015-08-16T15:56:28Z</time>
      </trkpt>
      <trkpt lat="42.86419" lon="0.20701">
        <ele>2330</ele>
        <time>2015-08-16T15:56:33Z</time>
      </trkpt>
      <trkpt lat="42.86413" lon="0.20703">
        <ele>2329</ele>
        <time>2015-08-16T15:56:39Z</time>
      </trkpt>
      <trkpt lat="42.86408" lon="0.20701">
        <ele>2328</ele>
        <time>2015-08-16T15:56:45Z</time>
      </trkpt>
      <trkpt lat="42.86403" lon="0.20704">
        <ele>2327</ele>
        <time>2015-08-16T15:56:50Z</time>
      </trkpt>
      <trkpt lat="42.86398" lon="0.20704">
        <ele>2326</ele>
        <time>2015-08-16T15:56:55Z</time>
      </trkpt>
      <trkpt lat="42.86393" lon="0.20706">
        <ele>2326</ele>
        <time>2015-08-16T15:57:00Z</time>
      </trkpt>
      <trkpt lat="42.86388" lon="0.20705">
        <ele>2325</ele>
        <time>2015-08-16T15:57:06Z</time>
      </trkpt>
      <trkpt lat="42.86381" lon="0.20704">
        <ele>2324</ele>
        <time>2015-08-16T15:57:12Z</time>
      </trkpt>
      <trkpt lat="42.86375" lon="0.20705">
        <ele>2323</ele>
        <time>2015-08-16T15:57:17Z</time>
      </trkpt>
      <trkpt lat="42.8637" lon="0.2071">
        <ele>2322</ele>
        <time>2015-08-16T15:57:22Z</time>
      </trkpt>
      <trkpt lat="42.86365" lon="0.20714">
        <ele>2323</ele>
        <time>2015-08-16T15:57:28Z</time>
      </trkpt>
      <trkpt lat="42.86361" lon="0.20718">
        <ele>2323</ele>
        <time>2015-08-16T15:57:33Z</time>
      </trkpt>
      <trkpt lat="42.86356" lon="0.20723">
        <ele>2322</ele>
        <time>2015-08-16T15:57:39Z</time>
      </trkpt>
      <trkpt lat="42.86351" lon="0.20726">
        <ele>2322</ele>
        <time>2015-08-16T15:57:45Z</time>
      </trkpt>
      <trkpt lat="42.86347" lon="0.20729">
        <ele>2323</ele>
        <time>2015-08-16T15:57:51Z</time>
      </trkpt>
      <trkpt lat="42.86343" lon="0.20726">
        <ele>2322</ele>
        <time>2015-08-16T15:57:57Z</time>
      </trkpt>
      <trkpt lat="42.86338" lon="0.20727">
        <ele>2321</ele>
        <time>2015-08-16T15:58:02Z</time>
      </trkpt>
      <trkpt lat="42.86332" lon="0.20727">
        <ele>2321</ele>
        <time>2015-08-16T15:58:07Z</time>
      </trkpt>
      <trkpt lat="42.86327" lon="0.20724">
        <ele>2322</ele>
        <time>2015-08-16T15:58:13Z</time>
      </trkpt>
      <trkpt lat="42.86323" lon="0.20721">
        <ele>2322</ele>
        <time>2015-08-16T15:58:19Z</time>
      </trkpt>
      <trkpt lat="42.86319" lon="0.20719">
        <ele>2322</ele>
        <time>2015-08-16T15:58:24Z</time>
      </trkpt>
      <trkpt lat="42.86314" lon="0.20718">
        <ele>2322</ele>
        <time>2015-08-16T15:58:30Z</time>
      </trkpt>
      <trkpt lat="42.86309" lon="0.20719">
        <ele>2322</ele>
        <time>2015-08-16T15:58:35Z</time>
      </trkpt>
      <trkpt lat="42.86304" lon="0.20722">
        <ele>2322</ele>
        <time>2015-08-16T15:58:41Z</time>
      </trkpt>
      <trkpt lat="42.86303" lon="0.20727">
        <ele>2323</ele>
        <time>2015-08-16T15:58:47Z</time>
      </trkpt>
      <trkpt lat="42.86303" lon="0.20727">
        <ele>2324</ele>
        <time>2015-08-16T15:59:03Z</time>
      </trkpt>
      <trkpt lat="42.86303" lon="0.20727">
        <ele>2324</ele>
        <time>2015-08-16T15:59:16Z</time>
      </trkpt>
      <trkpt lat="42.86303" lon="0.20726">
        <ele>2324</ele>
        <time>2015-08-16T15:59:35Z</time>
      </trkpt>
      <trkpt lat="42.86303" lon="0.20727">
        <ele>2324</ele>
        <time>2015-08-16T15:59:42Z</time>
      </trkpt>
      <trkpt lat="42.86303" lon="0.20727">
        <ele>2323</ele>
        <time>2015-08-16T15:59:52Z</time>
      </trkpt>
      <trkpt lat="42.86303" lon="0.20727">
        <ele>2323</ele>
        <time>2015-08-16T16:00:00Z</time>
      </trkpt>
      <trkpt lat="42.86303" lon="0.20727">
        <ele>2323</ele>
        <time>2015-08-16T16:00:12Z</time>
      </trkpt>
      <trkpt lat="42.86303" lon="0.20727">
        <ele>2323</ele>
        <time>2015-08-16T16:00:21Z</time>
      </trkpt>
      <trkpt lat="42.86303" lon="0.20727">
        <ele>2324</ele>
        <time>2015-08-16T16:00:26Z</time>
      </trkpt>
      <trkpt lat="42.86302" lon="0.20727">
        <ele>2323</ele>
        <time>2015-08-16T16:00:33Z</time>
      </trkpt>
      <trkpt lat="42.86301" lon="0.20729">
        <ele>2323</ele>
        <time>2015-08-16T16:00:49Z</time>
      </trkpt>
      <trkpt lat="42.863" lon="0.20729">
        <ele>2323</ele>
        <time>2015-08-16T16:00:54Z</time>
      </trkpt>
      <trkpt lat="42.863" lon="0.20729">
        <ele>2322</ele>
        <time>2015-08-16T16:01:00Z</time>
      </trkpt>
      <trkpt lat="42.863" lon="0.20728">
        <ele>2322</ele>
        <time>2015-08-16T16:01:08Z</time>
      </trkpt>
      <trkpt lat="42.863" lon="0.20728">
        <ele>2322</ele>
        <time>2015-08-16T16:01:13Z</time>
      </trkpt>
      <trkpt lat="42.863" lon="0.20729">
        <ele>2323</ele>
        <time>2015-08-16T16:01:23Z</time>
      </trkpt>
      <trkpt lat="42.86301" lon="0.20728">
        <ele>2323</ele>
        <time>2015-08-16T16:01:32Z</time>
      </trkpt>
      <trkpt lat="42.86301" lon="0.20728">
        <ele>2323</ele>
        <time>2015-08-16T16:01:37Z</time>
      </trkpt>
      <trkpt lat="42.86301" lon="0.20729">
        <ele>2322</ele>
        <time>2015-08-16T16:01:49Z</time>
      </trkpt>
      <trkpt lat="42.86301" lon="0.20729">
        <ele>2322</ele>
        <time>2015-08-16T16:01:54Z</time>
      </trkpt>
      <trkpt lat="42.86301" lon="0.20729">
        <ele>2323</ele>
        <time>2015-08-16T16:02:03Z</time>
      </trkpt>
      <trkpt lat="42.86301" lon="0.20729">
        <ele>2322</ele>
        <time>2015-08-16T16:02:30Z</time>
      </trkpt>
      <trkpt lat="42.86301" lon="0.20729">
        <ele>2322</ele>
        <time>2015-08-16T16:02:36Z</time>
      </trkpt>
      <trkpt lat="42.86302" lon="0.20729">
        <ele>2322</ele>
        <time>2015-08-16T16:02:43Z</time>
      </trkpt>
      <trkpt lat="42.86303" lon="0.20729">
        <ele>2322</ele>
        <time>2015-08-16T16:02:49Z</time>
      </trkpt>
      <trkpt lat="42.86303" lon="0.20729">
        <ele>2322</ele>
        <time>2015-08-16T16:02:56Z</time>
      </trkpt>
      <trkpt lat="42.86303" lon="0.20729">
        <ele>2322</ele>
        <time>2015-08-16T16:03:02Z</time>
      </trkpt>
      <trkpt lat="42.86302" lon="0.20729">
        <ele>2322</ele>
        <time>2015-08-16T16:03:08Z</time>
      </trkpt>
      <trkpt lat="42.86298" lon="0.20727">
        <ele>2322</ele>
        <time>2015-08-16T16:03:13Z</time>
      </trkpt>
      <trkpt lat="42.86293" lon="0.20732">
        <ele>2320</ele>
        <time>2015-08-16T16:03:18Z</time>
      </trkpt>
      <trkpt lat="42.86289" lon="0.2073">
        <ele>2319</ele>
        <time>2015-08-16T16:03:24Z</time>
      </trkpt>
      <trkpt lat="42.86283" lon="0.20729">
        <ele>2318</ele>
        <time>2015-08-16T16:03:29Z</time>
      </trkpt>
      <trkpt lat="42.86277" lon="0.20726">
        <ele>2317</ele>
        <time>2015-08-16T16:03:35Z</time>
      </trkpt>
      <trkpt lat="42.86273" lon="0.2072">
        <ele>2317</ele>
        <time>2015-08-16T16:03:40Z</time>
      </trkpt>
      <trkpt lat="42.86267" lon="0.20716">
        <ele>2316</ele>
        <time>2015-08-16T16:03:45Z</time>
      </trkpt>
      <trkpt lat="42.86261" lon="0.20716">
        <ele>2314</ele>
        <time>2015-08-16T16:03:50Z</time>
      </trkpt>
      <trkpt lat="42.86253" lon="0.20715">
        <ele>2313</ele>
        <time>2015-08-16T16:03:57Z</time>
      </trkpt>
      <trkpt lat="42.86247" lon="0.2071">
        <ele>2312</ele>
        <time>2015-08-16T16:04:02Z</time>
      </trkpt>
      <trkpt lat="42.86242" lon="0.20708">
        <ele>2312</ele>
        <time>2015-08-16T16:04:08Z</time>
      </trkpt>
      <trkpt lat="42.86234" lon="0.20705">
        <ele>2311</ele>
        <time>2015-08-16T16:04:13Z</time>
      </trkpt>
      <trkpt lat="42.86229" lon="0.20702">
        <ele>2309</ele>
        <time>2015-08-16T16:04:19Z</time>
      </trkpt>
      <trkpt lat="42.86224" lon="0.20702">
        <ele>2308</ele>
        <time>2015-08-16T16:04:24Z</time>
      </trkpt>
      <trkpt lat="42.86218" lon="0.20701">
        <ele>2308</ele>
        <time>2015-08-16T16:04:29Z</time>
      </trkpt>
      <trkpt lat="42.86212" lon="0.20699">
        <ele>2309</ele>
        <time>2015-08-16T16:04:35Z</time>
      </trkpt>
      <trkpt lat="42.86206" lon="0.207">
        <ele>2309</ele>
        <time>2015-08-16T16:04:40Z</time>
      </trkpt>
      <trkpt lat="42.86201" lon="0.20702">
        <ele>2309</ele>
        <time>2015-08-16T16:04:46Z</time>
      </trkpt>
      <trkpt lat="42.86197" lon="0.20703">
        <ele>2309</ele>
        <time>2015-08-16T16:04:51Z</time>
      </trkpt>
      <trkpt lat="42.86192" lon="0.207">
        <ele>2310</ele>
        <time>2015-08-16T16:04:56Z</time>
      </trkpt>
      <trkpt lat="42.86189" lon="0.20699">
        <ele>2310</ele>
        <time>2015-08-16T16:05:02Z</time>
      </trkpt>
      <trkpt lat="42.86184" lon="0.20696">
        <ele>2310</ele>
        <time>2015-08-16T16:05:07Z</time>
      </trkpt>
      <trkpt lat="42.86179" lon="0.20695">
        <ele>2309</ele>
        <time>2015-08-16T16:05:13Z</time>
      </trkpt>
      <trkpt lat="42.86176" lon="0.20696">
        <ele>2308</ele>
        <time>2015-08-16T16:05:18Z</time>
      </trkpt>
      <trkpt lat="42.86171" lon="0.20692">
        <ele>2307</ele>
        <time>2015-08-16T16:05:23Z</time>
      </trkpt>
      <trkpt lat="42.86166" lon="0.20688">
        <ele>2307</ele>
        <time>2015-08-16T16:05:30Z</time>
      </trkpt>
      <trkpt lat="42.86162" lon="0.20684">
        <ele>2307</ele>
        <time>2015-08-16T16:05:36Z</time>
      </trkpt>
      <trkpt lat="42.86158" lon="0.20683">
        <ele>2307</ele>
        <time>2015-08-16T16:05:42Z</time>
      </trkpt>
      <trkpt lat="42.86155" lon="0.20678">
        <ele>2306</ele>
        <time>2015-08-16T16:05:48Z</time>
      </trkpt>
      <trkpt lat="42.86152" lon="0.20673">
        <ele>2305</ele>
        <time>2015-08-16T16:05:53Z</time>
      </trkpt>
      <trkpt lat="42.86148" lon="0.2067">
        <ele>2305</ele>
        <time>2015-08-16T16:05:58Z</time>
      </trkpt>
      <trkpt lat="42.86148" lon="0.20669">
        <ele>2305</ele>
        <time>2015-08-16T16:06:03Z</time>
      </trkpt>
      <trkpt lat="42.86148" lon="0.20667">
        <ele>2304</ele>
        <time>2015-08-16T16:06:09Z</time>
      </trkpt>
      <trkpt lat="42.86145" lon="0.20663">
        <ele>2304</ele>
        <time>2015-08-16T16:06:14Z</time>
      </trkpt>
      <trkpt lat="42.86142" lon="0.20662">
        <ele>2303</ele>
        <time>2015-08-16T16:06:20Z</time>
      </trkpt>
      <trkpt lat="42.86139" lon="0.20656">
        <ele>2302</ele>
        <time>2015-08-16T16:06:25Z</time>
      </trkpt>
      <trkpt lat="42.86135" lon="0.20655">
        <ele>2301</ele>
        <time>2015-08-16T16:06:31Z</time>
      </trkpt>
      <trkpt lat="42.86131" lon="0.20654">
        <ele>2299</ele>
        <time>2015-08-16T16:06:37Z</time>
      </trkpt>
      <trkpt lat="42.86127" lon="0.20652">
        <ele>2297</ele>
        <time>2015-08-16T16:06:43Z</time>
      </trkpt>
      <trkpt lat="42.86125" lon="0.2065">
        <ele>2296</ele>
        <time>2015-08-16T16:06:48Z</time>
      </trkpt>
      <trkpt lat="42.86121" lon="0.2065">
        <ele>2294</ele>
        <time>2015-08-16T16:06:54Z</time>
      </trkpt>
      <trkpt lat="42.86118" lon="0.20652">
        <ele>2292</ele>
        <time>2015-08-16T16:06:59Z</time>
      </trkpt>
      <trkpt lat="42.86117" lon="0.20658">
        <ele>2291</ele>
        <time>2015-08-16T16:07:04Z</time>
      </trkpt>
      <trkpt lat="42.86116" lon="0.20658">
        <ele>2290</ele>
        <time>2015-08-16T16:07:10Z</time>
      </trkpt>
      <trkpt lat="42.86115" lon="0.20663">
        <ele>2289</ele>
        <time>2015-08-16T16:07:15Z</time>
      </trkpt>
      <trkpt lat="42.86113" lon="0.20668">
        <ele>2287</ele>
        <time>2015-08-16T16:07:21Z</time>
      </trkpt>
      <trkpt lat="42.86109" lon="0.20675">
        <ele>2285</ele>
        <time>2015-08-16T16:07:26Z</time>
      </trkpt>
      <trkpt lat="42.86108" lon="0.20682">
        <ele>2283</ele>
        <time>2015-08-16T16:07:32Z</time>
      </trkpt>
      <trkpt lat="42.86106" lon="0.20689">
        <ele>2282</ele>
        <time>2015-08-16T16:07:37Z</time>
      </trkpt>
      <trkpt lat="42.86104" lon="0.20697">
        <ele>2280</ele>
        <time>2015-08-16T16:07:43Z</time>
      </trkpt>
      <trkpt lat="42.86101" lon="0.20704">
        <ele>2278</ele>
        <time>2015-08-16T16:07:48Z</time>
      </trkpt>
      <trkpt lat="42.86097" lon="0.20703">
        <ele>2275</ele>
        <time>2015-08-16T16:07:54Z</time>
      </trkpt>
      <trkpt lat="42.86093" lon="0.20702">
        <ele>2273</ele>
        <time>2015-08-16T16:08:00Z</time>
      </trkpt>
      <trkpt lat="42.86089" lon="0.20699">
        <ele>2271</ele>
        <time>2015-08-16T16:08:05Z</time>
      </trkpt>
      <trkpt lat="42.86084" lon="0.207">
        <ele>2269</ele>
        <time>2015-08-16T16:08:10Z</time>
      </trkpt>
      <trkpt lat="42.86078" lon="0.20703">
        <ele>2267</ele>
        <time>2015-08-16T16:08:16Z</time>
      </trkpt>
      <trkpt lat="42.86075" lon="0.20697">
        <ele>2265</ele>
        <time>2015-08-16T16:08:21Z</time>
      </trkpt>
      <trkpt lat="42.8607" lon="0.20691">
        <ele>2263</ele>
        <time>2015-08-16T16:08:26Z</time>
      </trkpt>
      <trkpt lat="42.86063" lon="0.20689">
        <ele>2261</ele>
        <time>2015-08-16T16:08:32Z</time>
      </trkpt>
      <trkpt lat="42.86055" lon="0.20688">
        <ele>2259</ele>
        <time>2015-08-16T16:08:37Z</time>
      </trkpt>
      <trkpt lat="42.86049" lon="0.20687">
        <ele>2257</ele>
        <time>2015-08-16T16:08:43Z</time>
      </trkpt>
      <trkpt lat="42.86042" lon="0.20689">
        <ele>2256</ele>
        <time>2015-08-16T16:08:48Z</time>
      </trkpt>
      <trkpt lat="42.86036" lon="0.20696">
        <ele>2255</ele>
        <time>2015-08-16T16:08:54Z</time>
      </trkpt>
      <trkpt lat="42.8603" lon="0.20698">
        <ele>2255</ele>
        <time>2015-08-16T16:08:59Z</time>
      </trkpt>
      <trkpt lat="42.86024" lon="0.20698">
        <ele>2254</ele>
        <time>2015-08-16T16:09:05Z</time>
      </trkpt>
      <trkpt lat="42.86018" lon="0.20692">
        <ele>2253</ele>
        <time>2015-08-16T16:09:10Z</time>
      </trkpt>
      <trkpt lat="42.86013" lon="0.20687">
        <ele>2252</ele>
        <time>2015-08-16T16:09:15Z</time>
      </trkpt>
      <trkpt lat="42.86007" lon="0.20684">
        <ele>2251</ele>
        <time>2015-08-16T16:09:20Z</time>
      </trkpt>
      <trkpt lat="42.86001" lon="0.20683">
        <ele>2251</ele>
        <time>2015-08-16T16:09:25Z</time>
      </trkpt>
      <trkpt lat="42.85994" lon="0.20685">
        <ele>2251</ele>
        <time>2015-08-16T16:09:32Z</time>
      </trkpt>
      <trkpt lat="42.85987" lon="0.20687">
        <ele>2251</ele>
        <time>2015-08-16T16:09:37Z</time>
      </trkpt>
      <trkpt lat="42.85982" lon="0.20692">
        <ele>2251</ele>
        <time>2015-08-16T16:09:42Z</time>
      </trkpt>
      <trkpt lat="42.85976" lon="0.20692">
        <ele>2250</ele>
        <time>2015-08-16T16:09:48Z</time>
      </trkpt>
      <trkpt lat="42.85971" lon="0.20693">
        <ele>2249</ele>
        <time>2015-08-16T16:09:53Z</time>
      </trkpt>
      <trkpt lat="42.85969" lon="0.20695">
        <ele>2248</ele>
        <time>2015-08-16T16:09:59Z</time>
      </trkpt>
      <trkpt lat="42.85963" lon="0.20696">
        <ele>2247</ele>
        <time>2015-08-16T16:10:05Z</time>
      </trkpt>
      <trkpt lat="42.85957" lon="0.20698">
        <ele>2245</ele>
        <time>2015-08-16T16:10:11Z</time>
      </trkpt>
      <trkpt lat="42.85952" lon="0.20703">
        <ele>2245</ele>
        <time>2015-08-16T16:10:16Z</time>
      </trkpt>
      <trkpt lat="42.85946" lon="0.20709">
        <ele>2244</ele>
        <time>2015-08-16T16:10:23Z</time>
      </trkpt>
      <trkpt lat="42.85941" lon="0.20716">
        <ele>2244</ele>
        <time>2015-08-16T16:10:28Z</time>
      </trkpt>
      <trkpt lat="42.85937" lon="0.2072">
        <ele>2244</ele>
        <time>2015-08-16T16:10:34Z</time>
      </trkpt>
      <trkpt lat="42.85932" lon="0.20724">
        <ele>2244</ele>
        <time>2015-08-16T16:10:39Z</time>
      </trkpt>
      <trkpt lat="42.85931" lon="0.20728">
        <ele>2243</ele>
        <time>2015-08-16T16:10:44Z</time>
      </trkpt>
      <trkpt lat="42.8593" lon="0.20735">
        <ele>2241</ele>
        <time>2015-08-16T16:10:50Z</time>
      </trkpt>
      <trkpt lat="42.85927" lon="0.2074">
        <ele>2240</ele>
        <time>2015-08-16T16:10:56Z</time>
      </trkpt>
      <trkpt lat="42.85922" lon="0.20746">
        <ele>2239</ele>
        <time>2015-08-16T16:11:02Z</time>
      </trkpt>
      <trkpt lat="42.85918" lon="0.2075">
        <ele>2239</ele>
        <time>2015-08-16T16:11:07Z</time>
      </trkpt>
      <trkpt lat="42.85913" lon="0.20756">
        <ele>2239</ele>
        <time>2015-08-16T16:11:12Z</time>
      </trkpt>
      <trkpt lat="42.85909" lon="0.20758">
        <ele>2240</ele>
        <time>2015-08-16T16:11:18Z</time>
      </trkpt>
      <trkpt lat="42.85904" lon="0.20759">
        <ele>2239</ele>
        <time>2015-08-16T16:11:24Z</time>
      </trkpt>
      <trkpt lat="42.85903" lon="0.20759">
        <ele>2239</ele>
        <time>2015-08-16T16:11:32Z</time>
      </trkpt>
      <trkpt lat="42.85903" lon="0.20759">
        <ele>2239</ele>
        <time>2015-08-16T16:11:38Z</time>
      </trkpt>
      <trkpt lat="42.85903" lon="0.20759">
        <ele>2240</ele>
        <time>2015-08-16T16:11:43Z</time>
      </trkpt>
      <trkpt lat="42.85903" lon="0.20759">
        <ele>2240</ele>
        <time>2015-08-16T16:11:50Z</time>
      </trkpt>
      <trkpt lat="42.85903" lon="0.20759">
        <ele>2239</ele>
        <time>2015-08-16T16:11:56Z</time>
      </trkpt>
      <trkpt lat="42.85903" lon="0.20759">
        <ele>2239</ele>
        <time>2015-08-16T16:12:03Z</time>
      </trkpt>
      <trkpt lat="42.85903" lon="0.20759">
        <ele>2239</ele>
        <time>2015-08-16T16:12:13Z</time>
      </trkpt>
      <trkpt lat="42.85903" lon="0.20759">
        <ele>2239</ele>
        <time>2015-08-16T16:12:19Z</time>
      </trkpt>
      <trkpt lat="42.85904" lon="0.20759">
        <ele>2240</ele>
        <time>2015-08-16T16:12:26Z</time>
      </trkpt>
      <trkpt lat="42.85903" lon="0.2076">
        <ele>2239</ele>
        <time>2015-08-16T16:12:32Z</time>
      </trkpt>
      <trkpt lat="42.85903" lon="0.20761">
        <ele>2240</ele>
        <time>2015-08-16T16:12:37Z</time>
      </trkpt>
      <trkpt lat="42.85902" lon="0.20761">
        <ele>2239</ele>
        <time>2015-08-16T16:12:48Z</time>
      </trkpt>
      <trkpt lat="42.85902" lon="0.20762">
        <ele>2239</ele>
        <time>2015-08-16T16:12:54Z</time>
      </trkpt>
      <trkpt lat="42.85902" lon="0.20762">
        <ele>2239</ele>
        <time>2015-08-16T16:12:59Z</time>
      </trkpt>
      <trkpt lat="42.85903" lon="0.20762">
        <ele>2239</ele>
        <time>2015-08-16T16:13:08Z</time>
      </trkpt>
      <trkpt lat="42.85903" lon="0.20762">
        <ele>2239</ele>
        <time>2015-08-16T16:13:13Z</time>
      </trkpt>
      <trkpt lat="42.85903" lon="0.20762">
        <ele>2239</ele>
        <time>2015-08-16T16:13:18Z</time>
      </trkpt>
      <trkpt lat="42.85903" lon="0.20762">
        <ele>2239</ele>
        <time>2015-08-16T16:13:24Z</time>
      </trkpt>
      <trkpt lat="42.85903" lon="0.20762">
        <ele>2238</ele>
        <time>2015-08-16T16:13:33Z</time>
      </trkpt>
      <trkpt lat="42.85903" lon="0.20762">
        <ele>2239</ele>
        <time>2015-08-16T16:13:51Z</time>
      </trkpt>
      <trkpt lat="42.85903" lon="0.20762">
        <ele>2239</ele>
        <time>2015-08-16T16:14:05Z</time>
      </trkpt>
      <trkpt lat="42.85903" lon="0.20762">
        <ele>2239</ele>
        <time>2015-08-16T16:14:12Z</time>
      </trkpt>
      <trkpt lat="42.85903" lon="0.20763">
        <ele>2239</ele>
        <time>2015-08-16T16:14:18Z</time>
      </trkpt>
      <trkpt lat="42.85903" lon="0.20763">
        <ele>2239</ele>
        <time>2015-08-16T16:14:29Z</time>
      </trkpt>
      <trkpt lat="42.85903" lon="0.20762">
        <ele>2239</ele>
        <time>2015-08-16T16:14:37Z</time>
      </trkpt>
      <trkpt lat="42.85902" lon="0.20762">
        <ele>2239</ele>
        <time>2015-08-16T16:14:43Z</time>
      </trkpt>
      <trkpt lat="42.85899" lon="0.20762">
        <ele>2239</ele>
        <time>2015-08-16T16:14:48Z</time>
      </trkpt>
      <trkpt lat="42.85894" lon="0.20762">
        <ele>2238</ele>
        <time>2015-08-16T16:14:54Z</time>
      </trkpt>
      <trkpt lat="42.85889" lon="0.20763">
        <ele>2237</ele>
        <time>2015-08-16T16:14:59Z</time>
      </trkpt>
      <trkpt lat="42.85884" lon="0.20764">
        <ele>2236</ele>
        <time>2015-08-16T16:15:04Z</time>
      </trkpt>
      <trkpt lat="42.85878" lon="0.20765">
        <ele>2234</ele>
        <time>2015-08-16T16:15:10Z</time>
      </trkpt>
      <trkpt lat="42.85874" lon="0.20764">
        <ele>2234</ele>
        <time>2015-08-16T16:15:16Z</time>
      </trkpt>
      <trkpt lat="42.85867" lon="0.20759">
        <ele>2234</ele>
        <time>2015-08-16T16:15:21Z</time>
      </trkpt>
      <trkpt lat="42.85863" lon="0.20754">
        <ele>2233</ele>
        <time>2015-08-16T16:15:26Z</time>
      </trkpt>
      <trkpt lat="42.85858" lon="0.2075">
        <ele>2232</ele>
        <time>2015-08-16T16:15:31Z</time>
      </trkpt>
      <trkpt lat="42.85852" lon="0.20749">
        <ele>2231</ele>
        <time>2015-08-16T16:15:37Z</time>
      </trkpt>
      <trkpt lat="42.85846" lon="0.20748">
        <ele>2230</ele>
        <time>2015-08-16T16:15:43Z</time>
      </trkpt>
      <trkpt lat="42.8584" lon="0.20747">
        <ele>2230</ele>
        <time>2015-08-16T16:15:49Z</time>
      </trkpt>
      <trkpt lat="42.85833" lon="0.20745">
        <ele>2231</ele>
        <time>2015-08-16T16:15:55Z</time>
      </trkpt>
      <trkpt lat="42.85828" lon="0.20743">
        <ele>2231</ele>
        <time>2015-08-16T16:16:00Z</time>
      </trkpt>
      <trkpt lat="42.85823" lon="0.2074">
        <ele>2231</ele>
        <time>2015-08-16T16:16:06Z</time>
      </trkpt>
      <trkpt lat="42.85817" lon="0.2074">
        <ele>2230</ele>
        <time>2015-08-16T16:16:12Z</time>
      </trkpt>
      <trkpt lat="42.85811" lon="0.20741">
        <ele>2229</ele>
        <time>2015-08-16T16:16:18Z</time>
      </trkpt>
      <trkpt lat="42.85806" lon="0.20743">
        <ele>2228</ele>
        <time>2015-08-16T16:16:23Z</time>
      </trkpt>
      <trkpt lat="42.85801" lon="0.20746">
        <ele>2228</ele>
        <time>2015-08-16T16:16:29Z</time>
      </trkpt>
      <trkpt lat="42.85795" lon="0.20748">
        <ele>2228</ele>
        <time>2015-08-16T16:16:34Z</time>
      </trkpt>
      <trkpt lat="42.85788" lon="0.20752">
        <ele>2227</ele>
        <time>2015-08-16T16:16:41Z</time>
      </trkpt>
      <trkpt lat="42.85782" lon="0.20754">
        <ele>2226</ele>
        <time>2015-08-16T16:16:46Z</time>
      </trkpt>
      <trkpt lat="42.85777" lon="0.20752">
        <ele>2226</ele>
        <time>2015-08-16T16:16:51Z</time>
      </trkpt>
      <trkpt lat="42.85771" lon="0.20747">
        <ele>2225</ele>
        <time>2015-08-16T16:16:57Z</time>
      </trkpt>
      <trkpt lat="42.85767" lon="0.20745">
        <ele>2224</ele>
        <time>2015-08-16T16:17:02Z</time>
      </trkpt>
      <trkpt lat="42.85763" lon="0.20749">
        <ele>2224</ele>
        <time>2015-08-16T16:17:07Z</time>
      </trkpt>
      <trkpt lat="42.85757" lon="0.20755">
        <ele>2224</ele>
        <time>2015-08-16T16:17:13Z</time>
      </trkpt>
      <trkpt lat="42.85752" lon="0.20758">
        <ele>2224</ele>
        <time>2015-08-16T16:17:18Z</time>
      </trkpt>
      <trkpt lat="42.85746" lon="0.20756">
        <ele>2224</ele>
        <time>2015-08-16T16:17:24Z</time>
      </trkpt>
      <trkpt lat="42.85743" lon="0.20752">
        <ele>2223</ele>
        <time>2015-08-16T16:17:29Z</time>
      </trkpt>
      <trkpt lat="42.85739" lon="0.20749">
        <ele>2221</ele>
        <time>2015-08-16T16:17:35Z</time>
      </trkpt>
      <trkpt lat="42.85734" lon="0.20747">
        <ele>2220</ele>
        <time>2015-08-16T16:17:41Z</time>
      </trkpt>
      <trkpt lat="42.85732" lon="0.20741">
        <ele>2218</ele>
        <time>2015-08-16T16:17:47Z</time>
      </trkpt>
      <trkpt lat="42.85727" lon="0.20739">
        <ele>2217</ele>
        <time>2015-08-16T16:17:52Z</time>
      </trkpt>
      <trkpt lat="42.85723" lon="0.20735">
        <ele>2216</ele>
        <time>2015-08-16T16:17:58Z</time>
      </trkpt>
      <trkpt lat="42.85719" lon="0.20739">
        <ele>2215</ele>
        <time>2015-08-16T16:18:03Z</time>
      </trkpt>
      <trkpt lat="42.85713" lon="0.20741">
        <ele>2213</ele>
        <time>2015-08-16T16:18:09Z</time>
      </trkpt>
      <trkpt lat="42.85708" lon="0.20743">
        <ele>2212</ele>
        <time>2015-08-16T16:18:14Z</time>
      </trkpt>
      <trkpt lat="42.85703" lon="0.20741">
        <ele>2212</ele>
        <time>2015-08-16T16:18:19Z</time>
      </trkpt>
      <trkpt lat="42.85698" lon="0.20741">
        <ele>2213</ele>
        <time>2015-08-16T16:18:24Z</time>
      </trkpt>
      <trkpt lat="42.85694" lon="0.20736">
        <ele>2213</ele>
        <time>2015-08-16T16:18:30Z</time>
      </trkpt>
      <trkpt lat="42.8569" lon="0.20733">
        <ele>2212</ele>
        <time>2015-08-16T16:18:36Z</time>
      </trkpt>
      <trkpt lat="42.85686" lon="0.20728">
        <ele>2211</ele>
        <time>2015-08-16T16:18:42Z</time>
      </trkpt>
      <trkpt lat="42.85682" lon="0.20724">
        <ele>2211</ele>
        <time>2015-08-16T16:18:47Z</time>
      </trkpt>
      <trkpt lat="42.8568" lon="0.2072">
        <ele>2210</ele>
        <time>2015-08-16T16:18:52Z</time>
      </trkpt>
      <trkpt lat="42.85678" lon="0.20722">
        <ele>2209</ele>
        <time>2015-08-16T16:18:57Z</time>
      </trkpt>
      <trkpt lat="42.85672" lon="0.20721">
        <ele>2207</ele>
        <time>2015-08-16T16:19:03Z</time>
      </trkpt>
      <trkpt lat="42.85664" lon="0.20723">
        <ele>2205</ele>
        <time>2015-08-16T16:19:09Z</time>
      </trkpt>
      <trkpt lat="42.85658" lon="0.20725">
        <ele>2204</ele>
        <time>2015-08-16T16:19:14Z</time>
      </trkpt>
      <trkpt lat="42.85653" lon="0.20727">
        <ele>2203</ele>
        <time>2015-08-16T16:19:20Z</time>
      </trkpt>
      <trkpt lat="42.85648" lon="0.20731">
        <ele>2203</ele>
        <time>2015-08-16T16:19:25Z</time>
      </trkpt>
      <trkpt lat="42.85644" lon="0.20733">
        <ele>2203</ele>
        <time>2015-08-16T16:19:31Z</time>
      </trkpt>
      <trkpt lat="42.85638" lon="0.2074">
        <ele>2202</ele>
        <time>2015-08-16T16:19:36Z</time>
      </trkpt>
      <trkpt lat="42.85634" lon="0.20743">
        <ele>2201</ele>
        <time>2015-08-16T16:19:41Z</time>
      </trkpt>
      <trkpt lat="42.85629" lon="0.20744">
        <ele>2201</ele>
        <time>2015-08-16T16:19:46Z</time>
      </trkpt>
      <trkpt lat="42.85623" lon="0.20747">
        <ele>2200</ele>
        <time>2015-08-16T16:19:51Z</time>
      </trkpt>
      <trkpt lat="42.85616" lon="0.20749">
        <ele>2200</ele>
        <time>2015-08-16T16:19:57Z</time>
      </trkpt>
      <trkpt lat="42.85614" lon="0.20749">
        <ele>2200</ele>
        <time>2015-08-16T16:20:04Z</time>
      </trkpt>
      <trkpt lat="42.8561" lon="0.20751">
        <ele>2200</ele>
        <time>2015-08-16T16:20:10Z</time>
      </trkpt>
      <trkpt lat="42.85606" lon="0.20754">
        <ele>2200</ele>
        <time>2015-08-16T16:20:15Z</time>
      </trkpt>
      <trkpt lat="42.85602" lon="0.20756">
        <ele>2200</ele>
        <time>2015-08-16T16:20:21Z</time>
      </trkpt>
      <trkpt lat="42.85598" lon="0.2076">
        <ele>2199</ele>
        <time>2015-08-16T16:20:26Z</time>
      </trkpt>
      <trkpt lat="42.85595" lon="0.20765">
        <ele>2198</ele>
        <time>2015-08-16T16:20:31Z</time>
      </trkpt>
      <trkpt lat="42.8559" lon="0.20771">
        <ele>2197</ele>
        <time>2015-08-16T16:20:37Z</time>
      </trkpt>
      <trkpt lat="42.85589" lon="0.20773">
        <ele>2197</ele>
        <time>2015-08-16T16:20:42Z</time>
      </trkpt>
      <trkpt lat="42.85585" lon="0.20777">
        <ele>2197</ele>
        <time>2015-08-16T16:20:48Z</time>
      </trkpt>
      <trkpt lat="42.85579" lon="0.20782">
        <ele>2197</ele>
        <time>2015-08-16T16:20:53Z</time>
      </trkpt>
      <trkpt lat="42.85575" lon="0.20788">
        <ele>2196</ele>
        <time>2015-08-16T16:20:58Z</time>
      </trkpt>
      <trkpt lat="42.85572" lon="0.20795">
        <ele>2195</ele>
        <time>2015-08-16T16:21:04Z</time>
      </trkpt>
      <trkpt lat="42.85568" lon="0.20804">
        <ele>2196</ele>
        <time>2015-08-16T16:21:10Z</time>
      </trkpt>
      <trkpt lat="42.85565" lon="0.20809">
        <ele>2196</ele>
        <time>2015-08-16T16:21:15Z</time>
      </trkpt>
      <trkpt lat="42.85561" lon="0.20813">
        <ele>2196</ele>
        <time>2015-08-16T16:21:20Z</time>
      </trkpt>
      <trkpt lat="42.85558" lon="0.20819">
        <ele>2197</ele>
        <time>2015-08-16T16:21:26Z</time>
      </trkpt>
      <trkpt lat="42.85555" lon="0.20823">
        <ele>2197</ele>
        <time>2015-08-16T16:21:31Z</time>
      </trkpt>
      <trkpt lat="42.8555" lon="0.20827">
        <ele>2197</ele>
        <time>2015-08-16T16:21:37Z</time>
      </trkpt>
      <trkpt lat="42.85546" lon="0.20828">
        <ele>2196</ele>
        <time>2015-08-16T16:21:42Z</time>
      </trkpt>
      <trkpt lat="42.85542" lon="0.20829">
        <ele>2195</ele>
        <time>2015-08-16T16:21:48Z</time>
      </trkpt>
      <trkpt lat="42.8554" lon="0.20833">
        <ele>2194</ele>
        <time>2015-08-16T16:21:53Z</time>
      </trkpt>
      <trkpt lat="42.85537" lon="0.20835">
        <ele>2192</ele>
        <time>2015-08-16T16:21:59Z</time>
      </trkpt>
      <trkpt lat="42.85536" lon="0.20843">
        <ele>2191</ele>
        <time>2015-08-16T16:22:04Z</time>
      </trkpt>
      <trkpt lat="42.85532" lon="0.20845">
        <ele>2190</ele>
        <time>2015-08-16T16:22:10Z</time>
      </trkpt>
      <trkpt lat="42.85527" lon="0.20849">
        <ele>2189</ele>
        <time>2015-08-16T16:22:15Z</time>
      </trkpt>
      <trkpt lat="42.85522" lon="0.20854">
        <ele>2188</ele>
        <time>2015-08-16T16:22:20Z</time>
      </trkpt>
      <trkpt lat="42.85519" lon="0.2086">
        <ele>2187</ele>
        <time>2015-08-16T16:22:26Z</time>
      </trkpt>
      <trkpt lat="42.85514" lon="0.20861">
        <ele>2186</ele>
        <time>2015-08-16T16:22:32Z</time>
      </trkpt>
      <trkpt lat="42.85511" lon="0.20862">
        <ele>2185</ele>
        <time>2015-08-16T16:22:38Z</time>
      </trkpt>
      <trkpt lat="42.85507" lon="0.20864">
        <ele>2184</ele>
        <time>2015-08-16T16:22:43Z</time>
      </trkpt>
      <trkpt lat="42.85502" lon="0.20866">
        <ele>2182</ele>
        <time>2015-08-16T16:22:49Z</time>
      </trkpt>
      <trkpt lat="42.85498" lon="0.20866">
        <ele>2181</ele>
        <time>2015-08-16T16:22:54Z</time>
      </trkpt>
      <trkpt lat="42.85495" lon="0.20867">
        <ele>2180</ele>
        <time>2015-08-16T16:22:59Z</time>
      </trkpt>
      <trkpt lat="42.85493" lon="0.20869">
        <ele>2179</ele>
        <time>2015-08-16T16:23:05Z</time>
      </trkpt>
      <trkpt lat="42.8549" lon="0.20872">
        <ele>2177</ele>
        <time>2015-08-16T16:23:11Z</time>
      </trkpt>
      <trkpt lat="42.85487" lon="0.20877">
        <ele>2175</ele>
        <time>2015-08-16T16:23:17Z</time>
      </trkpt>
      <trkpt lat="42.85483" lon="0.20873">
        <ele>2174</ele>
        <time>2015-08-16T16:23:23Z</time>
      </trkpt>
      <trkpt lat="42.8548" lon="0.20877">
        <ele>2172</ele>
        <time>2015-08-16T16:23:28Z</time>
      </trkpt>
      <trkpt lat="42.85476" lon="0.2088">
        <ele>2171</ele>
        <time>2015-08-16T16:23:34Z</time>
      </trkpt>
      <trkpt lat="42.8547" lon="0.20884">
        <ele>2168</ele>
        <time>2015-08-16T16:23:39Z</time>
      </trkpt>
      <trkpt lat="42.85465" lon="0.20887">
        <ele>2168</ele>
        <time>2015-08-16T16:23:44Z</time>
      </trkpt>
      <trkpt lat="42.8546" lon="0.20891">
        <ele>2168</ele>
        <time>2015-08-16T16:23:50Z</time>
      </trkpt>
      <trkpt lat="42.85456" lon="0.20895">
        <ele>2168</ele>
        <time>2015-08-16T16:23:55Z</time>
      </trkpt>
      <trkpt lat="42.85456" lon="0.20899">
        <ele>2167</ele>
        <time>2015-08-16T16:24:00Z</time>
      </trkpt>
      <trkpt lat="42.85456" lon="0.20903">
        <ele>2165</ele>
        <time>2015-08-16T16:24:05Z</time>
      </trkpt>
      <trkpt lat="42.85456" lon="0.20908">
        <ele>2164</ele>
        <time>2015-08-16T16:24:11Z</time>
      </trkpt>
      <trkpt lat="42.85455" lon="0.20915">
        <ele>2163</ele>
        <time>2015-08-16T16:24:16Z</time>
      </trkpt>
      <trkpt lat="42.85454" lon="0.20921">
        <ele>2162</ele>
        <time>2015-08-16T16:24:22Z</time>
      </trkpt>
      <trkpt lat="42.85454" lon="0.20924">
        <ele>2162</ele>
        <time>2015-08-16T16:24:27Z</time>
      </trkpt>
      <trkpt lat="42.85451" lon="0.20928">
        <ele>2162</ele>
        <time>2015-08-16T16:24:32Z</time>
      </trkpt>
      <trkpt lat="42.85448" lon="0.20934">
        <ele>2162</ele>
        <time>2015-08-16T16:24:38Z</time>
      </trkpt>
      <trkpt lat="42.85445" lon="0.20939">
        <ele>2163</ele>
        <time>2015-08-16T16:24:44Z</time>
      </trkpt>
      <trkpt lat="42.85442" lon="0.20943">
        <ele>2164</ele>
        <time>2015-08-16T16:24:49Z</time>
      </trkpt>
      <trkpt lat="42.85438" lon="0.20944">
        <ele>2165</ele>
        <time>2015-08-16T16:24:55Z</time>
      </trkpt>
      <trkpt lat="42.85435" lon="0.20945">
        <ele>2166</ele>
        <time>2015-08-16T16:25:00Z</time>
      </trkpt>
      <trkpt lat="42.85431" lon="0.20947">
        <ele>2167</ele>
        <time>2015-08-16T16:25:06Z</time>
      </trkpt>
      <trkpt lat="42.85429" lon="0.20949">
        <ele>2168</ele>
        <time>2015-08-16T16:25:11Z</time>
      </trkpt>
      <trkpt lat="42.85427" lon="0.20951">
        <ele>2168</ele>
        <time>2015-08-16T16:25:17Z</time>
      </trkpt>
      <trkpt lat="42.85426" lon="0.20952">
        <ele>2169</ele>
        <time>2015-08-16T16:25:23Z</time>
      </trkpt>
      <trkpt lat="42.85426" lon="0.20952">
        <ele>2169</ele>
        <time>2015-08-16T16:25:29Z</time>
      </trkpt>
      <trkpt lat="42.85426" lon="0.20953">
        <ele>2169</ele>
        <time>2015-08-16T16:25:35Z</time>
      </trkpt>
      <trkpt lat="42.85426" lon="0.20953">
        <ele>2169</ele>
        <time>2015-08-16T16:25:41Z</time>
      </trkpt>
      <trkpt lat="42.85424" lon="0.20955">
        <ele>2169</ele>
        <time>2015-08-16T16:25:54Z</time>
      </trkpt>
      <trkpt lat="42.85424" lon="0.20955">
        <ele>2168</ele>
        <time>2015-08-16T16:26:02Z</time>
      </trkpt>
      <trkpt lat="42.85423" lon="0.20955">
        <ele>2169</ele>
        <time>2015-08-16T16:26:08Z</time>
      </trkpt>
      <trkpt lat="42.85423" lon="0.20955">
        <ele>2169</ele>
        <time>2015-08-16T16:26:16Z</time>
      </trkpt>
      <trkpt lat="42.85423" lon="0.20955">
        <ele>2169</ele>
        <time>2015-08-16T16:26:22Z</time>
      </trkpt>
      <trkpt lat="42.85423" lon="0.20956">
        <ele>2168</ele>
        <time>2015-08-16T16:26:28Z</time>
      </trkpt>
      <trkpt lat="42.85423" lon="0.20956">
        <ele>2169</ele>
        <time>2015-08-16T16:26:33Z</time>
      </trkpt>
      <trkpt lat="42.85423" lon="0.20956">
        <ele>2169</ele>
        <time>2015-08-16T16:26:38Z</time>
      </trkpt>
      <trkpt lat="42.85423" lon="0.20956">
        <ele>2169</ele>
        <time>2015-08-16T16:26:43Z</time>
      </trkpt>
      <trkpt lat="42.85423" lon="0.20956">
        <ele>2169</ele>
        <time>2015-08-16T16:26:50Z</time>
      </trkpt>
      <trkpt lat="42.85423" lon="0.20957">
        <ele>2169</ele>
        <time>2015-08-16T16:26:57Z</time>
      </trkpt>
      <trkpt lat="42.85422" lon="0.20957">
        <ele>2169</ele>
        <time>2015-08-16T16:27:03Z</time>
      </trkpt>
      <trkpt lat="42.85422" lon="0.20957">
        <ele>2169</ele>
        <time>2015-08-16T16:27:09Z</time>
      </trkpt>
      <trkpt lat="42.85422" lon="0.20958">
        <ele>2168</ele>
        <time>2015-08-16T16:27:15Z</time>
      </trkpt>
      <trkpt lat="42.85421" lon="0.20958">
        <ele>2169</ele>
        <time>2015-08-16T16:27:21Z</time>
      </trkpt>
      <trkpt lat="42.85421" lon="0.20958">
        <ele>2169</ele>
        <time>2015-08-16T16:27:29Z</time>
      </trkpt>
      <trkpt lat="42.85421" lon="0.20958">
        <ele>2169</ele>
        <time>2015-08-16T16:27:38Z</time>
      </trkpt>
      <trkpt lat="42.85421" lon="0.20958">
        <ele>2168</ele>
        <time>2015-08-16T16:27:46Z</time>
      </trkpt>
      <trkpt lat="42.85421" lon="0.20957">
        <ele>2169</ele>
        <time>2015-08-16T16:27:52Z</time>
      </trkpt>
      <trkpt lat="42.85421" lon="0.20957">
        <ele>2169</ele>
        <time>2015-08-16T16:27:58Z</time>
      </trkpt>
      <trkpt lat="42.85422" lon="0.20956">
        <ele>2169</ele>
        <time>2015-08-16T16:28:03Z</time>
      </trkpt>
      <trkpt lat="42.85422" lon="0.20956">
        <ele>2169</ele>
        <time>2015-08-16T16:28:09Z</time>
      </trkpt>
      <trkpt lat="42.85422" lon="0.20956">
        <ele>2169</ele>
        <time>2015-08-16T16:28:20Z</time>
      </trkpt>
      <trkpt lat="42.85422" lon="0.20956">
        <ele>2169</ele>
        <time>2015-08-16T16:28:26Z</time>
      </trkpt>
      <trkpt lat="42.85422" lon="0.20956">
        <ele>2169</ele>
        <time>2015-08-16T16:28:31Z</time>
      </trkpt>
      <trkpt lat="42.85422" lon="0.20957">
        <ele>2169</ele>
        <time>2015-08-16T16:28:37Z</time>
      </trkpt>
      <trkpt lat="42.85423" lon="0.20957">
        <ele>2169</ele>
        <time>2015-08-16T16:28:42Z</time>
      </trkpt>
      <trkpt lat="42.85422" lon="0.20958">
        <ele>2169</ele>
        <time>2015-08-16T16:28:47Z</time>
      </trkpt>
      <trkpt lat="42.85422" lon="0.20959">
        <ele>2169</ele>
        <time>2015-08-16T16:28:54Z</time>
      </trkpt>
      <trkpt lat="42.85422" lon="0.20959">
        <ele>2170</ele>
        <time>2015-08-16T16:28:59Z</time>
      </trkpt>
      <trkpt lat="42.85422" lon="0.20959">
        <ele>2169</ele>
        <time>2015-08-16T16:29:04Z</time>
      </trkpt>
      <trkpt lat="42.85421" lon="0.20961">
        <ele>2169</ele>
        <time>2015-08-16T16:29:11Z</time>
      </trkpt>
      <trkpt lat="42.8542" lon="0.20963">
        <ele>2169</ele>
        <time>2015-08-16T16:29:17Z</time>
      </trkpt>
      <trkpt lat="42.85416" lon="0.20969">
        <ele>2170</ele>
        <time>2015-08-16T16:29:23Z</time>
      </trkpt>
      <trkpt lat="42.85414" lon="0.20975">
        <ele>2170</ele>
        <time>2015-08-16T16:29:28Z</time>
      </trkpt>
      <trkpt lat="42.85409" lon="0.20981">
        <ele>2169</ele>
        <time>2015-08-16T16:29:34Z</time>
      </trkpt>
      <trkpt lat="42.85403" lon="0.20982">
        <ele>2169</ele>
        <time>2015-08-16T16:29:40Z</time>
      </trkpt>
      <trkpt lat="42.85397" lon="0.20982">
        <ele>2169</ele>
        <time>2015-08-16T16:29:45Z</time>
      </trkpt>
      <trkpt lat="42.8539" lon="0.20982">
        <ele>2169</ele>
        <time>2015-08-16T16:29:51Z</time>
      </trkpt>
      <trkpt lat="42.85384" lon="0.20983">
        <ele>2170</ele>
        <time>2015-08-16T16:29:56Z</time>
      </trkpt>
      <trkpt lat="42.85379" lon="0.20981">
        <ele>2170</ele>
        <time>2015-08-16T16:30:01Z</time>
      </trkpt>
      <trkpt lat="42.85378" lon="0.2098">
        <ele>2170</ele>
        <time>2015-08-16T16:30:06Z</time>
      </trkpt>
      <trkpt lat="42.85374" lon="0.20979">
        <ele>2170</ele>
        <time>2015-08-16T16:30:11Z</time>
      </trkpt>
      <trkpt lat="42.85368" lon="0.20978">
        <ele>2169</ele>
        <time>2015-08-16T16:30:17Z</time>
      </trkpt>
      <trkpt lat="42.85363" lon="0.20978">
        <ele>2167</ele>
        <time>2015-08-16T16:30:22Z</time>
      </trkpt>
      <trkpt lat="42.85356" lon="0.20977">
        <ele>2166</ele>
        <time>2015-08-16T16:30:23Z</time>
      </trkpt>
      <trkpt lat="42.85344" lon="0.20976">
        <ele>2166</ele>
        <time>2015-08-16T16:30:30Z</time>
      </trkpt>
      <trkpt lat="42.8534" lon="0.20978">
        <ele>2166</ele>
        <time>2015-08-16T16:30:31Z</time>
      </trkpt>
    </trkseg>
  </trk>
</gpx>